<?xml version="1.0" encoding="UTF-8" standalone="no" ?>
<gpx xmlns="http://www.topografix.com/GPX/1/1" xmlns:xsi="http://www.w3.org/2001/XMLSchema-instance" xsi:schemaLocation="http://www.topografix.com/GPX/1/1 http://www.topografix.com/GPX/1/1/gpx.xsd" version="1.1" creator="VisuGPX - https://www.visugpx.com">
  <metadata>
    <name>Pic Carlit depuis lac Bouillouses</name>
    <desc><![CDATA[Un meilleur rando dans les Pyrenees Catalanees. ]]></desc>
  </metadata>
  <trk>
    <name><![CDATA[2 août 2018]]></name>
    <cmt><![CDATA[08:16:51]]></cmt>
    <desc><![CDATA[comment ...]]></desc>
    <trkseg>
      <trkpt lat="42.55972" lon="1.99879">
        <ele>2021</ele>
        <time>2018-08-02T06:16:51Z</time>
      </trkpt>
      <trkpt lat="42.55972" lon="1.99879">
        <ele>2021</ele>
        <time>2018-08-02T06:16:52Z</time>
      </trkpt>
      <trkpt lat="42.5597" lon="1.99875">
        <ele>2021</ele>
        <time>2018-08-02T06:17:44Z</time>
      </trkpt>
      <trkpt lat="42.55969" lon="1.9987">
        <ele>2022</ele>
        <time>2018-08-02T06:17:48Z</time>
      </trkpt>
      <trkpt lat="42.55971" lon="1.99867">
        <ele>2023</ele>
        <time>2018-08-02T06:17:51Z</time>
      </trkpt>
      <trkpt lat="42.55972" lon="1.99863">
        <ele>2023</ele>
        <time>2018-08-02T06:17:55Z</time>
      </trkpt>
      <trkpt lat="42.55972" lon="1.99855">
        <ele>2022</ele>
        <time>2018-08-02T06:18:02Z</time>
      </trkpt>
      <trkpt lat="42.55975" lon="1.99847">
        <ele>2022</ele>
        <time>2018-08-02T06:18:23Z</time>
      </trkpt>
      <trkpt lat="42.55974" lon="1.99843">
        <ele>2022</ele>
        <time>2018-08-02T06:18:25Z</time>
      </trkpt>
      <trkpt lat="42.55976" lon="1.99827">
        <ele>2023</ele>
        <time>2018-08-02T06:18:37Z</time>
      </trkpt>
      <trkpt lat="42.55978" lon="1.99823">
        <ele>2023</ele>
        <time>2018-08-02T06:18:39Z</time>
      </trkpt>
      <trkpt lat="42.55978" lon="1.9982">
        <ele>2023</ele>
        <time>2018-08-02T06:18:42Z</time>
      </trkpt>
      <trkpt lat="42.55981" lon="1.99807">
        <ele>2023</ele>
        <time>2018-08-02T06:18:52Z</time>
      </trkpt>
      <trkpt lat="42.55981" lon="1.99802">
        <ele>2023</ele>
        <time>2018-08-02T06:18:56Z</time>
      </trkpt>
      <trkpt lat="42.55979" lon="1.99793">
        <ele>2023</ele>
        <time>2018-08-02T06:19:02Z</time>
      </trkpt>
      <trkpt lat="42.55979" lon="1.99788">
        <ele>2024</ele>
        <time>2018-08-02T06:19:06Z</time>
      </trkpt>
      <trkpt lat="42.5598" lon="1.99784">
        <ele>2025</ele>
        <time>2018-08-02T06:19:09Z</time>
      </trkpt>
      <trkpt lat="42.55982" lon="1.99779">
        <ele>2025</ele>
        <time>2018-08-02T06:19:13Z</time>
      </trkpt>
      <trkpt lat="42.55984" lon="1.99776">
        <ele>2025</ele>
        <time>2018-08-02T06:19:18Z</time>
      </trkpt>
      <trkpt lat="42.55987" lon="1.99767">
        <ele>2025</ele>
        <time>2018-08-02T06:19:25Z</time>
      </trkpt>
      <trkpt lat="42.55985" lon="1.99763">
        <ele>2024</ele>
        <time>2018-08-02T06:19:28Z</time>
      </trkpt>
      <trkpt lat="42.55981" lon="1.99759">
        <ele>2028</ele>
        <time>2018-08-02T06:19:37Z</time>
      </trkpt>
      <trkpt lat="42.5598" lon="1.99755">
        <ele>2028</ele>
        <time>2018-08-02T06:19:40Z</time>
      </trkpt>
      <trkpt lat="42.5598" lon="1.9975">
        <ele>2029</ele>
        <time>2018-08-02T06:19:42Z</time>
      </trkpt>
      <trkpt lat="42.55981" lon="1.99746">
        <ele>2029</ele>
        <time>2018-08-02T06:19:45Z</time>
      </trkpt>
      <trkpt lat="42.55983" lon="1.99738">
        <ele>2031</ele>
        <time>2018-08-02T06:19:52Z</time>
      </trkpt>
      <trkpt lat="42.55981" lon="1.9973">
        <ele>2031</ele>
        <time>2018-08-02T06:20:00Z</time>
      </trkpt>
      <trkpt lat="42.55978" lon="1.99721">
        <ele>2033</ele>
        <time>2018-08-02T06:20:06Z</time>
      </trkpt>
      <trkpt lat="42.55979" lon="1.99718">
        <ele>2034</ele>
        <time>2018-08-02T06:20:10Z</time>
      </trkpt>
      <trkpt lat="42.55978" lon="1.99714">
        <ele>2033</ele>
        <time>2018-08-02T06:20:13Z</time>
      </trkpt>
      <trkpt lat="42.55969" lon="1.9969">
        <ele>2031</ele>
        <time>2018-08-02T06:20:29Z</time>
      </trkpt>
      <trkpt lat="42.55968" lon="1.99685">
        <ele>2031</ele>
        <time>2018-08-02T06:20:32Z</time>
      </trkpt>
      <trkpt lat="42.55967" lon="1.99682">
        <ele>2031</ele>
        <time>2018-08-02T06:20:35Z</time>
      </trkpt>
      <trkpt lat="42.55972" lon="1.99666">
        <ele>2030</ele>
        <time>2018-08-02T06:20:45Z</time>
      </trkpt>
      <trkpt lat="42.55974" lon="1.99664">
        <ele>2031</ele>
        <time>2018-08-02T06:20:47Z</time>
      </trkpt>
      <trkpt lat="42.55976" lon="1.99653">
        <ele>2029</ele>
        <time>2018-08-02T06:20:54Z</time>
      </trkpt>
      <trkpt lat="42.55979" lon="1.99645">
        <ele>2031</ele>
        <time>2018-08-02T06:21:00Z</time>
      </trkpt>
      <trkpt lat="42.55981" lon="1.99635">
        <ele>2031</ele>
        <time>2018-08-02T06:21:06Z</time>
      </trkpt>
      <trkpt lat="42.55987" lon="1.99622">
        <ele>2031</ele>
        <time>2018-08-02T06:21:19Z</time>
      </trkpt>
      <trkpt lat="42.55988" lon="1.99617">
        <ele>2030</ele>
        <time>2018-08-02T06:21:22Z</time>
      </trkpt>
      <trkpt lat="42.55988" lon="1.99613">
        <ele>2030</ele>
        <time>2018-08-02T06:21:25Z</time>
      </trkpt>
      <trkpt lat="42.5599" lon="1.9961">
        <ele>2031</ele>
        <time>2018-08-02T06:21:29Z</time>
      </trkpt>
      <trkpt lat="42.55992" lon="1.99608">
        <ele>2033</ele>
        <time>2018-08-02T06:21:40Z</time>
      </trkpt>
      <trkpt lat="42.55992" lon="1.99604">
        <ele>2033</ele>
        <time>2018-08-02T06:21:44Z</time>
      </trkpt>
      <trkpt lat="42.55997" lon="1.99598">
        <ele>2036</ele>
        <time>2018-08-02T06:21:53Z</time>
      </trkpt>
      <trkpt lat="42.55998" lon="1.99594">
        <ele>2037</ele>
        <time>2018-08-02T06:21:57Z</time>
      </trkpt>
      <trkpt lat="42.56001" lon="1.99591">
        <ele>2036</ele>
        <time>2018-08-02T06:22:01Z</time>
      </trkpt>
      <trkpt lat="42.56001" lon="1.99587">
        <ele>2036</ele>
        <time>2018-08-02T06:22:03Z</time>
      </trkpt>
      <trkpt lat="42.56001" lon="1.99583">
        <ele>2035</ele>
        <time>2018-08-02T06:22:04Z</time>
      </trkpt>
      <trkpt lat="42.55999" lon="1.9958">
        <ele>2033</ele>
        <time>2018-08-02T06:22:08Z</time>
      </trkpt>
      <trkpt lat="42.56001" lon="1.99578">
        <ele>2032</ele>
        <time>2018-08-02T06:22:11Z</time>
      </trkpt>
      <trkpt lat="42.56003" lon="1.99575">
        <ele>2029</ele>
        <time>2018-08-02T06:22:13Z</time>
      </trkpt>
      <trkpt lat="42.56002" lon="1.99571">
        <ele>2028</ele>
        <time>2018-08-02T06:22:16Z</time>
      </trkpt>
      <trkpt lat="42.56004" lon="1.99567">
        <ele>2031</ele>
        <time>2018-08-02T06:22:19Z</time>
      </trkpt>
      <trkpt lat="42.56004" lon="1.99557">
        <ele>2034</ele>
        <time>2018-08-02T06:22:27Z</time>
      </trkpt>
      <trkpt lat="42.56003" lon="1.99552">
        <ele>2036</ele>
        <time>2018-08-02T06:22:32Z</time>
      </trkpt>
      <trkpt lat="42.56002" lon="1.99548">
        <ele>2036</ele>
        <time>2018-08-02T06:22:34Z</time>
      </trkpt>
      <trkpt lat="42.56005" lon="1.99546">
        <ele>2037</ele>
        <time>2018-08-02T06:22:38Z</time>
      </trkpt>
      <trkpt lat="42.56007" lon="1.99534">
        <ele>2040</ele>
        <time>2018-08-02T06:22:46Z</time>
      </trkpt>
      <trkpt lat="42.56011" lon="1.99528">
        <ele>2038</ele>
        <time>2018-08-02T06:22:51Z</time>
      </trkpt>
      <trkpt lat="42.5601" lon="1.99523">
        <ele>2039</ele>
        <time>2018-08-02T06:22:56Z</time>
      </trkpt>
      <trkpt lat="42.5601" lon="1.99518">
        <ele>2039</ele>
        <time>2018-08-02T06:23:00Z</time>
      </trkpt>
      <trkpt lat="42.56014" lon="1.99512">
        <ele>2038</ele>
        <time>2018-08-02T06:23:06Z</time>
      </trkpt>
      <trkpt lat="42.56017" lon="1.99509">
        <ele>2039</ele>
        <time>2018-08-02T06:23:08Z</time>
      </trkpt>
      <trkpt lat="42.56017" lon="1.99505">
        <ele>2039</ele>
        <time>2018-08-02T06:23:11Z</time>
      </trkpt>
      <trkpt lat="42.5602" lon="1.99503">
        <ele>2039</ele>
        <time>2018-08-02T06:23:15Z</time>
      </trkpt>
      <trkpt lat="42.56021" lon="1.99498">
        <ele>2039</ele>
        <time>2018-08-02T06:23:18Z</time>
      </trkpt>
      <trkpt lat="42.56023" lon="1.99493">
        <ele>2039</ele>
        <time>2018-08-02T06:23:22Z</time>
      </trkpt>
      <trkpt lat="42.56025" lon="1.99491">
        <ele>2041</ele>
        <time>2018-08-02T06:23:25Z</time>
      </trkpt>
      <trkpt lat="42.56026" lon="1.99488">
        <ele>2041</ele>
        <time>2018-08-02T06:23:29Z</time>
      </trkpt>
      <trkpt lat="42.56027" lon="1.99478">
        <ele>2040</ele>
        <time>2018-08-02T06:23:34Z</time>
      </trkpt>
      <trkpt lat="42.56024" lon="1.99476">
        <ele>2039</ele>
        <time>2018-08-02T06:23:35Z</time>
      </trkpt>
      <trkpt lat="42.56025" lon="1.99472">
        <ele>2039</ele>
        <time>2018-08-02T06:23:40Z</time>
      </trkpt>
      <trkpt lat="42.56024" lon="1.99468">
        <ele>2040</ele>
        <time>2018-08-02T06:23:42Z</time>
      </trkpt>
      <trkpt lat="42.56022" lon="1.99466">
        <ele>2042</ele>
        <time>2018-08-02T06:23:46Z</time>
      </trkpt>
      <trkpt lat="42.56024" lon="1.99461">
        <ele>2042</ele>
        <time>2018-08-02T06:23:49Z</time>
      </trkpt>
      <trkpt lat="42.56023" lon="1.99457">
        <ele>2043</ele>
        <time>2018-08-02T06:23:53Z</time>
      </trkpt>
      <trkpt lat="42.56023" lon="1.99454">
        <ele>2043</ele>
        <time>2018-08-02T06:23:59Z</time>
      </trkpt>
      <trkpt lat="42.56022" lon="1.99449">
        <ele>2045</ele>
        <time>2018-08-02T06:24:05Z</time>
      </trkpt>
      <trkpt lat="42.56025" lon="1.99447">
        <ele>2045</ele>
        <time>2018-08-02T06:24:10Z</time>
      </trkpt>
      <trkpt lat="42.56027" lon="1.99446">
        <ele>2047</ele>
        <time>2018-08-02T06:24:23Z</time>
      </trkpt>
      <trkpt lat="42.56028" lon="1.99442">
        <ele>2048</ele>
        <time>2018-08-02T06:24:28Z</time>
      </trkpt>
      <trkpt lat="42.56027" lon="1.99437">
        <ele>2054</ele>
        <time>2018-08-02T06:24:36Z</time>
      </trkpt>
      <trkpt lat="42.56024" lon="1.99436">
        <ele>2055</ele>
        <time>2018-08-02T06:24:40Z</time>
      </trkpt>
      <trkpt lat="42.56023" lon="1.99432">
        <ele>2057</ele>
        <time>2018-08-02T06:24:44Z</time>
      </trkpt>
      <trkpt lat="42.56021" lon="1.99429">
        <ele>2059</ele>
        <time>2018-08-02T06:24:56Z</time>
      </trkpt>
      <trkpt lat="42.56019" lon="1.99428">
        <ele>2064</ele>
        <time>2018-08-02T06:25:01Z</time>
      </trkpt>
      <trkpt lat="42.56016" lon="1.99425">
        <ele>2066</ele>
        <time>2018-08-02T06:25:05Z</time>
      </trkpt>
      <trkpt lat="42.56017" lon="1.99422">
        <ele>2066</ele>
        <time>2018-08-02T06:25:08Z</time>
      </trkpt>
      <trkpt lat="42.56016" lon="1.99416">
        <ele>2063</ele>
        <time>2018-08-02T06:25:13Z</time>
      </trkpt>
      <trkpt lat="42.56015" lon="1.99413">
        <ele>2063</ele>
        <time>2018-08-02T06:25:17Z</time>
      </trkpt>
      <trkpt lat="42.56015" lon="1.9941">
        <ele>2062</ele>
        <time>2018-08-02T06:25:24Z</time>
      </trkpt>
      <trkpt lat="42.56012" lon="1.99406">
        <ele>2065</ele>
        <time>2018-08-02T06:25:33Z</time>
      </trkpt>
      <trkpt lat="42.56013" lon="1.99403">
        <ele>2065</ele>
        <time>2018-08-02T06:25:36Z</time>
      </trkpt>
      <trkpt lat="42.56011" lon="1.99394">
        <ele>2065</ele>
        <time>2018-08-02T06:25:45Z</time>
      </trkpt>
      <trkpt lat="42.56011" lon="1.9939">
        <ele>2070</ele>
        <time>2018-08-02T06:25:50Z</time>
      </trkpt>
      <trkpt lat="42.56012" lon="1.99386">
        <ele>2071</ele>
        <time>2018-08-02T06:25:54Z</time>
      </trkpt>
      <trkpt lat="42.5601" lon="1.99382">
        <ele>2072</ele>
        <time>2018-08-02T06:25:57Z</time>
      </trkpt>
      <trkpt lat="42.56009" lon="1.99379">
        <ele>2072</ele>
        <time>2018-08-02T06:26:06Z</time>
      </trkpt>
      <trkpt lat="42.56007" lon="1.99375">
        <ele>2069</ele>
        <time>2018-08-02T06:26:36Z</time>
      </trkpt>
      <trkpt lat="42.56006" lon="1.99372">
        <ele>2066</ele>
        <time>2018-08-02T06:27:15Z</time>
      </trkpt>
      <trkpt lat="42.56004" lon="1.9937">
        <ele>2066</ele>
        <time>2018-08-02T06:27:27Z</time>
      </trkpt>
      <trkpt lat="42.56004" lon="1.99364">
        <ele>2067</ele>
        <time>2018-08-02T06:27:30Z</time>
      </trkpt>
      <trkpt lat="42.56003" lon="1.9936">
        <ele>2068</ele>
        <time>2018-08-02T06:27:35Z</time>
      </trkpt>
      <trkpt lat="42.56005" lon="1.99357">
        <ele>2069</ele>
        <time>2018-08-02T06:27:41Z</time>
      </trkpt>
      <trkpt lat="42.56004" lon="1.99353">
        <ele>2070</ele>
        <time>2018-08-02T06:27:45Z</time>
      </trkpt>
      <trkpt lat="42.56003" lon="1.99348">
        <ele>2071</ele>
        <time>2018-08-02T06:27:51Z</time>
      </trkpt>
      <trkpt lat="42.55998" lon="1.99341">
        <ele>2075</ele>
        <time>2018-08-02T06:27:57Z</time>
      </trkpt>
      <trkpt lat="42.55998" lon="1.99335">
        <ele>2077</ele>
        <time>2018-08-02T06:28:01Z</time>
      </trkpt>
      <trkpt lat="42.55997" lon="1.99331">
        <ele>2076</ele>
        <time>2018-08-02T06:28:04Z</time>
      </trkpt>
      <trkpt lat="42.55996" lon="1.99327">
        <ele>2075</ele>
        <time>2018-08-02T06:28:10Z</time>
      </trkpt>
      <trkpt lat="42.55996" lon="1.99322">
        <ele>2076</ele>
        <time>2018-08-02T06:28:13Z</time>
      </trkpt>
      <trkpt lat="42.55993" lon="1.9932">
        <ele>2078</ele>
        <time>2018-08-02T06:28:21Z</time>
      </trkpt>
      <trkpt lat="42.55991" lon="1.99312">
        <ele>2079</ele>
        <time>2018-08-02T06:28:26Z</time>
      </trkpt>
      <trkpt lat="42.55992" lon="1.99308">
        <ele>2079</ele>
        <time>2018-08-02T06:28:28Z</time>
      </trkpt>
      <trkpt lat="42.55991" lon="1.99304">
        <ele>2079</ele>
        <time>2018-08-02T06:28:31Z</time>
      </trkpt>
      <trkpt lat="42.55992" lon="1.993">
        <ele>2077</ele>
        <time>2018-08-02T06:28:33Z</time>
      </trkpt>
      <trkpt lat="42.55992" lon="1.99289">
        <ele>2077</ele>
        <time>2018-08-02T06:28:43Z</time>
      </trkpt>
      <trkpt lat="42.55994" lon="1.99286">
        <ele>2077</ele>
        <time>2018-08-02T06:28:46Z</time>
      </trkpt>
      <trkpt lat="42.55991" lon="1.99285">
        <ele>2078</ele>
        <time>2018-08-02T06:29:08Z</time>
      </trkpt>
      <trkpt lat="42.55992" lon="1.9928">
        <ele>2078</ele>
        <time>2018-08-02T06:29:14Z</time>
      </trkpt>
      <trkpt lat="42.55992" lon="1.99275">
        <ele>2077</ele>
        <time>2018-08-02T06:29:17Z</time>
      </trkpt>
      <trkpt lat="42.55993" lon="1.99271">
        <ele>2078</ele>
        <time>2018-08-02T06:29:20Z</time>
      </trkpt>
      <trkpt lat="42.55991" lon="1.99267">
        <ele>2081</ele>
        <time>2018-08-02T06:29:25Z</time>
      </trkpt>
      <trkpt lat="42.55991" lon="1.99259">
        <ele>2079</ele>
        <time>2018-08-02T06:29:34Z</time>
      </trkpt>
      <trkpt lat="42.55989" lon="1.99257">
        <ele>2080</ele>
        <time>2018-08-02T06:29:39Z</time>
      </trkpt>
      <trkpt lat="42.55988" lon="1.99253">
        <ele>2080</ele>
        <time>2018-08-02T06:29:44Z</time>
      </trkpt>
      <trkpt lat="42.55988" lon="1.99245">
        <ele>2079</ele>
        <time>2018-08-02T06:29:51Z</time>
      </trkpt>
      <trkpt lat="42.55988" lon="1.99241">
        <ele>2080</ele>
        <time>2018-08-02T06:29:53Z</time>
      </trkpt>
      <trkpt lat="42.5599" lon="1.99237">
        <ele>2079</ele>
        <time>2018-08-02T06:29:56Z</time>
      </trkpt>
      <trkpt lat="42.56" lon="1.99205">
        <ele>2083</ele>
        <time>2018-08-02T06:30:26Z</time>
      </trkpt>
      <trkpt lat="42.55999" lon="1.99198">
        <ele>2082</ele>
        <time>2018-08-02T06:30:32Z</time>
      </trkpt>
      <trkpt lat="42.56003" lon="1.99192">
        <ele>2079</ele>
        <time>2018-08-02T06:30:38Z</time>
      </trkpt>
      <trkpt lat="42.56004" lon="1.99186">
        <ele>2075</ele>
        <time>2018-08-02T06:30:40Z</time>
      </trkpt>
      <trkpt lat="42.56004" lon="1.9918">
        <ele>2073</ele>
        <time>2018-08-02T06:30:44Z</time>
      </trkpt>
      <trkpt lat="42.56005" lon="1.99176">
        <ele>2072</ele>
        <time>2018-08-02T06:30:47Z</time>
      </trkpt>
      <trkpt lat="42.56004" lon="1.99172">
        <ele>2070</ele>
        <time>2018-08-02T06:30:51Z</time>
      </trkpt>
      <trkpt lat="42.56007" lon="1.99164">
        <ele>2071</ele>
        <time>2018-08-02T06:30:57Z</time>
      </trkpt>
      <trkpt lat="42.56006" lon="1.99159">
        <ele>2072</ele>
        <time>2018-08-02T06:30:59Z</time>
      </trkpt>
      <trkpt lat="42.56006" lon="1.99154">
        <ele>2074</ele>
        <time>2018-08-02T06:31:02Z</time>
      </trkpt>
      <trkpt lat="42.56007" lon="1.9915">
        <ele>2075</ele>
        <time>2018-08-02T06:31:06Z</time>
      </trkpt>
      <trkpt lat="42.56006" lon="1.99147">
        <ele>2076</ele>
        <time>2018-08-02T06:31:10Z</time>
      </trkpt>
      <trkpt lat="42.5601" lon="1.99138">
        <ele>2075</ele>
        <time>2018-08-02T06:31:15Z</time>
      </trkpt>
      <trkpt lat="42.56012" lon="1.99135">
        <ele>2074</ele>
        <time>2018-08-02T06:31:19Z</time>
      </trkpt>
      <trkpt lat="42.56013" lon="1.99123">
        <ele>2076</ele>
        <time>2018-08-02T06:31:32Z</time>
      </trkpt>
      <trkpt lat="42.56014" lon="1.9912">
        <ele>2079</ele>
        <time>2018-08-02T06:31:37Z</time>
      </trkpt>
      <trkpt lat="42.56015" lon="1.99116">
        <ele>2078</ele>
        <time>2018-08-02T06:31:41Z</time>
      </trkpt>
      <trkpt lat="42.56016" lon="1.99111">
        <ele>2077</ele>
        <time>2018-08-02T06:31:47Z</time>
      </trkpt>
      <trkpt lat="42.56016" lon="1.99107">
        <ele>2077</ele>
        <time>2018-08-02T06:31:52Z</time>
      </trkpt>
      <trkpt lat="42.56022" lon="1.99089">
        <ele>2080</ele>
        <time>2018-08-02T06:32:10Z</time>
      </trkpt>
      <trkpt lat="42.56021" lon="1.99084">
        <ele>2081</ele>
        <time>2018-08-02T06:32:12Z</time>
      </trkpt>
      <trkpt lat="42.56022" lon="1.9908">
        <ele>2082</ele>
        <time>2018-08-02T06:32:14Z</time>
      </trkpt>
      <trkpt lat="42.56022" lon="1.99077">
        <ele>2082</ele>
        <time>2018-08-02T06:32:21Z</time>
      </trkpt>
      <trkpt lat="42.56024" lon="1.99074">
        <ele>2082</ele>
        <time>2018-08-02T06:32:29Z</time>
      </trkpt>
      <trkpt lat="42.56024" lon="1.9907">
        <ele>2084</ele>
        <time>2018-08-02T06:32:32Z</time>
      </trkpt>
      <trkpt lat="42.56023" lon="1.99066">
        <ele>2087</ele>
        <time>2018-08-02T06:32:38Z</time>
      </trkpt>
      <trkpt lat="42.56026" lon="1.99063">
        <ele>2088</ele>
        <time>2018-08-02T06:32:41Z</time>
      </trkpt>
      <trkpt lat="42.5603" lon="1.99056">
        <ele>2089</ele>
        <time>2018-08-02T06:32:45Z</time>
      </trkpt>
      <trkpt lat="42.56032" lon="1.99055">
        <ele>2089</ele>
        <time>2018-08-02T06:32:48Z</time>
      </trkpt>
      <trkpt lat="42.56033" lon="1.9905">
        <ele>2088</ele>
        <time>2018-08-02T06:32:51Z</time>
      </trkpt>
      <trkpt lat="42.56036" lon="1.99048">
        <ele>2089</ele>
        <time>2018-08-02T06:32:55Z</time>
      </trkpt>
      <trkpt lat="42.56038" lon="1.99041">
        <ele>2091</ele>
        <time>2018-08-02T06:33:05Z</time>
      </trkpt>
      <trkpt lat="42.56041" lon="1.99041">
        <ele>2093</ele>
        <time>2018-08-02T06:33:09Z</time>
      </trkpt>
      <trkpt lat="42.56042" lon="1.99037">
        <ele>2093</ele>
        <time>2018-08-02T06:33:13Z</time>
      </trkpt>
      <trkpt lat="42.56044" lon="1.99034">
        <ele>2094</ele>
        <time>2018-08-02T06:33:17Z</time>
      </trkpt>
      <trkpt lat="42.56045" lon="1.9903">
        <ele>2093</ele>
        <time>2018-08-02T06:33:21Z</time>
      </trkpt>
      <trkpt lat="42.56049" lon="1.99027">
        <ele>2089</ele>
        <time>2018-08-02T06:33:27Z</time>
      </trkpt>
      <trkpt lat="42.56051" lon="1.99022">
        <ele>2088</ele>
        <time>2018-08-02T06:33:29Z</time>
      </trkpt>
      <trkpt lat="42.56054" lon="1.99017">
        <ele>2089</ele>
        <time>2018-08-02T06:33:34Z</time>
      </trkpt>
      <trkpt lat="42.56063" lon="1.99017">
        <ele>2092</ele>
        <time>2018-08-02T06:33:42Z</time>
      </trkpt>
      <trkpt lat="42.56068" lon="1.99013">
        <ele>2096</ele>
        <time>2018-08-02T06:33:46Z</time>
      </trkpt>
      <trkpt lat="42.5607" lon="1.99014">
        <ele>2096</ele>
        <time>2018-08-02T06:33:49Z</time>
      </trkpt>
      <trkpt lat="42.56071" lon="1.9901">
        <ele>2096</ele>
        <time>2018-08-02T06:33:51Z</time>
      </trkpt>
      <trkpt lat="42.56074" lon="1.99011">
        <ele>2094</ele>
        <time>2018-08-02T06:33:58Z</time>
      </trkpt>
      <trkpt lat="42.56078" lon="1.99004">
        <ele>2092</ele>
        <time>2018-08-02T06:34:05Z</time>
      </trkpt>
      <trkpt lat="42.56079" lon="1.99">
        <ele>2092</ele>
        <time>2018-08-02T06:34:08Z</time>
      </trkpt>
      <trkpt lat="42.56083" lon="1.98994">
        <ele>2093</ele>
        <time>2018-08-02T06:34:17Z</time>
      </trkpt>
      <trkpt lat="42.56084" lon="1.98989">
        <ele>2092</ele>
        <time>2018-08-02T06:34:21Z</time>
      </trkpt>
      <trkpt lat="42.56084" lon="1.98984">
        <ele>2093</ele>
        <time>2018-08-02T06:34:24Z</time>
      </trkpt>
      <trkpt lat="42.56085" lon="1.98979">
        <ele>2091</ele>
        <time>2018-08-02T06:34:27Z</time>
      </trkpt>
      <trkpt lat="42.56086" lon="1.98974">
        <ele>2089</ele>
        <time>2018-08-02T06:34:30Z</time>
      </trkpt>
      <trkpt lat="42.56087" lon="1.9897">
        <ele>2088</ele>
        <time>2018-08-02T06:34:33Z</time>
      </trkpt>
      <trkpt lat="42.5609" lon="1.98968">
        <ele>2088</ele>
        <time>2018-08-02T06:34:36Z</time>
      </trkpt>
      <trkpt lat="42.56091" lon="1.98964">
        <ele>2089</ele>
        <time>2018-08-02T06:34:39Z</time>
      </trkpt>
      <trkpt lat="42.56094" lon="1.9895">
        <ele>2087</ele>
        <time>2018-08-02T06:34:48Z</time>
      </trkpt>
      <trkpt lat="42.56101" lon="1.9894">
        <ele>2089</ele>
        <time>2018-08-02T06:35:00Z</time>
      </trkpt>
      <trkpt lat="42.56105" lon="1.9894">
        <ele>2089</ele>
        <time>2018-08-02T06:35:03Z</time>
      </trkpt>
      <trkpt lat="42.56108" lon="1.98938">
        <ele>2089</ele>
        <time>2018-08-02T06:35:07Z</time>
      </trkpt>
      <trkpt lat="42.5611" lon="1.98936">
        <ele>2089</ele>
        <time>2018-08-02T06:35:11Z</time>
      </trkpt>
      <trkpt lat="42.56112" lon="1.98932">
        <ele>2088</ele>
        <time>2018-08-02T06:35:15Z</time>
      </trkpt>
      <trkpt lat="42.56113" lon="1.98928">
        <ele>2088</ele>
        <time>2018-08-02T06:35:19Z</time>
      </trkpt>
      <trkpt lat="42.5613" lon="1.98911">
        <ele>2090</ele>
        <time>2018-08-02T06:35:39Z</time>
      </trkpt>
      <trkpt lat="42.56133" lon="1.98907">
        <ele>2090</ele>
        <time>2018-08-02T06:35:43Z</time>
      </trkpt>
      <trkpt lat="42.56136" lon="1.98906">
        <ele>2092</ele>
        <time>2018-08-02T06:35:46Z</time>
      </trkpt>
      <trkpt lat="42.56138" lon="1.98902">
        <ele>2091</ele>
        <time>2018-08-02T06:35:48Z</time>
      </trkpt>
      <trkpt lat="42.56139" lon="1.98897">
        <ele>2091</ele>
        <time>2018-08-02T06:35:50Z</time>
      </trkpt>
      <trkpt lat="42.56145" lon="1.98895">
        <ele>2089</ele>
        <time>2018-08-02T06:35:58Z</time>
      </trkpt>
      <trkpt lat="42.56147" lon="1.98886">
        <ele>2090</ele>
        <time>2018-08-02T06:36:05Z</time>
      </trkpt>
      <trkpt lat="42.56149" lon="1.98883">
        <ele>2091</ele>
        <time>2018-08-02T06:36:11Z</time>
      </trkpt>
      <trkpt lat="42.5615" lon="1.98878">
        <ele>2093</ele>
        <time>2018-08-02T06:36:16Z</time>
      </trkpt>
      <trkpt lat="42.56151" lon="1.98875">
        <ele>2093</ele>
        <time>2018-08-02T06:36:21Z</time>
      </trkpt>
      <trkpt lat="42.56153" lon="1.98871">
        <ele>2094</ele>
        <time>2018-08-02T06:36:25Z</time>
      </trkpt>
      <trkpt lat="42.56157" lon="1.98865">
        <ele>2094</ele>
        <time>2018-08-02T06:36:32Z</time>
      </trkpt>
      <trkpt lat="42.56158" lon="1.98861">
        <ele>2095</ele>
        <time>2018-08-02T06:36:35Z</time>
      </trkpt>
      <trkpt lat="42.56163" lon="1.98849">
        <ele>2102</ele>
        <time>2018-08-02T06:36:50Z</time>
      </trkpt>
      <trkpt lat="42.56168" lon="1.98845">
        <ele>2106</ele>
        <time>2018-08-02T06:37:04Z</time>
      </trkpt>
      <trkpt lat="42.5617" lon="1.98842">
        <ele>2106</ele>
        <time>2018-08-02T06:37:07Z</time>
      </trkpt>
      <trkpt lat="42.5617" lon="1.98837">
        <ele>2105</ele>
        <time>2018-08-02T06:37:17Z</time>
      </trkpt>
      <trkpt lat="42.56173" lon="1.98835">
        <ele>2105</ele>
        <time>2018-08-02T06:37:22Z</time>
      </trkpt>
      <trkpt lat="42.56176" lon="1.98836">
        <ele>2105</ele>
        <time>2018-08-02T06:37:26Z</time>
      </trkpt>
      <trkpt lat="42.56179" lon="1.98829">
        <ele>2105</ele>
        <time>2018-08-02T06:37:32Z</time>
      </trkpt>
      <trkpt lat="42.56182" lon="1.98829">
        <ele>2105</ele>
        <time>2018-08-02T06:37:42Z</time>
      </trkpt>
      <trkpt lat="42.56191" lon="1.98822">
        <ele>2109</ele>
        <time>2018-08-02T06:37:55Z</time>
      </trkpt>
      <trkpt lat="42.56194" lon="1.98822">
        <ele>2110</ele>
        <time>2018-08-02T06:38:00Z</time>
      </trkpt>
      <trkpt lat="42.56197" lon="1.98821">
        <ele>2110</ele>
        <time>2018-08-02T06:38:02Z</time>
      </trkpt>
      <trkpt lat="42.56198" lon="1.98818">
        <ele>2110</ele>
        <time>2018-08-02T06:38:04Z</time>
      </trkpt>
      <trkpt lat="42.56203" lon="1.98816">
        <ele>2108</ele>
        <time>2018-08-02T06:38:09Z</time>
      </trkpt>
      <trkpt lat="42.56204" lon="1.98813">
        <ele>2107</ele>
        <time>2018-08-02T06:38:13Z</time>
      </trkpt>
      <trkpt lat="42.56207" lon="1.9881">
        <ele>2107</ele>
        <time>2018-08-02T06:38:18Z</time>
      </trkpt>
      <trkpt lat="42.56213" lon="1.98807">
        <ele>2108</ele>
        <time>2018-08-02T06:38:24Z</time>
      </trkpt>
      <trkpt lat="42.56216" lon="1.98807">
        <ele>2109</ele>
        <time>2018-08-02T06:38:30Z</time>
      </trkpt>
      <trkpt lat="42.56218" lon="1.98804">
        <ele>2109</ele>
        <time>2018-08-02T06:38:43Z</time>
      </trkpt>
      <trkpt lat="42.56221" lon="1.98801">
        <ele>2106</ele>
        <time>2018-08-02T06:38:46Z</time>
      </trkpt>
      <trkpt lat="42.56223" lon="1.98797">
        <ele>2106</ele>
        <time>2018-08-02T06:38:49Z</time>
      </trkpt>
      <trkpt lat="42.56226" lon="1.98795">
        <ele>2109</ele>
        <time>2018-08-02T06:38:52Z</time>
      </trkpt>
      <trkpt lat="42.5623" lon="1.98789">
        <ele>2109</ele>
        <time>2018-08-02T06:39:00Z</time>
      </trkpt>
      <trkpt lat="42.56234" lon="1.98788">
        <ele>2109</ele>
        <time>2018-08-02T06:39:03Z</time>
      </trkpt>
      <trkpt lat="42.56233" lon="1.98784">
        <ele>2109</ele>
        <time>2018-08-02T06:39:06Z</time>
      </trkpt>
      <trkpt lat="42.56236" lon="1.9878">
        <ele>2109</ele>
        <time>2018-08-02T06:39:09Z</time>
      </trkpt>
      <trkpt lat="42.56237" lon="1.98777">
        <ele>2110</ele>
        <time>2018-08-02T06:39:13Z</time>
      </trkpt>
      <trkpt lat="42.5624" lon="1.98776">
        <ele>2110</ele>
        <time>2018-08-02T06:39:16Z</time>
      </trkpt>
      <trkpt lat="42.56243" lon="1.98773">
        <ele>2112</ele>
        <time>2018-08-02T06:39:19Z</time>
      </trkpt>
      <trkpt lat="42.56245" lon="1.98774">
        <ele>2114</ele>
        <time>2018-08-02T06:39:24Z</time>
      </trkpt>
      <trkpt lat="42.56248" lon="1.98776">
        <ele>2113</ele>
        <time>2018-08-02T06:39:29Z</time>
      </trkpt>
      <trkpt lat="42.5625" lon="1.98773">
        <ele>2112</ele>
        <time>2018-08-02T06:39:36Z</time>
      </trkpt>
      <trkpt lat="42.5625" lon="1.98768">
        <ele>2110</ele>
        <time>2018-08-02T06:39:38Z</time>
      </trkpt>
      <trkpt lat="42.56253" lon="1.98767">
        <ele>2110</ele>
        <time>2018-08-02T06:39:43Z</time>
      </trkpt>
      <trkpt lat="42.56254" lon="1.98763">
        <ele>2110</ele>
        <time>2018-08-02T06:39:52Z</time>
      </trkpt>
      <trkpt lat="42.56254" lon="1.98756">
        <ele>2109</ele>
        <time>2018-08-02T06:40:02Z</time>
      </trkpt>
      <trkpt lat="42.56256" lon="1.98752">
        <ele>2111</ele>
        <time>2018-08-02T06:40:08Z</time>
      </trkpt>
      <trkpt lat="42.56259" lon="1.9875">
        <ele>2111</ele>
        <time>2018-08-02T06:40:12Z</time>
      </trkpt>
      <trkpt lat="42.56259" lon="1.98746">
        <ele>2112</ele>
        <time>2018-08-02T06:40:18Z</time>
      </trkpt>
      <trkpt lat="42.5626" lon="1.98743">
        <ele>2113</ele>
        <time>2018-08-02T06:40:24Z</time>
      </trkpt>
      <trkpt lat="42.56261" lon="1.98739">
        <ele>2115</ele>
        <time>2018-08-02T06:40:30Z</time>
      </trkpt>
      <trkpt lat="42.56262" lon="1.98736">
        <ele>2115</ele>
        <time>2018-08-02T06:40:36Z</time>
      </trkpt>
      <trkpt lat="42.56266" lon="1.98735">
        <ele>2115</ele>
        <time>2018-08-02T06:40:41Z</time>
      </trkpt>
      <trkpt lat="42.56268" lon="1.98732">
        <ele>2117</ele>
        <time>2018-08-02T06:40:44Z</time>
      </trkpt>
      <trkpt lat="42.56269" lon="1.98725">
        <ele>2123</ele>
        <time>2018-08-02T06:40:51Z</time>
      </trkpt>
      <trkpt lat="42.56276" lon="1.98716">
        <ele>2126</ele>
        <time>2018-08-02T06:41:01Z</time>
      </trkpt>
      <trkpt lat="42.56279" lon="1.98712">
        <ele>2126</ele>
        <time>2018-08-02T06:41:04Z</time>
      </trkpt>
      <trkpt lat="42.56289" lon="1.98708">
        <ele>2126</ele>
        <time>2018-08-02T06:41:12Z</time>
      </trkpt>
      <trkpt lat="42.56292" lon="1.98707">
        <ele>2125</ele>
        <time>2018-08-02T06:41:15Z</time>
      </trkpt>
      <trkpt lat="42.56297" lon="1.98712">
        <ele>2120</ele>
        <time>2018-08-02T06:41:24Z</time>
      </trkpt>
      <trkpt lat="42.563" lon="1.98711">
        <ele>2119</ele>
        <time>2018-08-02T06:41:28Z</time>
      </trkpt>
      <trkpt lat="42.56303" lon="1.98713">
        <ele>2119</ele>
        <time>2018-08-02T06:41:31Z</time>
      </trkpt>
      <trkpt lat="42.56305" lon="1.98709">
        <ele>2117</ele>
        <time>2018-08-02T06:41:34Z</time>
      </trkpt>
      <trkpt lat="42.5631" lon="1.98705">
        <ele>2119</ele>
        <time>2018-08-02T06:41:40Z</time>
      </trkpt>
      <trkpt lat="42.56311" lon="1.98701">
        <ele>2120</ele>
        <time>2018-08-02T06:41:45Z</time>
      </trkpt>
      <trkpt lat="42.56314" lon="1.98697">
        <ele>2121</ele>
        <time>2018-08-02T06:41:50Z</time>
      </trkpt>
      <trkpt lat="42.56315" lon="1.98693">
        <ele>2121</ele>
        <time>2018-08-02T06:41:53Z</time>
      </trkpt>
      <trkpt lat="42.56318" lon="1.98691">
        <ele>2120</ele>
        <time>2018-08-02T06:41:58Z</time>
      </trkpt>
      <trkpt lat="42.56319" lon="1.98687">
        <ele>2122</ele>
        <time>2018-08-02T06:42:05Z</time>
      </trkpt>
      <trkpt lat="42.56321" lon="1.98685">
        <ele>2123</ele>
        <time>2018-08-02T06:42:10Z</time>
      </trkpt>
      <trkpt lat="42.56325" lon="1.98678">
        <ele>2125</ele>
        <time>2018-08-02T06:42:19Z</time>
      </trkpt>
      <trkpt lat="42.56325" lon="1.98674">
        <ele>2125</ele>
        <time>2018-08-02T06:42:29Z</time>
      </trkpt>
      <trkpt lat="42.56327" lon="1.98671">
        <ele>2128</ele>
        <time>2018-08-02T06:42:33Z</time>
      </trkpt>
      <trkpt lat="42.56328" lon="1.98664">
        <ele>2130</ele>
        <time>2018-08-02T06:42:42Z</time>
      </trkpt>
      <trkpt lat="42.56329" lon="1.9866">
        <ele>2132</ele>
        <time>2018-08-02T06:42:51Z</time>
      </trkpt>
      <trkpt lat="42.56332" lon="1.98658">
        <ele>2133</ele>
        <time>2018-08-02T06:43:03Z</time>
      </trkpt>
      <trkpt lat="42.56333" lon="1.98655">
        <ele>2133</ele>
        <time>2018-08-02T06:43:14Z</time>
      </trkpt>
      <trkpt lat="42.56332" lon="1.9865">
        <ele>2132</ele>
        <time>2018-08-02T06:43:18Z</time>
      </trkpt>
      <trkpt lat="42.56332" lon="1.98645">
        <ele>2134</ele>
        <time>2018-08-02T06:43:27Z</time>
      </trkpt>
      <trkpt lat="42.56335" lon="1.98643">
        <ele>2135</ele>
        <time>2018-08-02T06:43:31Z</time>
      </trkpt>
      <trkpt lat="42.56334" lon="1.98636">
        <ele>2135</ele>
        <time>2018-08-02T06:43:34Z</time>
      </trkpt>
      <trkpt lat="42.5634" lon="1.98631">
        <ele>2137</ele>
        <time>2018-08-02T06:43:42Z</time>
      </trkpt>
      <trkpt lat="42.56343" lon="1.98631">
        <ele>2138</ele>
        <time>2018-08-02T06:43:45Z</time>
      </trkpt>
      <trkpt lat="42.56344" lon="1.98627">
        <ele>2138</ele>
        <time>2018-08-02T06:43:51Z</time>
      </trkpt>
      <trkpt lat="42.56347" lon="1.98624">
        <ele>2138</ele>
        <time>2018-08-02T06:43:59Z</time>
      </trkpt>
      <trkpt lat="42.56353" lon="1.98622">
        <ele>2135</ele>
        <time>2018-08-02T06:44:07Z</time>
      </trkpt>
      <trkpt lat="42.56365" lon="1.98619">
        <ele>2137</ele>
        <time>2018-08-02T06:44:20Z</time>
      </trkpt>
      <trkpt lat="42.56371" lon="1.98616">
        <ele>2142</ele>
        <time>2018-08-02T06:44:26Z</time>
      </trkpt>
      <trkpt lat="42.56372" lon="1.98612">
        <ele>2144</ele>
        <time>2018-08-02T06:44:29Z</time>
      </trkpt>
      <trkpt lat="42.56371" lon="1.98607">
        <ele>2146</ele>
        <time>2018-08-02T06:44:33Z</time>
      </trkpt>
      <trkpt lat="42.56374" lon="1.98599">
        <ele>2144</ele>
        <time>2018-08-02T06:44:46Z</time>
      </trkpt>
      <trkpt lat="42.56377" lon="1.98597">
        <ele>2144</ele>
        <time>2018-08-02T06:44:49Z</time>
      </trkpt>
      <trkpt lat="42.5638" lon="1.98595">
        <ele>2143</ele>
        <time>2018-08-02T06:44:54Z</time>
      </trkpt>
      <trkpt lat="42.56383" lon="1.98593">
        <ele>2142</ele>
        <time>2018-08-02T06:44:58Z</time>
      </trkpt>
      <trkpt lat="42.56387" lon="1.98593">
        <ele>2140</ele>
        <time>2018-08-02T06:45:03Z</time>
      </trkpt>
      <trkpt lat="42.56392" lon="1.98586">
        <ele>2143</ele>
        <time>2018-08-02T06:45:11Z</time>
      </trkpt>
      <trkpt lat="42.56394" lon="1.98581">
        <ele>2143</ele>
        <time>2018-08-02T06:45:14Z</time>
      </trkpt>
      <trkpt lat="42.56405" lon="1.98574">
        <ele>2142</ele>
        <time>2018-08-02T06:45:26Z</time>
      </trkpt>
      <trkpt lat="42.56407" lon="1.98571">
        <ele>2144</ele>
        <time>2018-08-02T06:45:29Z</time>
      </trkpt>
      <trkpt lat="42.56409" lon="1.98567">
        <ele>2147</ele>
        <time>2018-08-02T06:45:32Z</time>
      </trkpt>
      <trkpt lat="42.56415" lon="1.98567">
        <ele>2150</ele>
        <time>2018-08-02T06:45:39Z</time>
      </trkpt>
      <trkpt lat="42.56424" lon="1.98558">
        <ele>2147</ele>
        <time>2018-08-02T06:45:49Z</time>
      </trkpt>
      <trkpt lat="42.56425" lon="1.98554">
        <ele>2147</ele>
        <time>2018-08-02T06:45:54Z</time>
      </trkpt>
      <trkpt lat="42.56427" lon="1.98551">
        <ele>2147</ele>
        <time>2018-08-02T06:45:56Z</time>
      </trkpt>
      <trkpt lat="42.5643" lon="1.98548">
        <ele>2146</ele>
        <time>2018-08-02T06:46:03Z</time>
      </trkpt>
      <trkpt lat="42.56428" lon="1.98544">
        <ele>2148</ele>
        <time>2018-08-02T06:46:07Z</time>
      </trkpt>
      <trkpt lat="42.5643" lon="1.98541">
        <ele>2149</ele>
        <time>2018-08-02T06:46:11Z</time>
      </trkpt>
      <trkpt lat="42.5643" lon="1.98537">
        <ele>2148</ele>
        <time>2018-08-02T06:46:14Z</time>
      </trkpt>
      <trkpt lat="42.56431" lon="1.98534">
        <ele>2148</ele>
        <time>2018-08-02T06:46:20Z</time>
      </trkpt>
      <trkpt lat="42.56431" lon="1.98524">
        <ele>2147</ele>
        <time>2018-08-02T06:46:27Z</time>
      </trkpt>
      <trkpt lat="42.56432" lon="1.98519">
        <ele>2148</ele>
        <time>2018-08-02T06:46:30Z</time>
      </trkpt>
      <trkpt lat="42.56431" lon="1.98512">
        <ele>2149</ele>
        <time>2018-08-02T06:46:39Z</time>
      </trkpt>
      <trkpt lat="42.56433" lon="1.98508">
        <ele>2150</ele>
        <time>2018-08-02T06:46:43Z</time>
      </trkpt>
      <trkpt lat="42.56433" lon="1.98505">
        <ele>2150</ele>
        <time>2018-08-02T06:46:47Z</time>
      </trkpt>
      <trkpt lat="42.56432" lon="1.98501">
        <ele>2149</ele>
        <time>2018-08-02T06:46:51Z</time>
      </trkpt>
      <trkpt lat="42.56429" lon="1.98494">
        <ele>2149</ele>
        <time>2018-08-02T06:46:59Z</time>
      </trkpt>
      <trkpt lat="42.56428" lon="1.9849">
        <ele>2152</ele>
        <time>2018-08-02T06:47:03Z</time>
      </trkpt>
      <trkpt lat="42.56423" lon="1.98485">
        <ele>2154</ele>
        <time>2018-08-02T06:47:08Z</time>
      </trkpt>
      <trkpt lat="42.56421" lon="1.98481">
        <ele>2154</ele>
        <time>2018-08-02T06:47:12Z</time>
      </trkpt>
      <trkpt lat="42.56421" lon="1.98476">
        <ele>2154</ele>
        <time>2018-08-02T06:47:15Z</time>
      </trkpt>
      <trkpt lat="42.56418" lon="1.98451">
        <ele>2156</ele>
        <time>2018-08-02T06:47:31Z</time>
      </trkpt>
      <trkpt lat="42.56418" lon="1.98442">
        <ele>2158</ele>
        <time>2018-08-02T06:47:36Z</time>
      </trkpt>
      <trkpt lat="42.5642" lon="1.98422">
        <ele>2158</ele>
        <time>2018-08-02T06:47:51Z</time>
      </trkpt>
      <trkpt lat="42.5642" lon="1.98418">
        <ele>2158</ele>
        <time>2018-08-02T06:47:56Z</time>
      </trkpt>
      <trkpt lat="42.56421" lon="1.98409">
        <ele>2157</ele>
        <time>2018-08-02T06:48:03Z</time>
      </trkpt>
      <trkpt lat="42.56419" lon="1.98404">
        <ele>2158</ele>
        <time>2018-08-02T06:48:05Z</time>
      </trkpt>
      <trkpt lat="42.5642" lon="1.984">
        <ele>2157</ele>
        <time>2018-08-02T06:48:07Z</time>
      </trkpt>
      <trkpt lat="42.56419" lon="1.98371">
        <ele>2159</ele>
        <time>2018-08-02T06:48:23Z</time>
      </trkpt>
      <trkpt lat="42.56419" lon="1.98367">
        <ele>2159</ele>
        <time>2018-08-02T06:48:27Z</time>
      </trkpt>
      <trkpt lat="42.56419" lon="1.98363">
        <ele>2159</ele>
        <time>2018-08-02T06:48:30Z</time>
      </trkpt>
      <trkpt lat="42.56423" lon="1.98355">
        <ele>2159</ele>
        <time>2018-08-02T06:48:38Z</time>
      </trkpt>
      <trkpt lat="42.56425" lon="1.9835">
        <ele>2158</ele>
        <time>2018-08-02T06:48:41Z</time>
      </trkpt>
      <trkpt lat="42.56425" lon="1.98347">
        <ele>2159</ele>
        <time>2018-08-02T06:48:43Z</time>
      </trkpt>
      <trkpt lat="42.56428" lon="1.98343">
        <ele>2159</ele>
        <time>2018-08-02T06:48:47Z</time>
      </trkpt>
      <trkpt lat="42.5643" lon="1.98342">
        <ele>2158</ele>
        <time>2018-08-02T06:48:49Z</time>
      </trkpt>
      <trkpt lat="42.5643" lon="1.98338">
        <ele>2158</ele>
        <time>2018-08-02T06:48:51Z</time>
      </trkpt>
      <trkpt lat="42.56431" lon="1.98334">
        <ele>2159</ele>
        <time>2018-08-02T06:48:53Z</time>
      </trkpt>
      <trkpt lat="42.56432" lon="1.98331">
        <ele>2160</ele>
        <time>2018-08-02T06:48:55Z</time>
      </trkpt>
      <trkpt lat="42.56435" lon="1.98327">
        <ele>2160</ele>
        <time>2018-08-02T06:48:57Z</time>
      </trkpt>
      <trkpt lat="42.56436" lon="1.98323">
        <ele>2159</ele>
        <time>2018-08-02T06:49:00Z</time>
      </trkpt>
      <trkpt lat="42.56439" lon="1.98322">
        <ele>2158</ele>
        <time>2018-08-02T06:49:02Z</time>
      </trkpt>
      <trkpt lat="42.56444" lon="1.98316">
        <ele>2157</ele>
        <time>2018-08-02T06:49:09Z</time>
      </trkpt>
      <trkpt lat="42.56445" lon="1.98311">
        <ele>2157</ele>
        <time>2018-08-02T06:49:13Z</time>
      </trkpt>
      <trkpt lat="42.56445" lon="1.98308">
        <ele>2156</ele>
        <time>2018-08-02T06:49:17Z</time>
      </trkpt>
      <trkpt lat="42.56447" lon="1.98304">
        <ele>2156</ele>
        <time>2018-08-02T06:49:21Z</time>
      </trkpt>
      <trkpt lat="42.56448" lon="1.98301">
        <ele>2154</ele>
        <time>2018-08-02T06:49:23Z</time>
      </trkpt>
      <trkpt lat="42.56449" lon="1.98296">
        <ele>2152</ele>
        <time>2018-08-02T06:49:27Z</time>
      </trkpt>
      <trkpt lat="42.5645" lon="1.98293">
        <ele>2152</ele>
        <time>2018-08-02T06:49:29Z</time>
      </trkpt>
      <trkpt lat="42.56453" lon="1.98292">
        <ele>2152</ele>
        <time>2018-08-02T06:49:31Z</time>
      </trkpt>
      <trkpt lat="42.56455" lon="1.98288">
        <ele>2153</ele>
        <time>2018-08-02T06:49:34Z</time>
      </trkpt>
      <trkpt lat="42.56462" lon="1.98286">
        <ele>2156</ele>
        <time>2018-08-02T06:49:41Z</time>
      </trkpt>
      <trkpt lat="42.56467" lon="1.98285">
        <ele>2159</ele>
        <time>2018-08-02T06:49:46Z</time>
      </trkpt>
      <trkpt lat="42.56468" lon="1.98282">
        <ele>2160</ele>
        <time>2018-08-02T06:49:50Z</time>
      </trkpt>
      <trkpt lat="42.56473" lon="1.98275">
        <ele>2158</ele>
        <time>2018-08-02T06:49:58Z</time>
      </trkpt>
      <trkpt lat="42.56475" lon="1.98272">
        <ele>2158</ele>
        <time>2018-08-02T06:50:02Z</time>
      </trkpt>
      <trkpt lat="42.56476" lon="1.98268">
        <ele>2157</ele>
        <time>2018-08-02T06:50:06Z</time>
      </trkpt>
      <trkpt lat="42.56481" lon="1.98266">
        <ele>2156</ele>
        <time>2018-08-02T06:50:09Z</time>
      </trkpt>
      <trkpt lat="42.56483" lon="1.98264">
        <ele>2157</ele>
        <time>2018-08-02T06:50:13Z</time>
      </trkpt>
      <trkpt lat="42.56485" lon="1.9826">
        <ele>2156</ele>
        <time>2018-08-02T06:50:17Z</time>
      </trkpt>
      <trkpt lat="42.56486" lon="1.98257">
        <ele>2157</ele>
        <time>2018-08-02T06:50:19Z</time>
      </trkpt>
      <trkpt lat="42.56491" lon="1.98251">
        <ele>2159</ele>
        <time>2018-08-02T06:50:26Z</time>
      </trkpt>
      <trkpt lat="42.56494" lon="1.98249">
        <ele>2159</ele>
        <time>2018-08-02T06:50:32Z</time>
      </trkpt>
      <trkpt lat="42.56495" lon="1.98245">
        <ele>2159</ele>
        <time>2018-08-02T06:50:37Z</time>
      </trkpt>
      <trkpt lat="42.56497" lon="1.98242">
        <ele>2159</ele>
        <time>2018-08-02T06:50:43Z</time>
      </trkpt>
      <trkpt lat="42.56503" lon="1.98241">
        <ele>2159</ele>
        <time>2018-08-02T06:50:55Z</time>
      </trkpt>
      <trkpt lat="42.56506" lon="1.98238">
        <ele>2160</ele>
        <time>2018-08-02T06:50:59Z</time>
      </trkpt>
      <trkpt lat="42.56511" lon="1.98234">
        <ele>2163</ele>
        <time>2018-08-02T06:51:08Z</time>
      </trkpt>
      <trkpt lat="42.56512" lon="1.9823">
        <ele>2164</ele>
        <time>2018-08-02T06:51:12Z</time>
      </trkpt>
      <trkpt lat="42.5652" lon="1.98223">
        <ele>2165</ele>
        <time>2018-08-02T06:51:18Z</time>
      </trkpt>
      <trkpt lat="42.56522" lon="1.98221">
        <ele>2166</ele>
        <time>2018-08-02T06:51:22Z</time>
      </trkpt>
      <trkpt lat="42.56527" lon="1.98217">
        <ele>2168</ele>
        <time>2018-08-02T06:51:40Z</time>
      </trkpt>
      <trkpt lat="42.56527" lon="1.98214">
        <ele>2167</ele>
        <time>2018-08-02T06:51:44Z</time>
      </trkpt>
      <trkpt lat="42.56529" lon="1.98211">
        <ele>2164</ele>
        <time>2018-08-02T06:51:48Z</time>
      </trkpt>
      <trkpt lat="42.56532" lon="1.98208">
        <ele>2164</ele>
        <time>2018-08-02T06:51:51Z</time>
      </trkpt>
      <trkpt lat="42.56533" lon="1.98204">
        <ele>2164</ele>
        <time>2018-08-02T06:51:53Z</time>
      </trkpt>
      <trkpt lat="42.56539" lon="1.982">
        <ele>2166</ele>
        <time>2018-08-02T06:52:00Z</time>
      </trkpt>
      <trkpt lat="42.5654" lon="1.98196">
        <ele>2167</ele>
        <time>2018-08-02T06:52:06Z</time>
      </trkpt>
      <trkpt lat="42.56539" lon="1.98192">
        <ele>2168</ele>
        <time>2018-08-02T06:52:11Z</time>
      </trkpt>
      <trkpt lat="42.5654" lon="1.98181">
        <ele>2167</ele>
        <time>2018-08-02T06:52:21Z</time>
      </trkpt>
      <trkpt lat="42.56533" lon="1.9817">
        <ele>2165</ele>
        <time>2018-08-02T06:52:33Z</time>
      </trkpt>
      <trkpt lat="42.56532" lon="1.98166">
        <ele>2166</ele>
        <time>2018-08-02T06:52:38Z</time>
      </trkpt>
      <trkpt lat="42.5653" lon="1.98161">
        <ele>2166</ele>
        <time>2018-08-02T06:52:43Z</time>
      </trkpt>
      <trkpt lat="42.56526" lon="1.98159">
        <ele>2165</ele>
        <time>2018-08-02T06:52:47Z</time>
      </trkpt>
      <trkpt lat="42.56524" lon="1.98155">
        <ele>2165</ele>
        <time>2018-08-02T06:52:51Z</time>
      </trkpt>
      <trkpt lat="42.56523" lon="1.98151">
        <ele>2167</ele>
        <time>2018-08-02T06:52:54Z</time>
      </trkpt>
      <trkpt lat="42.56523" lon="1.98147">
        <ele>2167</ele>
        <time>2018-08-02T06:52:56Z</time>
      </trkpt>
      <trkpt lat="42.56524" lon="1.98138">
        <ele>2166</ele>
        <time>2018-08-02T06:53:02Z</time>
      </trkpt>
      <trkpt lat="42.56527" lon="1.98133">
        <ele>2168</ele>
        <time>2018-08-02T06:53:07Z</time>
      </trkpt>
      <trkpt lat="42.56526" lon="1.9813">
        <ele>2168</ele>
        <time>2018-08-02T06:53:10Z</time>
      </trkpt>
      <trkpt lat="42.56525" lon="1.98125">
        <ele>2170</ele>
        <time>2018-08-02T06:53:14Z</time>
      </trkpt>
      <trkpt lat="42.56526" lon="1.98116">
        <ele>2177</ele>
        <time>2018-08-02T06:53:45Z</time>
      </trkpt>
      <trkpt lat="42.56526" lon="1.98111">
        <ele>2178</ele>
        <time>2018-08-02T06:53:55Z</time>
      </trkpt>
      <trkpt lat="42.56523" lon="1.9811">
        <ele>2177</ele>
        <time>2018-08-02T06:54:08Z</time>
      </trkpt>
      <trkpt lat="42.56518" lon="1.9811">
        <ele>2176</ele>
        <time>2018-08-02T06:54:12Z</time>
      </trkpt>
      <trkpt lat="42.56514" lon="1.98106">
        <ele>2176</ele>
        <time>2018-08-02T06:54:17Z</time>
      </trkpt>
      <trkpt lat="42.5651" lon="1.981">
        <ele>2171</ele>
        <time>2018-08-02T06:54:24Z</time>
      </trkpt>
      <trkpt lat="42.56508" lon="1.98096">
        <ele>2170</ele>
        <time>2018-08-02T06:54:27Z</time>
      </trkpt>
      <trkpt lat="42.56508" lon="1.98092">
        <ele>2170</ele>
        <time>2018-08-02T06:54:32Z</time>
      </trkpt>
      <trkpt lat="42.5651" lon="1.9809">
        <ele>2171</ele>
        <time>2018-08-02T06:54:37Z</time>
      </trkpt>
      <trkpt lat="42.56508" lon="1.98087">
        <ele>2171</ele>
        <time>2018-08-02T06:54:43Z</time>
      </trkpt>
      <trkpt lat="42.56507" lon="1.98083">
        <ele>2171</ele>
        <time>2018-08-02T06:54:46Z</time>
      </trkpt>
      <trkpt lat="42.56505" lon="1.98074">
        <ele>2171</ele>
        <time>2018-08-02T06:54:50Z</time>
      </trkpt>
      <trkpt lat="42.56502" lon="1.98073">
        <ele>2171</ele>
        <time>2018-08-02T06:54:53Z</time>
      </trkpt>
      <trkpt lat="42.56499" lon="1.9807">
        <ele>2171</ele>
        <time>2018-08-02T06:54:56Z</time>
      </trkpt>
      <trkpt lat="42.56498" lon="1.98066">
        <ele>2171</ele>
        <time>2018-08-02T06:54:58Z</time>
      </trkpt>
      <trkpt lat="42.56497" lon="1.98062">
        <ele>2173</ele>
        <time>2018-08-02T06:55:01Z</time>
      </trkpt>
      <trkpt lat="42.56502" lon="1.98042">
        <ele>2173</ele>
        <time>2018-08-02T06:55:12Z</time>
      </trkpt>
      <trkpt lat="42.56501" lon="1.98036">
        <ele>2173</ele>
        <time>2018-08-02T06:55:14Z</time>
      </trkpt>
      <trkpt lat="42.56498" lon="1.9803">
        <ele>2173</ele>
        <time>2018-08-02T06:55:21Z</time>
      </trkpt>
      <trkpt lat="42.56495" lon="1.98029">
        <ele>2173</ele>
        <time>2018-08-02T06:55:23Z</time>
      </trkpt>
      <trkpt lat="42.56494" lon="1.98026">
        <ele>2173</ele>
        <time>2018-08-02T06:55:27Z</time>
      </trkpt>
      <trkpt lat="42.56492" lon="1.98022">
        <ele>2172</ele>
        <time>2018-08-02T06:55:30Z</time>
      </trkpt>
      <trkpt lat="42.56489" lon="1.98014">
        <ele>2173</ele>
        <time>2018-08-02T06:55:37Z</time>
      </trkpt>
      <trkpt lat="42.56487" lon="1.98012">
        <ele>2173</ele>
        <time>2018-08-02T06:55:39Z</time>
      </trkpt>
      <trkpt lat="42.56488" lon="1.98007">
        <ele>2173</ele>
        <time>2018-08-02T06:55:42Z</time>
      </trkpt>
      <trkpt lat="42.56482" lon="1.97974">
        <ele>2175</ele>
        <time>2018-08-02T06:56:04Z</time>
      </trkpt>
      <trkpt lat="42.56481" lon="1.9797">
        <ele>2175</ele>
        <time>2018-08-02T06:56:07Z</time>
      </trkpt>
      <trkpt lat="42.56479" lon="1.97962">
        <ele>2174</ele>
        <time>2018-08-02T06:56:13Z</time>
      </trkpt>
      <trkpt lat="42.5648" lon="1.97958">
        <ele>2173</ele>
        <time>2018-08-02T06:56:18Z</time>
      </trkpt>
      <trkpt lat="42.56479" lon="1.97953">
        <ele>2173</ele>
        <time>2018-08-02T06:56:20Z</time>
      </trkpt>
      <trkpt lat="42.56478" lon="1.97949">
        <ele>2174</ele>
        <time>2018-08-02T06:56:24Z</time>
      </trkpt>
      <trkpt lat="42.56475" lon="1.97948">
        <ele>2173</ele>
        <time>2018-08-02T06:56:27Z</time>
      </trkpt>
      <trkpt lat="42.56473" lon="1.97945">
        <ele>2173</ele>
        <time>2018-08-02T06:56:29Z</time>
      </trkpt>
      <trkpt lat="42.56475" lon="1.97942">
        <ele>2173</ele>
        <time>2018-08-02T06:56:31Z</time>
      </trkpt>
      <trkpt lat="42.56477" lon="1.97939">
        <ele>2173</ele>
        <time>2018-08-02T06:56:35Z</time>
      </trkpt>
      <trkpt lat="42.56474" lon="1.97938">
        <ele>2174</ele>
        <time>2018-08-02T06:56:38Z</time>
      </trkpt>
      <trkpt lat="42.56466" lon="1.97933">
        <ele>2176</ele>
        <time>2018-08-02T06:56:45Z</time>
      </trkpt>
      <trkpt lat="42.56463" lon="1.97932">
        <ele>2175</ele>
        <time>2018-08-02T06:56:46Z</time>
      </trkpt>
      <trkpt lat="42.56459" lon="1.97931">
        <ele>2175</ele>
        <time>2018-08-02T06:56:49Z</time>
      </trkpt>
      <trkpt lat="42.56457" lon="1.97926">
        <ele>2176</ele>
        <time>2018-08-02T06:56:52Z</time>
      </trkpt>
      <trkpt lat="42.56455" lon="1.97917">
        <ele>2176</ele>
        <time>2018-08-02T06:57:01Z</time>
      </trkpt>
      <trkpt lat="42.56459" lon="1.97916">
        <ele>2176</ele>
        <time>2018-08-02T06:57:04Z</time>
      </trkpt>
      <trkpt lat="42.56461" lon="1.97912">
        <ele>2175</ele>
        <time>2018-08-02T06:57:06Z</time>
      </trkpt>
      <trkpt lat="42.56461" lon="1.97908">
        <ele>2175</ele>
        <time>2018-08-02T06:57:09Z</time>
      </trkpt>
      <trkpt lat="42.5646" lon="1.97904">
        <ele>2174</ele>
        <time>2018-08-02T06:57:11Z</time>
      </trkpt>
      <trkpt lat="42.56462" lon="1.979">
        <ele>2173</ele>
        <time>2018-08-02T06:57:13Z</time>
      </trkpt>
      <trkpt lat="42.56462" lon="1.97895">
        <ele>2173</ele>
        <time>2018-08-02T06:57:15Z</time>
      </trkpt>
      <trkpt lat="42.5646" lon="1.97892">
        <ele>2173</ele>
        <time>2018-08-02T06:57:18Z</time>
      </trkpt>
      <trkpt lat="42.56461" lon="1.97883">
        <ele>2173</ele>
        <time>2018-08-02T06:57:22Z</time>
      </trkpt>
      <trkpt lat="42.56464" lon="1.97881">
        <ele>2172</ele>
        <time>2018-08-02T06:57:26Z</time>
      </trkpt>
      <trkpt lat="42.56463" lon="1.97877">
        <ele>2169</ele>
        <time>2018-08-02T06:57:32Z</time>
      </trkpt>
      <trkpt lat="42.56464" lon="1.97872">
        <ele>2169</ele>
        <time>2018-08-02T06:57:35Z</time>
      </trkpt>
      <trkpt lat="42.56466" lon="1.97872">
        <ele>2173</ele>
        <time>2018-08-02T06:57:45Z</time>
      </trkpt>
      <trkpt lat="42.56469" lon="1.97869">
        <ele>2171</ele>
        <time>2018-08-02T06:57:59Z</time>
      </trkpt>
      <trkpt lat="42.56466" lon="1.97864">
        <ele>2169</ele>
        <time>2018-08-02T06:58:14Z</time>
      </trkpt>
      <trkpt lat="42.56462" lon="1.9786">
        <ele>2169</ele>
        <time>2018-08-02T06:58:21Z</time>
      </trkpt>
      <trkpt lat="42.56461" lon="1.97849">
        <ele>2172</ele>
        <time>2018-08-02T06:58:31Z</time>
      </trkpt>
      <trkpt lat="42.56459" lon="1.97845">
        <ele>2172</ele>
        <time>2018-08-02T06:58:35Z</time>
      </trkpt>
      <trkpt lat="42.5646" lon="1.9784">
        <ele>2172</ele>
        <time>2018-08-02T06:58:37Z</time>
      </trkpt>
      <trkpt lat="42.56461" lon="1.9783">
        <ele>2169</ele>
        <time>2018-08-02T06:58:42Z</time>
      </trkpt>
      <trkpt lat="42.56461" lon="1.97827">
        <ele>2168</ele>
        <time>2018-08-02T06:58:44Z</time>
      </trkpt>
      <trkpt lat="42.5646" lon="1.97822">
        <ele>2168</ele>
        <time>2018-08-02T06:58:46Z</time>
      </trkpt>
      <trkpt lat="42.5646" lon="1.97817">
        <ele>2169</ele>
        <time>2018-08-02T06:58:50Z</time>
      </trkpt>
      <trkpt lat="42.56459" lon="1.97813">
        <ele>2169</ele>
        <time>2018-08-02T06:58:52Z</time>
      </trkpt>
      <trkpt lat="42.56458" lon="1.97809">
        <ele>2169</ele>
        <time>2018-08-02T06:58:56Z</time>
      </trkpt>
      <trkpt lat="42.56455" lon="1.97803">
        <ele>2169</ele>
        <time>2018-08-02T06:59:04Z</time>
      </trkpt>
      <trkpt lat="42.56453" lon="1.97798">
        <ele>2169</ele>
        <time>2018-08-02T06:59:08Z</time>
      </trkpt>
      <trkpt lat="42.56451" lon="1.97794">
        <ele>2169</ele>
        <time>2018-08-02T06:59:12Z</time>
      </trkpt>
      <trkpt lat="42.5645" lon="1.97789">
        <ele>2168</ele>
        <time>2018-08-02T06:59:15Z</time>
      </trkpt>
      <trkpt lat="42.56456" lon="1.97773">
        <ele>2167</ele>
        <time>2018-08-02T06:59:26Z</time>
      </trkpt>
      <trkpt lat="42.56454" lon="1.97765">
        <ele>2168</ele>
        <time>2018-08-02T06:59:31Z</time>
      </trkpt>
      <trkpt lat="42.56451" lon="1.97762">
        <ele>2168</ele>
        <time>2018-08-02T06:59:35Z</time>
      </trkpt>
      <trkpt lat="42.56449" lon="1.97759">
        <ele>2168</ele>
        <time>2018-08-02T06:59:40Z</time>
      </trkpt>
      <trkpt lat="42.56449" lon="1.97756">
        <ele>2168</ele>
        <time>2018-08-02T06:59:44Z</time>
      </trkpt>
      <trkpt lat="42.5645" lon="1.97751">
        <ele>2167</ele>
        <time>2018-08-02T06:59:49Z</time>
      </trkpt>
      <trkpt lat="42.56447" lon="1.97743">
        <ele>2168</ele>
        <time>2018-08-02T06:59:54Z</time>
      </trkpt>
      <trkpt lat="42.56446" lon="1.97736">
        <ele>2171</ele>
        <time>2018-08-02T07:00:01Z</time>
      </trkpt>
      <trkpt lat="42.56444" lon="1.97731">
        <ele>2171</ele>
        <time>2018-08-02T07:00:05Z</time>
      </trkpt>
      <trkpt lat="42.56441" lon="1.97728">
        <ele>2172</ele>
        <time>2018-08-02T07:00:07Z</time>
      </trkpt>
      <trkpt lat="42.5644" lon="1.97722">
        <ele>2173</ele>
        <time>2018-08-02T07:00:10Z</time>
      </trkpt>
      <trkpt lat="42.5644" lon="1.97718">
        <ele>2174</ele>
        <time>2018-08-02T07:00:14Z</time>
      </trkpt>
      <trkpt lat="42.56441" lon="1.97714">
        <ele>2175</ele>
        <time>2018-08-02T07:00:16Z</time>
      </trkpt>
      <trkpt lat="42.56441" lon="1.9771">
        <ele>2175</ele>
        <time>2018-08-02T07:00:20Z</time>
      </trkpt>
      <trkpt lat="42.56449" lon="1.977">
        <ele>2174</ele>
        <time>2018-08-02T07:00:32Z</time>
      </trkpt>
      <trkpt lat="42.5645" lon="1.97696">
        <ele>2173</ele>
        <time>2018-08-02T07:00:35Z</time>
      </trkpt>
      <trkpt lat="42.56449" lon="1.97691">
        <ele>2172</ele>
        <time>2018-08-02T07:00:38Z</time>
      </trkpt>
      <trkpt lat="42.56449" lon="1.97688">
        <ele>2172</ele>
        <time>2018-08-02T07:00:40Z</time>
      </trkpt>
      <trkpt lat="42.56453" lon="1.9768">
        <ele>2172</ele>
        <time>2018-08-02T07:00:46Z</time>
      </trkpt>
      <trkpt lat="42.56453" lon="1.97676">
        <ele>2172</ele>
        <time>2018-08-02T07:00:50Z</time>
      </trkpt>
      <trkpt lat="42.56458" lon="1.97665">
        <ele>2171</ele>
        <time>2018-08-02T07:01:01Z</time>
      </trkpt>
      <trkpt lat="42.56458" lon="1.97661">
        <ele>2171</ele>
        <time>2018-08-02T07:01:04Z</time>
      </trkpt>
      <trkpt lat="42.56459" lon="1.97657">
        <ele>2169</ele>
        <time>2018-08-02T07:01:08Z</time>
      </trkpt>
      <trkpt lat="42.56459" lon="1.97653">
        <ele>2169</ele>
        <time>2018-08-02T07:01:11Z</time>
      </trkpt>
      <trkpt lat="42.56467" lon="1.97634">
        <ele>2169</ele>
        <time>2018-08-02T07:01:28Z</time>
      </trkpt>
      <trkpt lat="42.56473" lon="1.97634">
        <ele>2169</ele>
        <time>2018-08-02T07:01:36Z</time>
      </trkpt>
      <trkpt lat="42.56475" lon="1.97631">
        <ele>2169</ele>
        <time>2018-08-02T07:01:39Z</time>
      </trkpt>
      <trkpt lat="42.56476" lon="1.97627">
        <ele>2169</ele>
        <time>2018-08-02T07:01:43Z</time>
      </trkpt>
      <trkpt lat="42.56475" lon="1.97622">
        <ele>2167</ele>
        <time>2018-08-02T07:01:48Z</time>
      </trkpt>
      <trkpt lat="42.56476" lon="1.97618">
        <ele>2167</ele>
        <time>2018-08-02T07:01:50Z</time>
      </trkpt>
      <trkpt lat="42.56481" lon="1.97612">
        <ele>2166</ele>
        <time>2018-08-02T07:01:57Z</time>
      </trkpt>
      <trkpt lat="42.56481" lon="1.97607">
        <ele>2165</ele>
        <time>2018-08-02T07:01:59Z</time>
      </trkpt>
      <trkpt lat="42.56483" lon="1.97604">
        <ele>2165</ele>
        <time>2018-08-02T07:02:03Z</time>
      </trkpt>
      <trkpt lat="42.56482" lon="1.97599">
        <ele>2167</ele>
        <time>2018-08-02T07:02:05Z</time>
      </trkpt>
      <trkpt lat="42.56482" lon="1.97596">
        <ele>2167</ele>
        <time>2018-08-02T07:02:08Z</time>
      </trkpt>
      <trkpt lat="42.56484" lon="1.97587">
        <ele>2167</ele>
        <time>2018-08-02T07:02:12Z</time>
      </trkpt>
      <trkpt lat="42.56483" lon="1.97583">
        <ele>2166</ele>
        <time>2018-08-02T07:02:16Z</time>
      </trkpt>
      <trkpt lat="42.56484" lon="1.97579">
        <ele>2167</ele>
        <time>2018-08-02T07:02:19Z</time>
      </trkpt>
      <trkpt lat="42.56485" lon="1.97576">
        <ele>2169</ele>
        <time>2018-08-02T07:02:23Z</time>
      </trkpt>
      <trkpt lat="42.56488" lon="1.97575">
        <ele>2170</ele>
        <time>2018-08-02T07:02:26Z</time>
      </trkpt>
      <trkpt lat="42.56498" lon="1.97567">
        <ele>2171</ele>
        <time>2018-08-02T07:02:37Z</time>
      </trkpt>
      <trkpt lat="42.56501" lon="1.97565">
        <ele>2169</ele>
        <time>2018-08-02T07:02:43Z</time>
      </trkpt>
      <trkpt lat="42.56502" lon="1.97561">
        <ele>2168</ele>
        <time>2018-08-02T07:02:47Z</time>
      </trkpt>
      <trkpt lat="42.56505" lon="1.9756">
        <ele>2169</ele>
        <time>2018-08-02T07:02:50Z</time>
      </trkpt>
      <trkpt lat="42.56508" lon="1.97557">
        <ele>2168</ele>
        <time>2018-08-02T07:02:52Z</time>
      </trkpt>
      <trkpt lat="42.5651" lon="1.97554">
        <ele>2169</ele>
        <time>2018-08-02T07:02:56Z</time>
      </trkpt>
      <trkpt lat="42.56512" lon="1.97551">
        <ele>2169</ele>
        <time>2018-08-02T07:03:00Z</time>
      </trkpt>
      <trkpt lat="42.56512" lon="1.97547">
        <ele>2169</ele>
        <time>2018-08-02T07:03:03Z</time>
      </trkpt>
      <trkpt lat="42.56515" lon="1.97545">
        <ele>2169</ele>
        <time>2018-08-02T07:03:07Z</time>
      </trkpt>
      <trkpt lat="42.56515" lon="1.97541">
        <ele>2171</ele>
        <time>2018-08-02T07:03:11Z</time>
      </trkpt>
      <trkpt lat="42.56518" lon="1.97538">
        <ele>2172</ele>
        <time>2018-08-02T07:03:15Z</time>
      </trkpt>
      <trkpt lat="42.56518" lon="1.97532">
        <ele>2172</ele>
        <time>2018-08-02T07:03:17Z</time>
      </trkpt>
      <trkpt lat="42.56522" lon="1.97523">
        <ele>2174</ele>
        <time>2018-08-02T07:03:24Z</time>
      </trkpt>
      <trkpt lat="42.56526" lon="1.97521">
        <ele>2173</ele>
        <time>2018-08-02T07:03:28Z</time>
      </trkpt>
      <trkpt lat="42.5653" lon="1.97513">
        <ele>2174</ele>
        <time>2018-08-02T07:03:35Z</time>
      </trkpt>
      <trkpt lat="42.56528" lon="1.97494">
        <ele>2175</ele>
        <time>2018-08-02T07:03:49Z</time>
      </trkpt>
      <trkpt lat="42.56531" lon="1.97488">
        <ele>2173</ele>
        <time>2018-08-02T07:03:58Z</time>
      </trkpt>
      <trkpt lat="42.5653" lon="1.97483">
        <ele>2173</ele>
        <time>2018-08-02T07:04:03Z</time>
      </trkpt>
      <trkpt lat="42.56528" lon="1.97481">
        <ele>2173</ele>
        <time>2018-08-02T07:04:06Z</time>
      </trkpt>
      <trkpt lat="42.56526" lon="1.97476">
        <ele>2174</ele>
        <time>2018-08-02T07:04:09Z</time>
      </trkpt>
      <trkpt lat="42.56524" lon="1.97475">
        <ele>2175</ele>
        <time>2018-08-02T07:04:12Z</time>
      </trkpt>
      <trkpt lat="42.56519" lon="1.97474">
        <ele>2176</ele>
        <time>2018-08-02T07:04:15Z</time>
      </trkpt>
      <trkpt lat="42.56516" lon="1.97471">
        <ele>2175</ele>
        <time>2018-08-02T07:04:20Z</time>
      </trkpt>
      <trkpt lat="42.56513" lon="1.97468">
        <ele>2176</ele>
        <time>2018-08-02T07:04:25Z</time>
      </trkpt>
      <trkpt lat="42.5651" lon="1.97465">
        <ele>2179</ele>
        <time>2018-08-02T07:04:32Z</time>
      </trkpt>
      <trkpt lat="42.5651" lon="1.97461">
        <ele>2180</ele>
        <time>2018-08-02T07:04:38Z</time>
      </trkpt>
      <trkpt lat="42.56508" lon="1.97457">
        <ele>2181</ele>
        <time>2018-08-02T07:04:44Z</time>
      </trkpt>
      <trkpt lat="42.56508" lon="1.97448">
        <ele>2182</ele>
        <time>2018-08-02T07:04:51Z</time>
      </trkpt>
      <trkpt lat="42.56509" lon="1.97444">
        <ele>2183</ele>
        <time>2018-08-02T07:04:55Z</time>
      </trkpt>
      <trkpt lat="42.56512" lon="1.97441">
        <ele>2182</ele>
        <time>2018-08-02T07:04:58Z</time>
      </trkpt>
      <trkpt lat="42.56512" lon="1.97437">
        <ele>2181</ele>
        <time>2018-08-02T07:05:02Z</time>
      </trkpt>
      <trkpt lat="42.56512" lon="1.97433">
        <ele>2183</ele>
        <time>2018-08-02T07:05:04Z</time>
      </trkpt>
      <trkpt lat="42.56518" lon="1.97435">
        <ele>2184</ele>
        <time>2018-08-02T07:05:11Z</time>
      </trkpt>
      <trkpt lat="42.56521" lon="1.97436">
        <ele>2184</ele>
        <time>2018-08-02T07:05:16Z</time>
      </trkpt>
      <trkpt lat="42.56523" lon="1.97434">
        <ele>2183</ele>
        <time>2018-08-02T07:06:23Z</time>
      </trkpt>
      <trkpt lat="42.56525" lon="1.9743">
        <ele>2186</ele>
        <time>2018-08-02T07:06:28Z</time>
      </trkpt>
      <trkpt lat="42.56527" lon="1.97427">
        <ele>2187</ele>
        <time>2018-08-02T07:06:33Z</time>
      </trkpt>
      <trkpt lat="42.56545" lon="1.97421">
        <ele>2188</ele>
        <time>2018-08-02T07:07:26Z</time>
      </trkpt>
      <trkpt lat="42.56551" lon="1.97418">
        <ele>2185</ele>
        <time>2018-08-02T07:07:34Z</time>
      </trkpt>
      <trkpt lat="42.56561" lon="1.97416">
        <ele>2186</ele>
        <time>2018-08-02T07:07:46Z</time>
      </trkpt>
      <trkpt lat="42.56564" lon="1.97414">
        <ele>2186</ele>
        <time>2018-08-02T07:07:49Z</time>
      </trkpt>
      <trkpt lat="42.56567" lon="1.97416">
        <ele>2186</ele>
        <time>2018-08-02T07:07:52Z</time>
      </trkpt>
      <trkpt lat="42.5657" lon="1.97413">
        <ele>2186</ele>
        <time>2018-08-02T07:07:54Z</time>
      </trkpt>
      <trkpt lat="42.56573" lon="1.97411">
        <ele>2185</ele>
        <time>2018-08-02T07:07:58Z</time>
      </trkpt>
      <trkpt lat="42.56581" lon="1.97404">
        <ele>2187</ele>
        <time>2018-08-02T07:08:05Z</time>
      </trkpt>
      <trkpt lat="42.56586" lon="1.97402">
        <ele>2185</ele>
        <time>2018-08-02T07:08:10Z</time>
      </trkpt>
      <trkpt lat="42.5659" lon="1.97396">
        <ele>2184</ele>
        <time>2018-08-02T07:08:16Z</time>
      </trkpt>
      <trkpt lat="42.56593" lon="1.97392">
        <ele>2184</ele>
        <time>2018-08-02T07:08:18Z</time>
      </trkpt>
      <trkpt lat="42.56596" lon="1.97389">
        <ele>2184</ele>
        <time>2018-08-02T07:08:22Z</time>
      </trkpt>
      <trkpt lat="42.56602" lon="1.97388">
        <ele>2183</ele>
        <time>2018-08-02T07:08:30Z</time>
      </trkpt>
      <trkpt lat="42.56606" lon="1.97388">
        <ele>2182</ele>
        <time>2018-08-02T07:08:33Z</time>
      </trkpt>
      <trkpt lat="42.56608" lon="1.97383">
        <ele>2183</ele>
        <time>2018-08-02T07:08:35Z</time>
      </trkpt>
      <trkpt lat="42.56615" lon="1.97383">
        <ele>2186</ele>
        <time>2018-08-02T07:08:40Z</time>
      </trkpt>
      <trkpt lat="42.56617" lon="1.97381">
        <ele>2187</ele>
        <time>2018-08-02T07:08:42Z</time>
      </trkpt>
      <trkpt lat="42.56621" lon="1.97379">
        <ele>2188</ele>
        <time>2018-08-02T07:08:47Z</time>
      </trkpt>
      <trkpt lat="42.56624" lon="1.97379">
        <ele>2188</ele>
        <time>2018-08-02T07:08:49Z</time>
      </trkpt>
      <trkpt lat="42.56638" lon="1.97371">
        <ele>2189</ele>
        <time>2018-08-02T07:09:05Z</time>
      </trkpt>
      <trkpt lat="42.56656" lon="1.97362">
        <ele>2189</ele>
        <time>2018-08-02T07:09:24Z</time>
      </trkpt>
      <trkpt lat="42.56659" lon="1.97358">
        <ele>2189</ele>
        <time>2018-08-02T07:09:27Z</time>
      </trkpt>
      <trkpt lat="42.56669" lon="1.97356">
        <ele>2191</ele>
        <time>2018-08-02T07:09:35Z</time>
      </trkpt>
      <trkpt lat="42.56673" lon="1.97355">
        <ele>2191</ele>
        <time>2018-08-02T07:09:39Z</time>
      </trkpt>
      <trkpt lat="42.56675" lon="1.97357">
        <ele>2191</ele>
        <time>2018-08-02T07:09:41Z</time>
      </trkpt>
      <trkpt lat="42.56678" lon="1.97353">
        <ele>2192</ele>
        <time>2018-08-02T07:09:44Z</time>
      </trkpt>
      <trkpt lat="42.5668" lon="1.97348">
        <ele>2193</ele>
        <time>2018-08-02T07:09:48Z</time>
      </trkpt>
      <trkpt lat="42.56682" lon="1.97345">
        <ele>2196</ele>
        <time>2018-08-02T07:09:55Z</time>
      </trkpt>
      <trkpt lat="42.56691" lon="1.97342">
        <ele>2198</ele>
        <time>2018-08-02T07:10:04Z</time>
      </trkpt>
      <trkpt lat="42.56697" lon="1.97341">
        <ele>2196</ele>
        <time>2018-08-02T07:10:11Z</time>
      </trkpt>
      <trkpt lat="42.56698" lon="1.97337">
        <ele>2196</ele>
        <time>2018-08-02T07:10:15Z</time>
      </trkpt>
      <trkpt lat="42.56711" lon="1.97335">
        <ele>2197</ele>
        <time>2018-08-02T07:10:26Z</time>
      </trkpt>
      <trkpt lat="42.56721" lon="1.97334">
        <ele>2200</ele>
        <time>2018-08-02T07:10:42Z</time>
      </trkpt>
      <trkpt lat="42.56727" lon="1.97327">
        <ele>2199</ele>
        <time>2018-08-02T07:10:50Z</time>
      </trkpt>
      <trkpt lat="42.56728" lon="1.97322">
        <ele>2200</ele>
        <time>2018-08-02T07:10:55Z</time>
      </trkpt>
      <trkpt lat="42.56731" lon="1.97315">
        <ele>2201</ele>
        <time>2018-08-02T07:11:02Z</time>
      </trkpt>
      <trkpt lat="42.56737" lon="1.97301">
        <ele>2203</ele>
        <time>2018-08-02T07:11:16Z</time>
      </trkpt>
      <trkpt lat="42.5674" lon="1.97301">
        <ele>2203</ele>
        <time>2018-08-02T07:11:22Z</time>
      </trkpt>
      <trkpt lat="42.56746" lon="1.973">
        <ele>2203</ele>
        <time>2018-08-02T07:11:30Z</time>
      </trkpt>
      <trkpt lat="42.56748" lon="1.97296">
        <ele>2203</ele>
        <time>2018-08-02T07:11:35Z</time>
      </trkpt>
      <trkpt lat="42.56753" lon="1.97287">
        <ele>2205</ele>
        <time>2018-08-02T07:11:42Z</time>
      </trkpt>
      <trkpt lat="42.56757" lon="1.97284">
        <ele>2203</ele>
        <time>2018-08-02T07:11:45Z</time>
      </trkpt>
      <trkpt lat="42.56759" lon="1.97281">
        <ele>2203</ele>
        <time>2018-08-02T07:11:47Z</time>
      </trkpt>
      <trkpt lat="42.56775" lon="1.97269">
        <ele>2204</ele>
        <time>2018-08-02T07:12:07Z</time>
      </trkpt>
      <trkpt lat="42.56777" lon="1.97265">
        <ele>2202</ele>
        <time>2018-08-02T07:12:10Z</time>
      </trkpt>
      <trkpt lat="42.56778" lon="1.97261">
        <ele>2202</ele>
        <time>2018-08-02T07:12:13Z</time>
      </trkpt>
      <trkpt lat="42.5678" lon="1.97257">
        <ele>2202</ele>
        <time>2018-08-02T07:12:16Z</time>
      </trkpt>
      <trkpt lat="42.56783" lon="1.97255">
        <ele>2203</ele>
        <time>2018-08-02T07:12:19Z</time>
      </trkpt>
      <trkpt lat="42.56786" lon="1.97254">
        <ele>2203</ele>
        <time>2018-08-02T07:12:22Z</time>
      </trkpt>
      <trkpt lat="42.568" lon="1.97239">
        <ele>2207</ele>
        <time>2018-08-02T07:12:42Z</time>
      </trkpt>
      <trkpt lat="42.56803" lon="1.97236">
        <ele>2208</ele>
        <time>2018-08-02T07:12:46Z</time>
      </trkpt>
      <trkpt lat="42.56808" lon="1.97231">
        <ele>2210</ele>
        <time>2018-08-02T07:12:53Z</time>
      </trkpt>
      <trkpt lat="42.5681" lon="1.97228">
        <ele>2210</ele>
        <time>2018-08-02T07:12:56Z</time>
      </trkpt>
      <trkpt lat="42.56811" lon="1.97225">
        <ele>2211</ele>
        <time>2018-08-02T07:12:59Z</time>
      </trkpt>
      <trkpt lat="42.56814" lon="1.97222">
        <ele>2212</ele>
        <time>2018-08-02T07:13:03Z</time>
      </trkpt>
      <trkpt lat="42.56826" lon="1.97206">
        <ele>2213</ele>
        <time>2018-08-02T07:13:22Z</time>
      </trkpt>
      <trkpt lat="42.56828" lon="1.97204">
        <ele>2213</ele>
        <time>2018-08-02T07:13:25Z</time>
      </trkpt>
      <trkpt lat="42.56837" lon="1.972">
        <ele>2213</ele>
        <time>2018-08-02T07:13:36Z</time>
      </trkpt>
      <trkpt lat="42.5684" lon="1.972">
        <ele>2214</ele>
        <time>2018-08-02T07:13:40Z</time>
      </trkpt>
      <trkpt lat="42.56843" lon="1.97198">
        <ele>2214</ele>
        <time>2018-08-02T07:13:42Z</time>
      </trkpt>
      <trkpt lat="42.56844" lon="1.97194">
        <ele>2215</ele>
        <time>2018-08-02T07:13:46Z</time>
      </trkpt>
      <trkpt lat="42.56846" lon="1.97195">
        <ele>2215</ele>
        <time>2018-08-02T07:13:54Z</time>
      </trkpt>
      <trkpt lat="42.5685" lon="1.97195">
        <ele>2215</ele>
        <time>2018-08-02T07:14:28Z</time>
      </trkpt>
      <trkpt lat="42.56852" lon="1.97194">
        <ele>2215</ele>
        <time>2018-08-02T07:14:34Z</time>
      </trkpt>
      <trkpt lat="42.56856" lon="1.97193">
        <ele>2215</ele>
        <time>2018-08-02T07:14:38Z</time>
      </trkpt>
      <trkpt lat="42.56861" lon="1.97188">
        <ele>2217</ele>
        <time>2018-08-02T07:14:45Z</time>
      </trkpt>
      <trkpt lat="42.56864" lon="1.97186">
        <ele>2217</ele>
        <time>2018-08-02T07:14:48Z</time>
      </trkpt>
      <trkpt lat="42.56876" lon="1.97179">
        <ele>2218</ele>
        <time>2018-08-02T07:15:02Z</time>
      </trkpt>
      <trkpt lat="42.56879" lon="1.97176">
        <ele>2218</ele>
        <time>2018-08-02T07:15:06Z</time>
      </trkpt>
      <trkpt lat="42.56882" lon="1.97176">
        <ele>2218</ele>
        <time>2018-08-02T07:15:10Z</time>
      </trkpt>
      <trkpt lat="42.56884" lon="1.97173">
        <ele>2218</ele>
        <time>2018-08-02T07:15:14Z</time>
      </trkpt>
      <trkpt lat="42.56887" lon="1.9717">
        <ele>2219</ele>
        <time>2018-08-02T07:15:18Z</time>
      </trkpt>
      <trkpt lat="42.56891" lon="1.97165">
        <ele>2219</ele>
        <time>2018-08-02T07:15:23Z</time>
      </trkpt>
      <trkpt lat="42.56895" lon="1.97162">
        <ele>2219</ele>
        <time>2018-08-02T07:15:32Z</time>
      </trkpt>
      <trkpt lat="42.56899" lon="1.9716">
        <ele>2222</ele>
        <time>2018-08-02T07:15:36Z</time>
      </trkpt>
      <trkpt lat="42.56902" lon="1.97157">
        <ele>2223</ele>
        <time>2018-08-02T07:15:40Z</time>
      </trkpt>
      <trkpt lat="42.56903" lon="1.97154">
        <ele>2225</ele>
        <time>2018-08-02T07:15:45Z</time>
      </trkpt>
      <trkpt lat="42.56906" lon="1.97152">
        <ele>2227</ele>
        <time>2018-08-02T07:15:49Z</time>
      </trkpt>
      <trkpt lat="42.56908" lon="1.9715">
        <ele>2228</ele>
        <time>2018-08-02T07:15:53Z</time>
      </trkpt>
      <trkpt lat="42.56911" lon="1.97148">
        <ele>2229</ele>
        <time>2018-08-02T07:15:55Z</time>
      </trkpt>
      <trkpt lat="42.56914" lon="1.97146">
        <ele>2229</ele>
        <time>2018-08-02T07:16:02Z</time>
      </trkpt>
      <trkpt lat="42.56915" lon="1.97142">
        <ele>2230</ele>
        <time>2018-08-02T07:16:13Z</time>
      </trkpt>
      <trkpt lat="42.56918" lon="1.97139">
        <ele>2230</ele>
        <time>2018-08-02T07:16:17Z</time>
      </trkpt>
      <trkpt lat="42.56921" lon="1.97138">
        <ele>2229</ele>
        <time>2018-08-02T07:16:20Z</time>
      </trkpt>
      <trkpt lat="42.56923" lon="1.97135">
        <ele>2229</ele>
        <time>2018-08-02T07:16:24Z</time>
      </trkpt>
      <trkpt lat="42.56929" lon="1.97131">
        <ele>2230</ele>
        <time>2018-08-02T07:16:30Z</time>
      </trkpt>
      <trkpt lat="42.5693" lon="1.97127">
        <ele>2230</ele>
        <time>2018-08-02T07:16:35Z</time>
      </trkpt>
      <trkpt lat="42.56933" lon="1.97126">
        <ele>2230</ele>
        <time>2018-08-02T07:16:39Z</time>
      </trkpt>
      <trkpt lat="42.56936" lon="1.97126">
        <ele>2230</ele>
        <time>2018-08-02T07:16:43Z</time>
      </trkpt>
      <trkpt lat="42.56938" lon="1.97123">
        <ele>2231</ele>
        <time>2018-08-02T07:16:47Z</time>
      </trkpt>
      <trkpt lat="42.5694" lon="1.9712">
        <ele>2231</ele>
        <time>2018-08-02T07:16:50Z</time>
      </trkpt>
      <trkpt lat="42.56944" lon="1.97119">
        <ele>2231</ele>
        <time>2018-08-02T07:16:53Z</time>
      </trkpt>
      <trkpt lat="42.56963" lon="1.97114">
        <ele>2233</ele>
        <time>2018-08-02T07:17:14Z</time>
      </trkpt>
      <trkpt lat="42.56967" lon="1.97112">
        <ele>2233</ele>
        <time>2018-08-02T07:17:17Z</time>
      </trkpt>
      <trkpt lat="42.56974" lon="1.97103">
        <ele>2238</ele>
        <time>2018-08-02T07:17:28Z</time>
      </trkpt>
      <trkpt lat="42.56977" lon="1.97104">
        <ele>2237</ele>
        <time>2018-08-02T07:17:30Z</time>
      </trkpt>
      <trkpt lat="42.56983" lon="1.97102">
        <ele>2235</ele>
        <time>2018-08-02T07:17:38Z</time>
      </trkpt>
      <trkpt lat="42.56989" lon="1.971">
        <ele>2236</ele>
        <time>2018-08-02T07:17:45Z</time>
      </trkpt>
      <trkpt lat="42.56994" lon="1.97097">
        <ele>2238</ele>
        <time>2018-08-02T07:17:51Z</time>
      </trkpt>
      <trkpt lat="42.56998" lon="1.97096">
        <ele>2239</ele>
        <time>2018-08-02T07:17:55Z</time>
      </trkpt>
      <trkpt lat="42.57001" lon="1.97094">
        <ele>2240</ele>
        <time>2018-08-02T07:17:58Z</time>
      </trkpt>
      <trkpt lat="42.57003" lon="1.97094">
        <ele>2241</ele>
        <time>2018-08-02T07:18:09Z</time>
      </trkpt>
      <trkpt lat="42.57036" lon="1.97087">
        <ele>2240</ele>
        <time>2018-08-02T07:18:40Z</time>
      </trkpt>
      <trkpt lat="42.5704" lon="1.97087">
        <ele>2241</ele>
        <time>2018-08-02T07:18:46Z</time>
      </trkpt>
      <trkpt lat="42.57043" lon="1.97085">
        <ele>2240</ele>
        <time>2018-08-02T07:18:48Z</time>
      </trkpt>
      <trkpt lat="42.57046" lon="1.97083">
        <ele>2240</ele>
        <time>2018-08-02T07:18:52Z</time>
      </trkpt>
      <trkpt lat="42.5705" lon="1.9708">
        <ele>2240</ele>
        <time>2018-08-02T07:18:56Z</time>
      </trkpt>
      <trkpt lat="42.57052" lon="1.97077">
        <ele>2241</ele>
        <time>2018-08-02T07:19:00Z</time>
      </trkpt>
      <trkpt lat="42.57055" lon="1.97077">
        <ele>2243</ele>
        <time>2018-08-02T07:19:05Z</time>
      </trkpt>
      <trkpt lat="42.57059" lon="1.97076">
        <ele>2243</ele>
        <time>2018-08-02T07:19:09Z</time>
      </trkpt>
      <trkpt lat="42.57063" lon="1.97074">
        <ele>2242</ele>
        <time>2018-08-02T07:19:12Z</time>
      </trkpt>
      <trkpt lat="42.57067" lon="1.97074">
        <ele>2241</ele>
        <time>2018-08-02T07:19:15Z</time>
      </trkpt>
      <trkpt lat="42.5707" lon="1.97075">
        <ele>2241</ele>
        <time>2018-08-02T07:19:17Z</time>
      </trkpt>
      <trkpt lat="42.57076" lon="1.97074">
        <ele>2242</ele>
        <time>2018-08-02T07:19:22Z</time>
      </trkpt>
      <trkpt lat="42.57079" lon="1.97073">
        <ele>2242</ele>
        <time>2018-08-02T07:19:25Z</time>
      </trkpt>
      <trkpt lat="42.57082" lon="1.97071">
        <ele>2242</ele>
        <time>2018-08-02T07:19:29Z</time>
      </trkpt>
      <trkpt lat="42.57085" lon="1.9707">
        <ele>2243</ele>
        <time>2018-08-02T07:19:32Z</time>
      </trkpt>
      <trkpt lat="42.57094" lon="1.97067">
        <ele>2244</ele>
        <time>2018-08-02T07:19:41Z</time>
      </trkpt>
      <trkpt lat="42.571" lon="1.97065">
        <ele>2243</ele>
        <time>2018-08-02T07:19:46Z</time>
      </trkpt>
      <trkpt lat="42.57113" lon="1.9706">
        <ele>2240</ele>
        <time>2018-08-02T07:19:59Z</time>
      </trkpt>
      <trkpt lat="42.57116" lon="1.97056">
        <ele>2240</ele>
        <time>2018-08-02T07:20:03Z</time>
      </trkpt>
      <trkpt lat="42.57118" lon="1.97054">
        <ele>2240</ele>
        <time>2018-08-02T07:20:11Z</time>
      </trkpt>
      <trkpt lat="42.57127" lon="1.97051">
        <ele>2240</ele>
        <time>2018-08-02T07:20:23Z</time>
      </trkpt>
      <trkpt lat="42.5713" lon="1.9705">
        <ele>2243</ele>
        <time>2018-08-02T07:20:55Z</time>
      </trkpt>
      <trkpt lat="42.57144" lon="1.9704">
        <ele>2246</ele>
        <time>2018-08-02T07:21:15Z</time>
      </trkpt>
      <trkpt lat="42.57147" lon="1.97037">
        <ele>2247</ele>
        <time>2018-08-02T07:21:18Z</time>
      </trkpt>
      <trkpt lat="42.5715" lon="1.97035">
        <ele>2248</ele>
        <time>2018-08-02T07:21:22Z</time>
      </trkpt>
      <trkpt lat="42.57153" lon="1.97033">
        <ele>2249</ele>
        <time>2018-08-02T07:21:28Z</time>
      </trkpt>
      <trkpt lat="42.57157" lon="1.97031">
        <ele>2251</ele>
        <time>2018-08-02T07:21:33Z</time>
      </trkpt>
      <trkpt lat="42.5716" lon="1.97029">
        <ele>2251</ele>
        <time>2018-08-02T07:21:48Z</time>
      </trkpt>
      <trkpt lat="42.57163" lon="1.97025">
        <ele>2248</ele>
        <time>2018-08-02T07:21:51Z</time>
      </trkpt>
      <trkpt lat="42.57164" lon="1.97021">
        <ele>2247</ele>
        <time>2018-08-02T07:21:53Z</time>
      </trkpt>
      <trkpt lat="42.57168" lon="1.97015">
        <ele>2246</ele>
        <time>2018-08-02T07:21:59Z</time>
      </trkpt>
      <trkpt lat="42.5717" lon="1.97013">
        <ele>2246</ele>
        <time>2018-08-02T07:22:00Z</time>
      </trkpt>
      <trkpt lat="42.57173" lon="1.9701">
        <ele>2245</ele>
        <time>2018-08-02T07:22:02Z</time>
      </trkpt>
      <trkpt lat="42.57176" lon="1.97008">
        <ele>2244</ele>
        <time>2018-08-02T07:22:05Z</time>
      </trkpt>
      <trkpt lat="42.57178" lon="1.97006">
        <ele>2243</ele>
        <time>2018-08-02T07:22:08Z</time>
      </trkpt>
      <trkpt lat="42.57182" lon="1.97005">
        <ele>2242</ele>
        <time>2018-08-02T07:22:11Z</time>
      </trkpt>
      <trkpt lat="42.57204" lon="1.96977">
        <ele>2242</ele>
        <time>2018-08-02T07:22:36Z</time>
      </trkpt>
      <trkpt lat="42.57205" lon="1.96973">
        <ele>2241</ele>
        <time>2018-08-02T07:22:40Z</time>
      </trkpt>
      <trkpt lat="42.57208" lon="1.96968">
        <ele>2242</ele>
        <time>2018-08-02T07:22:43Z</time>
      </trkpt>
      <trkpt lat="42.57213" lon="1.96964">
        <ele>2240</ele>
        <time>2018-08-02T07:22:50Z</time>
      </trkpt>
      <trkpt lat="42.57228" lon="1.96951">
        <ele>2240</ele>
        <time>2018-08-02T07:23:04Z</time>
      </trkpt>
      <trkpt lat="42.57231" lon="1.96948">
        <ele>2240</ele>
        <time>2018-08-02T07:23:08Z</time>
      </trkpt>
      <trkpt lat="42.57241" lon="1.96938">
        <ele>2236</ele>
        <time>2018-08-02T07:23:19Z</time>
      </trkpt>
      <trkpt lat="42.57242" lon="1.96934">
        <ele>2236</ele>
        <time>2018-08-02T07:23:21Z</time>
      </trkpt>
      <trkpt lat="42.57252" lon="1.96926">
        <ele>2238</ele>
        <time>2018-08-02T07:23:30Z</time>
      </trkpt>
      <trkpt lat="42.57254" lon="1.96923">
        <ele>2238</ele>
        <time>2018-08-02T07:23:34Z</time>
      </trkpt>
      <trkpt lat="42.57259" lon="1.96909">
        <ele>2239</ele>
        <time>2018-08-02T07:23:42Z</time>
      </trkpt>
      <trkpt lat="42.57261" lon="1.96906">
        <ele>2241</ele>
        <time>2018-08-02T07:23:45Z</time>
      </trkpt>
      <trkpt lat="42.57265" lon="1.96904">
        <ele>2240</ele>
        <time>2018-08-02T07:23:48Z</time>
      </trkpt>
      <trkpt lat="42.57266" lon="1.96901">
        <ele>2240</ele>
        <time>2018-08-02T07:23:50Z</time>
      </trkpt>
      <trkpt lat="42.57272" lon="1.96894">
        <ele>2239</ele>
        <time>2018-08-02T07:23:57Z</time>
      </trkpt>
      <trkpt lat="42.57293" lon="1.96891">
        <ele>2237</ele>
        <time>2018-08-02T07:24:13Z</time>
      </trkpt>
      <trkpt lat="42.57301" lon="1.96888">
        <ele>2234</ele>
        <time>2018-08-02T07:24:17Z</time>
      </trkpt>
      <trkpt lat="42.57305" lon="1.96881">
        <ele>2232</ele>
        <time>2018-08-02T07:24:22Z</time>
      </trkpt>
      <trkpt lat="42.5731" lon="1.96874">
        <ele>2226</ele>
        <time>2018-08-02T07:24:29Z</time>
      </trkpt>
      <trkpt lat="42.57313" lon="1.96875">
        <ele>2224</ele>
        <time>2018-08-02T07:24:36Z</time>
      </trkpt>
      <trkpt lat="42.57309" lon="1.96871">
        <ele>2225</ele>
        <time>2018-08-02T07:24:46Z</time>
      </trkpt>
      <trkpt lat="42.57306" lon="1.96871">
        <ele>2226</ele>
        <time>2018-08-02T07:24:55Z</time>
      </trkpt>
      <trkpt lat="42.57308" lon="1.96863">
        <ele>2227</ele>
        <time>2018-08-02T07:25:07Z</time>
      </trkpt>
      <trkpt lat="42.57306" lon="1.9686">
        <ele>2226</ele>
        <time>2018-08-02T07:25:11Z</time>
      </trkpt>
      <trkpt lat="42.57308" lon="1.96855">
        <ele>2227</ele>
        <time>2018-08-02T07:25:21Z</time>
      </trkpt>
      <trkpt lat="42.57306" lon="1.96846">
        <ele>2226</ele>
        <time>2018-08-02T07:25:28Z</time>
      </trkpt>
      <trkpt lat="42.57309" lon="1.96846">
        <ele>2226</ele>
        <time>2018-08-02T07:25:31Z</time>
      </trkpt>
      <trkpt lat="42.57311" lon="1.96841">
        <ele>2226</ele>
        <time>2018-08-02T07:25:35Z</time>
      </trkpt>
      <trkpt lat="42.57311" lon="1.96837">
        <ele>2227</ele>
        <time>2018-08-02T07:25:37Z</time>
      </trkpt>
      <trkpt lat="42.57311" lon="1.96829">
        <ele>2225</ele>
        <time>2018-08-02T07:25:43Z</time>
      </trkpt>
      <trkpt lat="42.57312" lon="1.96821">
        <ele>2224</ele>
        <time>2018-08-02T07:25:51Z</time>
      </trkpt>
      <trkpt lat="42.57314" lon="1.96813">
        <ele>2222</ele>
        <time>2018-08-02T07:25:55Z</time>
      </trkpt>
      <trkpt lat="42.57313" lon="1.9681">
        <ele>2224</ele>
        <time>2018-08-02T07:25:58Z</time>
      </trkpt>
      <trkpt lat="42.57313" lon="1.96806">
        <ele>2224</ele>
        <time>2018-08-02T07:26:01Z</time>
      </trkpt>
      <trkpt lat="42.57314" lon="1.96802">
        <ele>2228</ele>
        <time>2018-08-02T07:26:08Z</time>
      </trkpt>
      <trkpt lat="42.57312" lon="1.968">
        <ele>2229</ele>
        <time>2018-08-02T07:26:11Z</time>
      </trkpt>
      <trkpt lat="42.57308" lon="1.96795">
        <ele>2231</ele>
        <time>2018-08-02T07:26:13Z</time>
      </trkpt>
      <trkpt lat="42.57309" lon="1.96791">
        <ele>2232</ele>
        <time>2018-08-02T07:26:16Z</time>
      </trkpt>
      <trkpt lat="42.57309" lon="1.96783">
        <ele>2230</ele>
        <time>2018-08-02T07:26:20Z</time>
      </trkpt>
      <trkpt lat="42.57311" lon="1.96775">
        <ele>2229</ele>
        <time>2018-08-02T07:26:25Z</time>
      </trkpt>
      <trkpt lat="42.57312" lon="1.96771">
        <ele>2229</ele>
        <time>2018-08-02T07:26:28Z</time>
      </trkpt>
      <trkpt lat="42.57314" lon="1.96768">
        <ele>2229</ele>
        <time>2018-08-02T07:26:32Z</time>
      </trkpt>
      <trkpt lat="42.57312" lon="1.96761">
        <ele>2231</ele>
        <time>2018-08-02T07:26:36Z</time>
      </trkpt>
      <trkpt lat="42.57313" lon="1.96757">
        <ele>2231</ele>
        <time>2018-08-02T07:26:40Z</time>
      </trkpt>
      <trkpt lat="42.57314" lon="1.96753">
        <ele>2231</ele>
        <time>2018-08-02T07:26:43Z</time>
      </trkpt>
      <trkpt lat="42.57316" lon="1.96749">
        <ele>2230</ele>
        <time>2018-08-02T07:26:48Z</time>
      </trkpt>
      <trkpt lat="42.57316" lon="1.96745">
        <ele>2228</ele>
        <time>2018-08-02T07:26:52Z</time>
      </trkpt>
      <trkpt lat="42.57319" lon="1.9674">
        <ele>2224</ele>
        <time>2018-08-02T07:26:54Z</time>
      </trkpt>
      <trkpt lat="42.57314" lon="1.96735">
        <ele>2226</ele>
        <time>2018-08-02T07:27:04Z</time>
      </trkpt>
      <trkpt lat="42.57317" lon="1.96729">
        <ele>2225</ele>
        <time>2018-08-02T07:27:07Z</time>
      </trkpt>
      <trkpt lat="42.57315" lon="1.9672">
        <ele>2226</ele>
        <time>2018-08-02T07:27:17Z</time>
      </trkpt>
      <trkpt lat="42.57314" lon="1.96717">
        <ele>2228</ele>
        <time>2018-08-02T07:27:20Z</time>
      </trkpt>
      <trkpt lat="42.57312" lon="1.96714">
        <ele>2232</ele>
        <time>2018-08-02T07:27:22Z</time>
      </trkpt>
      <trkpt lat="42.57314" lon="1.9671">
        <ele>2232</ele>
        <time>2018-08-02T07:27:24Z</time>
      </trkpt>
      <trkpt lat="42.57312" lon="1.96705">
        <ele>2232</ele>
        <time>2018-08-02T07:27:35Z</time>
      </trkpt>
      <trkpt lat="42.57312" lon="1.96701">
        <ele>2232</ele>
        <time>2018-08-02T07:27:40Z</time>
      </trkpt>
      <trkpt lat="42.57311" lon="1.96695">
        <ele>2232</ele>
        <time>2018-08-02T07:27:45Z</time>
      </trkpt>
      <trkpt lat="42.57313" lon="1.96692">
        <ele>2232</ele>
        <time>2018-08-02T07:27:49Z</time>
      </trkpt>
      <trkpt lat="42.57312" lon="1.96683">
        <ele>2232</ele>
        <time>2018-08-02T07:27:55Z</time>
      </trkpt>
      <trkpt lat="42.57309" lon="1.96679">
        <ele>2233</ele>
        <time>2018-08-02T07:27:58Z</time>
      </trkpt>
      <trkpt lat="42.57307" lon="1.96675">
        <ele>2234</ele>
        <time>2018-08-02T07:28:02Z</time>
      </trkpt>
      <trkpt lat="42.57307" lon="1.9667">
        <ele>2233</ele>
        <time>2018-08-02T07:28:05Z</time>
      </trkpt>
      <trkpt lat="42.57305" lon="1.96667">
        <ele>2234</ele>
        <time>2018-08-02T07:28:09Z</time>
      </trkpt>
      <trkpt lat="42.57301" lon="1.96663">
        <ele>2236</ele>
        <time>2018-08-02T07:28:15Z</time>
      </trkpt>
      <trkpt lat="42.573" lon="1.96658">
        <ele>2239</ele>
        <time>2018-08-02T07:28:20Z</time>
      </trkpt>
      <trkpt lat="42.57302" lon="1.96653">
        <ele>2239</ele>
        <time>2018-08-02T07:28:22Z</time>
      </trkpt>
      <trkpt lat="42.57298" lon="1.96652">
        <ele>2240</ele>
        <time>2018-08-02T07:28:27Z</time>
      </trkpt>
      <trkpt lat="42.57295" lon="1.96648">
        <ele>2242</ele>
        <time>2018-08-02T07:28:30Z</time>
      </trkpt>
      <trkpt lat="42.57294" lon="1.96642">
        <ele>2241</ele>
        <time>2018-08-02T07:28:36Z</time>
      </trkpt>
      <trkpt lat="42.57291" lon="1.96639">
        <ele>2240</ele>
        <time>2018-08-02T07:28:40Z</time>
      </trkpt>
      <trkpt lat="42.57286" lon="1.96636">
        <ele>2241</ele>
        <time>2018-08-02T07:28:51Z</time>
      </trkpt>
      <trkpt lat="42.57281" lon="1.96636">
        <ele>2242</ele>
        <time>2018-08-02T07:28:55Z</time>
      </trkpt>
      <trkpt lat="42.57279" lon="1.96633">
        <ele>2243</ele>
        <time>2018-08-02T07:29:01Z</time>
      </trkpt>
      <trkpt lat="42.57273" lon="1.96631">
        <ele>2246</ele>
        <time>2018-08-02T07:29:08Z</time>
      </trkpt>
      <trkpt lat="42.5727" lon="1.96632">
        <ele>2248</ele>
        <time>2018-08-02T07:29:14Z</time>
      </trkpt>
      <trkpt lat="42.57267" lon="1.96632">
        <ele>2248</ele>
        <time>2018-08-02T07:29:17Z</time>
      </trkpt>
      <trkpt lat="42.57265" lon="1.96629">
        <ele>2248</ele>
        <time>2018-08-02T07:29:32Z</time>
      </trkpt>
      <trkpt lat="42.57262" lon="1.96626">
        <ele>2249</ele>
        <time>2018-08-02T07:29:37Z</time>
      </trkpt>
      <trkpt lat="42.57263" lon="1.96619">
        <ele>2248</ele>
        <time>2018-08-02T07:29:42Z</time>
      </trkpt>
      <trkpt lat="42.57265" lon="1.96615">
        <ele>2248</ele>
        <time>2018-08-02T07:29:44Z</time>
      </trkpt>
      <trkpt lat="42.57268" lon="1.96612">
        <ele>2248</ele>
        <time>2018-08-02T07:29:49Z</time>
      </trkpt>
      <trkpt lat="42.5727" lon="1.96609">
        <ele>2248</ele>
        <time>2018-08-02T07:29:54Z</time>
      </trkpt>
      <trkpt lat="42.5727" lon="1.96605">
        <ele>2250</ele>
        <time>2018-08-02T07:29:58Z</time>
      </trkpt>
      <trkpt lat="42.5727" lon="1.96601">
        <ele>2250</ele>
        <time>2018-08-02T07:30:02Z</time>
      </trkpt>
      <trkpt lat="42.57271" lon="1.96596">
        <ele>2249</ele>
        <time>2018-08-02T07:30:06Z</time>
      </trkpt>
      <trkpt lat="42.57271" lon="1.96591">
        <ele>2249</ele>
        <time>2018-08-02T07:30:13Z</time>
      </trkpt>
      <trkpt lat="42.57271" lon="1.96588">
        <ele>2249</ele>
        <time>2018-08-02T07:30:16Z</time>
      </trkpt>
      <trkpt lat="42.57273" lon="1.96584">
        <ele>2250</ele>
        <time>2018-08-02T07:30:20Z</time>
      </trkpt>
      <trkpt lat="42.57273" lon="1.96579">
        <ele>2250</ele>
        <time>2018-08-02T07:30:25Z</time>
      </trkpt>
      <trkpt lat="42.57272" lon="1.96576">
        <ele>2251</ele>
        <time>2018-08-02T07:30:27Z</time>
      </trkpt>
      <trkpt lat="42.57273" lon="1.96572">
        <ele>2252</ele>
        <time>2018-08-02T07:30:34Z</time>
      </trkpt>
      <trkpt lat="42.57273" lon="1.96568">
        <ele>2253</ele>
        <time>2018-08-02T07:30:38Z</time>
      </trkpt>
      <trkpt lat="42.57274" lon="1.96563">
        <ele>2253</ele>
        <time>2018-08-02T07:30:42Z</time>
      </trkpt>
      <trkpt lat="42.57273" lon="1.96559">
        <ele>2255</ele>
        <time>2018-08-02T07:31:13Z</time>
      </trkpt>
      <trkpt lat="42.57274" lon="1.96555">
        <ele>2257</ele>
        <time>2018-08-02T07:31:16Z</time>
      </trkpt>
      <trkpt lat="42.57274" lon="1.96551">
        <ele>2258</ele>
        <time>2018-08-02T07:31:20Z</time>
      </trkpt>
      <trkpt lat="42.57272" lon="1.96548">
        <ele>2258</ele>
        <time>2018-08-02T07:31:25Z</time>
      </trkpt>
      <trkpt lat="42.57269" lon="1.96547">
        <ele>2258</ele>
        <time>2018-08-02T07:31:29Z</time>
      </trkpt>
      <trkpt lat="42.57267" lon="1.96544">
        <ele>2258</ele>
        <time>2018-08-02T07:31:31Z</time>
      </trkpt>
      <trkpt lat="42.57264" lon="1.96543">
        <ele>2259</ele>
        <time>2018-08-02T07:31:35Z</time>
      </trkpt>
      <trkpt lat="42.57262" lon="1.9654">
        <ele>2260</ele>
        <time>2018-08-02T07:31:39Z</time>
      </trkpt>
      <trkpt lat="42.5726" lon="1.96539">
        <ele>2260</ele>
        <time>2018-08-02T07:31:41Z</time>
      </trkpt>
      <trkpt lat="42.57259" lon="1.96535">
        <ele>2262</ele>
        <time>2018-08-02T07:31:45Z</time>
      </trkpt>
      <trkpt lat="42.5725" lon="1.96523">
        <ele>2264</ele>
        <time>2018-08-02T07:31:56Z</time>
      </trkpt>
      <trkpt lat="42.57251" lon="1.96519">
        <ele>2264</ele>
        <time>2018-08-02T07:31:58Z</time>
      </trkpt>
      <trkpt lat="42.57247" lon="1.96511">
        <ele>2264</ele>
        <time>2018-08-02T07:32:10Z</time>
      </trkpt>
      <trkpt lat="42.5724" lon="1.96521">
        <ele>2261</ele>
        <time>2018-08-02T07:32:29Z</time>
      </trkpt>
      <trkpt lat="42.57236" lon="1.96522">
        <ele>2262</ele>
        <time>2018-08-02T07:32:34Z</time>
      </trkpt>
      <trkpt lat="42.57237" lon="1.96521">
        <ele>2260</ele>
        <time>2018-08-02T07:33:17Z</time>
      </trkpt>
      <trkpt lat="42.57234" lon="1.96519">
        <ele>2259</ele>
        <time>2018-08-02T07:33:23Z</time>
      </trkpt>
      <trkpt lat="42.57232" lon="1.96519">
        <ele>2257</ele>
        <time>2018-08-02T07:34:21Z</time>
      </trkpt>
      <trkpt lat="42.57234" lon="1.96514">
        <ele>2257</ele>
        <time>2018-08-02T07:34:26Z</time>
      </trkpt>
      <trkpt lat="42.57239" lon="1.96513">
        <ele>2259</ele>
        <time>2018-08-02T07:34:27Z</time>
      </trkpt>
      <trkpt lat="42.57239" lon="1.96507">
        <ele>2261</ele>
        <time>2018-08-02T07:34:34Z</time>
      </trkpt>
      <trkpt lat="42.57244" lon="1.96505">
        <ele>2263</ele>
        <time>2018-08-02T07:34:40Z</time>
      </trkpt>
      <trkpt lat="42.57247" lon="1.96499">
        <ele>2262</ele>
        <time>2018-08-02T07:34:51Z</time>
      </trkpt>
      <trkpt lat="42.57253" lon="1.96492">
        <ele>2260</ele>
        <time>2018-08-02T07:34:59Z</time>
      </trkpt>
      <trkpt lat="42.57256" lon="1.96488">
        <ele>2261</ele>
        <time>2018-08-02T07:35:02Z</time>
      </trkpt>
      <trkpt lat="42.57257" lon="1.96484">
        <ele>2260</ele>
        <time>2018-08-02T07:35:06Z</time>
      </trkpt>
      <trkpt lat="42.57259" lon="1.96483">
        <ele>2260</ele>
        <time>2018-08-02T07:35:08Z</time>
      </trkpt>
      <trkpt lat="42.57261" lon="1.96479">
        <ele>2260</ele>
        <time>2018-08-02T07:35:11Z</time>
      </trkpt>
      <trkpt lat="42.57259" lon="1.96475">
        <ele>2261</ele>
        <time>2018-08-02T07:35:13Z</time>
      </trkpt>
      <trkpt lat="42.57254" lon="1.9647">
        <ele>2263</ele>
        <time>2018-08-02T07:35:23Z</time>
      </trkpt>
      <trkpt lat="42.57253" lon="1.96464">
        <ele>2263</ele>
        <time>2018-08-02T07:35:31Z</time>
      </trkpt>
      <trkpt lat="42.57251" lon="1.96461">
        <ele>2262</ele>
        <time>2018-08-02T07:35:35Z</time>
      </trkpt>
      <trkpt lat="42.57253" lon="1.96457">
        <ele>2263</ele>
        <time>2018-08-02T07:35:39Z</time>
      </trkpt>
      <trkpt lat="42.57251" lon="1.96451">
        <ele>2264</ele>
        <time>2018-08-02T07:35:45Z</time>
      </trkpt>
      <trkpt lat="42.57248" lon="1.96447">
        <ele>2265</ele>
        <time>2018-08-02T07:35:51Z</time>
      </trkpt>
      <trkpt lat="42.57249" lon="1.96442">
        <ele>2268</ele>
        <time>2018-08-02T07:35:56Z</time>
      </trkpt>
      <trkpt lat="42.57241" lon="1.96437">
        <ele>2270</ele>
        <time>2018-08-02T07:36:05Z</time>
      </trkpt>
      <trkpt lat="42.5724" lon="1.96434">
        <ele>2272</ele>
        <time>2018-08-02T07:36:10Z</time>
      </trkpt>
      <trkpt lat="42.57242" lon="1.96429">
        <ele>2275</ele>
        <time>2018-08-02T07:36:14Z</time>
      </trkpt>
      <trkpt lat="42.57242" lon="1.96425">
        <ele>2275</ele>
        <time>2018-08-02T07:36:17Z</time>
      </trkpt>
      <trkpt lat="42.57239" lon="1.96423">
        <ele>2276</ele>
        <time>2018-08-02T07:36:22Z</time>
      </trkpt>
      <trkpt lat="42.57239" lon="1.96418">
        <ele>2277</ele>
        <time>2018-08-02T07:36:26Z</time>
      </trkpt>
      <trkpt lat="42.57237" lon="1.96414">
        <ele>2278</ele>
        <time>2018-08-02T07:36:31Z</time>
      </trkpt>
      <trkpt lat="42.57236" lon="1.96409">
        <ele>2280</ele>
        <time>2018-08-02T07:36:36Z</time>
      </trkpt>
      <trkpt lat="42.57241" lon="1.96402">
        <ele>2280</ele>
        <time>2018-08-02T07:36:42Z</time>
      </trkpt>
      <trkpt lat="42.57238" lon="1.964">
        <ele>2280</ele>
        <time>2018-08-02T07:36:44Z</time>
      </trkpt>
      <trkpt lat="42.57232" lon="1.96395">
        <ele>2281</ele>
        <time>2018-08-02T07:36:57Z</time>
      </trkpt>
      <trkpt lat="42.57232" lon="1.96392">
        <ele>2280</ele>
        <time>2018-08-02T07:39:03Z</time>
      </trkpt>
      <trkpt lat="42.57233" lon="1.96392">
        <ele>2280</ele>
        <time>2018-08-02T07:42:17Z</time>
      </trkpt>
      <trkpt lat="42.57238" lon="1.96389">
        <ele>2281</ele>
        <time>2018-08-02T07:42:46Z</time>
      </trkpt>
      <trkpt lat="42.57238" lon="1.96384">
        <ele>2283</ele>
        <time>2018-08-02T07:43:07Z</time>
      </trkpt>
      <trkpt lat="42.57238" lon="1.96379">
        <ele>2283</ele>
        <time>2018-08-02T07:43:13Z</time>
      </trkpt>
      <trkpt lat="42.5724" lon="1.96374">
        <ele>2282</ele>
        <time>2018-08-02T07:43:16Z</time>
      </trkpt>
      <trkpt lat="42.57238" lon="1.96371">
        <ele>2281</ele>
        <time>2018-08-02T07:43:18Z</time>
      </trkpt>
      <trkpt lat="42.57237" lon="1.96367">
        <ele>2281</ele>
        <time>2018-08-02T07:43:21Z</time>
      </trkpt>
      <trkpt lat="42.57236" lon="1.96364">
        <ele>2281</ele>
        <time>2018-08-02T07:43:24Z</time>
      </trkpt>
      <trkpt lat="42.57234" lon="1.96356">
        <ele>2282</ele>
        <time>2018-08-02T07:43:32Z</time>
      </trkpt>
      <trkpt lat="42.57234" lon="1.96352">
        <ele>2282</ele>
        <time>2018-08-02T07:43:34Z</time>
      </trkpt>
      <trkpt lat="42.57236" lon="1.96348">
        <ele>2283</ele>
        <time>2018-08-02T07:43:37Z</time>
      </trkpt>
      <trkpt lat="42.57235" lon="1.96341">
        <ele>2282</ele>
        <time>2018-08-02T07:43:41Z</time>
      </trkpt>
      <trkpt lat="42.57233" lon="1.96337">
        <ele>2282</ele>
        <time>2018-08-02T07:43:44Z</time>
      </trkpt>
      <trkpt lat="42.57234" lon="1.96333">
        <ele>2282</ele>
        <time>2018-08-02T07:43:48Z</time>
      </trkpt>
      <trkpt lat="42.57233" lon="1.96328">
        <ele>2283</ele>
        <time>2018-08-02T07:43:53Z</time>
      </trkpt>
      <trkpt lat="42.5723" lon="1.96324">
        <ele>2283</ele>
        <time>2018-08-02T07:43:57Z</time>
      </trkpt>
      <trkpt lat="42.57232" lon="1.96318">
        <ele>2282</ele>
        <time>2018-08-02T07:43:59Z</time>
      </trkpt>
      <trkpt lat="42.5723" lon="1.96315">
        <ele>2281</ele>
        <time>2018-08-02T07:44:02Z</time>
      </trkpt>
      <trkpt lat="42.57228" lon="1.96311">
        <ele>2281</ele>
        <time>2018-08-02T07:44:05Z</time>
      </trkpt>
      <trkpt lat="42.5723" lon="1.96307">
        <ele>2278</ele>
        <time>2018-08-02T07:44:11Z</time>
      </trkpt>
      <trkpt lat="42.57228" lon="1.96302">
        <ele>2276</ele>
        <time>2018-08-02T07:44:14Z</time>
      </trkpt>
      <trkpt lat="42.57227" lon="1.96299">
        <ele>2277</ele>
        <time>2018-08-02T07:44:16Z</time>
      </trkpt>
      <trkpt lat="42.57224" lon="1.96296">
        <ele>2276</ele>
        <time>2018-08-02T07:44:19Z</time>
      </trkpt>
      <trkpt lat="42.57223" lon="1.96292">
        <ele>2277</ele>
        <time>2018-08-02T07:44:22Z</time>
      </trkpt>
      <trkpt lat="42.57218" lon="1.96285">
        <ele>2278</ele>
        <time>2018-08-02T07:44:29Z</time>
      </trkpt>
      <trkpt lat="42.57217" lon="1.96281">
        <ele>2279</ele>
        <time>2018-08-02T07:44:32Z</time>
      </trkpt>
      <trkpt lat="42.57217" lon="1.96277">
        <ele>2279</ele>
        <time>2018-08-02T07:44:35Z</time>
      </trkpt>
      <trkpt lat="42.57216" lon="1.96272">
        <ele>2279</ele>
        <time>2018-08-02T07:44:39Z</time>
      </trkpt>
      <trkpt lat="42.57215" lon="1.96269">
        <ele>2278</ele>
        <time>2018-08-02T07:44:43Z</time>
      </trkpt>
      <trkpt lat="42.57215" lon="1.9626">
        <ele>2280</ele>
        <time>2018-08-02T07:44:52Z</time>
      </trkpt>
      <trkpt lat="42.57215" lon="1.96253">
        <ele>2280</ele>
        <time>2018-08-02T07:44:57Z</time>
      </trkpt>
      <trkpt lat="42.5722" lon="1.96251">
        <ele>2279</ele>
        <time>2018-08-02T07:44:59Z</time>
      </trkpt>
      <trkpt lat="42.57218" lon="1.96246">
        <ele>2280</ele>
        <time>2018-08-02T07:45:03Z</time>
      </trkpt>
      <trkpt lat="42.57213" lon="1.96239">
        <ele>2282</ele>
        <time>2018-08-02T07:45:12Z</time>
      </trkpt>
      <trkpt lat="42.57209" lon="1.96235">
        <ele>2283</ele>
        <time>2018-08-02T07:45:15Z</time>
      </trkpt>
      <trkpt lat="42.57211" lon="1.96231">
        <ele>2283</ele>
        <time>2018-08-02T07:45:18Z</time>
      </trkpt>
      <trkpt lat="42.57211" lon="1.96227">
        <ele>2284</ele>
        <time>2018-08-02T07:45:22Z</time>
      </trkpt>
      <trkpt lat="42.57209" lon="1.9622">
        <ele>2286</ele>
        <time>2018-08-02T07:45:29Z</time>
      </trkpt>
      <trkpt lat="42.57211" lon="1.96217">
        <ele>2286</ele>
        <time>2018-08-02T07:45:31Z</time>
      </trkpt>
      <trkpt lat="42.57207" lon="1.96216">
        <ele>2287</ele>
        <time>2018-08-02T07:45:34Z</time>
      </trkpt>
      <trkpt lat="42.57202" lon="1.96212">
        <ele>2287</ele>
        <time>2018-08-02T07:45:42Z</time>
      </trkpt>
      <trkpt lat="42.572" lon="1.9621">
        <ele>2289</ele>
        <time>2018-08-02T07:45:45Z</time>
      </trkpt>
      <trkpt lat="42.57202" lon="1.96206">
        <ele>2289</ele>
        <time>2018-08-02T07:45:47Z</time>
      </trkpt>
      <trkpt lat="42.572" lon="1.96203">
        <ele>2290</ele>
        <time>2018-08-02T07:45:51Z</time>
      </trkpt>
      <trkpt lat="42.57202" lon="1.962">
        <ele>2290</ele>
        <time>2018-08-02T07:45:54Z</time>
      </trkpt>
      <trkpt lat="42.572" lon="1.96196">
        <ele>2290</ele>
        <time>2018-08-02T07:45:58Z</time>
      </trkpt>
      <trkpt lat="42.57202" lon="1.96186">
        <ele>2289</ele>
        <time>2018-08-02T07:46:08Z</time>
      </trkpt>
      <trkpt lat="42.57203" lon="1.9618">
        <ele>2294</ele>
        <time>2018-08-02T07:46:12Z</time>
      </trkpt>
      <trkpt lat="42.57207" lon="1.96171">
        <ele>2295</ele>
        <time>2018-08-02T07:46:20Z</time>
      </trkpt>
      <trkpt lat="42.57207" lon="1.96168">
        <ele>2297</ele>
        <time>2018-08-02T07:46:23Z</time>
      </trkpt>
      <trkpt lat="42.57206" lon="1.96164">
        <ele>2297</ele>
        <time>2018-08-02T07:46:26Z</time>
      </trkpt>
      <trkpt lat="42.57206" lon="1.96157">
        <ele>2301</ele>
        <time>2018-08-02T07:46:30Z</time>
      </trkpt>
      <trkpt lat="42.57206" lon="1.96151">
        <ele>2301</ele>
        <time>2018-08-02T07:46:35Z</time>
      </trkpt>
      <trkpt lat="42.57209" lon="1.96146">
        <ele>2303</ele>
        <time>2018-08-02T07:46:44Z</time>
      </trkpt>
      <trkpt lat="42.57205" lon="1.96134">
        <ele>2304</ele>
        <time>2018-08-02T07:46:56Z</time>
      </trkpt>
      <trkpt lat="42.57212" lon="1.96125">
        <ele>2311</ele>
        <time>2018-08-02T07:47:09Z</time>
      </trkpt>
      <trkpt lat="42.57212" lon="1.9612">
        <ele>2312</ele>
        <time>2018-08-02T07:47:14Z</time>
      </trkpt>
      <trkpt lat="42.57213" lon="1.96115">
        <ele>2311</ele>
        <time>2018-08-02T07:47:22Z</time>
      </trkpt>
      <trkpt lat="42.57217" lon="1.96112">
        <ele>2311</ele>
        <time>2018-08-02T07:47:34Z</time>
      </trkpt>
      <trkpt lat="42.57213" lon="1.96109">
        <ele>2311</ele>
        <time>2018-08-02T07:47:38Z</time>
      </trkpt>
      <trkpt lat="42.57216" lon="1.96103">
        <ele>2308</ele>
        <time>2018-08-02T07:47:53Z</time>
      </trkpt>
      <trkpt lat="42.57219" lon="1.96101">
        <ele>2309</ele>
        <time>2018-08-02T07:47:58Z</time>
      </trkpt>
      <trkpt lat="42.57221" lon="1.96097">
        <ele>2307</ele>
        <time>2018-08-02T07:48:05Z</time>
      </trkpt>
      <trkpt lat="42.5722" lon="1.96092">
        <ele>2306</ele>
        <time>2018-08-02T07:48:16Z</time>
      </trkpt>
      <trkpt lat="42.5722" lon="1.96088">
        <ele>2305</ele>
        <time>2018-08-02T07:48:21Z</time>
      </trkpt>
      <trkpt lat="42.57219" lon="1.96083">
        <ele>2304</ele>
        <time>2018-08-02T07:48:26Z</time>
      </trkpt>
      <trkpt lat="42.57217" lon="1.96076">
        <ele>2307</ele>
        <time>2018-08-02T07:48:35Z</time>
      </trkpt>
      <trkpt lat="42.57217" lon="1.96071">
        <ele>2309</ele>
        <time>2018-08-02T07:48:40Z</time>
      </trkpt>
      <trkpt lat="42.57216" lon="1.96062">
        <ele>2310</ele>
        <time>2018-08-02T07:48:50Z</time>
      </trkpt>
      <trkpt lat="42.57217" lon="1.96058">
        <ele>2311</ele>
        <time>2018-08-02T07:48:53Z</time>
      </trkpt>
      <trkpt lat="42.57214" lon="1.96057">
        <ele>2314</ele>
        <time>2018-08-02T07:49:26Z</time>
      </trkpt>
      <trkpt lat="42.57214" lon="1.96053">
        <ele>2316</ele>
        <time>2018-08-02T07:50:50Z</time>
      </trkpt>
      <trkpt lat="42.57214" lon="1.96049">
        <ele>2319</ele>
        <time>2018-08-02T07:50:55Z</time>
      </trkpt>
      <trkpt lat="42.57212" lon="1.96046">
        <ele>2319</ele>
        <time>2018-08-02T07:50:59Z</time>
      </trkpt>
      <trkpt lat="42.57214" lon="1.96038">
        <ele>2325</ele>
        <time>2018-08-02T07:51:09Z</time>
      </trkpt>
      <trkpt lat="42.57216" lon="1.96035">
        <ele>2322</ele>
        <time>2018-08-02T07:51:14Z</time>
      </trkpt>
      <trkpt lat="42.57215" lon="1.96031">
        <ele>2324</ele>
        <time>2018-08-02T07:51:18Z</time>
      </trkpt>
      <trkpt lat="42.57222" lon="1.96021">
        <ele>2322</ele>
        <time>2018-08-02T07:51:28Z</time>
      </trkpt>
      <trkpt lat="42.57218" lon="1.96017">
        <ele>2322</ele>
        <time>2018-08-02T07:51:31Z</time>
      </trkpt>
      <trkpt lat="42.57224" lon="1.96009">
        <ele>2321</ele>
        <time>2018-08-02T07:51:41Z</time>
      </trkpt>
      <trkpt lat="42.57232" lon="1.95998">
        <ele>2326</ele>
        <time>2018-08-02T07:51:55Z</time>
      </trkpt>
      <trkpt lat="42.57229" lon="1.95991">
        <ele>2331</ele>
        <time>2018-08-02T07:52:01Z</time>
      </trkpt>
      <trkpt lat="42.57231" lon="1.95978">
        <ele>2335</ele>
        <time>2018-08-02T07:52:11Z</time>
      </trkpt>
      <trkpt lat="42.57236" lon="1.95959">
        <ele>2334</ele>
        <time>2018-08-02T07:52:36Z</time>
      </trkpt>
      <trkpt lat="42.57237" lon="1.95953">
        <ele>2333</ele>
        <time>2018-08-02T07:52:42Z</time>
      </trkpt>
      <trkpt lat="42.57241" lon="1.95932">
        <ele>2335</ele>
        <time>2018-08-02T07:53:07Z</time>
      </trkpt>
      <trkpt lat="42.57243" lon="1.95929">
        <ele>2335</ele>
        <time>2018-08-02T07:53:13Z</time>
      </trkpt>
      <trkpt lat="42.57244" lon="1.95925">
        <ele>2331</ele>
        <time>2018-08-02T07:53:23Z</time>
      </trkpt>
      <trkpt lat="42.57244" lon="1.95921">
        <ele>2330</ele>
        <time>2018-08-02T07:53:27Z</time>
      </trkpt>
      <trkpt lat="42.57244" lon="1.95917">
        <ele>2328</ele>
        <time>2018-08-02T07:53:29Z</time>
      </trkpt>
      <trkpt lat="42.57245" lon="1.95913">
        <ele>2327</ele>
        <time>2018-08-02T07:53:32Z</time>
      </trkpt>
      <trkpt lat="42.57247" lon="1.95906">
        <ele>2327</ele>
        <time>2018-08-02T07:53:41Z</time>
      </trkpt>
      <trkpt lat="42.5725" lon="1.95894">
        <ele>2329</ele>
        <time>2018-08-02T07:54:03Z</time>
      </trkpt>
      <trkpt lat="42.5725" lon="1.9589">
        <ele>2330</ele>
        <time>2018-08-02T07:54:13Z</time>
      </trkpt>
      <trkpt lat="42.57249" lon="1.95886">
        <ele>2331</ele>
        <time>2018-08-02T07:54:16Z</time>
      </trkpt>
      <trkpt lat="42.57246" lon="1.95874">
        <ele>2332</ele>
        <time>2018-08-02T07:54:27Z</time>
      </trkpt>
      <trkpt lat="42.57251" lon="1.95867">
        <ele>2333</ele>
        <time>2018-08-02T07:54:36Z</time>
      </trkpt>
      <trkpt lat="42.57251" lon="1.95863">
        <ele>2333</ele>
        <time>2018-08-02T07:54:41Z</time>
      </trkpt>
      <trkpt lat="42.57252" lon="1.95859">
        <ele>2333</ele>
        <time>2018-08-02T07:54:46Z</time>
      </trkpt>
      <trkpt lat="42.57249" lon="1.95855">
        <ele>2333</ele>
        <time>2018-08-02T07:54:53Z</time>
      </trkpt>
      <trkpt lat="42.57249" lon="1.95851">
        <ele>2333</ele>
        <time>2018-08-02T07:54:56Z</time>
      </trkpt>
      <trkpt lat="42.57251" lon="1.95848">
        <ele>2333</ele>
        <time>2018-08-02T07:54:58Z</time>
      </trkpt>
      <trkpt lat="42.57252" lon="1.95842">
        <ele>2334</ele>
        <time>2018-08-02T07:55:02Z</time>
      </trkpt>
      <trkpt lat="42.57251" lon="1.95838">
        <ele>2337</ele>
        <time>2018-08-02T07:55:08Z</time>
      </trkpt>
      <trkpt lat="42.57251" lon="1.95833">
        <ele>2339</ele>
        <time>2018-08-02T07:55:15Z</time>
      </trkpt>
      <trkpt lat="42.57252" lon="1.95828">
        <ele>2340</ele>
        <time>2018-08-02T07:55:20Z</time>
      </trkpt>
      <trkpt lat="42.57251" lon="1.95822">
        <ele>2341</ele>
        <time>2018-08-02T07:55:27Z</time>
      </trkpt>
      <trkpt lat="42.57248" lon="1.9582">
        <ele>2343</ele>
        <time>2018-08-02T07:55:31Z</time>
      </trkpt>
      <trkpt lat="42.5725" lon="1.95816">
        <ele>2344</ele>
        <time>2018-08-02T07:55:35Z</time>
      </trkpt>
      <trkpt lat="42.57252" lon="1.95813">
        <ele>2345</ele>
        <time>2018-08-02T07:55:38Z</time>
      </trkpt>
      <trkpt lat="42.57251" lon="1.9581">
        <ele>2344</ele>
        <time>2018-08-02T07:55:43Z</time>
      </trkpt>
      <trkpt lat="42.57247" lon="1.95803">
        <ele>2344</ele>
        <time>2018-08-02T07:55:52Z</time>
      </trkpt>
      <trkpt lat="42.57245" lon="1.95799">
        <ele>2345</ele>
        <time>2018-08-02T07:55:55Z</time>
      </trkpt>
      <trkpt lat="42.57246" lon="1.95796">
        <ele>2346</ele>
        <time>2018-08-02T07:55:59Z</time>
      </trkpt>
      <trkpt lat="42.57244" lon="1.95792">
        <ele>2346</ele>
        <time>2018-08-02T07:56:06Z</time>
      </trkpt>
      <trkpt lat="42.57242" lon="1.95791">
        <ele>2346</ele>
        <time>2018-08-02T07:56:12Z</time>
      </trkpt>
      <trkpt lat="42.57238" lon="1.95789">
        <ele>2349</ele>
        <time>2018-08-02T07:56:15Z</time>
      </trkpt>
      <trkpt lat="42.57235" lon="1.95787">
        <ele>2354</ele>
        <time>2018-08-02T07:56:43Z</time>
      </trkpt>
      <trkpt lat="42.57232" lon="1.95785">
        <ele>2356</ele>
        <time>2018-08-02T07:56:46Z</time>
      </trkpt>
      <trkpt lat="42.57229" lon="1.95784">
        <ele>2356</ele>
        <time>2018-08-02T07:56:50Z</time>
      </trkpt>
      <trkpt lat="42.57226" lon="1.95782">
        <ele>2355</ele>
        <time>2018-08-02T07:56:54Z</time>
      </trkpt>
      <trkpt lat="42.57224" lon="1.95778">
        <ele>2355</ele>
        <time>2018-08-02T07:56:57Z</time>
      </trkpt>
      <trkpt lat="42.57223" lon="1.95774">
        <ele>2354</ele>
        <time>2018-08-02T07:57:00Z</time>
      </trkpt>
      <trkpt lat="42.57216" lon="1.9577">
        <ele>2354</ele>
        <time>2018-08-02T07:57:07Z</time>
      </trkpt>
      <trkpt lat="42.57213" lon="1.95768">
        <ele>2355</ele>
        <time>2018-08-02T07:57:12Z</time>
      </trkpt>
      <trkpt lat="42.5721" lon="1.95765">
        <ele>2356</ele>
        <time>2018-08-02T07:57:16Z</time>
      </trkpt>
      <trkpt lat="42.57209" lon="1.95762">
        <ele>2357</ele>
        <time>2018-08-02T07:57:19Z</time>
      </trkpt>
      <trkpt lat="42.57206" lon="1.95759">
        <ele>2356</ele>
        <time>2018-08-02T07:57:22Z</time>
      </trkpt>
      <trkpt lat="42.57205" lon="1.95756">
        <ele>2357</ele>
        <time>2018-08-02T07:57:26Z</time>
      </trkpt>
      <trkpt lat="42.57202" lon="1.95748">
        <ele>2355</ele>
        <time>2018-08-02T07:57:32Z</time>
      </trkpt>
      <trkpt lat="42.57199" lon="1.95746">
        <ele>2355</ele>
        <time>2018-08-02T07:57:35Z</time>
      </trkpt>
      <trkpt lat="42.57196" lon="1.95743">
        <ele>2355</ele>
        <time>2018-08-02T07:57:38Z</time>
      </trkpt>
      <trkpt lat="42.57195" lon="1.95739">
        <ele>2354</ele>
        <time>2018-08-02T07:57:42Z</time>
      </trkpt>
      <trkpt lat="42.57192" lon="1.95738">
        <ele>2354</ele>
        <time>2018-08-02T07:57:46Z</time>
      </trkpt>
      <trkpt lat="42.57189" lon="1.95736">
        <ele>2354</ele>
        <time>2018-08-02T07:57:49Z</time>
      </trkpt>
      <trkpt lat="42.57187" lon="1.95735">
        <ele>2354</ele>
        <time>2018-08-02T07:57:51Z</time>
      </trkpt>
      <trkpt lat="42.57185" lon="1.95732">
        <ele>2356</ele>
        <time>2018-08-02T07:57:55Z</time>
      </trkpt>
      <trkpt lat="42.57181" lon="1.9573">
        <ele>2356</ele>
        <time>2018-08-02T07:57:59Z</time>
      </trkpt>
      <trkpt lat="42.57179" lon="1.95726">
        <ele>2356</ele>
        <time>2018-08-02T07:58:02Z</time>
      </trkpt>
      <trkpt lat="42.57179" lon="1.95722">
        <ele>2355</ele>
        <time>2018-08-02T07:58:04Z</time>
      </trkpt>
      <trkpt lat="42.57175" lon="1.9572">
        <ele>2355</ele>
        <time>2018-08-02T07:58:08Z</time>
      </trkpt>
      <trkpt lat="42.57171" lon="1.95712">
        <ele>2355</ele>
        <time>2018-08-02T07:58:15Z</time>
      </trkpt>
      <trkpt lat="42.57167" lon="1.95707">
        <ele>2357</ele>
        <time>2018-08-02T07:58:19Z</time>
      </trkpt>
      <trkpt lat="42.57162" lon="1.95701">
        <ele>2356</ele>
        <time>2018-08-02T07:58:24Z</time>
      </trkpt>
      <trkpt lat="42.57151" lon="1.95682">
        <ele>2359</ele>
        <time>2018-08-02T07:58:44Z</time>
      </trkpt>
      <trkpt lat="42.57149" lon="1.95678">
        <ele>2357</ele>
        <time>2018-08-02T07:58:47Z</time>
      </trkpt>
      <trkpt lat="42.5715" lon="1.95669">
        <ele>2356</ele>
        <time>2018-08-02T07:58:53Z</time>
      </trkpt>
      <trkpt lat="42.57148" lon="1.95663">
        <ele>2357</ele>
        <time>2018-08-02T07:58:59Z</time>
      </trkpt>
      <trkpt lat="42.57147" lon="1.9566">
        <ele>2361</ele>
        <time>2018-08-02T07:59:02Z</time>
      </trkpt>
      <trkpt lat="42.57147" lon="1.95655">
        <ele>2359</ele>
        <time>2018-08-02T07:59:05Z</time>
      </trkpt>
      <trkpt lat="42.57148" lon="1.95651">
        <ele>2358</ele>
        <time>2018-08-02T07:59:08Z</time>
      </trkpt>
      <trkpt lat="42.57147" lon="1.95647">
        <ele>2357</ele>
        <time>2018-08-02T07:59:12Z</time>
      </trkpt>
      <trkpt lat="42.57147" lon="1.95643">
        <ele>2358</ele>
        <time>2018-08-02T07:59:16Z</time>
      </trkpt>
      <trkpt lat="42.57146" lon="1.95639">
        <ele>2360</ele>
        <time>2018-08-02T07:59:21Z</time>
      </trkpt>
      <trkpt lat="42.57146" lon="1.95635">
        <ele>2360</ele>
        <time>2018-08-02T07:59:30Z</time>
      </trkpt>
      <trkpt lat="42.57145" lon="1.95628">
        <ele>2363</ele>
        <time>2018-08-02T07:59:38Z</time>
      </trkpt>
      <trkpt lat="42.57143" lon="1.95626">
        <ele>2363</ele>
        <time>2018-08-02T07:59:42Z</time>
      </trkpt>
      <trkpt lat="42.57141" lon="1.95618">
        <ele>2363</ele>
        <time>2018-08-02T07:59:51Z</time>
      </trkpt>
      <trkpt lat="42.5714" lon="1.9561">
        <ele>2365</ele>
        <time>2018-08-02T07:59:57Z</time>
      </trkpt>
      <trkpt lat="42.57139" lon="1.95605">
        <ele>2365</ele>
        <time>2018-08-02T08:00:01Z</time>
      </trkpt>
      <trkpt lat="42.5714" lon="1.95601">
        <ele>2366</ele>
        <time>2018-08-02T08:00:05Z</time>
      </trkpt>
      <trkpt lat="42.57142" lon="1.95598">
        <ele>2365</ele>
        <time>2018-08-02T08:00:08Z</time>
      </trkpt>
      <trkpt lat="42.57142" lon="1.95593">
        <ele>2365</ele>
        <time>2018-08-02T08:00:12Z</time>
      </trkpt>
      <trkpt lat="42.57143" lon="1.95589">
        <ele>2364</ele>
        <time>2018-08-02T08:00:16Z</time>
      </trkpt>
      <trkpt lat="42.57146" lon="1.95587">
        <ele>2363</ele>
        <time>2018-08-02T08:00:19Z</time>
      </trkpt>
      <trkpt lat="42.57148" lon="1.95579">
        <ele>2363</ele>
        <time>2018-08-02T08:00:26Z</time>
      </trkpt>
      <trkpt lat="42.57147" lon="1.95574">
        <ele>2363</ele>
        <time>2018-08-02T08:00:31Z</time>
      </trkpt>
      <trkpt lat="42.57148" lon="1.95565">
        <ele>2364</ele>
        <time>2018-08-02T08:00:40Z</time>
      </trkpt>
      <trkpt lat="42.57149" lon="1.95561">
        <ele>2364</ele>
        <time>2018-08-02T08:00:43Z</time>
      </trkpt>
      <trkpt lat="42.57151" lon="1.95553">
        <ele>2364</ele>
        <time>2018-08-02T08:00:49Z</time>
      </trkpt>
      <trkpt lat="42.57155" lon="1.95541">
        <ele>2364</ele>
        <time>2018-08-02T08:00:59Z</time>
      </trkpt>
      <trkpt lat="42.57156" lon="1.95536">
        <ele>2364</ele>
        <time>2018-08-02T08:01:03Z</time>
      </trkpt>
      <trkpt lat="42.57157" lon="1.95504">
        <ele>2366</ele>
        <time>2018-08-02T08:01:30Z</time>
      </trkpt>
      <trkpt lat="42.57156" lon="1.9549">
        <ele>2370</ele>
        <time>2018-08-02T08:02:03Z</time>
      </trkpt>
      <trkpt lat="42.57156" lon="1.95487">
        <ele>2370</ele>
        <time>2018-08-02T08:02:06Z</time>
      </trkpt>
      <trkpt lat="42.57156" lon="1.9546">
        <ele>2371</ele>
        <time>2018-08-02T08:02:28Z</time>
      </trkpt>
      <trkpt lat="42.57158" lon="1.95452">
        <ele>2372</ele>
        <time>2018-08-02T08:02:36Z</time>
      </trkpt>
      <trkpt lat="42.57159" lon="1.95439">
        <ele>2372</ele>
        <time>2018-08-02T08:02:46Z</time>
      </trkpt>
      <trkpt lat="42.57159" lon="1.95435">
        <ele>2372</ele>
        <time>2018-08-02T08:02:49Z</time>
      </trkpt>
      <trkpt lat="42.57162" lon="1.95427">
        <ele>2371</ele>
        <time>2018-08-02T08:02:57Z</time>
      </trkpt>
      <trkpt lat="42.57162" lon="1.95422">
        <ele>2372</ele>
        <time>2018-08-02T08:03:01Z</time>
      </trkpt>
      <trkpt lat="42.57161" lon="1.95418">
        <ele>2373</ele>
        <time>2018-08-02T08:03:04Z</time>
      </trkpt>
      <trkpt lat="42.57162" lon="1.95406">
        <ele>2373</ele>
        <time>2018-08-02T08:03:12Z</time>
      </trkpt>
      <trkpt lat="42.57162" lon="1.95396">
        <ele>2373</ele>
        <time>2018-08-02T08:03:19Z</time>
      </trkpt>
      <trkpt lat="42.57161" lon="1.95388">
        <ele>2374</ele>
        <time>2018-08-02T08:03:26Z</time>
      </trkpt>
      <trkpt lat="42.57161" lon="1.95384">
        <ele>2374</ele>
        <time>2018-08-02T08:03:31Z</time>
      </trkpt>
      <trkpt lat="42.5716" lon="1.9538">
        <ele>2374</ele>
        <time>2018-08-02T08:03:34Z</time>
      </trkpt>
      <trkpt lat="42.57161" lon="1.95376">
        <ele>2373</ele>
        <time>2018-08-02T08:03:37Z</time>
      </trkpt>
      <trkpt lat="42.5716" lon="1.95371">
        <ele>2373</ele>
        <time>2018-08-02T08:03:42Z</time>
      </trkpt>
      <trkpt lat="42.57161" lon="1.95363">
        <ele>2374</ele>
        <time>2018-08-02T08:03:49Z</time>
      </trkpt>
      <trkpt lat="42.5716" lon="1.9535">
        <ele>2372</ele>
        <time>2018-08-02T08:03:59Z</time>
      </trkpt>
      <trkpt lat="42.57159" lon="1.95345">
        <ele>2373</ele>
        <time>2018-08-02T08:04:11Z</time>
      </trkpt>
      <trkpt lat="42.57159" lon="1.95342">
        <ele>2373</ele>
        <time>2018-08-02T08:04:14Z</time>
      </trkpt>
      <trkpt lat="42.57158" lon="1.95337">
        <ele>2373</ele>
        <time>2018-08-02T08:04:18Z</time>
      </trkpt>
      <trkpt lat="42.57158" lon="1.95317">
        <ele>2372</ele>
        <time>2018-08-02T08:04:35Z</time>
      </trkpt>
      <trkpt lat="42.57159" lon="1.95308">
        <ele>2372</ele>
        <time>2018-08-02T08:04:42Z</time>
      </trkpt>
      <trkpt lat="42.57158" lon="1.95292">
        <ele>2372</ele>
        <time>2018-08-02T08:04:56Z</time>
      </trkpt>
      <trkpt lat="42.57158" lon="1.95281">
        <ele>2374</ele>
        <time>2018-08-02T08:05:05Z</time>
      </trkpt>
      <trkpt lat="42.57157" lon="1.95275">
        <ele>2374</ele>
        <time>2018-08-02T08:05:09Z</time>
      </trkpt>
      <trkpt lat="42.57156" lon="1.95257">
        <ele>2372</ele>
        <time>2018-08-02T08:05:21Z</time>
      </trkpt>
      <trkpt lat="42.57158" lon="1.95254">
        <ele>2375</ele>
        <time>2018-08-02T08:05:40Z</time>
      </trkpt>
      <trkpt lat="42.57161" lon="1.95258">
        <ele>2377</ele>
        <time>2018-08-02T08:06:34Z</time>
      </trkpt>
      <trkpt lat="42.5716" lon="1.95256">
        <ele>2377</ele>
        <time>2018-08-02T08:09:19Z</time>
      </trkpt>
      <trkpt lat="42.57164" lon="1.95253">
        <ele>2374</ele>
        <time>2018-08-02T08:14:16Z</time>
      </trkpt>
      <trkpt lat="42.57161" lon="1.95246">
        <ele>2374</ele>
        <time>2018-08-02T08:14:27Z</time>
      </trkpt>
      <trkpt lat="42.57154" lon="1.9522">
        <ele>2378</ele>
        <time>2018-08-02T08:14:46Z</time>
      </trkpt>
      <trkpt lat="42.57153" lon="1.95212">
        <ele>2377</ele>
        <time>2018-08-02T08:14:51Z</time>
      </trkpt>
      <trkpt lat="42.5715" lon="1.95198">
        <ele>2374</ele>
        <time>2018-08-02T08:15:02Z</time>
      </trkpt>
      <trkpt lat="42.57146" lon="1.95191">
        <ele>2371</ele>
        <time>2018-08-02T08:15:09Z</time>
      </trkpt>
      <trkpt lat="42.57142" lon="1.95185">
        <ele>2371</ele>
        <time>2018-08-02T08:15:14Z</time>
      </trkpt>
      <trkpt lat="42.57143" lon="1.95176">
        <ele>2372</ele>
        <time>2018-08-02T08:15:20Z</time>
      </trkpt>
      <trkpt lat="42.57144" lon="1.95168">
        <ele>2371</ele>
        <time>2018-08-02T08:15:24Z</time>
      </trkpt>
      <trkpt lat="42.57146" lon="1.95163">
        <ele>2370</ele>
        <time>2018-08-02T08:15:28Z</time>
      </trkpt>
      <trkpt lat="42.57148" lon="1.95157">
        <ele>2369</ele>
        <time>2018-08-02T08:15:32Z</time>
      </trkpt>
      <trkpt lat="42.57151" lon="1.95148">
        <ele>2371</ele>
        <time>2018-08-02T08:15:39Z</time>
      </trkpt>
      <trkpt lat="42.57154" lon="1.95143">
        <ele>2371</ele>
        <time>2018-08-02T08:15:44Z</time>
      </trkpt>
      <trkpt lat="42.57156" lon="1.95137">
        <ele>2374</ele>
        <time>2018-08-02T08:15:52Z</time>
      </trkpt>
      <trkpt lat="42.57156" lon="1.95132">
        <ele>2374</ele>
        <time>2018-08-02T08:15:57Z</time>
      </trkpt>
      <trkpt lat="42.57158" lon="1.95129">
        <ele>2377</ele>
        <time>2018-08-02T08:16:02Z</time>
      </trkpt>
      <trkpt lat="42.57158" lon="1.95124">
        <ele>2378</ele>
        <time>2018-08-02T08:16:07Z</time>
      </trkpt>
      <trkpt lat="42.57157" lon="1.95121">
        <ele>2378</ele>
        <time>2018-08-02T08:16:11Z</time>
      </trkpt>
      <trkpt lat="42.57156" lon="1.95115">
        <ele>2380</ele>
        <time>2018-08-02T08:16:16Z</time>
      </trkpt>
      <trkpt lat="42.57158" lon="1.95109">
        <ele>2379</ele>
        <time>2018-08-02T08:16:20Z</time>
      </trkpt>
      <trkpt lat="42.57157" lon="1.95096">
        <ele>2378</ele>
        <time>2018-08-02T08:16:30Z</time>
      </trkpt>
      <trkpt lat="42.5716" lon="1.95092">
        <ele>2380</ele>
        <time>2018-08-02T08:16:37Z</time>
      </trkpt>
      <trkpt lat="42.57157" lon="1.95087">
        <ele>2381</ele>
        <time>2018-08-02T08:16:46Z</time>
      </trkpt>
      <trkpt lat="42.57161" lon="1.95082">
        <ele>2385</ele>
        <time>2018-08-02T08:16:53Z</time>
      </trkpt>
      <trkpt lat="42.57164" lon="1.95076">
        <ele>2385</ele>
        <time>2018-08-02T08:16:57Z</time>
      </trkpt>
      <trkpt lat="42.57166" lon="1.95063">
        <ele>2384</ele>
        <time>2018-08-02T08:17:10Z</time>
      </trkpt>
      <trkpt lat="42.57164" lon="1.95059">
        <ele>2388</ele>
        <time>2018-08-02T08:17:16Z</time>
      </trkpt>
      <trkpt lat="42.57167" lon="1.95053">
        <ele>2389</ele>
        <time>2018-08-02T08:17:22Z</time>
      </trkpt>
      <trkpt lat="42.57168" lon="1.95047">
        <ele>2392</ele>
        <time>2018-08-02T08:17:27Z</time>
      </trkpt>
      <trkpt lat="42.57171" lon="1.95044">
        <ele>2394</ele>
        <time>2018-08-02T08:17:34Z</time>
      </trkpt>
      <trkpt lat="42.57174" lon="1.9504">
        <ele>2396</ele>
        <time>2018-08-02T08:17:39Z</time>
      </trkpt>
      <trkpt lat="42.57177" lon="1.95028">
        <ele>2396</ele>
        <time>2018-08-02T08:17:50Z</time>
      </trkpt>
      <trkpt lat="42.57178" lon="1.95019">
        <ele>2395</ele>
        <time>2018-08-02T08:17:58Z</time>
      </trkpt>
      <trkpt lat="42.5718" lon="1.95015">
        <ele>2396</ele>
        <time>2018-08-02T08:18:02Z</time>
      </trkpt>
      <trkpt lat="42.57181" lon="1.95005">
        <ele>2393</ele>
        <time>2018-08-02T08:18:12Z</time>
      </trkpt>
      <trkpt lat="42.57179" lon="1.95">
        <ele>2392</ele>
        <time>2018-08-02T08:18:18Z</time>
      </trkpt>
      <trkpt lat="42.57179" lon="1.94996">
        <ele>2391</ele>
        <time>2018-08-02T08:18:21Z</time>
      </trkpt>
      <trkpt lat="42.57179" lon="1.9499">
        <ele>2391</ele>
        <time>2018-08-02T08:18:24Z</time>
      </trkpt>
      <trkpt lat="42.57174" lon="1.94988">
        <ele>2392</ele>
        <time>2018-08-02T08:18:35Z</time>
      </trkpt>
      <trkpt lat="42.57177" lon="1.94978">
        <ele>2396</ele>
        <time>2018-08-02T08:18:43Z</time>
      </trkpt>
      <trkpt lat="42.57172" lon="1.94979">
        <ele>2397</ele>
        <time>2018-08-02T08:18:52Z</time>
      </trkpt>
      <trkpt lat="42.57167" lon="1.94977">
        <ele>2401</ele>
        <time>2018-08-02T08:19:08Z</time>
      </trkpt>
      <trkpt lat="42.57167" lon="1.94969">
        <ele>2407</ele>
        <time>2018-08-02T08:19:18Z</time>
      </trkpt>
      <trkpt lat="42.57168" lon="1.94964">
        <ele>2405</ele>
        <time>2018-08-02T08:19:24Z</time>
      </trkpt>
      <trkpt lat="42.57171" lon="1.94959">
        <ele>2406</ele>
        <time>2018-08-02T08:19:30Z</time>
      </trkpt>
      <trkpt lat="42.57169" lon="1.94952">
        <ele>2406</ele>
        <time>2018-08-02T08:19:36Z</time>
      </trkpt>
      <trkpt lat="42.57171" lon="1.94944">
        <ele>2406</ele>
        <time>2018-08-02T08:19:43Z</time>
      </trkpt>
      <trkpt lat="42.5717" lon="1.94938">
        <ele>2408</ele>
        <time>2018-08-02T08:19:49Z</time>
      </trkpt>
      <trkpt lat="42.5717" lon="1.94931">
        <ele>2410</ele>
        <time>2018-08-02T08:20:00Z</time>
      </trkpt>
      <trkpt lat="42.57167" lon="1.94925">
        <ele>2411</ele>
        <time>2018-08-02T08:20:42Z</time>
      </trkpt>
      <trkpt lat="42.57168" lon="1.94916">
        <ele>2412</ele>
        <time>2018-08-02T08:20:51Z</time>
      </trkpt>
      <trkpt lat="42.57166" lon="1.94908">
        <ele>2412</ele>
        <time>2018-08-02T08:21:04Z</time>
      </trkpt>
      <trkpt lat="42.57162" lon="1.94904">
        <ele>2412</ele>
        <time>2018-08-02T08:21:10Z</time>
      </trkpt>
      <trkpt lat="42.57158" lon="1.94902">
        <ele>2414</ele>
        <time>2018-08-02T08:21:25Z</time>
      </trkpt>
      <trkpt lat="42.57157" lon="1.94896">
        <ele>2414</ele>
        <time>2018-08-02T08:21:30Z</time>
      </trkpt>
      <trkpt lat="42.57153" lon="1.94895">
        <ele>2415</ele>
        <time>2018-08-02T08:21:35Z</time>
      </trkpt>
      <trkpt lat="42.57152" lon="1.94889">
        <ele>2417</ele>
        <time>2018-08-02T08:21:41Z</time>
      </trkpt>
      <trkpt lat="42.57149" lon="1.94883">
        <ele>2419</ele>
        <time>2018-08-02T08:21:51Z</time>
      </trkpt>
      <trkpt lat="42.57143" lon="1.94883">
        <ele>2422</ele>
        <time>2018-08-02T08:22:06Z</time>
      </trkpt>
      <trkpt lat="42.57137" lon="1.94881">
        <ele>2423</ele>
        <time>2018-08-02T08:22:17Z</time>
      </trkpt>
      <trkpt lat="42.57132" lon="1.94875">
        <ele>2422</ele>
        <time>2018-08-02T08:22:31Z</time>
      </trkpt>
      <trkpt lat="42.57129" lon="1.94868">
        <ele>2423</ele>
        <time>2018-08-02T08:22:39Z</time>
      </trkpt>
      <trkpt lat="42.57127" lon="1.94862">
        <ele>2424</ele>
        <time>2018-08-02T08:22:46Z</time>
      </trkpt>
      <trkpt lat="42.57126" lon="1.94841">
        <ele>2422</ele>
        <time>2018-08-02T08:23:02Z</time>
      </trkpt>
      <trkpt lat="42.57124" lon="1.94834">
        <ele>2422</ele>
        <time>2018-08-02T08:23:09Z</time>
      </trkpt>
      <trkpt lat="42.57128" lon="1.94826">
        <ele>2421</ele>
        <time>2018-08-02T08:23:16Z</time>
      </trkpt>
      <trkpt lat="42.57127" lon="1.94819">
        <ele>2423</ele>
        <time>2018-08-02T08:23:21Z</time>
      </trkpt>
      <trkpt lat="42.57128" lon="1.94812">
        <ele>2425</ele>
        <time>2018-08-02T08:23:26Z</time>
      </trkpt>
      <trkpt lat="42.57131" lon="1.94807">
        <ele>2425</ele>
        <time>2018-08-02T08:23:33Z</time>
      </trkpt>
      <trkpt lat="42.5713" lon="1.94799">
        <ele>2428</ele>
        <time>2018-08-02T08:23:40Z</time>
      </trkpt>
      <trkpt lat="42.57124" lon="1.94787">
        <ele>2428</ele>
        <time>2018-08-02T08:24:14Z</time>
      </trkpt>
      <trkpt lat="42.57125" lon="1.94779">
        <ele>2433</ele>
        <time>2018-08-02T08:24:24Z</time>
      </trkpt>
      <trkpt lat="42.57117" lon="1.9476">
        <ele>2435</ele>
        <time>2018-08-02T08:24:46Z</time>
      </trkpt>
      <trkpt lat="42.57116" lon="1.94753">
        <ele>2436</ele>
        <time>2018-08-02T08:24:52Z</time>
      </trkpt>
      <trkpt lat="42.57113" lon="1.9475">
        <ele>2437</ele>
        <time>2018-08-02T08:24:56Z</time>
      </trkpt>
      <trkpt lat="42.5711" lon="1.94743">
        <ele>2437</ele>
        <time>2018-08-02T08:25:01Z</time>
      </trkpt>
      <trkpt lat="42.57105" lon="1.94735">
        <ele>2438</ele>
        <time>2018-08-02T08:25:11Z</time>
      </trkpt>
      <trkpt lat="42.57103" lon="1.9473">
        <ele>2439</ele>
        <time>2018-08-02T08:25:14Z</time>
      </trkpt>
      <trkpt lat="42.57102" lon="1.94725">
        <ele>2439</ele>
        <time>2018-08-02T08:25:20Z</time>
      </trkpt>
      <trkpt lat="42.571" lon="1.94721">
        <ele>2439</ele>
        <time>2018-08-02T08:25:26Z</time>
      </trkpt>
      <trkpt lat="42.57101" lon="1.94714">
        <ele>2438</ele>
        <time>2018-08-02T08:25:29Z</time>
      </trkpt>
      <trkpt lat="42.57098" lon="1.9471">
        <ele>2437</ele>
        <time>2018-08-02T08:25:38Z</time>
      </trkpt>
      <trkpt lat="42.57099" lon="1.94703">
        <ele>2437</ele>
        <time>2018-08-02T08:25:44Z</time>
      </trkpt>
      <trkpt lat="42.57097" lon="1.94695">
        <ele>2437</ele>
        <time>2018-08-02T08:25:53Z</time>
      </trkpt>
      <trkpt lat="42.57092" lon="1.94696">
        <ele>2439</ele>
        <time>2018-08-02T08:26:43Z</time>
      </trkpt>
      <trkpt lat="42.57097" lon="1.94683">
        <ele>2436</ele>
        <time>2018-08-02T08:27:18Z</time>
      </trkpt>
      <trkpt lat="42.57097" lon="1.94676">
        <ele>2438</ele>
        <time>2018-08-02T08:27:44Z</time>
      </trkpt>
      <trkpt lat="42.57097" lon="1.94668">
        <ele>2443</ele>
        <time>2018-08-02T08:27:50Z</time>
      </trkpt>
      <trkpt lat="42.57101" lon="1.9466">
        <ele>2444</ele>
        <time>2018-08-02T08:27:57Z</time>
      </trkpt>
      <trkpt lat="42.57101" lon="1.94652">
        <ele>2440</ele>
        <time>2018-08-02T08:28:06Z</time>
      </trkpt>
      <trkpt lat="42.57097" lon="1.94645">
        <ele>2442</ele>
        <time>2018-08-02T08:28:12Z</time>
      </trkpt>
      <trkpt lat="42.57093" lon="1.94629">
        <ele>2448</ele>
        <time>2018-08-02T08:28:27Z</time>
      </trkpt>
      <trkpt lat="42.57091" lon="1.94622">
        <ele>2449</ele>
        <time>2018-08-02T08:28:34Z</time>
      </trkpt>
      <trkpt lat="42.5709" lon="1.94616">
        <ele>2451</ele>
        <time>2018-08-02T08:28:42Z</time>
      </trkpt>
      <trkpt lat="42.57089" lon="1.94608">
        <ele>2454</ele>
        <time>2018-08-02T08:28:56Z</time>
      </trkpt>
      <trkpt lat="42.57087" lon="1.94601">
        <ele>2458</ele>
        <time>2018-08-02T08:29:04Z</time>
      </trkpt>
      <trkpt lat="42.57086" lon="1.9459">
        <ele>2461</ele>
        <time>2018-08-02T08:29:17Z</time>
      </trkpt>
      <trkpt lat="42.57083" lon="1.94583">
        <ele>2459</ele>
        <time>2018-08-02T08:29:24Z</time>
      </trkpt>
      <trkpt lat="42.57078" lon="1.94573">
        <ele>2454</ele>
        <time>2018-08-02T08:29:34Z</time>
      </trkpt>
      <trkpt lat="42.57076" lon="1.94567">
        <ele>2453</ele>
        <time>2018-08-02T08:29:38Z</time>
      </trkpt>
      <trkpt lat="42.57073" lon="1.94565">
        <ele>2452</ele>
        <time>2018-08-02T08:29:43Z</time>
      </trkpt>
      <trkpt lat="42.5707" lon="1.9456">
        <ele>2453</ele>
        <time>2018-08-02T08:29:51Z</time>
      </trkpt>
      <trkpt lat="42.57066" lon="1.94546">
        <ele>2453</ele>
        <time>2018-08-02T08:30:04Z</time>
      </trkpt>
      <trkpt lat="42.57058" lon="1.94544">
        <ele>2455</ele>
        <time>2018-08-02T08:30:17Z</time>
      </trkpt>
      <trkpt lat="42.57055" lon="1.94538">
        <ele>2461</ele>
        <time>2018-08-02T08:30:27Z</time>
      </trkpt>
      <trkpt lat="42.57052" lon="1.94535">
        <ele>2462</ele>
        <time>2018-08-02T08:30:35Z</time>
      </trkpt>
      <trkpt lat="42.57052" lon="1.94531">
        <ele>2462</ele>
        <time>2018-08-02T08:30:39Z</time>
      </trkpt>
      <trkpt lat="42.57047" lon="1.94523">
        <ele>2462</ele>
        <time>2018-08-02T08:30:56Z</time>
      </trkpt>
      <trkpt lat="42.57048" lon="1.94518">
        <ele>2464</ele>
        <time>2018-08-02T08:31:00Z</time>
      </trkpt>
      <trkpt lat="42.57047" lon="1.94513">
        <ele>2464</ele>
        <time>2018-08-02T08:31:05Z</time>
      </trkpt>
      <trkpt lat="42.57045" lon="1.94509">
        <ele>2464</ele>
        <time>2018-08-02T08:31:11Z</time>
      </trkpt>
      <trkpt lat="42.57044" lon="1.94504">
        <ele>2464</ele>
        <time>2018-08-02T08:31:19Z</time>
      </trkpt>
      <trkpt lat="42.57042" lon="1.94498">
        <ele>2466</ele>
        <time>2018-08-02T08:31:23Z</time>
      </trkpt>
      <trkpt lat="42.57042" lon="1.94492">
        <ele>2469</ele>
        <time>2018-08-02T08:31:37Z</time>
      </trkpt>
      <trkpt lat="42.57042" lon="1.94487">
        <ele>2474</ele>
        <time>2018-08-02T08:31:45Z</time>
      </trkpt>
      <trkpt lat="42.57042" lon="1.94481">
        <ele>2472</ele>
        <time>2018-08-02T08:31:52Z</time>
      </trkpt>
      <trkpt lat="42.57039" lon="1.94478">
        <ele>2474</ele>
        <time>2018-08-02T08:32:08Z</time>
      </trkpt>
      <trkpt lat="42.57042" lon="1.94472">
        <ele>2475</ele>
        <time>2018-08-02T08:32:18Z</time>
      </trkpt>
      <trkpt lat="42.57037" lon="1.94468">
        <ele>2476</ele>
        <time>2018-08-02T08:32:51Z</time>
      </trkpt>
      <trkpt lat="42.57032" lon="1.94465">
        <ele>2478</ele>
        <time>2018-08-02T08:33:04Z</time>
      </trkpt>
      <trkpt lat="42.57028" lon="1.94459">
        <ele>2481</ele>
        <time>2018-08-02T08:33:20Z</time>
      </trkpt>
      <trkpt lat="42.57027" lon="1.94454">
        <ele>2484</ele>
        <time>2018-08-02T08:33:32Z</time>
      </trkpt>
      <trkpt lat="42.57023" lon="1.9445">
        <ele>2484</ele>
        <time>2018-08-02T08:33:40Z</time>
      </trkpt>
      <trkpt lat="42.57021" lon="1.94444">
        <ele>2486</ele>
        <time>2018-08-02T08:33:49Z</time>
      </trkpt>
      <trkpt lat="42.57018" lon="1.94431">
        <ele>2482</ele>
        <time>2018-08-02T08:34:24Z</time>
      </trkpt>
      <trkpt lat="42.5702" lon="1.94424">
        <ele>2484</ele>
        <time>2018-08-02T08:34:32Z</time>
      </trkpt>
      <trkpt lat="42.57016" lon="1.94422">
        <ele>2485</ele>
        <time>2018-08-02T08:34:39Z</time>
      </trkpt>
      <trkpt lat="42.5701" lon="1.94423">
        <ele>2488</ele>
        <time>2018-08-02T08:34:55Z</time>
      </trkpt>
      <trkpt lat="42.5701" lon="1.94418">
        <ele>2495</ele>
        <time>2018-08-02T08:35:04Z</time>
      </trkpt>
      <trkpt lat="42.57009" lon="1.94414">
        <ele>2493</ele>
        <time>2018-08-02T08:35:09Z</time>
      </trkpt>
      <trkpt lat="42.57009" lon="1.94411">
        <ele>2493</ele>
        <time>2018-08-02T08:35:14Z</time>
      </trkpt>
      <trkpt lat="42.57007" lon="1.94403">
        <ele>2498</ele>
        <time>2018-08-02T08:35:31Z</time>
      </trkpt>
      <trkpt lat="42.57006" lon="1.94383">
        <ele>2497</ele>
        <time>2018-08-02T08:35:53Z</time>
      </trkpt>
      <trkpt lat="42.57006" lon="1.94379">
        <ele>2499</ele>
        <time>2018-08-02T08:35:59Z</time>
      </trkpt>
      <trkpt lat="42.57005" lon="1.94375">
        <ele>2500</ele>
        <time>2018-08-02T08:36:06Z</time>
      </trkpt>
      <trkpt lat="42.57003" lon="1.94372">
        <ele>2498</ele>
        <time>2018-08-02T08:36:11Z</time>
      </trkpt>
      <trkpt lat="42.57003" lon="1.94362">
        <ele>2499</ele>
        <time>2018-08-02T08:36:25Z</time>
      </trkpt>
      <trkpt lat="42.57003" lon="1.94356">
        <ele>2505</ele>
        <time>2018-08-02T08:36:30Z</time>
      </trkpt>
      <trkpt lat="42.5701" lon="1.94353">
        <ele>2507</ele>
        <time>2018-08-02T08:36:52Z</time>
      </trkpt>
      <trkpt lat="42.5701" lon="1.94348">
        <ele>2511</ele>
        <time>2018-08-02T08:37:31Z</time>
      </trkpt>
      <trkpt lat="42.5701" lon="1.94344">
        <ele>2512</ele>
        <time>2018-08-02T08:37:37Z</time>
      </trkpt>
      <trkpt lat="42.57008" lon="1.94341">
        <ele>2512</ele>
        <time>2018-08-02T08:37:47Z</time>
      </trkpt>
      <trkpt lat="42.5701" lon="1.94338">
        <ele>2514</ele>
        <time>2018-08-02T08:37:51Z</time>
      </trkpt>
      <trkpt lat="42.57007" lon="1.94334">
        <ele>2513</ele>
        <time>2018-08-02T08:38:01Z</time>
      </trkpt>
      <trkpt lat="42.57006" lon="1.94331">
        <ele>2514</ele>
        <time>2018-08-02T08:38:06Z</time>
      </trkpt>
      <trkpt lat="42.57006" lon="1.94327">
        <ele>2514</ele>
        <time>2018-08-02T08:38:11Z</time>
      </trkpt>
      <trkpt lat="42.57007" lon="1.94322">
        <ele>2520</ele>
        <time>2018-08-02T08:38:16Z</time>
      </trkpt>
      <trkpt lat="42.57008" lon="1.94315">
        <ele>2524</ele>
        <time>2018-08-02T08:38:35Z</time>
      </trkpt>
      <trkpt lat="42.57009" lon="1.94308">
        <ele>2523</ele>
        <time>2018-08-02T08:38:45Z</time>
      </trkpt>
      <trkpt lat="42.57011" lon="1.94303">
        <ele>2522</ele>
        <time>2018-08-02T08:38:51Z</time>
      </trkpt>
      <trkpt lat="42.57013" lon="1.94296">
        <ele>2528</ele>
        <time>2018-08-02T08:38:58Z</time>
      </trkpt>
      <trkpt lat="42.57015" lon="1.94289">
        <ele>2538</ele>
        <time>2018-08-02T08:39:14Z</time>
      </trkpt>
      <trkpt lat="42.57017" lon="1.94286">
        <ele>2536</ele>
        <time>2018-08-02T08:39:34Z</time>
      </trkpt>
      <trkpt lat="42.57018" lon="1.94279">
        <ele>2538</ele>
        <time>2018-08-02T08:39:47Z</time>
      </trkpt>
      <trkpt lat="42.57023" lon="1.94276">
        <ele>2552</ele>
        <time>2018-08-02T08:39:54Z</time>
      </trkpt>
      <trkpt lat="42.57027" lon="1.94271">
        <ele>2552</ele>
        <time>2018-08-02T08:40:07Z</time>
      </trkpt>
      <trkpt lat="42.57031" lon="1.94265">
        <ele>2553</ele>
        <time>2018-08-02T08:40:20Z</time>
      </trkpt>
      <trkpt lat="42.5703" lon="1.94259">
        <ele>2539</ele>
        <time>2018-08-02T08:41:04Z</time>
      </trkpt>
      <trkpt lat="42.57029" lon="1.94253">
        <ele>2533</ele>
        <time>2018-08-02T08:41:12Z</time>
      </trkpt>
      <trkpt lat="42.57034" lon="1.94248">
        <ele>2539</ele>
        <time>2018-08-02T08:41:17Z</time>
      </trkpt>
      <trkpt lat="42.57037" lon="1.94245">
        <ele>2543</ele>
        <time>2018-08-02T08:41:24Z</time>
      </trkpt>
      <trkpt lat="42.57038" lon="1.94242">
        <ele>2546</ele>
        <time>2018-08-02T08:41:55Z</time>
      </trkpt>
      <trkpt lat="42.57038" lon="1.94237">
        <ele>2546</ele>
        <time>2018-08-02T08:42:07Z</time>
      </trkpt>
      <trkpt lat="42.5704" lon="1.94234">
        <ele>2545</ele>
        <time>2018-08-02T08:42:17Z</time>
      </trkpt>
      <trkpt lat="42.57037" lon="1.9423">
        <ele>2551</ele>
        <time>2018-08-02T08:42:26Z</time>
      </trkpt>
      <trkpt lat="42.57038" lon="1.94225">
        <ele>2564</ele>
        <time>2018-08-02T08:44:40Z</time>
      </trkpt>
      <trkpt lat="42.57036" lon="1.94222">
        <ele>2563</ele>
        <time>2018-08-02T08:44:43Z</time>
      </trkpt>
      <trkpt lat="42.57037" lon="1.94217">
        <ele>2563</ele>
        <time>2018-08-02T08:44:50Z</time>
      </trkpt>
      <trkpt lat="42.57035" lon="1.94211">
        <ele>2562</ele>
        <time>2018-08-02T08:44:56Z</time>
      </trkpt>
      <trkpt lat="42.57033" lon="1.94203">
        <ele>2565</ele>
        <time>2018-08-02T08:45:02Z</time>
      </trkpt>
      <trkpt lat="42.57033" lon="1.94197">
        <ele>2565</ele>
        <time>2018-08-02T08:45:15Z</time>
      </trkpt>
      <trkpt lat="42.57035" lon="1.94192">
        <ele>2570</ele>
        <time>2018-08-02T08:45:20Z</time>
      </trkpt>
      <trkpt lat="42.57037" lon="1.94187">
        <ele>2571</ele>
        <time>2018-08-02T08:45:24Z</time>
      </trkpt>
      <trkpt lat="42.57037" lon="1.94182">
        <ele>2569</ele>
        <time>2018-08-02T08:45:35Z</time>
      </trkpt>
      <trkpt lat="42.5704" lon="1.94174">
        <ele>2570</ele>
        <time>2018-08-02T08:45:43Z</time>
      </trkpt>
      <trkpt lat="42.57042" lon="1.94169">
        <ele>2571</ele>
        <time>2018-08-02T08:45:49Z</time>
      </trkpt>
      <trkpt lat="42.57047" lon="1.94161">
        <ele>2570</ele>
        <time>2018-08-02T08:45:59Z</time>
      </trkpt>
      <trkpt lat="42.57047" lon="1.94156">
        <ele>2569</ele>
        <time>2018-08-02T08:46:05Z</time>
      </trkpt>
      <trkpt lat="42.57044" lon="1.9415">
        <ele>2573</ele>
        <time>2018-08-02T08:46:19Z</time>
      </trkpt>
      <trkpt lat="42.57047" lon="1.94146">
        <ele>2573</ele>
        <time>2018-08-02T08:46:26Z</time>
      </trkpt>
      <trkpt lat="42.57047" lon="1.94138">
        <ele>2578</ele>
        <time>2018-08-02T08:46:43Z</time>
      </trkpt>
      <trkpt lat="42.57047" lon="1.94133">
        <ele>2586</ele>
        <time>2018-08-02T08:47:28Z</time>
      </trkpt>
      <trkpt lat="42.57046" lon="1.94133">
        <ele>2581</ele>
        <time>2018-08-02T08:48:33Z</time>
      </trkpt>
      <trkpt lat="42.57043" lon="1.94128">
        <ele>2581</ele>
        <time>2018-08-02T08:48:38Z</time>
      </trkpt>
      <trkpt lat="42.57043" lon="1.94123">
        <ele>2583</ele>
        <time>2018-08-02T08:48:44Z</time>
      </trkpt>
      <trkpt lat="42.57046" lon="1.94116">
        <ele>2584</ele>
        <time>2018-08-02T08:48:52Z</time>
      </trkpt>
      <trkpt lat="42.5705" lon="1.94109">
        <ele>2581</ele>
        <time>2018-08-02T08:48:58Z</time>
      </trkpt>
      <trkpt lat="42.57047" lon="1.94102">
        <ele>2581</ele>
        <time>2018-08-02T08:49:05Z</time>
      </trkpt>
      <trkpt lat="42.57044" lon="1.94095">
        <ele>2589</ele>
        <time>2018-08-02T08:49:24Z</time>
      </trkpt>
      <trkpt lat="42.57041" lon="1.94088">
        <ele>2587</ele>
        <time>2018-08-02T08:49:30Z</time>
      </trkpt>
      <trkpt lat="42.57044" lon="1.94081">
        <ele>2587</ele>
        <time>2018-08-02T08:49:36Z</time>
      </trkpt>
      <trkpt lat="42.57048" lon="1.94075">
        <ele>2586</ele>
        <time>2018-08-02T08:49:40Z</time>
      </trkpt>
      <trkpt lat="42.57052" lon="1.94071">
        <ele>2585</ele>
        <time>2018-08-02T08:49:45Z</time>
      </trkpt>
      <trkpt lat="42.57055" lon="1.94066">
        <ele>2583</ele>
        <time>2018-08-02T08:49:55Z</time>
      </trkpt>
      <trkpt lat="42.57048" lon="1.94064">
        <ele>2582</ele>
        <time>2018-08-02T08:50:09Z</time>
      </trkpt>
      <trkpt lat="42.57044" lon="1.94058">
        <ele>2575</ele>
        <time>2018-08-02T08:50:20Z</time>
      </trkpt>
      <trkpt lat="42.57042" lon="1.94052">
        <ele>2572</ele>
        <time>2018-08-02T08:50:27Z</time>
      </trkpt>
      <trkpt lat="42.57044" lon="1.94048">
        <ele>2571</ele>
        <time>2018-08-02T08:50:36Z</time>
      </trkpt>
      <trkpt lat="42.57048" lon="1.94051">
        <ele>2570</ele>
        <time>2018-08-02T08:50:47Z</time>
      </trkpt>
      <trkpt lat="42.57044" lon="1.94038">
        <ele>2578</ele>
        <time>2018-08-02T08:51:19Z</time>
      </trkpt>
      <trkpt lat="42.57041" lon="1.94029">
        <ele>2586</ele>
        <time>2018-08-02T08:51:29Z</time>
      </trkpt>
      <trkpt lat="42.5704" lon="1.94023">
        <ele>2590</ele>
        <time>2018-08-02T08:51:45Z</time>
      </trkpt>
      <trkpt lat="42.57041" lon="1.94018">
        <ele>2594</ele>
        <time>2018-08-02T08:52:01Z</time>
      </trkpt>
      <trkpt lat="42.57041" lon="1.94013">
        <ele>2598</ele>
        <time>2018-08-02T08:52:08Z</time>
      </trkpt>
      <trkpt lat="42.57041" lon="1.94008">
        <ele>2596</ele>
        <time>2018-08-02T08:52:17Z</time>
      </trkpt>
      <trkpt lat="42.5704" lon="1.94003">
        <ele>2601</ele>
        <time>2018-08-02T08:52:20Z</time>
      </trkpt>
      <trkpt lat="42.5704" lon="1.93998">
        <ele>2599</ele>
        <time>2018-08-02T08:52:23Z</time>
      </trkpt>
      <trkpt lat="42.57041" lon="1.93994">
        <ele>2600</ele>
        <time>2018-08-02T08:52:28Z</time>
      </trkpt>
      <trkpt lat="42.57044" lon="1.93997">
        <ele>2601</ele>
        <time>2018-08-02T08:52:37Z</time>
      </trkpt>
      <trkpt lat="42.57047" lon="1.94">
        <ele>2597</ele>
        <time>2018-08-02T08:53:08Z</time>
      </trkpt>
      <trkpt lat="42.57051" lon="1.94003">
        <ele>2580</ele>
        <time>2018-08-02T08:55:08Z</time>
      </trkpt>
      <trkpt lat="42.57049" lon="1.94006">
        <ele>2604</ele>
        <time>2018-08-02T08:55:17Z</time>
      </trkpt>
      <trkpt lat="42.57046" lon="1.94006">
        <ele>2603</ele>
        <time>2018-08-02T08:55:25Z</time>
      </trkpt>
      <trkpt lat="42.57043" lon="1.94005">
        <ele>2605</ele>
        <time>2018-08-02T08:55:29Z</time>
      </trkpt>
      <trkpt lat="42.57037" lon="1.94002">
        <ele>2606</ele>
        <time>2018-08-02T08:55:42Z</time>
      </trkpt>
      <trkpt lat="42.57035" lon="1.94">
        <ele>2606</ele>
        <time>2018-08-02T08:55:45Z</time>
      </trkpt>
      <trkpt lat="42.57032" lon="1.94002">
        <ele>2606</ele>
        <time>2018-08-02T08:55:53Z</time>
      </trkpt>
      <trkpt lat="42.5703" lon="1.94">
        <ele>2606</ele>
        <time>2018-08-02T08:55:55Z</time>
      </trkpt>
      <trkpt lat="42.57028" lon="1.93995">
        <ele>2606</ele>
        <time>2018-08-02T08:55:59Z</time>
      </trkpt>
      <trkpt lat="42.57026" lon="1.93992">
        <ele>2605</ele>
        <time>2018-08-02T08:56:04Z</time>
      </trkpt>
      <trkpt lat="42.57023" lon="1.93992">
        <ele>2607</ele>
        <time>2018-08-02T08:56:11Z</time>
      </trkpt>
      <trkpt lat="42.57022" lon="1.93988">
        <ele>2607</ele>
        <time>2018-08-02T08:56:17Z</time>
      </trkpt>
      <trkpt lat="42.5702" lon="1.93985">
        <ele>2607</ele>
        <time>2018-08-02T08:56:21Z</time>
      </trkpt>
      <trkpt lat="42.57017" lon="1.93984">
        <ele>2608</ele>
        <time>2018-08-02T08:56:28Z</time>
      </trkpt>
      <trkpt lat="42.57016" lon="1.9398">
        <ele>2611</ele>
        <time>2018-08-02T08:56:34Z</time>
      </trkpt>
      <trkpt lat="42.57016" lon="1.93976">
        <ele>2612</ele>
        <time>2018-08-02T08:56:39Z</time>
      </trkpt>
      <trkpt lat="42.57016" lon="1.93972">
        <ele>2611</ele>
        <time>2018-08-02T08:56:42Z</time>
      </trkpt>
      <trkpt lat="42.57013" lon="1.93973">
        <ele>2607</ele>
        <time>2018-08-02T08:56:54Z</time>
      </trkpt>
      <trkpt lat="42.57011" lon="1.9397">
        <ele>2608</ele>
        <time>2018-08-02T08:57:01Z</time>
      </trkpt>
      <trkpt lat="42.57011" lon="1.93966">
        <ele>2613</ele>
        <time>2018-08-02T08:57:07Z</time>
      </trkpt>
      <trkpt lat="42.57008" lon="1.93964">
        <ele>2615</ele>
        <time>2018-08-02T08:57:15Z</time>
      </trkpt>
      <trkpt lat="42.57006" lon="1.93961">
        <ele>2615</ele>
        <time>2018-08-02T08:57:19Z</time>
      </trkpt>
      <trkpt lat="42.57004" lon="1.93958">
        <ele>2616</ele>
        <time>2018-08-02T08:57:23Z</time>
      </trkpt>
      <trkpt lat="42.57004" lon="1.93949">
        <ele>2621</ele>
        <time>2018-08-02T08:57:54Z</time>
      </trkpt>
      <trkpt lat="42.57003" lon="1.93942">
        <ele>2625</ele>
        <time>2018-08-02T08:58:08Z</time>
      </trkpt>
      <trkpt lat="42.57001" lon="1.9394">
        <ele>2626</ele>
        <time>2018-08-02T08:58:17Z</time>
      </trkpt>
      <trkpt lat="42.57001" lon="1.93935">
        <ele>2626</ele>
        <time>2018-08-02T08:58:22Z</time>
      </trkpt>
      <trkpt lat="42.56999" lon="1.93932">
        <ele>2627</ele>
        <time>2018-08-02T08:58:31Z</time>
      </trkpt>
      <trkpt lat="42.56997" lon="1.9393">
        <ele>2627</ele>
        <time>2018-08-02T08:58:48Z</time>
      </trkpt>
      <trkpt lat="42.56998" lon="1.93927">
        <ele>2628</ele>
        <time>2018-08-02T08:58:54Z</time>
      </trkpt>
      <trkpt lat="42.56998" lon="1.93922">
        <ele>2628</ele>
        <time>2018-08-02T08:58:58Z</time>
      </trkpt>
      <trkpt lat="42.56996" lon="1.9392">
        <ele>2632</ele>
        <time>2018-08-02T08:59:06Z</time>
      </trkpt>
      <trkpt lat="42.56993" lon="1.93919">
        <ele>2632</ele>
        <time>2018-08-02T08:59:09Z</time>
      </trkpt>
      <trkpt lat="42.56991" lon="1.93917">
        <ele>2633</ele>
        <time>2018-08-02T08:59:14Z</time>
      </trkpt>
      <trkpt lat="42.56991" lon="1.93913">
        <ele>2640</ele>
        <time>2018-08-02T09:00:04Z</time>
      </trkpt>
      <trkpt lat="42.5699" lon="1.9391">
        <ele>2641</ele>
        <time>2018-08-02T09:00:12Z</time>
      </trkpt>
      <trkpt lat="42.56991" lon="1.93906">
        <ele>2642</ele>
        <time>2018-08-02T09:00:20Z</time>
      </trkpt>
      <trkpt lat="42.56993" lon="1.93904">
        <ele>2642</ele>
        <time>2018-08-02T09:00:25Z</time>
      </trkpt>
      <trkpt lat="42.56995" lon="1.93899">
        <ele>2647</ele>
        <time>2018-08-02T09:00:34Z</time>
      </trkpt>
      <trkpt lat="42.56993" lon="1.93894">
        <ele>2647</ele>
        <time>2018-08-02T09:00:37Z</time>
      </trkpt>
      <trkpt lat="42.56994" lon="1.93891">
        <ele>2651</ele>
        <time>2018-08-02T09:00:47Z</time>
      </trkpt>
      <trkpt lat="42.56997" lon="1.93889">
        <ele>2651</ele>
        <time>2018-08-02T09:00:51Z</time>
      </trkpt>
      <trkpt lat="42.56997" lon="1.93885">
        <ele>2648</ele>
        <time>2018-08-02T09:00:58Z</time>
      </trkpt>
      <trkpt lat="42.56996" lon="1.93881">
        <ele>2647</ele>
        <time>2018-08-02T09:01:03Z</time>
      </trkpt>
      <trkpt lat="42.56993" lon="1.93881">
        <ele>2647</ele>
        <time>2018-08-02T09:01:07Z</time>
      </trkpt>
      <trkpt lat="42.56991" lon="1.93877">
        <ele>2646</ele>
        <time>2018-08-02T09:01:10Z</time>
      </trkpt>
      <trkpt lat="42.56994" lon="1.93875">
        <ele>2646</ele>
        <time>2018-08-02T09:01:12Z</time>
      </trkpt>
      <trkpt lat="42.56991" lon="1.93873">
        <ele>2649</ele>
        <time>2018-08-02T09:01:23Z</time>
      </trkpt>
      <trkpt lat="42.56983" lon="1.93871">
        <ele>2650</ele>
        <time>2018-08-02T09:01:31Z</time>
      </trkpt>
      <trkpt lat="42.56984" lon="1.93868">
        <ele>2648</ele>
        <time>2018-08-02T09:01:46Z</time>
      </trkpt>
      <trkpt lat="42.56988" lon="1.93866">
        <ele>2649</ele>
        <time>2018-08-02T09:01:54Z</time>
      </trkpt>
      <trkpt lat="42.56989" lon="1.93861">
        <ele>2653</ele>
        <time>2018-08-02T09:01:59Z</time>
      </trkpt>
      <trkpt lat="42.56985" lon="1.93859">
        <ele>2653</ele>
        <time>2018-08-02T09:02:04Z</time>
      </trkpt>
      <trkpt lat="42.56981" lon="1.93857">
        <ele>2659</ele>
        <time>2018-08-02T09:02:17Z</time>
      </trkpt>
      <trkpt lat="42.56983" lon="1.93853">
        <ele>2662</ele>
        <time>2018-08-02T09:03:44Z</time>
      </trkpt>
      <trkpt lat="42.56985" lon="1.9385">
        <ele>2660</ele>
        <time>2018-08-02T09:04:07Z</time>
      </trkpt>
      <trkpt lat="42.56988" lon="1.93847">
        <ele>2659</ele>
        <time>2018-08-02T09:04:14Z</time>
      </trkpt>
      <trkpt lat="42.56989" lon="1.93843">
        <ele>2659</ele>
        <time>2018-08-02T09:04:24Z</time>
      </trkpt>
      <trkpt lat="42.56987" lon="1.93838">
        <ele>2659</ele>
        <time>2018-08-02T09:04:32Z</time>
      </trkpt>
      <trkpt lat="42.56984" lon="1.93835">
        <ele>2659</ele>
        <time>2018-08-02T09:04:42Z</time>
      </trkpt>
      <trkpt lat="42.56986" lon="1.93831">
        <ele>2660</ele>
        <time>2018-08-02T09:04:53Z</time>
      </trkpt>
      <trkpt lat="42.56982" lon="1.93824">
        <ele>2664</ele>
        <time>2018-08-02T09:05:07Z</time>
      </trkpt>
      <trkpt lat="42.56982" lon="1.93818">
        <ele>2664</ele>
        <time>2018-08-02T09:05:12Z</time>
      </trkpt>
      <trkpt lat="42.56979" lon="1.93811">
        <ele>2663</ele>
        <time>2018-08-02T09:05:24Z</time>
      </trkpt>
      <trkpt lat="42.56977" lon="1.93807">
        <ele>2665</ele>
        <time>2018-08-02T09:05:29Z</time>
      </trkpt>
      <trkpt lat="42.5698" lon="1.93804">
        <ele>2666</ele>
        <time>2018-08-02T09:05:34Z</time>
      </trkpt>
      <trkpt lat="42.5698" lon="1.938">
        <ele>2668</ele>
        <time>2018-08-02T09:05:38Z</time>
      </trkpt>
      <trkpt lat="42.56981" lon="1.93796">
        <ele>2668</ele>
        <time>2018-08-02T09:05:43Z</time>
      </trkpt>
      <trkpt lat="42.56981" lon="1.93788">
        <ele>2671</ele>
        <time>2018-08-02T09:05:52Z</time>
      </trkpt>
      <trkpt lat="42.5698" lon="1.93785">
        <ele>2672</ele>
        <time>2018-08-02T09:05:58Z</time>
      </trkpt>
      <trkpt lat="42.56973" lon="1.93781">
        <ele>2673</ele>
        <time>2018-08-02T09:06:09Z</time>
      </trkpt>
      <trkpt lat="42.56974" lon="1.93772">
        <ele>2679</ele>
        <time>2018-08-02T09:06:35Z</time>
      </trkpt>
      <trkpt lat="42.56974" lon="1.93768">
        <ele>2680</ele>
        <time>2018-08-02T09:06:41Z</time>
      </trkpt>
      <trkpt lat="42.56972" lon="1.93767">
        <ele>2680</ele>
        <time>2018-08-02T09:06:49Z</time>
      </trkpt>
      <trkpt lat="42.56971" lon="1.93763">
        <ele>2680</ele>
        <time>2018-08-02T09:06:56Z</time>
      </trkpt>
      <trkpt lat="42.5697" lon="1.93758">
        <ele>2679</ele>
        <time>2018-08-02T09:07:06Z</time>
      </trkpt>
      <trkpt lat="42.56972" lon="1.93754">
        <ele>2682</ele>
        <time>2018-08-02T09:07:09Z</time>
      </trkpt>
      <trkpt lat="42.56972" lon="1.93751">
        <ele>2685</ele>
        <time>2018-08-02T09:07:21Z</time>
      </trkpt>
      <trkpt lat="42.56975" lon="1.93751">
        <ele>2688</ele>
        <time>2018-08-02T09:08:58Z</time>
      </trkpt>
      <trkpt lat="42.56975" lon="1.93747">
        <ele>2690</ele>
        <time>2018-08-02T09:09:01Z</time>
      </trkpt>
      <trkpt lat="42.56973" lon="1.93742">
        <ele>2688</ele>
        <time>2018-08-02T09:09:07Z</time>
      </trkpt>
      <trkpt lat="42.56969" lon="1.93741">
        <ele>2689</ele>
        <time>2018-08-02T09:09:12Z</time>
      </trkpt>
      <trkpt lat="42.56964" lon="1.93737">
        <ele>2692</ele>
        <time>2018-08-02T09:09:24Z</time>
      </trkpt>
      <trkpt lat="42.56967" lon="1.93727">
        <ele>2694</ele>
        <time>2018-08-02T09:09:33Z</time>
      </trkpt>
      <trkpt lat="42.56965" lon="1.93723">
        <ele>2693</ele>
        <time>2018-08-02T09:09:42Z</time>
      </trkpt>
      <trkpt lat="42.56962" lon="1.93723">
        <ele>2693</ele>
        <time>2018-08-02T09:09:48Z</time>
      </trkpt>
      <trkpt lat="42.56961" lon="1.93718">
        <ele>2693</ele>
        <time>2018-08-02T09:09:54Z</time>
      </trkpt>
      <trkpt lat="42.56964" lon="1.93715">
        <ele>2700</ele>
        <time>2018-08-02T09:10:10Z</time>
      </trkpt>
      <trkpt lat="42.5696" lon="1.93714">
        <ele>2702</ele>
        <time>2018-08-02T09:10:19Z</time>
      </trkpt>
      <trkpt lat="42.56956" lon="1.93714">
        <ele>2704</ele>
        <time>2018-08-02T09:10:39Z</time>
      </trkpt>
      <trkpt lat="42.56953" lon="1.93707">
        <ele>2705</ele>
        <time>2018-08-02T09:10:48Z</time>
      </trkpt>
      <trkpt lat="42.56958" lon="1.93708">
        <ele>2704</ele>
        <time>2018-08-02T09:10:52Z</time>
      </trkpt>
      <trkpt lat="42.56963" lon="1.93701">
        <ele>2707</ele>
        <time>2018-08-02T09:11:01Z</time>
      </trkpt>
      <trkpt lat="42.56961" lon="1.93697">
        <ele>2707</ele>
        <time>2018-08-02T09:11:05Z</time>
      </trkpt>
      <trkpt lat="42.56965" lon="1.93695">
        <ele>2704</ele>
        <time>2018-08-02T09:11:17Z</time>
      </trkpt>
      <trkpt lat="42.5696" lon="1.93682">
        <ele>2711</ele>
        <time>2018-08-02T09:11:39Z</time>
      </trkpt>
      <trkpt lat="42.56959" lon="1.93676">
        <ele>2709</ele>
        <time>2018-08-02T09:11:43Z</time>
      </trkpt>
      <trkpt lat="42.56962" lon="1.93673">
        <ele>2710</ele>
        <time>2018-08-02T09:11:54Z</time>
      </trkpt>
      <trkpt lat="42.56962" lon="1.93667">
        <ele>2712</ele>
        <time>2018-08-02T09:12:07Z</time>
      </trkpt>
      <trkpt lat="42.56961" lon="1.93668">
        <ele>2718</ele>
        <time>2018-08-02T09:13:07Z</time>
      </trkpt>
      <trkpt lat="42.5696" lon="1.93657">
        <ele>2721</ele>
        <time>2018-08-02T09:13:42Z</time>
      </trkpt>
      <trkpt lat="42.56959" lon="1.93648">
        <ele>2721</ele>
        <time>2018-08-02T09:13:56Z</time>
      </trkpt>
      <trkpt lat="42.56956" lon="1.93642">
        <ele>2721</ele>
        <time>2018-08-02T09:14:17Z</time>
      </trkpt>
      <trkpt lat="42.56952" lon="1.93631">
        <ele>2724</ele>
        <time>2018-08-02T09:14:46Z</time>
      </trkpt>
      <trkpt lat="42.56956" lon="1.93627">
        <ele>2725</ele>
        <time>2018-08-02T09:14:54Z</time>
      </trkpt>
      <trkpt lat="42.56958" lon="1.93627">
        <ele>2726</ele>
        <time>2018-08-02T09:17:08Z</time>
      </trkpt>
      <trkpt lat="42.56956" lon="1.9362">
        <ele>2727</ele>
        <time>2018-08-02T09:17:18Z</time>
      </trkpt>
      <trkpt lat="42.56955" lon="1.93614">
        <ele>2728</ele>
        <time>2018-08-02T09:17:25Z</time>
      </trkpt>
      <trkpt lat="42.56953" lon="1.9361">
        <ele>2729</ele>
        <time>2018-08-02T09:17:38Z</time>
      </trkpt>
      <trkpt lat="42.56955" lon="1.93602">
        <ele>2731</ele>
        <time>2018-08-02T09:17:46Z</time>
      </trkpt>
      <trkpt lat="42.56951" lon="1.93599">
        <ele>2736</ele>
        <time>2018-08-02T09:18:13Z</time>
      </trkpt>
      <trkpt lat="42.56952" lon="1.93596">
        <ele>2742</ele>
        <time>2018-08-02T09:19:03Z</time>
      </trkpt>
      <trkpt lat="42.56952" lon="1.93581">
        <ele>2751</ele>
        <time>2018-08-02T09:19:22Z</time>
      </trkpt>
      <trkpt lat="42.5695" lon="1.93577">
        <ele>2751</ele>
        <time>2018-08-02T09:19:35Z</time>
      </trkpt>
      <trkpt lat="42.56951" lon="1.93573">
        <ele>2754</ele>
        <time>2018-08-02T09:19:53Z</time>
      </trkpt>
      <trkpt lat="42.56949" lon="1.93568">
        <ele>2753</ele>
        <time>2018-08-02T09:20:01Z</time>
      </trkpt>
      <trkpt lat="42.56946" lon="1.93566">
        <ele>2754</ele>
        <time>2018-08-02T09:20:19Z</time>
      </trkpt>
      <trkpt lat="42.56943" lon="1.93562">
        <ele>2756</ele>
        <time>2018-08-02T09:20:26Z</time>
      </trkpt>
      <trkpt lat="42.56941" lon="1.93556">
        <ele>2759</ele>
        <time>2018-08-02T09:20:37Z</time>
      </trkpt>
      <trkpt lat="42.5694" lon="1.93551">
        <ele>2762</ele>
        <time>2018-08-02T09:20:48Z</time>
      </trkpt>
      <trkpt lat="42.56942" lon="1.93547">
        <ele>2763</ele>
        <time>2018-08-02T09:21:19Z</time>
      </trkpt>
      <trkpt lat="42.5694" lon="1.93543">
        <ele>2765</ele>
        <time>2018-08-02T09:21:50Z</time>
      </trkpt>
      <trkpt lat="42.56943" lon="1.9354">
        <ele>2766</ele>
        <time>2018-08-02T09:22:42Z</time>
      </trkpt>
      <trkpt lat="42.56943" lon="1.9354">
        <ele>2766</ele>
        <time>2018-08-02T09:23:01Z</time>
      </trkpt>
      <trkpt lat="42.56943" lon="1.93536">
        <ele>2764</ele>
        <time>2018-08-02T09:23:05Z</time>
      </trkpt>
      <trkpt lat="42.56943" lon="1.93531">
        <ele>2763</ele>
        <time>2018-08-02T09:23:14Z</time>
      </trkpt>
      <trkpt lat="42.56943" lon="1.93527">
        <ele>2765</ele>
        <time>2018-08-02T09:23:18Z</time>
      </trkpt>
      <trkpt lat="42.5694" lon="1.9352">
        <ele>2770</ele>
        <time>2018-08-02T09:23:37Z</time>
      </trkpt>
      <trkpt lat="42.5694" lon="1.93513">
        <ele>2780</ele>
        <time>2018-08-02T09:23:52Z</time>
      </trkpt>
      <trkpt lat="42.56937" lon="1.93511">
        <ele>2780</ele>
        <time>2018-08-02T09:24:31Z</time>
      </trkpt>
      <trkpt lat="42.5694" lon="1.93509">
        <ele>2785</ele>
        <time>2018-08-02T09:24:55Z</time>
      </trkpt>
      <trkpt lat="42.56942" lon="1.9351">
        <ele>2785</ele>
        <time>2018-08-02T09:24:58Z</time>
      </trkpt>
      <trkpt lat="42.56945" lon="1.93514">
        <ele>2784</ele>
        <time>2018-08-02T09:25:04Z</time>
      </trkpt>
      <trkpt lat="42.56947" lon="1.93509">
        <ele>2785</ele>
        <time>2018-08-02T09:25:14Z</time>
      </trkpt>
      <trkpt lat="42.56945" lon="1.93505">
        <ele>2782</ele>
        <time>2018-08-02T09:25:30Z</time>
      </trkpt>
      <trkpt lat="42.56946" lon="1.93501">
        <ele>2782</ele>
        <time>2018-08-02T09:25:46Z</time>
      </trkpt>
      <trkpt lat="42.56948" lon="1.93494">
        <ele>2782</ele>
        <time>2018-08-02T09:25:58Z</time>
      </trkpt>
      <trkpt lat="42.56943" lon="1.93494">
        <ele>2782</ele>
        <time>2018-08-02T09:26:01Z</time>
      </trkpt>
      <trkpt lat="42.56945" lon="1.9349">
        <ele>2792</ele>
        <time>2018-08-02T09:26:45Z</time>
      </trkpt>
      <trkpt lat="42.56947" lon="1.93487">
        <ele>2797</ele>
        <time>2018-08-02T09:26:59Z</time>
      </trkpt>
      <trkpt lat="42.56949" lon="1.93485">
        <ele>2793</ele>
        <time>2018-08-02T09:29:38Z</time>
      </trkpt>
      <trkpt lat="42.56949" lon="1.93481">
        <ele>2794</ele>
        <time>2018-08-02T09:29:48Z</time>
      </trkpt>
      <trkpt lat="42.5695" lon="1.93483">
        <ele>2794</ele>
        <time>2018-08-02T09:35:19Z</time>
      </trkpt>
      <trkpt lat="42.56953" lon="1.93484">
        <ele>2796</ele>
        <time>2018-08-02T09:36:13Z</time>
      </trkpt>
      <trkpt lat="42.56953" lon="1.9348">
        <ele>2797</ele>
        <time>2018-08-02T09:36:17Z</time>
      </trkpt>
      <trkpt lat="42.56957" lon="1.93473">
        <ele>2799</ele>
        <time>2018-08-02T09:36:30Z</time>
      </trkpt>
      <trkpt lat="42.56957" lon="1.9347">
        <ele>2798</ele>
        <time>2018-08-02T09:36:36Z</time>
      </trkpt>
      <trkpt lat="42.56957" lon="1.93465">
        <ele>2800</ele>
        <time>2018-08-02T09:36:40Z</time>
      </trkpt>
      <trkpt lat="42.56958" lon="1.93461">
        <ele>2799</ele>
        <time>2018-08-02T09:36:43Z</time>
      </trkpt>
      <trkpt lat="42.5696" lon="1.93458">
        <ele>2799</ele>
        <time>2018-08-02T09:36:46Z</time>
      </trkpt>
      <trkpt lat="42.56962" lon="1.93451">
        <ele>2797</ele>
        <time>2018-08-02T09:36:57Z</time>
      </trkpt>
      <trkpt lat="42.56966" lon="1.93445">
        <ele>2799</ele>
        <time>2018-08-02T09:37:13Z</time>
      </trkpt>
      <trkpt lat="42.56968" lon="1.93442">
        <ele>2801</ele>
        <time>2018-08-02T09:37:18Z</time>
      </trkpt>
      <trkpt lat="42.56969" lon="1.93438">
        <ele>2800</ele>
        <time>2018-08-02T09:37:35Z</time>
      </trkpt>
      <trkpt lat="42.56971" lon="1.93435">
        <ele>2803</ele>
        <time>2018-08-02T09:37:47Z</time>
      </trkpt>
      <trkpt lat="42.56974" lon="1.93432">
        <ele>2804</ele>
        <time>2018-08-02T09:38:00Z</time>
      </trkpt>
      <trkpt lat="42.56974" lon="1.93428">
        <ele>2802</ele>
        <time>2018-08-02T09:38:06Z</time>
      </trkpt>
      <trkpt lat="42.56972" lon="1.93424">
        <ele>2804</ele>
        <time>2018-08-02T09:38:15Z</time>
      </trkpt>
      <trkpt lat="42.56974" lon="1.93421">
        <ele>2806</ele>
        <time>2018-08-02T09:38:21Z</time>
      </trkpt>
      <trkpt lat="42.56982" lon="1.93414">
        <ele>2803</ele>
        <time>2018-08-02T09:38:34Z</time>
      </trkpt>
      <trkpt lat="42.56983" lon="1.93409">
        <ele>2804</ele>
        <time>2018-08-02T09:38:38Z</time>
      </trkpt>
      <trkpt lat="42.56985" lon="1.93406">
        <ele>2810</ele>
        <time>2018-08-02T09:39:01Z</time>
      </trkpt>
      <trkpt lat="42.56986" lon="1.9341">
        <ele>2813</ele>
        <time>2018-08-02T09:39:12Z</time>
      </trkpt>
      <trkpt lat="42.56988" lon="1.93407">
        <ele>2814</ele>
        <time>2018-08-02T09:39:55Z</time>
      </trkpt>
      <trkpt lat="42.56991" lon="1.93406">
        <ele>2812</ele>
        <time>2018-08-02T09:40:05Z</time>
      </trkpt>
      <trkpt lat="42.57003" lon="1.93396">
        <ele>2810</ele>
        <time>2018-08-02T09:40:35Z</time>
      </trkpt>
      <trkpt lat="42.5701" lon="1.93388">
        <ele>2806</ele>
        <time>2018-08-02T09:40:45Z</time>
      </trkpt>
      <trkpt lat="42.57012" lon="1.9339">
        <ele>2807</ele>
        <time>2018-08-02T09:40:56Z</time>
      </trkpt>
      <trkpt lat="42.57014" lon="1.93386">
        <ele>2810</ele>
        <time>2018-08-02T09:41:08Z</time>
      </trkpt>
      <trkpt lat="42.57016" lon="1.93384">
        <ele>2816</ele>
        <time>2018-08-02T09:41:33Z</time>
      </trkpt>
      <trkpt lat="42.57016" lon="1.93381">
        <ele>2817</ele>
        <time>2018-08-02T09:41:36Z</time>
      </trkpt>
      <trkpt lat="42.57016" lon="1.93377">
        <ele>2819</ele>
        <time>2018-08-02T09:41:39Z</time>
      </trkpt>
      <trkpt lat="42.57021" lon="1.9337">
        <ele>2823</ele>
        <time>2018-08-02T09:41:57Z</time>
      </trkpt>
      <trkpt lat="42.57019" lon="1.93365">
        <ele>2823</ele>
        <time>2018-08-02T09:42:27Z</time>
      </trkpt>
      <trkpt lat="42.57017" lon="1.93363">
        <ele>2825</ele>
        <time>2018-08-02T09:42:46Z</time>
      </trkpt>
      <trkpt lat="42.57013" lon="1.93361">
        <ele>2830</ele>
        <time>2018-08-02T09:43:23Z</time>
      </trkpt>
      <trkpt lat="42.5701" lon="1.93361">
        <ele>2837</ele>
        <time>2018-08-02T09:44:05Z</time>
      </trkpt>
      <trkpt lat="42.57005" lon="1.93359">
        <ele>2837</ele>
        <time>2018-08-02T09:44:15Z</time>
      </trkpt>
      <trkpt lat="42.57004" lon="1.93355">
        <ele>2839</ele>
        <time>2018-08-02T09:44:19Z</time>
      </trkpt>
      <trkpt lat="42.57006" lon="1.93353">
        <ele>2840</ele>
        <time>2018-08-02T09:44:24Z</time>
      </trkpt>
      <trkpt lat="42.57004" lon="1.93351">
        <ele>2840</ele>
        <time>2018-08-02T09:44:40Z</time>
      </trkpt>
      <trkpt lat="42.57002" lon="1.93346">
        <ele>2841</ele>
        <time>2018-08-02T09:44:52Z</time>
      </trkpt>
      <trkpt lat="42.56999" lon="1.93348">
        <ele>2841</ele>
        <time>2018-08-02T09:44:58Z</time>
      </trkpt>
      <trkpt lat="42.56998" lon="1.93344">
        <ele>2842</ele>
        <time>2018-08-02T09:45:03Z</time>
      </trkpt>
      <trkpt lat="42.57" lon="1.93342">
        <ele>2842</ele>
        <time>2018-08-02T09:45:16Z</time>
      </trkpt>
      <trkpt lat="42.57003" lon="1.93342">
        <ele>2843</ele>
        <time>2018-08-02T09:45:32Z</time>
      </trkpt>
      <trkpt lat="42.57002" lon="1.93342">
        <ele>2845</ele>
        <time>2018-08-02T09:45:59Z</time>
      </trkpt>
      <trkpt lat="42.56997" lon="1.93347">
        <ele>2847</ele>
        <time>2018-08-02T09:46:22Z</time>
      </trkpt>
      <trkpt lat="42.56991" lon="1.93345">
        <ele>2847</ele>
        <time>2018-08-02T09:46:40Z</time>
      </trkpt>
      <trkpt lat="42.56991" lon="1.9334">
        <ele>2847</ele>
        <time>2018-08-02T09:47:09Z</time>
      </trkpt>
      <trkpt lat="42.56993" lon="1.93337">
        <ele>2847</ele>
        <time>2018-08-02T09:47:16Z</time>
      </trkpt>
      <trkpt lat="42.56992" lon="1.93333">
        <ele>2846</ele>
        <time>2018-08-02T09:47:19Z</time>
      </trkpt>
      <trkpt lat="42.56988" lon="1.93334">
        <ele>2848</ele>
        <time>2018-08-02T09:47:37Z</time>
      </trkpt>
      <trkpt lat="42.56989" lon="1.93338">
        <ele>2851</ele>
        <time>2018-08-02T09:48:32Z</time>
      </trkpt>
      <trkpt lat="42.5699" lon="1.93338">
        <ele>2852</ele>
        <time>2018-08-02T09:48:45Z</time>
      </trkpt>
      <trkpt lat="42.56993" lon="1.9334">
        <ele>2855</ele>
        <time>2018-08-02T09:49:51Z</time>
      </trkpt>
      <trkpt lat="42.56996" lon="1.93338">
        <ele>2852</ele>
        <time>2018-08-02T09:50:26Z</time>
      </trkpt>
      <trkpt lat="42.56999" lon="1.93341">
        <ele>2848</ele>
        <time>2018-08-02T09:51:17Z</time>
      </trkpt>
      <trkpt lat="42.57003" lon="1.93342">
        <ele>2844</ele>
        <time>2018-08-02T09:51:33Z</time>
      </trkpt>
      <trkpt lat="42.57004" lon="1.93337">
        <ele>2844</ele>
        <time>2018-08-02T09:52:11Z</time>
      </trkpt>
      <trkpt lat="42.57004" lon="1.93332">
        <ele>2849</ele>
        <time>2018-08-02T09:52:35Z</time>
      </trkpt>
      <trkpt lat="42.57008" lon="1.93333">
        <ele>2848</ele>
        <time>2018-08-02T09:52:55Z</time>
      </trkpt>
      <trkpt lat="42.57008" lon="1.93327">
        <ele>2848</ele>
        <time>2018-08-02T09:53:17Z</time>
      </trkpt>
      <trkpt lat="42.57011" lon="1.93328">
        <ele>2847</ele>
        <time>2018-08-02T09:53:33Z</time>
      </trkpt>
      <trkpt lat="42.57011" lon="1.93322">
        <ele>2846</ele>
        <time>2018-08-02T09:53:40Z</time>
      </trkpt>
      <trkpt lat="42.57013" lon="1.93321">
        <ele>2851</ele>
        <time>2018-08-02T09:54:05Z</time>
      </trkpt>
      <trkpt lat="42.57015" lon="1.93319">
        <ele>2851</ele>
        <time>2018-08-02T09:54:10Z</time>
      </trkpt>
      <trkpt lat="42.57015" lon="1.93315">
        <ele>2853</ele>
        <time>2018-08-02T09:54:22Z</time>
      </trkpt>
      <trkpt lat="42.57016" lon="1.93311">
        <ele>2854</ele>
        <time>2018-08-02T09:54:34Z</time>
      </trkpt>
      <trkpt lat="42.57017" lon="1.93306">
        <ele>2855</ele>
        <time>2018-08-02T09:55:03Z</time>
      </trkpt>
      <trkpt lat="42.57017" lon="1.93299">
        <ele>2849</ele>
        <time>2018-08-02T09:55:12Z</time>
      </trkpt>
      <trkpt lat="42.57014" lon="1.93297">
        <ele>2849</ele>
        <time>2018-08-02T09:55:19Z</time>
      </trkpt>
      <trkpt lat="42.57012" lon="1.93293">
        <ele>2846</ele>
        <time>2018-08-02T09:55:26Z</time>
      </trkpt>
      <trkpt lat="42.57015" lon="1.93292">
        <ele>2847</ele>
        <time>2018-08-02T09:55:30Z</time>
      </trkpt>
      <trkpt lat="42.57021" lon="1.93296">
        <ele>2854</ele>
        <time>2018-08-02T09:55:57Z</time>
      </trkpt>
      <trkpt lat="42.57025" lon="1.93294">
        <ele>2857</ele>
        <time>2018-08-02T09:56:05Z</time>
      </trkpt>
      <trkpt lat="42.57025" lon="1.93289">
        <ele>2858</ele>
        <time>2018-08-02T09:56:12Z</time>
      </trkpt>
      <trkpt lat="42.57023" lon="1.93282">
        <ele>2858</ele>
        <time>2018-08-02T09:56:15Z</time>
      </trkpt>
      <trkpt lat="42.57021" lon="1.93284">
        <ele>2860</ele>
        <time>2018-08-02T09:56:21Z</time>
      </trkpt>
      <trkpt lat="42.57021" lon="1.9328">
        <ele>2865</ele>
        <time>2018-08-02T09:57:09Z</time>
      </trkpt>
      <trkpt lat="42.57021" lon="1.93275">
        <ele>2868</ele>
        <time>2018-08-02T09:57:23Z</time>
      </trkpt>
      <trkpt lat="42.57024" lon="1.93275">
        <ele>2871</ele>
        <time>2018-08-02T09:57:41Z</time>
      </trkpt>
      <trkpt lat="42.57026" lon="1.93271">
        <ele>2874</ele>
        <time>2018-08-02T09:57:47Z</time>
      </trkpt>
      <trkpt lat="42.57026" lon="1.93267">
        <ele>2875</ele>
        <time>2018-08-02T09:58:05Z</time>
      </trkpt>
      <trkpt lat="42.57026" lon="1.93263">
        <ele>2875</ele>
        <time>2018-08-02T09:58:28Z</time>
      </trkpt>
      <trkpt lat="42.57027" lon="1.93259">
        <ele>2876</ele>
        <time>2018-08-02T09:58:42Z</time>
      </trkpt>
      <trkpt lat="42.57029" lon="1.93255">
        <ele>2876</ele>
        <time>2018-08-02T09:58:45Z</time>
      </trkpt>
      <trkpt lat="42.57031" lon="1.93255">
        <ele>2878</ele>
        <time>2018-08-02T09:59:01Z</time>
      </trkpt>
      <trkpt lat="42.5703" lon="1.93252">
        <ele>2879</ele>
        <time>2018-08-02T09:59:07Z</time>
      </trkpt>
      <trkpt lat="42.57031" lon="1.93248">
        <ele>2887</ele>
        <time>2018-08-02T09:59:28Z</time>
      </trkpt>
      <trkpt lat="42.57032" lon="1.93242">
        <ele>2887</ele>
        <time>2018-08-02T09:59:58Z</time>
      </trkpt>
      <trkpt lat="42.57037" lon="1.93239">
        <ele>2888</ele>
        <time>2018-08-02T10:00:12Z</time>
      </trkpt>
      <trkpt lat="42.57037" lon="1.93235">
        <ele>2886</ele>
        <time>2018-08-02T10:00:29Z</time>
      </trkpt>
      <trkpt lat="42.57039" lon="1.93232">
        <ele>2887</ele>
        <time>2018-08-02T10:00:36Z</time>
      </trkpt>
      <trkpt lat="42.57044" lon="1.93222">
        <ele>2892</ele>
        <time>2018-08-02T10:01:03Z</time>
      </trkpt>
      <trkpt lat="42.57044" lon="1.9322">
        <ele>2892</ele>
        <time>2018-08-02T10:01:27Z</time>
      </trkpt>
      <trkpt lat="42.57045" lon="1.93215">
        <ele>2893</ele>
        <time>2018-08-02T10:01:48Z</time>
      </trkpt>
      <trkpt lat="42.57043" lon="1.93212">
        <ele>2894</ele>
        <time>2018-08-02T10:01:59Z</time>
      </trkpt>
      <trkpt lat="42.57044" lon="1.93208">
        <ele>2896</ele>
        <time>2018-08-02T10:02:04Z</time>
      </trkpt>
      <trkpt lat="42.57043" lon="1.93204">
        <ele>2900</ele>
        <time>2018-08-02T10:02:25Z</time>
      </trkpt>
      <trkpt lat="42.57044" lon="1.932">
        <ele>2903</ele>
        <time>2018-08-02T10:02:42Z</time>
      </trkpt>
      <trkpt lat="42.57045" lon="1.93197">
        <ele>2902</ele>
        <time>2018-08-02T10:02:54Z</time>
      </trkpt>
      <trkpt lat="42.57043" lon="1.93192">
        <ele>2906</ele>
        <time>2018-08-02T10:03:06Z</time>
      </trkpt>
      <trkpt lat="42.57042" lon="1.93189">
        <ele>2908</ele>
        <time>2018-08-02T10:03:25Z</time>
      </trkpt>
      <trkpt lat="42.5704" lon="1.93192">
        <ele>2909</ele>
        <time>2018-08-02T10:03:44Z</time>
      </trkpt>
      <trkpt lat="42.57037" lon="1.93194">
        <ele>2911</ele>
        <time>2018-08-02T10:03:59Z</time>
      </trkpt>
      <trkpt lat="42.57036" lon="1.93196">
        <ele>2915</ele>
        <time>2018-08-02T10:04:52Z</time>
      </trkpt>
      <trkpt lat="42.57034" lon="1.93199">
        <ele>2915</ele>
        <time>2018-08-02T10:05:07Z</time>
      </trkpt>
      <trkpt lat="42.5703" lon="1.93199">
        <ele>2918</ele>
        <time>2018-08-02T10:05:20Z</time>
      </trkpt>
      <trkpt lat="42.57028" lon="1.93203">
        <ele>2919</ele>
        <time>2018-08-02T10:05:28Z</time>
      </trkpt>
      <trkpt lat="42.57025" lon="1.932">
        <ele>2921</ele>
        <time>2018-08-02T10:05:37Z</time>
      </trkpt>
      <trkpt lat="42.57022" lon="1.93196">
        <ele>2922</ele>
        <time>2018-08-02T10:05:46Z</time>
      </trkpt>
      <trkpt lat="42.57015" lon="1.93199">
        <ele>2923</ele>
        <time>2018-08-02T10:05:58Z</time>
      </trkpt>
      <trkpt lat="42.57012" lon="1.9321">
        <ele>2929</ele>
        <time>2018-08-02T10:06:11Z</time>
      </trkpt>
      <trkpt lat="42.57008" lon="1.93209">
        <ele>2929</ele>
        <time>2018-08-02T10:06:16Z</time>
      </trkpt>
      <trkpt lat="42.57005" lon="1.93206">
        <ele>2928</ele>
        <time>2018-08-02T10:06:29Z</time>
      </trkpt>
      <trkpt lat="42.57002" lon="1.93204">
        <ele>2923</ele>
        <time>2018-08-02T10:07:14Z</time>
      </trkpt>
      <trkpt lat="42.57001" lon="1.93208">
        <ele>2926</ele>
        <time>2018-08-02T10:08:50Z</time>
      </trkpt>
      <trkpt lat="42.57004" lon="1.93207">
        <ele>2933</ele>
        <time>2018-08-02T10:10:08Z</time>
      </trkpt>
      <trkpt lat="42.57006" lon="1.93205">
        <ele>2930</ele>
        <time>2018-08-02T10:10:11Z</time>
      </trkpt>
      <trkpt lat="42.57009" lon="1.93204">
        <ele>2929</ele>
        <time>2018-08-02T10:10:15Z</time>
      </trkpt>
      <trkpt lat="42.57015" lon="1.93198">
        <ele>2926</ele>
        <time>2018-08-02T10:10:23Z</time>
      </trkpt>
      <trkpt lat="42.57018" lon="1.93196">
        <ele>2925</ele>
        <time>2018-08-02T10:10:25Z</time>
      </trkpt>
      <trkpt lat="42.5702" lon="1.93199">
        <ele>2922</ele>
        <time>2018-08-02T10:10:42Z</time>
      </trkpt>
      <trkpt lat="42.57023" lon="1.93201">
        <ele>2920</ele>
        <time>2018-08-02T10:10:55Z</time>
      </trkpt>
      <trkpt lat="42.57025" lon="1.93199">
        <ele>2920</ele>
        <time>2018-08-02T10:11:05Z</time>
      </trkpt>
      <trkpt lat="42.57028" lon="1.93199">
        <ele>2919</ele>
        <time>2018-08-02T10:11:10Z</time>
      </trkpt>
      <trkpt lat="42.57031" lon="1.93197">
        <ele>2919</ele>
        <time>2018-08-02T10:11:21Z</time>
      </trkpt>
      <trkpt lat="42.57034" lon="1.93197">
        <ele>2917</ele>
        <time>2018-08-02T10:11:26Z</time>
      </trkpt>
      <trkpt lat="42.57037" lon="1.93194">
        <ele>2916</ele>
        <time>2018-08-02T10:11:34Z</time>
      </trkpt>
      <trkpt lat="42.57039" lon="1.93191">
        <ele>2915</ele>
        <time>2018-08-02T10:11:41Z</time>
      </trkpt>
      <trkpt lat="42.57042" lon="1.9319">
        <ele>2914</ele>
        <time>2018-08-02T10:11:50Z</time>
      </trkpt>
      <trkpt lat="42.57045" lon="1.93192">
        <ele>2915</ele>
        <time>2018-08-02T10:11:57Z</time>
      </trkpt>
      <trkpt lat="42.57049" lon="1.93194">
        <ele>2917</ele>
        <time>2018-08-02T10:12:02Z</time>
      </trkpt>
      <trkpt lat="42.57052" lon="1.93192">
        <ele>2919</ele>
        <time>2018-08-02T10:12:08Z</time>
      </trkpt>
      <trkpt lat="42.57055" lon="1.93191">
        <ele>2918</ele>
        <time>2018-08-02T10:12:14Z</time>
      </trkpt>
      <trkpt lat="42.57058" lon="1.93193">
        <ele>2917</ele>
        <time>2018-08-02T10:12:22Z</time>
      </trkpt>
      <trkpt lat="42.57058" lon="1.9319">
        <ele>2919</ele>
        <time>2018-08-02T10:13:57Z</time>
      </trkpt>
      <trkpt lat="42.5706" lon="1.93186">
        <ele>2919</ele>
        <time>2018-08-02T10:14:02Z</time>
      </trkpt>
      <trkpt lat="42.57064" lon="1.9318">
        <ele>2923</ele>
        <time>2018-08-02T10:14:12Z</time>
      </trkpt>
      <trkpt lat="42.57067" lon="1.93179">
        <ele>2922</ele>
        <time>2018-08-02T10:15:10Z</time>
      </trkpt>
      <trkpt lat="42.57068" lon="1.93179">
        <ele>2923</ele>
        <time>2018-08-02T10:15:38Z</time>
      </trkpt>
      <trkpt lat="42.57068" lon="1.93177">
        <ele>2921</ele>
        <time>2018-08-02T10:17:40Z</time>
      </trkpt>
      <trkpt lat="42.57069" lon="1.93173">
        <ele>2919</ele>
        <time>2018-08-02T10:21:43Z</time>
      </trkpt>
      <trkpt lat="42.57072" lon="1.93174">
        <ele>2919</ele>
        <time>2018-08-02T10:22:04Z</time>
      </trkpt>
      <trkpt lat="42.57071" lon="1.93177">
        <ele>2918</ele>
        <time>2018-08-02T10:22:25Z</time>
      </trkpt>
      <trkpt lat="42.57071" lon="1.93177">
        <ele>2918</ele>
        <time>2018-08-02T10:26:19Z</time>
      </trkpt>
      <trkpt lat="42.5707" lon="1.93173">
        <ele>2918</ele>
        <time>2018-08-02T10:26:38Z</time>
      </trkpt>
      <trkpt lat="42.57074" lon="1.93173">
        <ele>2918</ele>
        <time>2018-08-02T10:27:04Z</time>
      </trkpt>
      <trkpt lat="42.5708" lon="1.93173">
        <ele>2916</ele>
        <time>2018-08-02T10:28:03Z</time>
      </trkpt>
      <trkpt lat="42.5708" lon="1.93177">
        <ele>2919</ele>
        <time>2018-08-02T10:29:25Z</time>
      </trkpt>
      <trkpt lat="42.57076" lon="1.93181">
        <ele>2920</ele>
        <time>2018-08-02T10:29:47Z</time>
      </trkpt>
      <trkpt lat="42.57072" lon="1.93179">
        <ele>2925</ele>
        <time>2018-08-02T10:30:09Z</time>
      </trkpt>
      <trkpt lat="42.57068" lon="1.93178">
        <ele>2922</ele>
        <time>2018-08-02T10:30:30Z</time>
      </trkpt>
      <trkpt lat="42.57067" lon="1.93177">
        <ele>2922</ele>
        <time>2018-08-02T10:37:50Z</time>
      </trkpt>
      <trkpt lat="42.57067" lon="1.93176">
        <ele>2921</ele>
        <time>2018-08-02T10:38:19Z</time>
      </trkpt>
      <trkpt lat="42.57067" lon="1.9318">
        <ele>2921</ele>
        <time>2018-08-02T10:40:11Z</time>
      </trkpt>
      <trkpt lat="42.57068" lon="1.93182">
        <ele>2923</ele>
        <time>2018-08-02T10:42:06Z</time>
      </trkpt>
      <trkpt lat="42.57065" lon="1.93185">
        <ele>2922</ele>
        <time>2018-08-02T10:42:52Z</time>
      </trkpt>
      <trkpt lat="42.57062" lon="1.9319">
        <ele>2920</ele>
        <time>2018-08-02T10:43:09Z</time>
      </trkpt>
      <trkpt lat="42.57061" lon="1.93195">
        <ele>2914</ele>
        <time>2018-08-02T10:43:52Z</time>
      </trkpt>
      <trkpt lat="42.57059" lon="1.93199">
        <ele>2914</ele>
        <time>2018-08-02T10:44:01Z</time>
      </trkpt>
      <trkpt lat="42.57054" lon="1.93199">
        <ele>2913</ele>
        <time>2018-08-02T10:44:06Z</time>
      </trkpt>
      <trkpt lat="42.5705" lon="1.93203">
        <ele>2905</ele>
        <time>2018-08-02T10:44:25Z</time>
      </trkpt>
      <trkpt lat="42.57049" lon="1.93209">
        <ele>2904</ele>
        <time>2018-08-02T10:44:45Z</time>
      </trkpt>
      <trkpt lat="42.57055" lon="1.93216">
        <ele>2898</ele>
        <time>2018-08-02T10:44:55Z</time>
      </trkpt>
      <trkpt lat="42.57049" lon="1.93219">
        <ele>2889</ele>
        <time>2018-08-02T10:45:26Z</time>
      </trkpt>
      <trkpt lat="42.57046" lon="1.93222">
        <ele>2888</ele>
        <time>2018-08-02T10:45:45Z</time>
      </trkpt>
      <trkpt lat="42.57046" lon="1.93228">
        <ele>2889</ele>
        <time>2018-08-02T10:45:51Z</time>
      </trkpt>
      <trkpt lat="42.57045" lon="1.93235">
        <ele>2886</ele>
        <time>2018-08-02T10:46:19Z</time>
      </trkpt>
      <trkpt lat="42.57043" lon="1.9324">
        <ele>2885</ele>
        <time>2018-08-02T10:46:26Z</time>
      </trkpt>
      <trkpt lat="42.57041" lon="1.93245">
        <ele>2887</ele>
        <time>2018-08-02T10:46:30Z</time>
      </trkpt>
      <trkpt lat="42.57037" lon="1.93244">
        <ele>2885</ele>
        <time>2018-08-02T10:46:47Z</time>
      </trkpt>
      <trkpt lat="42.57035" lon="1.93249">
        <ele>2880</ele>
        <time>2018-08-02T10:47:02Z</time>
      </trkpt>
      <trkpt lat="42.57034" lon="1.93256">
        <ele>2875</ele>
        <time>2018-08-02T10:47:28Z</time>
      </trkpt>
      <trkpt lat="42.57031" lon="1.93261">
        <ele>2872</ele>
        <time>2018-08-02T10:47:44Z</time>
      </trkpt>
      <trkpt lat="42.57028" lon="1.93266">
        <ele>2869</ele>
        <time>2018-08-02T10:48:03Z</time>
      </trkpt>
      <trkpt lat="42.57034" lon="1.93268">
        <ele>2870</ele>
        <time>2018-08-02T10:48:05Z</time>
      </trkpt>
      <trkpt lat="42.57032" lon="1.93273">
        <ele>2867</ele>
        <time>2018-08-02T10:48:11Z</time>
      </trkpt>
      <trkpt lat="42.57029" lon="1.93277">
        <ele>2867</ele>
        <time>2018-08-02T10:48:43Z</time>
      </trkpt>
      <trkpt lat="42.57024" lon="1.93279">
        <ele>2866</ele>
        <time>2018-08-02T10:49:02Z</time>
      </trkpt>
      <trkpt lat="42.57029" lon="1.93285">
        <ele>2863</ele>
        <time>2018-08-02T10:49:30Z</time>
      </trkpt>
      <trkpt lat="42.57029" lon="1.9329">
        <ele>2858</ele>
        <time>2018-08-02T10:49:50Z</time>
      </trkpt>
      <trkpt lat="42.57027" lon="1.93291">
        <ele>2857</ele>
        <time>2018-08-02T10:49:56Z</time>
      </trkpt>
      <trkpt lat="42.57027" lon="1.93296">
        <ele>2855</ele>
        <time>2018-08-02T10:50:19Z</time>
      </trkpt>
      <trkpt lat="42.57027" lon="1.93301">
        <ele>2853</ele>
        <time>2018-08-02T10:50:29Z</time>
      </trkpt>
      <trkpt lat="42.57019" lon="1.93306">
        <ele>2850</ele>
        <time>2018-08-02T10:50:48Z</time>
      </trkpt>
      <trkpt lat="42.5702" lon="1.93312">
        <ele>2850</ele>
        <time>2018-08-02T10:51:05Z</time>
      </trkpt>
      <trkpt lat="42.5702" lon="1.9332">
        <ele>2844</ele>
        <time>2018-08-02T10:51:19Z</time>
      </trkpt>
      <trkpt lat="42.57017" lon="1.93325">
        <ele>2840</ele>
        <time>2018-08-02T10:51:26Z</time>
      </trkpt>
      <trkpt lat="42.57015" lon="1.93327">
        <ele>2848</ele>
        <time>2018-08-02T10:51:51Z</time>
      </trkpt>
      <trkpt lat="42.5701" lon="1.93325">
        <ele>2846</ele>
        <time>2018-08-02T10:52:19Z</time>
      </trkpt>
      <trkpt lat="42.57009" lon="1.93331">
        <ele>2845</ele>
        <time>2018-08-02T10:52:34Z</time>
      </trkpt>
      <trkpt lat="42.57009" lon="1.93338">
        <ele>2841</ele>
        <time>2018-08-02T10:53:09Z</time>
      </trkpt>
      <trkpt lat="42.57008" lon="1.93345">
        <ele>2841</ele>
        <time>2018-08-02T10:53:39Z</time>
      </trkpt>
      <trkpt lat="42.57009" lon="1.93348">
        <ele>2841</ele>
        <time>2018-08-02T10:53:48Z</time>
      </trkpt>
      <trkpt lat="42.57009" lon="1.93353">
        <ele>2838</ele>
        <time>2018-08-02T10:54:04Z</time>
      </trkpt>
      <trkpt lat="42.57013" lon="1.93357">
        <ele>2837</ele>
        <time>2018-08-02T10:54:17Z</time>
      </trkpt>
      <trkpt lat="42.57012" lon="1.93362">
        <ele>2833</ele>
        <time>2018-08-02T10:54:38Z</time>
      </trkpt>
      <trkpt lat="42.57007" lon="1.93366">
        <ele>2831</ele>
        <time>2018-08-02T10:54:55Z</time>
      </trkpt>
      <trkpt lat="42.57014" lon="1.93368">
        <ele>2830</ele>
        <time>2018-08-02T10:55:08Z</time>
      </trkpt>
      <trkpt lat="42.57013" lon="1.93371">
        <ele>2827</ele>
        <time>2018-08-02T10:56:14Z</time>
      </trkpt>
      <trkpt lat="42.57018" lon="1.93377">
        <ele>2824</ele>
        <time>2018-08-02T10:57:12Z</time>
      </trkpt>
      <trkpt lat="42.57017" lon="1.93382">
        <ele>2823</ele>
        <time>2018-08-02T10:57:22Z</time>
      </trkpt>
      <trkpt lat="42.57017" lon="1.93385">
        <ele>2821</ele>
        <time>2018-08-02T10:58:15Z</time>
      </trkpt>
      <trkpt lat="42.57021" lon="1.93389">
        <ele>2819</ele>
        <time>2018-08-02T10:58:20Z</time>
      </trkpt>
      <trkpt lat="42.57021" lon="1.93394">
        <ele>2820</ele>
        <time>2018-08-02T10:58:25Z</time>
      </trkpt>
      <trkpt lat="42.57018" lon="1.93397">
        <ele>2819</ele>
        <time>2018-08-02T10:58:29Z</time>
      </trkpt>
      <trkpt lat="42.57015" lon="1.93394">
        <ele>2818</ele>
        <time>2018-08-02T10:58:37Z</time>
      </trkpt>
      <trkpt lat="42.57011" lon="1.93396">
        <ele>2815</ele>
        <time>2018-08-02T10:58:44Z</time>
      </trkpt>
      <trkpt lat="42.57007" lon="1.934">
        <ele>2815</ele>
        <time>2018-08-02T10:59:01Z</time>
      </trkpt>
      <trkpt lat="42.57011" lon="1.93405">
        <ele>2814</ele>
        <time>2018-08-02T10:59:13Z</time>
      </trkpt>
      <trkpt lat="42.57007" lon="1.93408">
        <ele>2812</ele>
        <time>2018-08-02T10:59:19Z</time>
      </trkpt>
      <trkpt lat="42.57003" lon="1.93408">
        <ele>2812</ele>
        <time>2018-08-02T10:59:31Z</time>
      </trkpt>
      <trkpt lat="42.56998" lon="1.93406">
        <ele>2810</ele>
        <time>2018-08-02T11:00:11Z</time>
      </trkpt>
      <trkpt lat="42.56993" lon="1.93405">
        <ele>2811</ele>
        <time>2018-08-02T11:00:21Z</time>
      </trkpt>
      <trkpt lat="42.56989" lon="1.93408">
        <ele>2807</ele>
        <time>2018-08-02T11:00:42Z</time>
      </trkpt>
      <trkpt lat="42.56988" lon="1.93413">
        <ele>2808</ele>
        <time>2018-08-02T11:00:45Z</time>
      </trkpt>
      <trkpt lat="42.56984" lon="1.93417">
        <ele>2808</ele>
        <time>2018-08-02T11:00:50Z</time>
      </trkpt>
      <trkpt lat="42.56981" lon="1.93419">
        <ele>2806</ele>
        <time>2018-08-02T11:00:53Z</time>
      </trkpt>
      <trkpt lat="42.56977" lon="1.93424">
        <ele>2807</ele>
        <time>2018-08-02T11:01:08Z</time>
      </trkpt>
      <trkpt lat="42.56975" lon="1.93427">
        <ele>2807</ele>
        <time>2018-08-02T11:01:11Z</time>
      </trkpt>
      <trkpt lat="42.56972" lon="1.9343">
        <ele>2807</ele>
        <time>2018-08-02T11:01:18Z</time>
      </trkpt>
      <trkpt lat="42.56968" lon="1.93437">
        <ele>2801</ele>
        <time>2018-08-02T11:01:33Z</time>
      </trkpt>
      <trkpt lat="42.56968" lon="1.93442">
        <ele>2802</ele>
        <time>2018-08-02T11:01:38Z</time>
      </trkpt>
      <trkpt lat="42.56966" lon="1.93445">
        <ele>2803</ele>
        <time>2018-08-02T11:01:42Z</time>
      </trkpt>
      <trkpt lat="42.56963" lon="1.93447">
        <ele>2802</ele>
        <time>2018-08-02T11:01:47Z</time>
      </trkpt>
      <trkpt lat="42.56962" lon="1.93451">
        <ele>2801</ele>
        <time>2018-08-02T11:01:50Z</time>
      </trkpt>
      <trkpt lat="42.56963" lon="1.93456">
        <ele>2801</ele>
        <time>2018-08-02T11:01:54Z</time>
      </trkpt>
      <trkpt lat="42.56962" lon="1.93461">
        <ele>2804</ele>
        <time>2018-08-02T11:01:59Z</time>
      </trkpt>
      <trkpt lat="42.56962" lon="1.93472">
        <ele>2801</ele>
        <time>2018-08-02T11:02:13Z</time>
      </trkpt>
      <trkpt lat="42.56962" lon="1.93473">
        <ele>2797</ele>
        <time>2018-08-02T11:02:34Z</time>
      </trkpt>
      <trkpt lat="42.56961" lon="1.93478">
        <ele>2796</ele>
        <time>2018-08-02T11:02:45Z</time>
      </trkpt>
      <trkpt lat="42.56963" lon="1.93484">
        <ele>2795</ele>
        <time>2018-08-02T11:03:14Z</time>
      </trkpt>
      <trkpt lat="42.56968" lon="1.93495">
        <ele>2794</ele>
        <time>2018-08-02T11:03:31Z</time>
      </trkpt>
      <trkpt lat="42.56966" lon="1.93499">
        <ele>2794</ele>
        <time>2018-08-02T11:03:39Z</time>
      </trkpt>
      <trkpt lat="42.56969" lon="1.93503">
        <ele>2791</ele>
        <time>2018-08-02T11:03:49Z</time>
      </trkpt>
      <trkpt lat="42.56968" lon="1.93508">
        <ele>2790</ele>
        <time>2018-08-02T11:03:53Z</time>
      </trkpt>
      <trkpt lat="42.5697" lon="1.93512">
        <ele>2786</ele>
        <time>2018-08-02T11:04:03Z</time>
      </trkpt>
      <trkpt lat="42.5697" lon="1.93518">
        <ele>2786</ele>
        <time>2018-08-02T11:04:10Z</time>
      </trkpt>
      <trkpt lat="42.56973" lon="1.93522">
        <ele>2786</ele>
        <time>2018-08-02T11:04:19Z</time>
      </trkpt>
      <trkpt lat="42.56972" lon="1.93525">
        <ele>2785</ele>
        <time>2018-08-02T11:04:24Z</time>
      </trkpt>
      <trkpt lat="42.56974" lon="1.93538">
        <ele>2784</ele>
        <time>2018-08-02T11:04:40Z</time>
      </trkpt>
      <trkpt lat="42.56973" lon="1.9355">
        <ele>2779</ele>
        <time>2018-08-02T11:04:54Z</time>
      </trkpt>
      <trkpt lat="42.56973" lon="1.93556">
        <ele>2776</ele>
        <time>2018-08-02T11:05:21Z</time>
      </trkpt>
      <trkpt lat="42.5697" lon="1.93559">
        <ele>2776</ele>
        <time>2018-08-02T11:05:25Z</time>
      </trkpt>
      <trkpt lat="42.56967" lon="1.93564">
        <ele>2774</ele>
        <time>2018-08-02T11:05:34Z</time>
      </trkpt>
      <trkpt lat="42.56967" lon="1.93568">
        <ele>2772</ele>
        <time>2018-08-02T11:05:40Z</time>
      </trkpt>
      <trkpt lat="42.56969" lon="1.93571">
        <ele>2769</ele>
        <time>2018-08-02T11:06:06Z</time>
      </trkpt>
      <trkpt lat="42.56971" lon="1.93573">
        <ele>2766</ele>
        <time>2018-08-02T11:06:29Z</time>
      </trkpt>
      <trkpt lat="42.56973" lon="1.93578">
        <ele>2765</ele>
        <time>2018-08-02T11:06:36Z</time>
      </trkpt>
      <trkpt lat="42.5697" lon="1.93581">
        <ele>2764</ele>
        <time>2018-08-02T11:06:48Z</time>
      </trkpt>
      <trkpt lat="42.56973" lon="1.93584">
        <ele>2764</ele>
        <time>2018-08-02T11:07:02Z</time>
      </trkpt>
      <trkpt lat="42.56973" lon="1.93588">
        <ele>2759</ele>
        <time>2018-08-02T11:07:16Z</time>
      </trkpt>
      <trkpt lat="42.56973" lon="1.93594">
        <ele>2752</ele>
        <time>2018-08-02T11:07:28Z</time>
      </trkpt>
      <trkpt lat="42.56974" lon="1.936">
        <ele>2749</ele>
        <time>2018-08-02T11:07:35Z</time>
      </trkpt>
      <trkpt lat="42.56973" lon="1.93604">
        <ele>2747</ele>
        <time>2018-08-02T11:07:48Z</time>
      </trkpt>
      <trkpt lat="42.5697" lon="1.93604">
        <ele>2746</ele>
        <time>2018-08-02T11:08:12Z</time>
      </trkpt>
      <trkpt lat="42.56971" lon="1.93608">
        <ele>2747</ele>
        <time>2018-08-02T11:08:32Z</time>
      </trkpt>
      <trkpt lat="42.56968" lon="1.93609">
        <ele>2747</ele>
        <time>2018-08-02T11:08:44Z</time>
      </trkpt>
      <trkpt lat="42.56968" lon="1.93612">
        <ele>2744</ele>
        <time>2018-08-02T11:08:55Z</time>
      </trkpt>
      <trkpt lat="42.56964" lon="1.93616">
        <ele>2741</ele>
        <time>2018-08-02T11:09:08Z</time>
      </trkpt>
      <trkpt lat="42.56963" lon="1.9362">
        <ele>2740</ele>
        <time>2018-08-02T11:09:38Z</time>
      </trkpt>
      <trkpt lat="42.56962" lon="1.93623">
        <ele>2737</ele>
        <time>2018-08-02T11:10:00Z</time>
      </trkpt>
      <trkpt lat="42.56962" lon="1.93628">
        <ele>2738</ele>
        <time>2018-08-02T11:10:15Z</time>
      </trkpt>
      <trkpt lat="42.56964" lon="1.93631">
        <ele>2739</ele>
        <time>2018-08-02T11:10:30Z</time>
      </trkpt>
      <trkpt lat="42.56963" lon="1.93635">
        <ele>2736</ele>
        <time>2018-08-02T11:10:50Z</time>
      </trkpt>
      <trkpt lat="42.56962" lon="1.93638">
        <ele>2734</ele>
        <time>2018-08-02T11:11:23Z</time>
      </trkpt>
      <trkpt lat="42.56962" lon="1.93642">
        <ele>2733</ele>
        <time>2018-08-02T11:11:30Z</time>
      </trkpt>
      <trkpt lat="42.56964" lon="1.93646">
        <ele>2732</ele>
        <time>2018-08-02T11:11:34Z</time>
      </trkpt>
      <trkpt lat="42.56965" lon="1.9365">
        <ele>2732</ele>
        <time>2018-08-02T11:11:37Z</time>
      </trkpt>
      <trkpt lat="42.56965" lon="1.93654">
        <ele>2729</ele>
        <time>2018-08-02T11:11:45Z</time>
      </trkpt>
      <trkpt lat="42.56963" lon="1.93658">
        <ele>2728</ele>
        <time>2018-08-02T11:11:54Z</time>
      </trkpt>
      <trkpt lat="42.56966" lon="1.9366">
        <ele>2728</ele>
        <time>2018-08-02T11:11:55Z</time>
      </trkpt>
      <trkpt lat="42.56968" lon="1.93662">
        <ele>2729</ele>
        <time>2018-08-02T11:11:59Z</time>
      </trkpt>
      <trkpt lat="42.56966" lon="1.93665">
        <ele>2728</ele>
        <time>2018-08-02T11:12:09Z</time>
      </trkpt>
      <trkpt lat="42.56967" lon="1.9367">
        <ele>2725</ele>
        <time>2018-08-02T11:12:17Z</time>
      </trkpt>
      <trkpt lat="42.5697" lon="1.93671">
        <ele>2725</ele>
        <time>2018-08-02T11:12:19Z</time>
      </trkpt>
      <trkpt lat="42.56968" lon="1.93675">
        <ele>2724</ele>
        <time>2018-08-02T11:12:26Z</time>
      </trkpt>
      <trkpt lat="42.56965" lon="1.93677">
        <ele>2725</ele>
        <time>2018-08-02T11:12:32Z</time>
      </trkpt>
      <trkpt lat="42.56965" lon="1.93681">
        <ele>2725</ele>
        <time>2018-08-02T11:12:45Z</time>
      </trkpt>
      <trkpt lat="42.56967" lon="1.93684">
        <ele>2725</ele>
        <time>2018-08-02T11:12:48Z</time>
      </trkpt>
      <trkpt lat="42.5697" lon="1.93686">
        <ele>2727</ele>
        <time>2018-08-02T11:12:52Z</time>
      </trkpt>
      <trkpt lat="42.56972" lon="1.93696">
        <ele>2727</ele>
        <time>2018-08-02T11:13:03Z</time>
      </trkpt>
      <trkpt lat="42.56968" lon="1.93702">
        <ele>2726</ele>
        <time>2018-08-02T11:13:17Z</time>
      </trkpt>
      <trkpt lat="42.56966" lon="1.93706">
        <ele>2720</ele>
        <time>2018-08-02T11:13:25Z</time>
      </trkpt>
      <trkpt lat="42.56963" lon="1.93707">
        <ele>2718</ele>
        <time>2018-08-02T11:13:36Z</time>
      </trkpt>
      <trkpt lat="42.56961" lon="1.93709">
        <ele>2714</ele>
        <time>2018-08-02T11:13:52Z</time>
      </trkpt>
      <trkpt lat="42.56964" lon="1.93711">
        <ele>2713</ele>
        <time>2018-08-02T11:14:20Z</time>
      </trkpt>
      <trkpt lat="42.56965" lon="1.93714">
        <ele>2714</ele>
        <time>2018-08-02T11:14:27Z</time>
      </trkpt>
      <trkpt lat="42.56966" lon="1.93718">
        <ele>2714</ele>
        <time>2018-08-02T11:14:33Z</time>
      </trkpt>
      <trkpt lat="42.56969" lon="1.9372">
        <ele>2713</ele>
        <time>2018-08-02T11:14:35Z</time>
      </trkpt>
      <trkpt lat="42.56968" lon="1.93725">
        <ele>2712</ele>
        <time>2018-08-02T11:14:39Z</time>
      </trkpt>
      <trkpt lat="42.56965" lon="1.93727">
        <ele>2710</ele>
        <time>2018-08-02T11:14:43Z</time>
      </trkpt>
      <trkpt lat="42.56965" lon="1.93731">
        <ele>2709</ele>
        <time>2018-08-02T11:14:50Z</time>
      </trkpt>
      <trkpt lat="42.56969" lon="1.93732">
        <ele>2707</ele>
        <time>2018-08-02T11:14:54Z</time>
      </trkpt>
      <trkpt lat="42.56972" lon="1.93733">
        <ele>2706</ele>
        <time>2018-08-02T11:14:57Z</time>
      </trkpt>
      <trkpt lat="42.56974" lon="1.93736">
        <ele>2704</ele>
        <time>2018-08-02T11:15:05Z</time>
      </trkpt>
      <trkpt lat="42.5697" lon="1.93738">
        <ele>2702</ele>
        <time>2018-08-02T11:15:11Z</time>
      </trkpt>
      <trkpt lat="42.56975" lon="1.93745">
        <ele>2694</ele>
        <time>2018-08-02T11:15:29Z</time>
      </trkpt>
      <trkpt lat="42.56978" lon="1.93747">
        <ele>2693</ele>
        <time>2018-08-02T11:15:31Z</time>
      </trkpt>
      <trkpt lat="42.5698" lon="1.93752">
        <ele>2694</ele>
        <time>2018-08-02T11:15:36Z</time>
      </trkpt>
      <trkpt lat="42.56979" lon="1.93756">
        <ele>2691</ele>
        <time>2018-08-02T11:15:41Z</time>
      </trkpt>
      <trkpt lat="42.56978" lon="1.93759">
        <ele>2691</ele>
        <time>2018-08-02T11:15:55Z</time>
      </trkpt>
      <trkpt lat="42.56977" lon="1.93763">
        <ele>2689</ele>
        <time>2018-08-02T11:16:04Z</time>
      </trkpt>
      <trkpt lat="42.56978" lon="1.93767">
        <ele>2684</ele>
        <time>2018-08-02T11:16:11Z</time>
      </trkpt>
      <trkpt lat="42.5698" lon="1.93772">
        <ele>2685</ele>
        <time>2018-08-02T11:16:18Z</time>
      </trkpt>
      <trkpt lat="42.56982" lon="1.93778">
        <ele>2684</ele>
        <time>2018-08-02T11:16:24Z</time>
      </trkpt>
      <trkpt lat="42.5698" lon="1.93779">
        <ele>2680</ele>
        <time>2018-08-02T11:16:40Z</time>
      </trkpt>
      <trkpt lat="42.56977" lon="1.93782">
        <ele>2678</ele>
        <time>2018-08-02T11:16:49Z</time>
      </trkpt>
      <trkpt lat="42.56978" lon="1.93786">
        <ele>2679</ele>
        <time>2018-08-02T11:16:56Z</time>
      </trkpt>
      <trkpt lat="42.56981" lon="1.93787">
        <ele>2679</ele>
        <time>2018-08-02T11:17:00Z</time>
      </trkpt>
      <trkpt lat="42.56984" lon="1.93789">
        <ele>2678</ele>
        <time>2018-08-02T11:17:04Z</time>
      </trkpt>
      <trkpt lat="42.56986" lon="1.93792">
        <ele>2679</ele>
        <time>2018-08-02T11:17:07Z</time>
      </trkpt>
      <trkpt lat="42.56988" lon="1.93796">
        <ele>2677</ele>
        <time>2018-08-02T11:17:14Z</time>
      </trkpt>
      <trkpt lat="42.56987" lon="1.938">
        <ele>2674</ele>
        <time>2018-08-02T11:17:19Z</time>
      </trkpt>
      <trkpt lat="42.56985" lon="1.93808">
        <ele>2673</ele>
        <time>2018-08-02T11:17:28Z</time>
      </trkpt>
      <trkpt lat="42.56988" lon="1.93814">
        <ele>2672</ele>
        <time>2018-08-02T11:17:37Z</time>
      </trkpt>
      <trkpt lat="42.56994" lon="1.9382">
        <ele>2671</ele>
        <time>2018-08-02T11:17:47Z</time>
      </trkpt>
      <trkpt lat="42.56992" lon="1.93828">
        <ele>2668</ele>
        <time>2018-08-02T11:18:07Z</time>
      </trkpt>
      <trkpt lat="42.56994" lon="1.93832">
        <ele>2670</ele>
        <time>2018-08-02T11:18:18Z</time>
      </trkpt>
      <trkpt lat="42.56997" lon="1.93851">
        <ele>2668</ele>
        <time>2018-08-02T11:18:47Z</time>
      </trkpt>
      <trkpt lat="42.56995" lon="1.93855">
        <ele>2666</ele>
        <time>2018-08-02T11:18:51Z</time>
      </trkpt>
      <trkpt lat="42.56997" lon="1.93859">
        <ele>2665</ele>
        <time>2018-08-02T11:18:54Z</time>
      </trkpt>
      <trkpt lat="42.56992" lon="1.9386">
        <ele>2663</ele>
        <time>2018-08-02T11:19:07Z</time>
      </trkpt>
      <trkpt lat="42.56989" lon="1.9386">
        <ele>2660</ele>
        <time>2018-08-02T11:19:19Z</time>
      </trkpt>
      <trkpt lat="42.56988" lon="1.93865">
        <ele>2659</ele>
        <time>2018-08-02T11:19:25Z</time>
      </trkpt>
      <trkpt lat="42.56992" lon="1.93872">
        <ele>2655</ele>
        <time>2018-08-02T11:19:36Z</time>
      </trkpt>
      <trkpt lat="42.56994" lon="1.93873">
        <ele>2654</ele>
        <time>2018-08-02T11:19:40Z</time>
      </trkpt>
      <trkpt lat="42.56996" lon="1.93876">
        <ele>2652</ele>
        <time>2018-08-02T11:19:45Z</time>
      </trkpt>
      <trkpt lat="42.56999" lon="1.93879">
        <ele>2651</ele>
        <time>2018-08-02T11:19:50Z</time>
      </trkpt>
      <trkpt lat="42.57" lon="1.93884">
        <ele>2649</ele>
        <time>2018-08-02T11:19:58Z</time>
      </trkpt>
      <trkpt lat="42.56997" lon="1.93887">
        <ele>2646</ele>
        <time>2018-08-02T11:20:02Z</time>
      </trkpt>
      <trkpt lat="42.56997" lon="1.93891">
        <ele>2648</ele>
        <time>2018-08-02T11:20:10Z</time>
      </trkpt>
      <trkpt lat="42.56994" lon="1.93895">
        <ele>2650</ele>
        <time>2018-08-02T11:20:22Z</time>
      </trkpt>
      <trkpt lat="42.56993" lon="1.93901">
        <ele>2651</ele>
        <time>2018-08-02T11:20:27Z</time>
      </trkpt>
      <trkpt lat="42.56993" lon="1.93906">
        <ele>2651</ele>
        <time>2018-08-02T11:20:33Z</time>
      </trkpt>
      <trkpt lat="42.56996" lon="1.93914">
        <ele>2651</ele>
        <time>2018-08-02T11:20:39Z</time>
      </trkpt>
      <trkpt lat="42.56998" lon="1.93915">
        <ele>2648</ele>
        <time>2018-08-02T11:20:42Z</time>
      </trkpt>
      <trkpt lat="42.56999" lon="1.9392">
        <ele>2647</ele>
        <time>2018-08-02T11:20:47Z</time>
      </trkpt>
      <trkpt lat="42.56999" lon="1.93927">
        <ele>2643</ele>
        <time>2018-08-02T11:20:54Z</time>
      </trkpt>
      <trkpt lat="42.57001" lon="1.93933">
        <ele>2641</ele>
        <time>2018-08-02T11:21:00Z</time>
      </trkpt>
      <trkpt lat="42.57004" lon="1.93938">
        <ele>2636</ele>
        <time>2018-08-02T11:21:05Z</time>
      </trkpt>
      <trkpt lat="42.57009" lon="1.9394">
        <ele>2635</ele>
        <time>2018-08-02T11:21:10Z</time>
      </trkpt>
      <trkpt lat="42.57006" lon="1.93945">
        <ele>2634</ele>
        <time>2018-08-02T11:21:13Z</time>
      </trkpt>
      <trkpt lat="42.57001" lon="1.93956">
        <ele>2635</ele>
        <time>2018-08-02T11:21:24Z</time>
      </trkpt>
      <trkpt lat="42.56998" lon="1.93963">
        <ele>2638</ele>
        <time>2018-08-02T11:21:32Z</time>
      </trkpt>
      <trkpt lat="42.56999" lon="1.93969">
        <ele>2640</ele>
        <time>2018-08-02T11:21:40Z</time>
      </trkpt>
      <trkpt lat="42.57002" lon="1.93972">
        <ele>2640</ele>
        <time>2018-08-02T11:21:47Z</time>
      </trkpt>
      <trkpt lat="42.57002" lon="1.93983">
        <ele>2633</ele>
        <time>2018-08-02T11:22:01Z</time>
      </trkpt>
      <trkpt lat="42.57004" lon="1.93988">
        <ele>2629</ele>
        <time>2018-08-02T11:22:16Z</time>
      </trkpt>
      <trkpt lat="42.57006" lon="1.93985">
        <ele>2629</ele>
        <time>2018-08-02T11:22:25Z</time>
      </trkpt>
      <trkpt lat="42.57011" lon="1.93994">
        <ele>2622</ele>
        <time>2018-08-02T11:22:41Z</time>
      </trkpt>
      <trkpt lat="42.57013" lon="1.93992">
        <ele>2616</ele>
        <time>2018-08-02T11:22:53Z</time>
      </trkpt>
      <trkpt lat="42.57016" lon="1.93995">
        <ele>2615</ele>
        <time>2018-08-02T11:23:03Z</time>
      </trkpt>
      <trkpt lat="42.57019" lon="1.93993">
        <ele>2614</ele>
        <time>2018-08-02T11:23:09Z</time>
      </trkpt>
      <trkpt lat="42.57021" lon="1.93996">
        <ele>2614</ele>
        <time>2018-08-02T11:23:19Z</time>
      </trkpt>
      <trkpt lat="42.57024" lon="1.93994">
        <ele>2609</ele>
        <time>2018-08-02T11:23:54Z</time>
      </trkpt>
      <trkpt lat="42.57026" lon="1.93993">
        <ele>2606</ele>
        <time>2018-08-02T11:24:31Z</time>
      </trkpt>
      <trkpt lat="42.5703" lon="1.93995">
        <ele>2608</ele>
        <time>2018-08-02T11:26:01Z</time>
      </trkpt>
      <trkpt lat="42.5703" lon="1.93997">
        <ele>2611</ele>
        <time>2018-08-02T11:26:33Z</time>
      </trkpt>
      <trkpt lat="42.57028" lon="1.93992">
        <ele>2616</ele>
        <time>2018-08-02T11:27:07Z</time>
      </trkpt>
      <trkpt lat="42.5703" lon="1.93994">
        <ele>2615</ele>
        <time>2018-08-02T11:27:53Z</time>
      </trkpt>
      <trkpt lat="42.57034" lon="1.93996">
        <ele>2610</ele>
        <time>2018-08-02T11:28:01Z</time>
      </trkpt>
      <trkpt lat="42.57038" lon="1.93998">
        <ele>2608</ele>
        <time>2018-08-02T11:28:10Z</time>
      </trkpt>
      <trkpt lat="42.57041" lon="1.94001">
        <ele>2604</ele>
        <time>2018-08-02T11:28:32Z</time>
      </trkpt>
      <trkpt lat="42.57043" lon="1.94002">
        <ele>2606</ele>
        <time>2018-08-02T11:29:27Z</time>
      </trkpt>
      <trkpt lat="42.57047" lon="1.94004">
        <ele>2609</ele>
        <time>2018-08-02T11:29:36Z</time>
      </trkpt>
      <trkpt lat="42.57051" lon="1.94005">
        <ele>2606</ele>
        <time>2018-08-02T11:29:39Z</time>
      </trkpt>
      <trkpt lat="42.57051" lon="1.9401">
        <ele>2604</ele>
        <time>2018-08-02T11:29:43Z</time>
      </trkpt>
      <trkpt lat="42.5705" lon="1.94014">
        <ele>2603</ele>
        <time>2018-08-02T11:29:48Z</time>
      </trkpt>
      <trkpt lat="42.57053" lon="1.94016">
        <ele>2604</ele>
        <time>2018-08-02T11:29:49Z</time>
      </trkpt>
      <trkpt lat="42.5705" lon="1.9402">
        <ele>2603</ele>
        <time>2018-08-02T11:29:52Z</time>
      </trkpt>
      <trkpt lat="42.57051" lon="1.94028">
        <ele>2603</ele>
        <time>2018-08-02T11:30:01Z</time>
      </trkpt>
      <trkpt lat="42.57053" lon="1.94031">
        <ele>2604</ele>
        <time>2018-08-02T11:30:06Z</time>
      </trkpt>
      <trkpt lat="42.57053" lon="1.94035">
        <ele>2606</ele>
        <time>2018-08-02T11:30:11Z</time>
      </trkpt>
      <trkpt lat="42.57053" lon="1.94039">
        <ele>2606</ele>
        <time>2018-08-02T11:30:16Z</time>
      </trkpt>
      <trkpt lat="42.57052" lon="1.94043">
        <ele>2603</ele>
        <time>2018-08-02T11:30:20Z</time>
      </trkpt>
      <trkpt lat="42.57052" lon="1.94047">
        <ele>2601</ele>
        <time>2018-08-02T11:30:27Z</time>
      </trkpt>
      <trkpt lat="42.57055" lon="1.9406">
        <ele>2600</ele>
        <time>2018-08-02T11:30:47Z</time>
      </trkpt>
      <trkpt lat="42.57052" lon="1.94062">
        <ele>2599</ele>
        <time>2018-08-02T11:30:52Z</time>
      </trkpt>
      <trkpt lat="42.57053" lon="1.94066">
        <ele>2595</ele>
        <time>2018-08-02T11:30:58Z</time>
      </trkpt>
      <trkpt lat="42.57055" lon="1.94075">
        <ele>2594</ele>
        <time>2018-08-02T11:31:06Z</time>
      </trkpt>
      <trkpt lat="42.57053" lon="1.94082">
        <ele>2592</ele>
        <time>2018-08-02T11:31:14Z</time>
      </trkpt>
      <trkpt lat="42.57052" lon="1.94087">
        <ele>2590</ele>
        <time>2018-08-02T11:31:17Z</time>
      </trkpt>
      <trkpt lat="42.57053" lon="1.94091">
        <ele>2589</ele>
        <time>2018-08-02T11:31:20Z</time>
      </trkpt>
      <trkpt lat="42.57054" lon="1.94095">
        <ele>2590</ele>
        <time>2018-08-02T11:31:22Z</time>
      </trkpt>
      <trkpt lat="42.57054" lon="1.941">
        <ele>2590</ele>
        <time>2018-08-02T11:31:25Z</time>
      </trkpt>
      <trkpt lat="42.57056" lon="1.94103">
        <ele>2590</ele>
        <time>2018-08-02T11:31:28Z</time>
      </trkpt>
      <trkpt lat="42.57056" lon="1.94107">
        <ele>2591</ele>
        <time>2018-08-02T11:31:30Z</time>
      </trkpt>
      <trkpt lat="42.57058" lon="1.94111">
        <ele>2591</ele>
        <time>2018-08-02T11:31:32Z</time>
      </trkpt>
      <trkpt lat="42.57061" lon="1.94116">
        <ele>2591</ele>
        <time>2018-08-02T11:31:35Z</time>
      </trkpt>
      <trkpt lat="42.5706" lon="1.9412">
        <ele>2588</ele>
        <time>2018-08-02T11:31:40Z</time>
      </trkpt>
      <trkpt lat="42.57059" lon="1.94124">
        <ele>2587</ele>
        <time>2018-08-02T11:31:44Z</time>
      </trkpt>
      <trkpt lat="42.57052" lon="1.94131">
        <ele>2584</ele>
        <time>2018-08-02T11:31:51Z</time>
      </trkpt>
      <trkpt lat="42.57052" lon="1.94142">
        <ele>2583</ele>
        <time>2018-08-02T11:32:07Z</time>
      </trkpt>
      <trkpt lat="42.57046" lon="1.94156">
        <ele>2580</ele>
        <time>2018-08-02T11:32:20Z</time>
      </trkpt>
      <trkpt lat="42.57046" lon="1.94161">
        <ele>2579</ele>
        <time>2018-08-02T11:32:23Z</time>
      </trkpt>
      <trkpt lat="42.57048" lon="1.94166">
        <ele>2579</ele>
        <time>2018-08-02T11:32:26Z</time>
      </trkpt>
      <trkpt lat="42.57046" lon="1.94171">
        <ele>2579</ele>
        <time>2018-08-02T11:32:28Z</time>
      </trkpt>
      <trkpt lat="42.57046" lon="1.94187">
        <ele>2578</ele>
        <time>2018-08-02T11:32:40Z</time>
      </trkpt>
      <trkpt lat="42.57047" lon="1.94192">
        <ele>2582</ele>
        <time>2018-08-02T11:32:45Z</time>
      </trkpt>
      <trkpt lat="42.57045" lon="1.94197">
        <ele>2578</ele>
        <time>2018-08-02T11:32:54Z</time>
      </trkpt>
      <trkpt lat="42.57046" lon="1.94202">
        <ele>2578</ele>
        <time>2018-08-02T11:32:57Z</time>
      </trkpt>
      <trkpt lat="42.57043" lon="1.94207">
        <ele>2575</ele>
        <time>2018-08-02T11:33:01Z</time>
      </trkpt>
      <trkpt lat="42.57048" lon="1.94213">
        <ele>2573</ele>
        <time>2018-08-02T11:33:03Z</time>
      </trkpt>
      <trkpt lat="42.57049" lon="1.94219">
        <ele>2571</ele>
        <time>2018-08-02T11:33:05Z</time>
      </trkpt>
      <trkpt lat="42.57049" lon="1.94225">
        <ele>2569</ele>
        <time>2018-08-02T11:33:08Z</time>
      </trkpt>
      <trkpt lat="42.57048" lon="1.94229">
        <ele>2570</ele>
        <time>2018-08-02T11:33:12Z</time>
      </trkpt>
      <trkpt lat="42.57049" lon="1.94237">
        <ele>2564</ele>
        <time>2018-08-02T11:33:17Z</time>
      </trkpt>
      <trkpt lat="42.57047" lon="1.94241">
        <ele>2561</ele>
        <time>2018-08-02T11:33:20Z</time>
      </trkpt>
      <trkpt lat="42.57043" lon="1.94244">
        <ele>2559</ele>
        <time>2018-08-02T11:33:24Z</time>
      </trkpt>
      <trkpt lat="42.57039" lon="1.94245">
        <ele>2550</ele>
        <time>2018-08-02T11:33:37Z</time>
      </trkpt>
      <trkpt lat="42.57036" lon="1.94248">
        <ele>2548</ele>
        <time>2018-08-02T11:33:41Z</time>
      </trkpt>
      <trkpt lat="42.57033" lon="1.94255">
        <ele>2542</ele>
        <time>2018-08-02T11:33:56Z</time>
      </trkpt>
      <trkpt lat="42.57031" lon="1.94257">
        <ele>2542</ele>
        <time>2018-08-02T11:34:00Z</time>
      </trkpt>
      <trkpt lat="42.57029" lon="1.94261">
        <ele>2541</ele>
        <time>2018-08-02T11:34:03Z</time>
      </trkpt>
      <trkpt lat="42.57028" lon="1.94265">
        <ele>2541</ele>
        <time>2018-08-02T11:34:09Z</time>
      </trkpt>
      <trkpt lat="42.57032" lon="1.94272">
        <ele>2536</ele>
        <time>2018-08-02T11:34:37Z</time>
      </trkpt>
      <trkpt lat="42.57028" lon="1.94275">
        <ele>2532</ele>
        <time>2018-08-02T11:34:47Z</time>
      </trkpt>
      <trkpt lat="42.57022" lon="1.94283">
        <ele>2530</ele>
        <time>2018-08-02T11:34:54Z</time>
      </trkpt>
      <trkpt lat="42.5702" lon="1.94286">
        <ele>2525</ele>
        <time>2018-08-02T11:34:59Z</time>
      </trkpt>
      <trkpt lat="42.57019" lon="1.94291">
        <ele>2522</ele>
        <time>2018-08-02T11:35:02Z</time>
      </trkpt>
      <trkpt lat="42.57021" lon="1.94296">
        <ele>2520</ele>
        <time>2018-08-02T11:35:07Z</time>
      </trkpt>
      <trkpt lat="42.57021" lon="1.94303">
        <ele>2520</ele>
        <time>2018-08-02T11:35:13Z</time>
      </trkpt>
      <trkpt lat="42.57019" lon="1.94308">
        <ele>2519</ele>
        <time>2018-08-02T11:35:18Z</time>
      </trkpt>
      <trkpt lat="42.57018" lon="1.94313">
        <ele>2517</ele>
        <time>2018-08-02T11:35:23Z</time>
      </trkpt>
      <trkpt lat="42.57018" lon="1.94318">
        <ele>2517</ele>
        <time>2018-08-02T11:35:26Z</time>
      </trkpt>
      <trkpt lat="42.57018" lon="1.94324">
        <ele>2515</ele>
        <time>2018-08-02T11:35:45Z</time>
      </trkpt>
      <trkpt lat="42.57016" lon="1.94329">
        <ele>2512</ele>
        <time>2018-08-02T11:35:55Z</time>
      </trkpt>
      <trkpt lat="42.57014" lon="1.94334">
        <ele>2508</ele>
        <time>2018-08-02T11:36:03Z</time>
      </trkpt>
      <trkpt lat="42.57013" lon="1.94337">
        <ele>2506</ele>
        <time>2018-08-02T11:36:08Z</time>
      </trkpt>
      <trkpt lat="42.57012" lon="1.94341">
        <ele>2506</ele>
        <time>2018-08-02T11:36:11Z</time>
      </trkpt>
      <trkpt lat="42.57011" lon="1.94352">
        <ele>2506</ele>
        <time>2018-08-02T11:36:18Z</time>
      </trkpt>
      <trkpt lat="42.5702" lon="1.94366">
        <ele>2506</ele>
        <time>2018-08-02T11:36:28Z</time>
      </trkpt>
      <trkpt lat="42.57023" lon="1.94379">
        <ele>2511</ele>
        <time>2018-08-02T11:36:34Z</time>
      </trkpt>
      <trkpt lat="42.57018" lon="1.94382">
        <ele>2512</ele>
        <time>2018-08-02T11:36:41Z</time>
      </trkpt>
      <trkpt lat="42.57016" lon="1.94394">
        <ele>2509</ele>
        <time>2018-08-02T11:36:47Z</time>
      </trkpt>
      <trkpt lat="42.5702" lon="1.94399">
        <ele>2506</ele>
        <time>2018-08-02T11:36:51Z</time>
      </trkpt>
      <trkpt lat="42.57022" lon="1.94409">
        <ele>2500</ele>
        <time>2018-08-02T11:36:57Z</time>
      </trkpt>
      <trkpt lat="42.57024" lon="1.94414">
        <ele>2498</ele>
        <time>2018-08-02T11:37:00Z</time>
      </trkpt>
      <trkpt lat="42.57023" lon="1.94419">
        <ele>2497</ele>
        <time>2018-08-02T11:37:05Z</time>
      </trkpt>
      <trkpt lat="42.57025" lon="1.94425">
        <ele>2494</ele>
        <time>2018-08-02T11:37:08Z</time>
      </trkpt>
      <trkpt lat="42.57025" lon="1.94431">
        <ele>2490</ele>
        <time>2018-08-02T11:37:17Z</time>
      </trkpt>
      <trkpt lat="42.57032" lon="1.94445">
        <ele>2483</ele>
        <time>2018-08-02T11:37:29Z</time>
      </trkpt>
      <trkpt lat="42.57037" lon="1.94449">
        <ele>2480</ele>
        <time>2018-08-02T11:37:38Z</time>
      </trkpt>
      <trkpt lat="42.57037" lon="1.94454">
        <ele>2480</ele>
        <time>2018-08-02T11:37:42Z</time>
      </trkpt>
      <trkpt lat="42.5704" lon="1.94462">
        <ele>2476</ele>
        <time>2018-08-02T11:37:54Z</time>
      </trkpt>
      <trkpt lat="42.57049" lon="1.94475">
        <ele>2472</ele>
        <time>2018-08-02T11:38:05Z</time>
      </trkpt>
      <trkpt lat="42.57055" lon="1.94488">
        <ele>2470</ele>
        <time>2018-08-02T11:38:13Z</time>
      </trkpt>
      <trkpt lat="42.57055" lon="1.94493">
        <ele>2470</ele>
        <time>2018-08-02T11:38:15Z</time>
      </trkpt>
      <trkpt lat="42.57056" lon="1.94498">
        <ele>2470</ele>
        <time>2018-08-02T11:38:17Z</time>
      </trkpt>
      <trkpt lat="42.57055" lon="1.94501">
        <ele>2470</ele>
        <time>2018-08-02T11:38:19Z</time>
      </trkpt>
      <trkpt lat="42.57056" lon="1.94509">
        <ele>2471</ele>
        <time>2018-08-02T11:38:40Z</time>
      </trkpt>
      <trkpt lat="42.57056" lon="1.94516">
        <ele>2470</ele>
        <time>2018-08-02T11:38:44Z</time>
      </trkpt>
      <trkpt lat="42.57068" lon="1.94533">
        <ele>2460</ele>
        <time>2018-08-02T11:38:58Z</time>
      </trkpt>
      <trkpt lat="42.57071" lon="1.94536">
        <ele>2458</ele>
        <time>2018-08-02T11:39:04Z</time>
      </trkpt>
      <trkpt lat="42.57076" lon="1.94544">
        <ele>2456</ele>
        <time>2018-08-02T11:39:09Z</time>
      </trkpt>
      <trkpt lat="42.57083" lon="1.94553">
        <ele>2452</ele>
        <time>2018-08-02T11:39:18Z</time>
      </trkpt>
      <trkpt lat="42.57086" lon="1.94557">
        <ele>2453</ele>
        <time>2018-08-02T11:39:21Z</time>
      </trkpt>
      <trkpt lat="42.57088" lon="1.94562">
        <ele>2454</ele>
        <time>2018-08-02T11:39:24Z</time>
      </trkpt>
      <trkpt lat="42.57092" lon="1.94562">
        <ele>2446</ele>
        <time>2018-08-02T11:42:21Z</time>
      </trkpt>
      <trkpt lat="42.57092" lon="1.94567">
        <ele>2446</ele>
        <time>2018-08-02T11:42:26Z</time>
      </trkpt>
      <trkpt lat="42.57094" lon="1.94573">
        <ele>2444</ele>
        <time>2018-08-02T11:42:30Z</time>
      </trkpt>
      <trkpt lat="42.57097" lon="1.94577">
        <ele>2444</ele>
        <time>2018-08-02T11:42:33Z</time>
      </trkpt>
      <trkpt lat="42.57096" lon="1.94615">
        <ele>2444</ele>
        <time>2018-08-02T11:43:06Z</time>
      </trkpt>
      <trkpt lat="42.571" lon="1.94637">
        <ele>2440</ele>
        <time>2018-08-02T11:43:18Z</time>
      </trkpt>
      <trkpt lat="42.57101" lon="1.94642">
        <ele>2438</ele>
        <time>2018-08-02T11:43:22Z</time>
      </trkpt>
      <trkpt lat="42.57102" lon="1.94649">
        <ele>2437</ele>
        <time>2018-08-02T11:43:28Z</time>
      </trkpt>
      <trkpt lat="42.57103" lon="1.94655">
        <ele>2434</ele>
        <time>2018-08-02T11:43:36Z</time>
      </trkpt>
      <trkpt lat="42.57101" lon="1.9467">
        <ele>2435</ele>
        <time>2018-08-02T11:43:45Z</time>
      </trkpt>
      <trkpt lat="42.57102" lon="1.94676">
        <ele>2434</ele>
        <time>2018-08-02T11:43:48Z</time>
      </trkpt>
      <trkpt lat="42.571" lon="1.94681">
        <ele>2433</ele>
        <time>2018-08-02T11:43:52Z</time>
      </trkpt>
      <trkpt lat="42.571" lon="1.94685">
        <ele>2433</ele>
        <time>2018-08-02T11:43:57Z</time>
      </trkpt>
      <trkpt lat="42.57099" lon="1.94689">
        <ele>2432</ele>
        <time>2018-08-02T11:43:59Z</time>
      </trkpt>
      <trkpt lat="42.57099" lon="1.94694">
        <ele>2431</ele>
        <time>2018-08-02T11:44:02Z</time>
      </trkpt>
      <trkpt lat="42.57098" lon="1.94709">
        <ele>2427</ele>
        <time>2018-08-02T11:44:09Z</time>
      </trkpt>
      <trkpt lat="42.571" lon="1.94715">
        <ele>2427</ele>
        <time>2018-08-02T11:44:11Z</time>
      </trkpt>
      <trkpt lat="42.571" lon="1.9472">
        <ele>2425</ele>
        <time>2018-08-02T11:44:15Z</time>
      </trkpt>
      <trkpt lat="42.57109" lon="1.94734">
        <ele>2426</ele>
        <time>2018-08-02T11:44:23Z</time>
      </trkpt>
      <trkpt lat="42.57112" lon="1.94737">
        <ele>2425</ele>
        <time>2018-08-02T11:44:27Z</time>
      </trkpt>
      <trkpt lat="42.57116" lon="1.94742">
        <ele>2425</ele>
        <time>2018-08-02T11:44:33Z</time>
      </trkpt>
      <trkpt lat="42.57127" lon="1.94764">
        <ele>2426</ele>
        <time>2018-08-02T11:44:51Z</time>
      </trkpt>
      <trkpt lat="42.57127" lon="1.9478">
        <ele>2424</ele>
        <time>2018-08-02T11:44:59Z</time>
      </trkpt>
      <trkpt lat="42.57126" lon="1.94785">
        <ele>2422</ele>
        <time>2018-08-02T11:45:02Z</time>
      </trkpt>
      <trkpt lat="42.57128" lon="1.94789">
        <ele>2421</ele>
        <time>2018-08-02T11:45:06Z</time>
      </trkpt>
      <trkpt lat="42.57129" lon="1.94794">
        <ele>2421</ele>
        <time>2018-08-02T11:45:13Z</time>
      </trkpt>
      <trkpt lat="42.57133" lon="1.94798">
        <ele>2420</ele>
        <time>2018-08-02T11:45:24Z</time>
      </trkpt>
      <trkpt lat="42.57131" lon="1.94803">
        <ele>2420</ele>
        <time>2018-08-02T11:45:40Z</time>
      </trkpt>
      <trkpt lat="42.5713" lon="1.94808">
        <ele>2420</ele>
        <time>2018-08-02T11:45:49Z</time>
      </trkpt>
      <trkpt lat="42.5713" lon="1.94812">
        <ele>2419</ele>
        <time>2018-08-02T11:45:51Z</time>
      </trkpt>
      <trkpt lat="42.5713" lon="1.94817">
        <ele>2419</ele>
        <time>2018-08-02T11:45:54Z</time>
      </trkpt>
      <trkpt lat="42.57128" lon="1.9483">
        <ele>2419</ele>
        <time>2018-08-02T11:46:01Z</time>
      </trkpt>
      <trkpt lat="42.5713" lon="1.94834">
        <ele>2419</ele>
        <time>2018-08-02T11:46:03Z</time>
      </trkpt>
      <trkpt lat="42.5713" lon="1.94839">
        <ele>2419</ele>
        <time>2018-08-02T11:46:06Z</time>
      </trkpt>
      <trkpt lat="42.57128" lon="1.94843">
        <ele>2420</ele>
        <time>2018-08-02T11:46:09Z</time>
      </trkpt>
      <trkpt lat="42.57127" lon="1.94848">
        <ele>2419</ele>
        <time>2018-08-02T11:46:13Z</time>
      </trkpt>
      <trkpt lat="42.57129" lon="1.94853">
        <ele>2420</ele>
        <time>2018-08-02T11:46:18Z</time>
      </trkpt>
      <trkpt lat="42.57127" lon="1.94858">
        <ele>2420</ele>
        <time>2018-08-02T11:46:21Z</time>
      </trkpt>
      <trkpt lat="42.57131" lon="1.94862">
        <ele>2419</ele>
        <time>2018-08-02T11:46:25Z</time>
      </trkpt>
      <trkpt lat="42.57132" lon="1.94868">
        <ele>2416</ele>
        <time>2018-08-02T11:46:32Z</time>
      </trkpt>
      <trkpt lat="42.57136" lon="1.94873">
        <ele>2413</ele>
        <time>2018-08-02T11:46:36Z</time>
      </trkpt>
      <trkpt lat="42.57141" lon="1.94874">
        <ele>2415</ele>
        <time>2018-08-02T11:46:41Z</time>
      </trkpt>
      <trkpt lat="42.57145" lon="1.94878">
        <ele>2419</ele>
        <time>2018-08-02T11:46:45Z</time>
      </trkpt>
      <trkpt lat="42.57145" lon="1.94883">
        <ele>2420</ele>
        <time>2018-08-02T11:46:49Z</time>
      </trkpt>
      <trkpt lat="42.57147" lon="1.94887">
        <ele>2417</ele>
        <time>2018-08-02T11:46:53Z</time>
      </trkpt>
      <trkpt lat="42.5715" lon="1.94885">
        <ele>2413</ele>
        <time>2018-08-02T11:47:04Z</time>
      </trkpt>
      <trkpt lat="42.57153" lon="1.94889">
        <ele>2412</ele>
        <time>2018-08-02T11:47:17Z</time>
      </trkpt>
      <trkpt lat="42.57157" lon="1.94894">
        <ele>2409</ele>
        <time>2018-08-02T11:47:19Z</time>
      </trkpt>
      <trkpt lat="42.57159" lon="1.94899">
        <ele>2409</ele>
        <time>2018-08-02T11:47:21Z</time>
      </trkpt>
      <trkpt lat="42.57162" lon="1.94902">
        <ele>2408</ele>
        <time>2018-08-02T11:47:23Z</time>
      </trkpt>
      <trkpt lat="42.57165" lon="1.94905">
        <ele>2406</ele>
        <time>2018-08-02T11:47:29Z</time>
      </trkpt>
      <trkpt lat="42.5717" lon="1.94913">
        <ele>2404</ele>
        <time>2018-08-02T11:47:44Z</time>
      </trkpt>
      <trkpt lat="42.57168" lon="1.94916">
        <ele>2404</ele>
        <time>2018-08-02T11:47:47Z</time>
      </trkpt>
      <trkpt lat="42.57168" lon="1.94922">
        <ele>2406</ele>
        <time>2018-08-02T11:47:52Z</time>
      </trkpt>
      <trkpt lat="42.57167" lon="1.9493">
        <ele>2408</ele>
        <time>2018-08-02T11:47:59Z</time>
      </trkpt>
      <trkpt lat="42.57169" lon="1.94938">
        <ele>2412</ele>
        <time>2018-08-02T11:48:03Z</time>
      </trkpt>
      <trkpt lat="42.57167" lon="1.94942">
        <ele>2412</ele>
        <time>2018-08-02T11:48:07Z</time>
      </trkpt>
      <trkpt lat="42.57169" lon="1.94948">
        <ele>2413</ele>
        <time>2018-08-02T11:48:16Z</time>
      </trkpt>
      <trkpt lat="42.57166" lon="1.9495">
        <ele>2412</ele>
        <time>2018-08-02T11:48:20Z</time>
      </trkpt>
      <trkpt lat="42.57166" lon="1.94955">
        <ele>2411</ele>
        <time>2018-08-02T11:48:25Z</time>
      </trkpt>
      <trkpt lat="42.5717" lon="1.94964">
        <ele>2408</ele>
        <time>2018-08-02T11:48:30Z</time>
      </trkpt>
      <trkpt lat="42.57172" lon="1.94969">
        <ele>2407</ele>
        <time>2018-08-02T11:48:33Z</time>
      </trkpt>
      <trkpt lat="42.57177" lon="1.9497">
        <ele>2404</ele>
        <time>2018-08-02T11:48:37Z</time>
      </trkpt>
      <trkpt lat="42.5718" lon="1.94975">
        <ele>2402</ele>
        <time>2018-08-02T11:48:41Z</time>
      </trkpt>
      <trkpt lat="42.57184" lon="1.94988">
        <ele>2400</ele>
        <time>2018-08-02T11:48:49Z</time>
      </trkpt>
      <trkpt lat="42.57186" lon="1.95">
        <ele>2398</ele>
        <time>2018-08-02T11:48:54Z</time>
      </trkpt>
      <trkpt lat="42.57186" lon="1.95006">
        <ele>2397</ele>
        <time>2018-08-02T11:48:56Z</time>
      </trkpt>
      <trkpt lat="42.57184" lon="1.95014">
        <ele>2396</ele>
        <time>2018-08-02T11:48:58Z</time>
      </trkpt>
      <trkpt lat="42.57178" lon="1.95023">
        <ele>2394</ele>
        <time>2018-08-02T11:49:04Z</time>
      </trkpt>
      <trkpt lat="42.57178" lon="1.95029">
        <ele>2393</ele>
        <time>2018-08-02T11:49:06Z</time>
      </trkpt>
      <trkpt lat="42.57176" lon="1.95042">
        <ele>2388</ele>
        <time>2018-08-02T11:49:10Z</time>
      </trkpt>
      <trkpt lat="42.57174" lon="1.95046">
        <ele>2387</ele>
        <time>2018-08-02T11:49:13Z</time>
      </trkpt>
      <trkpt lat="42.57169" lon="1.95048">
        <ele>2385</ele>
        <time>2018-08-02T11:49:20Z</time>
      </trkpt>
      <trkpt lat="42.57165" lon="1.9505">
        <ele>2383</ele>
        <time>2018-08-02T11:49:25Z</time>
      </trkpt>
      <trkpt lat="42.57165" lon="1.95055">
        <ele>2383</ele>
        <time>2018-08-02T11:49:29Z</time>
      </trkpt>
      <trkpt lat="42.57166" lon="1.95061">
        <ele>2384</ele>
        <time>2018-08-02T11:49:31Z</time>
      </trkpt>
      <trkpt lat="42.57167" lon="1.95068">
        <ele>2385</ele>
        <time>2018-08-02T11:49:33Z</time>
      </trkpt>
      <trkpt lat="42.57166" lon="1.95074">
        <ele>2385</ele>
        <time>2018-08-02T11:49:35Z</time>
      </trkpt>
      <trkpt lat="42.57166" lon="1.95079">
        <ele>2385</ele>
        <time>2018-08-02T11:49:38Z</time>
      </trkpt>
      <trkpt lat="42.57164" lon="1.95083">
        <ele>2386</ele>
        <time>2018-08-02T11:49:43Z</time>
      </trkpt>
      <trkpt lat="42.57159" lon="1.95085">
        <ele>2387</ele>
        <time>2018-08-02T11:49:46Z</time>
      </trkpt>
      <trkpt lat="42.5716" lon="1.95091">
        <ele>2389</ele>
        <time>2018-08-02T11:49:49Z</time>
      </trkpt>
      <trkpt lat="42.57162" lon="1.95103">
        <ele>2389</ele>
        <time>2018-08-02T11:49:53Z</time>
      </trkpt>
      <trkpt lat="42.57163" lon="1.95114">
        <ele>2391</ele>
        <time>2018-08-02T11:50:02Z</time>
      </trkpt>
      <trkpt lat="42.57161" lon="1.95121">
        <ele>2390</ele>
        <time>2018-08-02T11:50:07Z</time>
      </trkpt>
      <trkpt lat="42.57161" lon="1.95129">
        <ele>2389</ele>
        <time>2018-08-02T11:50:11Z</time>
      </trkpt>
      <trkpt lat="42.5716" lon="1.95136">
        <ele>2387</ele>
        <time>2018-08-02T11:50:16Z</time>
      </trkpt>
      <trkpt lat="42.57157" lon="1.95142">
        <ele>2385</ele>
        <time>2018-08-02T11:50:21Z</time>
      </trkpt>
      <trkpt lat="42.57156" lon="1.95148">
        <ele>2381</ele>
        <time>2018-08-02T11:50:26Z</time>
      </trkpt>
      <trkpt lat="42.57154" lon="1.95163">
        <ele>2377</ele>
        <time>2018-08-02T11:50:34Z</time>
      </trkpt>
      <trkpt lat="42.5715" lon="1.95173">
        <ele>2374</ele>
        <time>2018-08-02T11:50:39Z</time>
      </trkpt>
      <trkpt lat="42.5715" lon="1.9518">
        <ele>2374</ele>
        <time>2018-08-02T11:50:46Z</time>
      </trkpt>
      <trkpt lat="42.57148" lon="1.95186">
        <ele>2376</ele>
        <time>2018-08-02T11:50:49Z</time>
      </trkpt>
      <trkpt lat="42.57149" lon="1.95192">
        <ele>2375</ele>
        <time>2018-08-02T11:50:55Z</time>
      </trkpt>
      <trkpt lat="42.57151" lon="1.95198">
        <ele>2379</ele>
        <time>2018-08-02T11:50:58Z</time>
      </trkpt>
      <trkpt lat="42.57149" lon="1.95204">
        <ele>2379</ele>
        <time>2018-08-02T11:51:02Z</time>
      </trkpt>
      <trkpt lat="42.57152" lon="1.95225">
        <ele>2377</ele>
        <time>2018-08-02T11:51:15Z</time>
      </trkpt>
      <trkpt lat="42.57154" lon="1.95233">
        <ele>2380</ele>
        <time>2018-08-02T11:51:23Z</time>
      </trkpt>
      <trkpt lat="42.5716" lon="1.95238">
        <ele>2387</ele>
        <time>2018-08-02T11:51:29Z</time>
      </trkpt>
      <trkpt lat="42.57162" lon="1.95248">
        <ele>2390</ele>
        <time>2018-08-02T11:51:36Z</time>
      </trkpt>
      <trkpt lat="42.5716" lon="1.9525">
        <ele>2385</ele>
        <time>2018-08-02T11:51:45Z</time>
      </trkpt>
      <trkpt lat="42.57163" lon="1.95253">
        <ele>2387</ele>
        <time>2018-08-02T11:52:39Z</time>
      </trkpt>
      <trkpt lat="42.57177" lon="1.95288">
        <ele>2388</ele>
        <time>2018-08-02T11:53:10Z</time>
      </trkpt>
      <trkpt lat="42.5718" lon="1.95295">
        <ele>2390</ele>
        <time>2018-08-02T11:53:14Z</time>
      </trkpt>
      <trkpt lat="42.5718" lon="1.95303">
        <ele>2392</ele>
        <time>2018-08-02T11:53:21Z</time>
      </trkpt>
      <trkpt lat="42.57179" lon="1.9531">
        <ele>2391</ele>
        <time>2018-08-02T11:53:24Z</time>
      </trkpt>
      <trkpt lat="42.57186" lon="1.95325">
        <ele>2392</ele>
        <time>2018-08-02T11:53:35Z</time>
      </trkpt>
      <trkpt lat="42.57186" lon="1.95347">
        <ele>2390</ele>
        <time>2018-08-02T11:53:47Z</time>
      </trkpt>
      <trkpt lat="42.57187" lon="1.95354">
        <ele>2391</ele>
        <time>2018-08-02T11:53:53Z</time>
      </trkpt>
      <trkpt lat="42.57192" lon="1.95375">
        <ele>2392</ele>
        <time>2018-08-02T11:54:11Z</time>
      </trkpt>
      <trkpt lat="42.57188" lon="1.95379">
        <ele>2391</ele>
        <time>2018-08-02T11:54:17Z</time>
      </trkpt>
      <trkpt lat="42.57194" lon="1.9539">
        <ele>2390</ele>
        <time>2018-08-02T11:54:29Z</time>
      </trkpt>
      <trkpt lat="42.57195" lon="1.95398">
        <ele>2391</ele>
        <time>2018-08-02T11:54:36Z</time>
      </trkpt>
      <trkpt lat="42.57202" lon="1.95415">
        <ele>2388</ele>
        <time>2018-08-02T11:54:49Z</time>
      </trkpt>
      <trkpt lat="42.57201" lon="1.95423">
        <ele>2386</ele>
        <time>2018-08-02T11:54:55Z</time>
      </trkpt>
      <trkpt lat="42.57201" lon="1.9543">
        <ele>2382</ele>
        <time>2018-08-02T11:54:57Z</time>
      </trkpt>
      <trkpt lat="42.57203" lon="1.95435">
        <ele>2380</ele>
        <time>2018-08-02T11:55:04Z</time>
      </trkpt>
      <trkpt lat="42.57205" lon="1.9544">
        <ele>2378</ele>
        <time>2018-08-02T11:55:07Z</time>
      </trkpt>
      <trkpt lat="42.57206" lon="1.95447">
        <ele>2374</ele>
        <time>2018-08-02T11:55:21Z</time>
      </trkpt>
      <trkpt lat="42.5721" lon="1.95451">
        <ele>2369</ele>
        <time>2018-08-02T11:55:26Z</time>
      </trkpt>
      <trkpt lat="42.57214" lon="1.95464">
        <ele>2368</ele>
        <time>2018-08-02T11:55:33Z</time>
      </trkpt>
      <trkpt lat="42.57215" lon="1.9547">
        <ele>2366</ele>
        <time>2018-08-02T11:55:36Z</time>
      </trkpt>
      <trkpt lat="42.57219" lon="1.95478">
        <ele>2364</ele>
        <time>2018-08-02T11:55:44Z</time>
      </trkpt>
      <trkpt lat="42.57234" lon="1.95495">
        <ele>2364</ele>
        <time>2018-08-02T11:56:04Z</time>
      </trkpt>
      <trkpt lat="42.57236" lon="1.95501">
        <ele>2361</ele>
        <time>2018-08-02T11:56:09Z</time>
      </trkpt>
      <trkpt lat="42.57238" lon="1.95506">
        <ele>2359</ele>
        <time>2018-08-02T11:56:14Z</time>
      </trkpt>
      <trkpt lat="42.57243" lon="1.95508">
        <ele>2360</ele>
        <time>2018-08-02T11:56:19Z</time>
      </trkpt>
      <trkpt lat="42.5725" lon="1.95516">
        <ele>2357</ele>
        <time>2018-08-02T11:56:26Z</time>
      </trkpt>
      <trkpt lat="42.57251" lon="1.95522">
        <ele>2357</ele>
        <time>2018-08-02T11:56:29Z</time>
      </trkpt>
      <trkpt lat="42.57256" lon="1.95528">
        <ele>2360</ele>
        <time>2018-08-02T11:56:39Z</time>
      </trkpt>
      <trkpt lat="42.57257" lon="1.95532">
        <ele>2359</ele>
        <time>2018-08-02T11:56:43Z</time>
      </trkpt>
      <trkpt lat="42.57259" lon="1.95535">
        <ele>2358</ele>
        <time>2018-08-02T11:56:48Z</time>
      </trkpt>
      <trkpt lat="42.57271" lon="1.95551">
        <ele>2355</ele>
        <time>2018-08-02T11:57:08Z</time>
      </trkpt>
      <trkpt lat="42.57281" lon="1.9556">
        <ele>2354</ele>
        <time>2018-08-02T11:57:17Z</time>
      </trkpt>
      <trkpt lat="42.57286" lon="1.95563">
        <ele>2356</ele>
        <time>2018-08-02T11:57:21Z</time>
      </trkpt>
      <trkpt lat="42.57289" lon="1.95572">
        <ele>2358</ele>
        <time>2018-08-02T11:57:28Z</time>
      </trkpt>
      <trkpt lat="42.57293" lon="1.95578">
        <ele>2358</ele>
        <time>2018-08-02T11:57:40Z</time>
      </trkpt>
      <trkpt lat="42.57299" lon="1.95584">
        <ele>2362</ele>
        <time>2018-08-02T11:57:48Z</time>
      </trkpt>
      <trkpt lat="42.57304" lon="1.95588">
        <ele>2363</ele>
        <time>2018-08-02T11:57:59Z</time>
      </trkpt>
      <trkpt lat="42.57311" lon="1.95587">
        <ele>2363</ele>
        <time>2018-08-02T11:58:09Z</time>
      </trkpt>
      <trkpt lat="42.57316" lon="1.95591">
        <ele>2362</ele>
        <time>2018-08-02T11:58:11Z</time>
      </trkpt>
      <trkpt lat="42.57322" lon="1.95591">
        <ele>2360</ele>
        <time>2018-08-02T11:58:17Z</time>
      </trkpt>
      <trkpt lat="42.57328" lon="1.95597">
        <ele>2359</ele>
        <time>2018-08-02T11:58:20Z</time>
      </trkpt>
      <trkpt lat="42.57329" lon="1.95603">
        <ele>2355</ele>
        <time>2018-08-02T11:58:25Z</time>
      </trkpt>
      <trkpt lat="42.57333" lon="1.95608">
        <ele>2355</ele>
        <time>2018-08-02T11:58:30Z</time>
      </trkpt>
      <trkpt lat="42.57347" lon="1.95616">
        <ele>2353</ele>
        <time>2018-08-02T11:58:41Z</time>
      </trkpt>
      <trkpt lat="42.5735" lon="1.95614">
        <ele>2352</ele>
        <time>2018-08-02T11:58:44Z</time>
      </trkpt>
      <trkpt lat="42.57354" lon="1.95618">
        <ele>2351</ele>
        <time>2018-08-02T11:58:47Z</time>
      </trkpt>
      <trkpt lat="42.57358" lon="1.95617">
        <ele>2348</ele>
        <time>2018-08-02T11:58:51Z</time>
      </trkpt>
      <trkpt lat="42.57361" lon="1.95614">
        <ele>2347</ele>
        <time>2018-08-02T11:58:55Z</time>
      </trkpt>
      <trkpt lat="42.57363" lon="1.95615">
        <ele>2356</ele>
        <time>2018-08-02T11:59:17Z</time>
      </trkpt>
      <trkpt lat="42.57365" lon="1.95619">
        <ele>2354</ele>
        <time>2018-08-02T11:59:47Z</time>
      </trkpt>
      <trkpt lat="42.57369" lon="1.95615">
        <ele>2354</ele>
        <time>2018-08-02T11:59:50Z</time>
      </trkpt>
      <trkpt lat="42.57372" lon="1.95621">
        <ele>2347</ele>
        <time>2018-08-02T12:00:01Z</time>
      </trkpt>
      <trkpt lat="42.57373" lon="1.95625">
        <ele>2345</ele>
        <time>2018-08-02T12:00:53Z</time>
      </trkpt>
      <trkpt lat="42.57379" lon="1.95631">
        <ele>2345</ele>
        <time>2018-08-02T12:01:10Z</time>
      </trkpt>
      <trkpt lat="42.57385" lon="1.95634">
        <ele>2345</ele>
        <time>2018-08-02T12:01:16Z</time>
      </trkpt>
      <trkpt lat="42.5742" lon="1.95659">
        <ele>2341</ele>
        <time>2018-08-02T12:01:47Z</time>
      </trkpt>
      <trkpt lat="42.57426" lon="1.95663">
        <ele>2342</ele>
        <time>2018-08-02T12:01:52Z</time>
      </trkpt>
      <trkpt lat="42.57429" lon="1.95663">
        <ele>2342</ele>
        <time>2018-08-02T12:01:54Z</time>
      </trkpt>
      <trkpt lat="42.57431" lon="1.95666">
        <ele>2342</ele>
        <time>2018-08-02T12:01:57Z</time>
      </trkpt>
      <trkpt lat="42.57448" lon="1.95681">
        <ele>2341</ele>
        <time>2018-08-02T12:02:17Z</time>
      </trkpt>
      <trkpt lat="42.5745" lon="1.95684">
        <ele>2342</ele>
        <time>2018-08-02T12:02:20Z</time>
      </trkpt>
      <trkpt lat="42.57454" lon="1.95691">
        <ele>2342</ele>
        <time>2018-08-02T12:02:26Z</time>
      </trkpt>
      <trkpt lat="42.57455" lon="1.95695">
        <ele>2341</ele>
        <time>2018-08-02T12:02:29Z</time>
      </trkpt>
      <trkpt lat="42.57461" lon="1.95702">
        <ele>2343</ele>
        <time>2018-08-02T12:02:35Z</time>
      </trkpt>
      <trkpt lat="42.57471" lon="1.95711">
        <ele>2344</ele>
        <time>2018-08-02T12:02:45Z</time>
      </trkpt>
      <trkpt lat="42.57474" lon="1.95717">
        <ele>2346</ele>
        <time>2018-08-02T12:02:51Z</time>
      </trkpt>
      <trkpt lat="42.57477" lon="1.95723">
        <ele>2348</ele>
        <time>2018-08-02T12:02:56Z</time>
      </trkpt>
      <trkpt lat="42.57486" lon="1.95733">
        <ele>2350</ele>
        <time>2018-08-02T12:03:07Z</time>
      </trkpt>
      <trkpt lat="42.57488" lon="1.95738">
        <ele>2350</ele>
        <time>2018-08-02T12:03:12Z</time>
      </trkpt>
      <trkpt lat="42.57492" lon="1.95748">
        <ele>2347</ele>
        <time>2018-08-02T12:03:18Z</time>
      </trkpt>
      <trkpt lat="42.57491" lon="1.95755">
        <ele>2348</ele>
        <time>2018-08-02T12:03:21Z</time>
      </trkpt>
      <trkpt lat="42.57495" lon="1.95761">
        <ele>2348</ele>
        <time>2018-08-02T12:03:24Z</time>
      </trkpt>
      <trkpt lat="42.57505" lon="1.95775">
        <ele>2349</ele>
        <time>2018-08-02T12:03:39Z</time>
      </trkpt>
      <trkpt lat="42.57509" lon="1.95776">
        <ele>2350</ele>
        <time>2018-08-02T12:03:44Z</time>
      </trkpt>
      <trkpt lat="42.57517" lon="1.95791">
        <ele>2348</ele>
        <time>2018-08-02T12:03:54Z</time>
      </trkpt>
      <trkpt lat="42.5752" lon="1.95794">
        <ele>2349</ele>
        <time>2018-08-02T12:03:56Z</time>
      </trkpt>
      <trkpt lat="42.57519" lon="1.95813">
        <ele>2352</ele>
        <time>2018-08-02T12:04:13Z</time>
      </trkpt>
      <trkpt lat="42.5752" lon="1.95834">
        <ele>2346</ele>
        <time>2018-08-02T12:04:26Z</time>
      </trkpt>
      <trkpt lat="42.57521" lon="1.95836">
        <ele>2344</ele>
        <time>2018-08-02T12:04:39Z</time>
      </trkpt>
      <trkpt lat="42.57518" lon="1.95839">
        <ele>2349</ele>
        <time>2018-08-02T12:05:16Z</time>
      </trkpt>
      <trkpt lat="42.57517" lon="1.95844">
        <ele>2349</ele>
        <time>2018-08-02T12:05:21Z</time>
      </trkpt>
      <trkpt lat="42.57518" lon="1.95849">
        <ele>2349</ele>
        <time>2018-08-02T12:05:25Z</time>
      </trkpt>
      <trkpt lat="42.57517" lon="1.95855">
        <ele>2351</ele>
        <time>2018-08-02T12:05:31Z</time>
      </trkpt>
      <trkpt lat="42.57519" lon="1.9586">
        <ele>2350</ele>
        <time>2018-08-02T12:05:35Z</time>
      </trkpt>
      <trkpt lat="42.57521" lon="1.95864">
        <ele>2351</ele>
        <time>2018-08-02T12:05:40Z</time>
      </trkpt>
      <trkpt lat="42.57521" lon="1.9587">
        <ele>2350</ele>
        <time>2018-08-02T12:05:47Z</time>
      </trkpt>
      <trkpt lat="42.57523" lon="1.95876">
        <ele>2348</ele>
        <time>2018-08-02T12:05:50Z</time>
      </trkpt>
      <trkpt lat="42.57524" lon="1.95884">
        <ele>2345</ele>
        <time>2018-08-02T12:05:53Z</time>
      </trkpt>
      <trkpt lat="42.5753" lon="1.95888">
        <ele>2344</ele>
        <time>2018-08-02T12:05:57Z</time>
      </trkpt>
      <trkpt lat="42.57533" lon="1.95908">
        <ele>2338</ele>
        <time>2018-08-02T12:06:18Z</time>
      </trkpt>
      <trkpt lat="42.57529" lon="1.95911">
        <ele>2340</ele>
        <time>2018-08-02T12:06:25Z</time>
      </trkpt>
      <trkpt lat="42.57535" lon="1.95917">
        <ele>2343</ele>
        <time>2018-08-02T12:06:33Z</time>
      </trkpt>
      <trkpt lat="42.57537" lon="1.95923">
        <ele>2347</ele>
        <time>2018-08-02T12:06:46Z</time>
      </trkpt>
      <trkpt lat="42.57536" lon="1.95927">
        <ele>2344</ele>
        <time>2018-08-02T12:07:05Z</time>
      </trkpt>
      <trkpt lat="42.57538" lon="1.95936">
        <ele>2338</ele>
        <time>2018-08-02T12:07:30Z</time>
      </trkpt>
      <trkpt lat="42.57539" lon="1.9594">
        <ele>2337</ele>
        <time>2018-08-02T12:07:33Z</time>
      </trkpt>
      <trkpt lat="42.57542" lon="1.95945">
        <ele>2334</ele>
        <time>2018-08-02T12:07:37Z</time>
      </trkpt>
      <trkpt lat="42.57543" lon="1.9595">
        <ele>2333</ele>
        <time>2018-08-02T12:07:40Z</time>
      </trkpt>
      <trkpt lat="42.57543" lon="1.95957">
        <ele>2331</ele>
        <time>2018-08-02T12:07:45Z</time>
      </trkpt>
      <trkpt lat="42.57545" lon="1.95964">
        <ele>2332</ele>
        <time>2018-08-02T12:07:52Z</time>
      </trkpt>
      <trkpt lat="42.57545" lon="1.95971">
        <ele>2331</ele>
        <time>2018-08-02T12:07:57Z</time>
      </trkpt>
      <trkpt lat="42.57543" lon="1.95979">
        <ele>2331</ele>
        <time>2018-08-02T12:08:03Z</time>
      </trkpt>
      <trkpt lat="42.57542" lon="1.95986">
        <ele>2338</ele>
        <time>2018-08-02T12:08:16Z</time>
      </trkpt>
      <trkpt lat="42.57543" lon="1.95992">
        <ele>2338</ele>
        <time>2018-08-02T12:08:19Z</time>
      </trkpt>
      <trkpt lat="42.57551" lon="1.96013">
        <ele>2334</ele>
        <time>2018-08-02T12:08:37Z</time>
      </trkpt>
      <trkpt lat="42.57551" lon="1.96019">
        <ele>2333</ele>
        <time>2018-08-02T12:08:42Z</time>
      </trkpt>
      <trkpt lat="42.57551" lon="1.96026">
        <ele>2331</ele>
        <time>2018-08-02T12:08:45Z</time>
      </trkpt>
      <trkpt lat="42.57554" lon="1.96034">
        <ele>2332</ele>
        <time>2018-08-02T12:08:54Z</time>
      </trkpt>
      <trkpt lat="42.57554" lon="1.96043">
        <ele>2331</ele>
        <time>2018-08-02T12:09:00Z</time>
      </trkpt>
      <trkpt lat="42.57559" lon="1.9605">
        <ele>2332</ele>
        <time>2018-08-02T12:09:06Z</time>
      </trkpt>
      <trkpt lat="42.5756" lon="1.96061">
        <ele>2332</ele>
        <time>2018-08-02T12:09:12Z</time>
      </trkpt>
      <trkpt lat="42.57557" lon="1.96069">
        <ele>2328</ele>
        <time>2018-08-02T12:09:18Z</time>
      </trkpt>
      <trkpt lat="42.57554" lon="1.96077">
        <ele>2326</ele>
        <time>2018-08-02T12:09:24Z</time>
      </trkpt>
      <trkpt lat="42.57557" lon="1.96085">
        <ele>2324</ele>
        <time>2018-08-02T12:09:29Z</time>
      </trkpt>
      <trkpt lat="42.57562" lon="1.96092">
        <ele>2322</ele>
        <time>2018-08-02T12:09:37Z</time>
      </trkpt>
      <trkpt lat="42.57564" lon="1.96096">
        <ele>2323</ele>
        <time>2018-08-02T12:09:47Z</time>
      </trkpt>
      <trkpt lat="42.57564" lon="1.96103">
        <ele>2323</ele>
        <time>2018-08-02T12:09:50Z</time>
      </trkpt>
      <trkpt lat="42.57567" lon="1.9611">
        <ele>2321</ele>
        <time>2018-08-02T12:09:56Z</time>
      </trkpt>
      <trkpt lat="42.57566" lon="1.96117">
        <ele>2320</ele>
        <time>2018-08-02T12:10:01Z</time>
      </trkpt>
      <trkpt lat="42.57569" lon="1.96124">
        <ele>2320</ele>
        <time>2018-08-02T12:10:08Z</time>
      </trkpt>
      <trkpt lat="42.57573" lon="1.96128">
        <ele>2319</ele>
        <time>2018-08-02T12:10:14Z</time>
      </trkpt>
      <trkpt lat="42.57574" lon="1.96133">
        <ele>2320</ele>
        <time>2018-08-02T12:10:17Z</time>
      </trkpt>
      <trkpt lat="42.57577" lon="1.96138">
        <ele>2321</ele>
        <time>2018-08-02T12:10:23Z</time>
      </trkpt>
      <trkpt lat="42.57581" lon="1.96143">
        <ele>2322</ele>
        <time>2018-08-02T12:10:28Z</time>
      </trkpt>
      <trkpt lat="42.57582" lon="1.96152">
        <ele>2324</ele>
        <time>2018-08-02T12:10:34Z</time>
      </trkpt>
      <trkpt lat="42.57586" lon="1.96172">
        <ele>2323</ele>
        <time>2018-08-02T12:10:47Z</time>
      </trkpt>
      <trkpt lat="42.5759" lon="1.96175">
        <ele>2324</ele>
        <time>2018-08-02T12:10:54Z</time>
      </trkpt>
      <trkpt lat="42.57589" lon="1.96177">
        <ele>2328</ele>
        <time>2018-08-02T12:12:03Z</time>
      </trkpt>
      <trkpt lat="42.57591" lon="1.96181">
        <ele>2318</ele>
        <time>2018-08-02T12:14:03Z</time>
      </trkpt>
      <trkpt lat="42.57596" lon="1.9618">
        <ele>2320</ele>
        <time>2018-08-02T12:15:12Z</time>
      </trkpt>
      <trkpt lat="42.57594" lon="1.96183">
        <ele>2320</ele>
        <time>2018-08-02T12:15:25Z</time>
      </trkpt>
      <trkpt lat="42.57591" lon="1.96186">
        <ele>2317</ele>
        <time>2018-08-02T12:17:01Z</time>
      </trkpt>
      <trkpt lat="42.5759" lon="1.96183">
        <ele>2311</ele>
        <time>2018-08-02T12:17:47Z</time>
      </trkpt>
      <trkpt lat="42.5759" lon="1.96177">
        <ele>2314</ele>
        <time>2018-08-02T12:18:13Z</time>
      </trkpt>
      <trkpt lat="42.57591" lon="1.96183">
        <ele>2321</ele>
        <time>2018-08-02T12:19:58Z</time>
      </trkpt>
      <trkpt lat="42.57595" lon="1.96185">
        <ele>2322</ele>
        <time>2018-08-02T12:21:12Z</time>
      </trkpt>
      <trkpt lat="42.57597" lon="1.96179">
        <ele>2325</ele>
        <time>2018-08-02T12:22:02Z</time>
      </trkpt>
      <trkpt lat="42.57607" lon="1.96197">
        <ele>2325</ele>
        <time>2018-08-02T12:22:31Z</time>
      </trkpt>
      <trkpt lat="42.57614" lon="1.96212">
        <ele>2326</ele>
        <time>2018-08-02T12:22:44Z</time>
      </trkpt>
      <trkpt lat="42.57619" lon="1.96216">
        <ele>2324</ele>
        <time>2018-08-02T12:22:50Z</time>
      </trkpt>
      <trkpt lat="42.5762" lon="1.96221">
        <ele>2323</ele>
        <time>2018-08-02T12:22:54Z</time>
      </trkpt>
      <trkpt lat="42.57616" lon="1.96224">
        <ele>2322</ele>
        <time>2018-08-02T12:23:05Z</time>
      </trkpt>
      <trkpt lat="42.57619" lon="1.96232">
        <ele>2321</ele>
        <time>2018-08-02T12:23:11Z</time>
      </trkpt>
      <trkpt lat="42.57626" lon="1.96242">
        <ele>2321</ele>
        <time>2018-08-02T12:23:20Z</time>
      </trkpt>
      <trkpt lat="42.57639" lon="1.96263">
        <ele>2314</ele>
        <time>2018-08-02T12:23:36Z</time>
      </trkpt>
      <trkpt lat="42.57643" lon="1.96283">
        <ele>2314</ele>
        <time>2018-08-02T12:23:49Z</time>
      </trkpt>
      <trkpt lat="42.57646" lon="1.96298">
        <ele>2311</ele>
        <time>2018-08-02T12:23:58Z</time>
      </trkpt>
      <trkpt lat="42.57648" lon="1.96304">
        <ele>2312</ele>
        <time>2018-08-02T12:24:04Z</time>
      </trkpt>
      <trkpt lat="42.57646" lon="1.9632">
        <ele>2313</ele>
        <time>2018-08-02T12:24:17Z</time>
      </trkpt>
      <trkpt lat="42.57648" lon="1.96331">
        <ele>2314</ele>
        <time>2018-08-02T12:24:22Z</time>
      </trkpt>
      <trkpt lat="42.57654" lon="1.96344">
        <ele>2317</ele>
        <time>2018-08-02T12:24:31Z</time>
      </trkpt>
      <trkpt lat="42.57655" lon="1.96349">
        <ele>2315</ele>
        <time>2018-08-02T12:24:34Z</time>
      </trkpt>
      <trkpt lat="42.57662" lon="1.96367">
        <ele>2316</ele>
        <time>2018-08-02T12:24:47Z</time>
      </trkpt>
      <trkpt lat="42.57659" lon="1.96391">
        <ele>2315</ele>
        <time>2018-08-02T12:25:08Z</time>
      </trkpt>
      <trkpt lat="42.57662" lon="1.96395">
        <ele>2316</ele>
        <time>2018-08-02T12:25:15Z</time>
      </trkpt>
      <trkpt lat="42.57667" lon="1.96398">
        <ele>2316</ele>
        <time>2018-08-02T12:25:23Z</time>
      </trkpt>
      <trkpt lat="42.57667" lon="1.96404">
        <ele>2315</ele>
        <time>2018-08-02T12:25:28Z</time>
      </trkpt>
      <trkpt lat="42.57669" lon="1.96419">
        <ele>2312</ele>
        <time>2018-08-02T12:25:41Z</time>
      </trkpt>
      <trkpt lat="42.57666" lon="1.96424">
        <ele>2313</ele>
        <time>2018-08-02T12:25:44Z</time>
      </trkpt>
      <trkpt lat="42.57666" lon="1.96428">
        <ele>2312</ele>
        <time>2018-08-02T12:25:48Z</time>
      </trkpt>
      <trkpt lat="42.57668" lon="1.9645">
        <ele>2312</ele>
        <time>2018-08-02T12:26:02Z</time>
      </trkpt>
      <trkpt lat="42.57669" lon="1.96455">
        <ele>2313</ele>
        <time>2018-08-02T12:26:07Z</time>
      </trkpt>
      <trkpt lat="42.57665" lon="1.96472">
        <ele>2312</ele>
        <time>2018-08-02T12:26:16Z</time>
      </trkpt>
      <trkpt lat="42.57667" lon="1.96477">
        <ele>2311</ele>
        <time>2018-08-02T12:26:19Z</time>
      </trkpt>
      <trkpt lat="42.5766" lon="1.96485">
        <ele>2310</ele>
        <time>2018-08-02T12:26:24Z</time>
      </trkpt>
      <trkpt lat="42.57659" lon="1.96487">
        <ele>2310</ele>
        <time>2018-08-02T12:26:27Z</time>
      </trkpt>
      <trkpt lat="42.57657" lon="1.96492">
        <ele>2310</ele>
        <time>2018-08-02T12:26:29Z</time>
      </trkpt>
      <trkpt lat="42.57657" lon="1.96496">
        <ele>2309</ele>
        <time>2018-08-02T12:26:33Z</time>
      </trkpt>
      <trkpt lat="42.57654" lon="1.96504">
        <ele>2308</ele>
        <time>2018-08-02T12:26:40Z</time>
      </trkpt>
      <trkpt lat="42.57654" lon="1.9651">
        <ele>2310</ele>
        <time>2018-08-02T12:26:44Z</time>
      </trkpt>
      <trkpt lat="42.57652" lon="1.96515">
        <ele>2311</ele>
        <time>2018-08-02T12:26:49Z</time>
      </trkpt>
      <trkpt lat="42.57648" lon="1.96517">
        <ele>2309</ele>
        <time>2018-08-02T12:26:54Z</time>
      </trkpt>
      <trkpt lat="42.57647" lon="1.96522">
        <ele>2309</ele>
        <time>2018-08-02T12:26:59Z</time>
      </trkpt>
      <trkpt lat="42.57645" lon="1.9653">
        <ele>2309</ele>
        <time>2018-08-02T12:27:05Z</time>
      </trkpt>
      <trkpt lat="42.57643" lon="1.96533">
        <ele>2309</ele>
        <time>2018-08-02T12:27:07Z</time>
      </trkpt>
      <trkpt lat="42.57641" lon="1.96539">
        <ele>2311</ele>
        <time>2018-08-02T12:27:10Z</time>
      </trkpt>
      <trkpt lat="42.57642" lon="1.9654">
        <ele>2313</ele>
        <time>2018-08-02T12:27:19Z</time>
      </trkpt>
      <trkpt lat="42.57636" lon="1.96544">
        <ele>2315</ele>
        <time>2018-08-02T12:27:35Z</time>
      </trkpt>
      <trkpt lat="42.57634" lon="1.9654">
        <ele>2314</ele>
        <time>2018-08-02T12:27:40Z</time>
      </trkpt>
      <trkpt lat="42.5763" lon="1.96538">
        <ele>2311</ele>
        <time>2018-08-02T12:27:51Z</time>
      </trkpt>
      <trkpt lat="42.57627" lon="1.9654">
        <ele>2310</ele>
        <time>2018-08-02T12:27:56Z</time>
      </trkpt>
      <trkpt lat="42.57623" lon="1.96542">
        <ele>2311</ele>
        <time>2018-08-02T12:28:00Z</time>
      </trkpt>
      <trkpt lat="42.5762" lon="1.9654">
        <ele>2311</ele>
        <time>2018-08-02T12:28:07Z</time>
      </trkpt>
      <trkpt lat="42.57619" lon="1.96541">
        <ele>2311</ele>
        <time>2018-08-02T12:28:21Z</time>
      </trkpt>
      <trkpt lat="42.57614" lon="1.96541">
        <ele>2310</ele>
        <time>2018-08-02T12:28:22Z</time>
      </trkpt>
      <trkpt lat="42.57614" lon="1.96547">
        <ele>2308</ele>
        <time>2018-08-02T12:28:32Z</time>
      </trkpt>
      <trkpt lat="42.57612" lon="1.96551">
        <ele>2313</ele>
        <time>2018-08-02T12:29:07Z</time>
      </trkpt>
      <trkpt lat="42.57611" lon="1.96557">
        <ele>2315</ele>
        <time>2018-08-02T12:29:11Z</time>
      </trkpt>
      <trkpt lat="42.5761" lon="1.96569">
        <ele>2317</ele>
        <time>2018-08-02T12:29:20Z</time>
      </trkpt>
      <trkpt lat="42.57606" lon="1.96573">
        <ele>2317</ele>
        <time>2018-08-02T12:29:23Z</time>
      </trkpt>
      <trkpt lat="42.57605" lon="1.9658">
        <ele>2317</ele>
        <time>2018-08-02T12:29:41Z</time>
      </trkpt>
      <trkpt lat="42.57607" lon="1.96585">
        <ele>2318</ele>
        <time>2018-08-02T12:29:45Z</time>
      </trkpt>
      <trkpt lat="42.57607" lon="1.96591">
        <ele>2319</ele>
        <time>2018-08-02T12:29:48Z</time>
      </trkpt>
      <trkpt lat="42.57602" lon="1.96608">
        <ele>2319</ele>
        <time>2018-08-02T12:30:02Z</time>
      </trkpt>
      <trkpt lat="42.57603" lon="1.96613">
        <ele>2319</ele>
        <time>2018-08-02T12:30:09Z</time>
      </trkpt>
      <trkpt lat="42.57608" lon="1.96615">
        <ele>2314</ele>
        <time>2018-08-02T12:30:14Z</time>
      </trkpt>
      <trkpt lat="42.5761" lon="1.9662">
        <ele>2313</ele>
        <time>2018-08-02T12:30:19Z</time>
      </trkpt>
      <trkpt lat="42.57612" lon="1.96627">
        <ele>2314</ele>
        <time>2018-08-02T12:30:23Z</time>
      </trkpt>
      <trkpt lat="42.57609" lon="1.96628">
        <ele>2311</ele>
        <time>2018-08-02T12:30:32Z</time>
      </trkpt>
      <trkpt lat="42.57612" lon="1.96633">
        <ele>2310</ele>
        <time>2018-08-02T12:30:47Z</time>
      </trkpt>
      <trkpt lat="42.57615" lon="1.96658">
        <ele>2310</ele>
        <time>2018-08-02T12:31:07Z</time>
      </trkpt>
      <trkpt lat="42.57618" lon="1.96658">
        <ele>2310</ele>
        <time>2018-08-02T12:31:10Z</time>
      </trkpt>
      <trkpt lat="42.57619" lon="1.96663">
        <ele>2311</ele>
        <time>2018-08-02T12:31:13Z</time>
      </trkpt>
      <trkpt lat="42.57618" lon="1.96667">
        <ele>2311</ele>
        <time>2018-08-02T12:31:16Z</time>
      </trkpt>
      <trkpt lat="42.5762" lon="1.96675">
        <ele>2312</ele>
        <time>2018-08-02T12:31:24Z</time>
      </trkpt>
      <trkpt lat="42.57616" lon="1.96684">
        <ele>2311</ele>
        <time>2018-08-02T12:31:32Z</time>
      </trkpt>
      <trkpt lat="42.57616" lon="1.96691">
        <ele>2310</ele>
        <time>2018-08-02T12:31:37Z</time>
      </trkpt>
      <trkpt lat="42.57614" lon="1.96697">
        <ele>2309</ele>
        <time>2018-08-02T12:31:43Z</time>
      </trkpt>
      <trkpt lat="42.57611" lon="1.96709">
        <ele>2310</ele>
        <time>2018-08-02T12:31:50Z</time>
      </trkpt>
      <trkpt lat="42.57607" lon="1.96715">
        <ele>2314</ele>
        <time>2018-08-02T12:32:02Z</time>
      </trkpt>
      <trkpt lat="42.57605" lon="1.9672">
        <ele>2314</ele>
        <time>2018-08-02T12:32:07Z</time>
      </trkpt>
      <trkpt lat="42.57606" lon="1.96724">
        <ele>2315</ele>
        <time>2018-08-02T12:32:11Z</time>
      </trkpt>
      <trkpt lat="42.57603" lon="1.96731">
        <ele>2317</ele>
        <time>2018-08-02T12:32:18Z</time>
      </trkpt>
      <trkpt lat="42.57603" lon="1.96735">
        <ele>2317</ele>
        <time>2018-08-02T12:32:24Z</time>
      </trkpt>
      <trkpt lat="42.57602" lon="1.96739">
        <ele>2316</ele>
        <time>2018-08-02T12:32:26Z</time>
      </trkpt>
      <trkpt lat="42.57602" lon="1.96743">
        <ele>2317</ele>
        <time>2018-08-02T12:32:31Z</time>
      </trkpt>
      <trkpt lat="42.57601" lon="1.96747">
        <ele>2316</ele>
        <time>2018-08-02T12:32:37Z</time>
      </trkpt>
      <trkpt lat="42.57599" lon="1.9675">
        <ele>2312</ele>
        <time>2018-08-02T12:32:41Z</time>
      </trkpt>
      <trkpt lat="42.57601" lon="1.96753">
        <ele>2311</ele>
        <time>2018-08-02T12:32:46Z</time>
      </trkpt>
      <trkpt lat="42.57599" lon="1.96755">
        <ele>2311</ele>
        <time>2018-08-02T12:32:53Z</time>
      </trkpt>
      <trkpt lat="42.57596" lon="1.96759">
        <ele>2311</ele>
        <time>2018-08-02T12:32:57Z</time>
      </trkpt>
      <trkpt lat="42.57594" lon="1.96767">
        <ele>2309</ele>
        <time>2018-08-02T12:33:05Z</time>
      </trkpt>
      <trkpt lat="42.57591" lon="1.96781">
        <ele>2308</ele>
        <time>2018-08-02T12:33:17Z</time>
      </trkpt>
      <trkpt lat="42.5759" lon="1.96795">
        <ele>2308</ele>
        <time>2018-08-02T12:33:33Z</time>
      </trkpt>
      <trkpt lat="42.57589" lon="1.968">
        <ele>2309</ele>
        <time>2018-08-02T12:33:42Z</time>
      </trkpt>
      <trkpt lat="42.57586" lon="1.96801">
        <ele>2310</ele>
        <time>2018-08-02T12:33:44Z</time>
      </trkpt>
      <trkpt lat="42.57582" lon="1.96801">
        <ele>2314</ele>
        <time>2018-08-02T12:34:54Z</time>
      </trkpt>
      <trkpt lat="42.57584" lon="1.96803">
        <ele>2314</ele>
        <time>2018-08-02T12:35:57Z</time>
      </trkpt>
      <trkpt lat="42.57583" lon="1.96807">
        <ele>2314</ele>
        <time>2018-08-02T12:36:01Z</time>
      </trkpt>
      <trkpt lat="42.57583" lon="1.96814">
        <ele>2307</ele>
        <time>2018-08-02T12:36:09Z</time>
      </trkpt>
      <trkpt lat="42.57585" lon="1.96817">
        <ele>2307</ele>
        <time>2018-08-02T12:36:14Z</time>
      </trkpt>
      <trkpt lat="42.57584" lon="1.96827">
        <ele>2308</ele>
        <time>2018-08-02T12:36:21Z</time>
      </trkpt>
      <trkpt lat="42.57582" lon="1.96831">
        <ele>2307</ele>
        <time>2018-08-02T12:36:24Z</time>
      </trkpt>
      <trkpt lat="42.57581" lon="1.96836">
        <ele>2306</ele>
        <time>2018-08-02T12:36:27Z</time>
      </trkpt>
      <trkpt lat="42.57579" lon="1.96839">
        <ele>2306</ele>
        <time>2018-08-02T12:36:31Z</time>
      </trkpt>
      <trkpt lat="42.57579" lon="1.96843">
        <ele>2307</ele>
        <time>2018-08-02T12:36:36Z</time>
      </trkpt>
      <trkpt lat="42.57575" lon="1.9685">
        <ele>2306</ele>
        <time>2018-08-02T12:36:44Z</time>
      </trkpt>
      <trkpt lat="42.57575" lon="1.96857">
        <ele>2308</ele>
        <time>2018-08-02T12:36:50Z</time>
      </trkpt>
      <trkpt lat="42.57573" lon="1.96861">
        <ele>2306</ele>
        <time>2018-08-02T12:36:55Z</time>
      </trkpt>
      <trkpt lat="42.57565" lon="1.96874">
        <ele>2305</ele>
        <time>2018-08-02T12:37:18Z</time>
      </trkpt>
      <trkpt lat="42.57562" lon="1.96875">
        <ele>2305</ele>
        <time>2018-08-02T12:37:22Z</time>
      </trkpt>
      <trkpt lat="42.57561" lon="1.96884">
        <ele>2301</ele>
        <time>2018-08-02T12:37:30Z</time>
      </trkpt>
      <trkpt lat="42.57558" lon="1.96888">
        <ele>2300</ele>
        <time>2018-08-02T12:37:34Z</time>
      </trkpt>
      <trkpt lat="42.57556" lon="1.96897">
        <ele>2300</ele>
        <time>2018-08-02T12:37:38Z</time>
      </trkpt>
      <trkpt lat="42.57557" lon="1.969">
        <ele>2300</ele>
        <time>2018-08-02T12:37:42Z</time>
      </trkpt>
      <trkpt lat="42.57554" lon="1.96906">
        <ele>2299</ele>
        <time>2018-08-02T12:37:50Z</time>
      </trkpt>
      <trkpt lat="42.57552" lon="1.96909">
        <ele>2299</ele>
        <time>2018-08-02T12:37:52Z</time>
      </trkpt>
      <trkpt lat="42.57553" lon="1.96915">
        <ele>2298</ele>
        <time>2018-08-02T12:37:54Z</time>
      </trkpt>
      <trkpt lat="42.57554" lon="1.96919">
        <ele>2296</ele>
        <time>2018-08-02T12:38:00Z</time>
      </trkpt>
      <trkpt lat="42.57558" lon="1.96931">
        <ele>2295</ele>
        <time>2018-08-02T12:38:07Z</time>
      </trkpt>
      <trkpt lat="42.5756" lon="1.96934">
        <ele>2294</ele>
        <time>2018-08-02T12:38:11Z</time>
      </trkpt>
      <trkpt lat="42.57559" lon="1.96943">
        <ele>2296</ele>
        <time>2018-08-02T12:38:26Z</time>
      </trkpt>
      <trkpt lat="42.57557" lon="1.9695">
        <ele>2295</ele>
        <time>2018-08-02T12:38:32Z</time>
      </trkpt>
      <trkpt lat="42.57558" lon="1.96954">
        <ele>2295</ele>
        <time>2018-08-02T12:38:38Z</time>
      </trkpt>
      <trkpt lat="42.57556" lon="1.96957">
        <ele>2294</ele>
        <time>2018-08-02T12:38:44Z</time>
      </trkpt>
      <trkpt lat="42.57554" lon="1.96958">
        <ele>2294</ele>
        <time>2018-08-02T12:38:47Z</time>
      </trkpt>
      <trkpt lat="42.57551" lon="1.96957">
        <ele>2295</ele>
        <time>2018-08-02T12:38:49Z</time>
      </trkpt>
      <trkpt lat="42.57547" lon="1.96959">
        <ele>2294</ele>
        <time>2018-08-02T12:38:52Z</time>
      </trkpt>
      <trkpt lat="42.57542" lon="1.96958">
        <ele>2293</ele>
        <time>2018-08-02T12:38:59Z</time>
      </trkpt>
      <trkpt lat="42.57539" lon="1.96959">
        <ele>2291</ele>
        <time>2018-08-02T12:39:04Z</time>
      </trkpt>
      <trkpt lat="42.57538" lon="1.96963">
        <ele>2290</ele>
        <time>2018-08-02T12:39:10Z</time>
      </trkpt>
      <trkpt lat="42.57538" lon="1.96967">
        <ele>2289</ele>
        <time>2018-08-02T12:39:16Z</time>
      </trkpt>
      <trkpt lat="42.57539" lon="1.96971">
        <ele>2288</ele>
        <time>2018-08-02T12:39:21Z</time>
      </trkpt>
      <trkpt lat="42.57538" lon="1.96985">
        <ele>2289</ele>
        <time>2018-08-02T12:39:32Z</time>
      </trkpt>
      <trkpt lat="42.57536" lon="1.96988">
        <ele>2289</ele>
        <time>2018-08-02T12:39:36Z</time>
      </trkpt>
      <trkpt lat="42.57532" lon="1.96994">
        <ele>2291</ele>
        <time>2018-08-02T12:39:44Z</time>
      </trkpt>
      <trkpt lat="42.57529" lon="1.96995">
        <ele>2291</ele>
        <time>2018-08-02T12:39:52Z</time>
      </trkpt>
      <trkpt lat="42.57527" lon="1.96998">
        <ele>2291</ele>
        <time>2018-08-02T12:39:55Z</time>
      </trkpt>
      <trkpt lat="42.57526" lon="1.97002">
        <ele>2289</ele>
        <time>2018-08-02T12:40:02Z</time>
      </trkpt>
      <trkpt lat="42.57524" lon="1.97006">
        <ele>2287</ele>
        <time>2018-08-02T12:40:08Z</time>
      </trkpt>
      <trkpt lat="42.57525" lon="1.97009">
        <ele>2283</ele>
        <time>2018-08-02T12:40:14Z</time>
      </trkpt>
      <trkpt lat="42.57525" lon="1.97015">
        <ele>2283</ele>
        <time>2018-08-02T12:40:17Z</time>
      </trkpt>
      <trkpt lat="42.57524" lon="1.9702">
        <ele>2278</ele>
        <time>2018-08-02T12:40:27Z</time>
      </trkpt>
      <trkpt lat="42.57523" lon="1.97025">
        <ele>2275</ele>
        <time>2018-08-02T12:40:32Z</time>
      </trkpt>
      <trkpt lat="42.5752" lon="1.97031">
        <ele>2273</ele>
        <time>2018-08-02T12:40:36Z</time>
      </trkpt>
      <trkpt lat="42.57519" lon="1.97034">
        <ele>2273</ele>
        <time>2018-08-02T12:40:38Z</time>
      </trkpt>
      <trkpt lat="42.57516" lon="1.97042">
        <ele>2273</ele>
        <time>2018-08-02T12:40:46Z</time>
      </trkpt>
      <trkpt lat="42.57515" lon="1.97046">
        <ele>2274</ele>
        <time>2018-08-02T12:40:49Z</time>
      </trkpt>
      <trkpt lat="42.57513" lon="1.97051">
        <ele>2271</ele>
        <time>2018-08-02T12:40:53Z</time>
      </trkpt>
      <trkpt lat="42.57512" lon="1.97055">
        <ele>2269</ele>
        <time>2018-08-02T12:40:57Z</time>
      </trkpt>
      <trkpt lat="42.57507" lon="1.97068">
        <ele>2267</ele>
        <time>2018-08-02T12:41:06Z</time>
      </trkpt>
      <trkpt lat="42.57506" lon="1.97072">
        <ele>2267</ele>
        <time>2018-08-02T12:41:11Z</time>
      </trkpt>
      <trkpt lat="42.57505" lon="1.97077">
        <ele>2269</ele>
        <time>2018-08-02T12:41:16Z</time>
      </trkpt>
      <trkpt lat="42.57503" lon="1.97081">
        <ele>2269</ele>
        <time>2018-08-02T12:41:20Z</time>
      </trkpt>
      <trkpt lat="42.57501" lon="1.97084">
        <ele>2269</ele>
        <time>2018-08-02T12:41:23Z</time>
      </trkpt>
      <trkpt lat="42.57499" lon="1.97087">
        <ele>2270</ele>
        <time>2018-08-02T12:41:25Z</time>
      </trkpt>
      <trkpt lat="42.57498" lon="1.97091">
        <ele>2270</ele>
        <time>2018-08-02T12:41:30Z</time>
      </trkpt>
      <trkpt lat="42.57499" lon="1.97095">
        <ele>2270</ele>
        <time>2018-08-02T12:41:33Z</time>
      </trkpt>
      <trkpt lat="42.57497" lon="1.97099">
        <ele>2269</ele>
        <time>2018-08-02T12:41:42Z</time>
      </trkpt>
      <trkpt lat="42.57497" lon="1.97104">
        <ele>2267</ele>
        <time>2018-08-02T12:41:45Z</time>
      </trkpt>
      <trkpt lat="42.57497" lon="1.97108">
        <ele>2267</ele>
        <time>2018-08-02T12:41:48Z</time>
      </trkpt>
      <trkpt lat="42.57496" lon="1.97112">
        <ele>2266</ele>
        <time>2018-08-02T12:41:50Z</time>
      </trkpt>
      <trkpt lat="42.57497" lon="1.97116">
        <ele>2264</ele>
        <time>2018-08-02T12:41:53Z</time>
      </trkpt>
      <trkpt lat="42.57497" lon="1.97121">
        <ele>2263</ele>
        <time>2018-08-02T12:41:59Z</time>
      </trkpt>
      <trkpt lat="42.57495" lon="1.97125">
        <ele>2262</ele>
        <time>2018-08-02T12:42:04Z</time>
      </trkpt>
      <trkpt lat="42.57493" lon="1.97138">
        <ele>2259</ele>
        <time>2018-08-02T12:42:12Z</time>
      </trkpt>
      <trkpt lat="42.57495" lon="1.97141">
        <ele>2257</ele>
        <time>2018-08-02T12:42:16Z</time>
      </trkpt>
      <trkpt lat="42.57495" lon="1.97146">
        <ele>2257</ele>
        <time>2018-08-02T12:42:20Z</time>
      </trkpt>
      <trkpt lat="42.5748" lon="1.97169">
        <ele>2255</ele>
        <time>2018-08-02T12:42:40Z</time>
      </trkpt>
      <trkpt lat="42.57479" lon="1.97173">
        <ele>2256</ele>
        <time>2018-08-02T12:42:44Z</time>
      </trkpt>
      <trkpt lat="42.57477" lon="1.97178">
        <ele>2256</ele>
        <time>2018-08-02T12:42:47Z</time>
      </trkpt>
      <trkpt lat="42.57474" lon="1.97182">
        <ele>2256</ele>
        <time>2018-08-02T12:42:52Z</time>
      </trkpt>
      <trkpt lat="42.57466" lon="1.97195">
        <ele>2251</ele>
        <time>2018-08-02T12:43:07Z</time>
      </trkpt>
      <trkpt lat="42.57462" lon="1.97197">
        <ele>2248</ele>
        <time>2018-08-02T12:43:10Z</time>
      </trkpt>
      <trkpt lat="42.57458" lon="1.97198">
        <ele>2248</ele>
        <time>2018-08-02T12:43:13Z</time>
      </trkpt>
      <trkpt lat="42.57456" lon="1.97196">
        <ele>2246</ele>
        <time>2018-08-02T12:43:16Z</time>
      </trkpt>
      <trkpt lat="42.57451" lon="1.97209">
        <ele>2247</ele>
        <time>2018-08-02T12:43:30Z</time>
      </trkpt>
      <trkpt lat="42.57452" lon="1.97213">
        <ele>2245</ele>
        <time>2018-08-02T12:43:38Z</time>
      </trkpt>
      <trkpt lat="42.57451" lon="1.97218">
        <ele>2245</ele>
        <time>2018-08-02T12:43:42Z</time>
      </trkpt>
      <trkpt lat="42.57446" lon="1.97233">
        <ele>2245</ele>
        <time>2018-08-02T12:43:59Z</time>
      </trkpt>
      <trkpt lat="42.57447" lon="1.97238">
        <ele>2243</ele>
        <time>2018-08-02T12:44:11Z</time>
      </trkpt>
      <trkpt lat="42.57454" lon="1.9725">
        <ele>2241</ele>
        <time>2018-08-02T12:44:25Z</time>
      </trkpt>
      <trkpt lat="42.57458" lon="1.97253">
        <ele>2241</ele>
        <time>2018-08-02T12:44:30Z</time>
      </trkpt>
      <trkpt lat="42.5746" lon="1.97258">
        <ele>2241</ele>
        <time>2018-08-02T12:44:35Z</time>
      </trkpt>
      <trkpt lat="42.57463" lon="1.97269">
        <ele>2240</ele>
        <time>2018-08-02T12:44:44Z</time>
      </trkpt>
      <trkpt lat="42.57463" lon="1.97273">
        <ele>2241</ele>
        <time>2018-08-02T12:44:49Z</time>
      </trkpt>
      <trkpt lat="42.57463" lon="1.97277">
        <ele>2242</ele>
        <time>2018-08-02T12:45:06Z</time>
      </trkpt>
      <trkpt lat="42.57465" lon="1.97277">
        <ele>2244</ele>
        <time>2018-08-02T12:47:24Z</time>
      </trkpt>
      <trkpt lat="42.57464" lon="1.97277">
        <ele>2242</ele>
        <time>2018-08-02T12:50:11Z</time>
      </trkpt>
      <trkpt lat="42.57461" lon="1.97276">
        <ele>2243</ele>
        <time>2018-08-02T12:51:36Z</time>
      </trkpt>
      <trkpt lat="42.57462" lon="1.97268">
        <ele>2239</ele>
        <time>2018-08-02T12:51:47Z</time>
      </trkpt>
      <trkpt lat="42.57459" lon="1.97261">
        <ele>2237</ele>
        <time>2018-08-02T12:51:55Z</time>
      </trkpt>
      <trkpt lat="42.57458" lon="1.97256">
        <ele>2238</ele>
        <time>2018-08-02T12:51:58Z</time>
      </trkpt>
      <trkpt lat="42.57458" lon="1.97252">
        <ele>2239</ele>
        <time>2018-08-02T12:52:00Z</time>
      </trkpt>
      <trkpt lat="42.57456" lon="1.97248">
        <ele>2241</ele>
        <time>2018-08-02T12:52:03Z</time>
      </trkpt>
      <trkpt lat="42.57453" lon="1.9725">
        <ele>2242</ele>
        <time>2018-08-02T12:52:06Z</time>
      </trkpt>
      <trkpt lat="42.57448" lon="1.97244">
        <ele>2243</ele>
        <time>2018-08-02T12:52:14Z</time>
      </trkpt>
      <trkpt lat="42.57445" lon="1.97243">
        <ele>2243</ele>
        <time>2018-08-02T12:52:16Z</time>
      </trkpt>
      <trkpt lat="42.57442" lon="1.97241">
        <ele>2242</ele>
        <time>2018-08-02T12:52:20Z</time>
      </trkpt>
      <trkpt lat="42.57436" lon="1.97245">
        <ele>2243</ele>
        <time>2018-08-02T12:52:27Z</time>
      </trkpt>
      <trkpt lat="42.57433" lon="1.97242">
        <ele>2244</ele>
        <time>2018-08-02T12:52:33Z</time>
      </trkpt>
      <trkpt lat="42.57429" lon="1.97243">
        <ele>2245</ele>
        <time>2018-08-02T12:52:38Z</time>
      </trkpt>
      <trkpt lat="42.57426" lon="1.97243">
        <ele>2243</ele>
        <time>2018-08-02T12:52:44Z</time>
      </trkpt>
      <trkpt lat="42.57424" lon="1.97247">
        <ele>2242</ele>
        <time>2018-08-02T12:52:48Z</time>
      </trkpt>
      <trkpt lat="42.57423" lon="1.97251">
        <ele>2240</ele>
        <time>2018-08-02T12:52:52Z</time>
      </trkpt>
      <trkpt lat="42.5742" lon="1.97253">
        <ele>2239</ele>
        <time>2018-08-02T12:52:55Z</time>
      </trkpt>
      <trkpt lat="42.57419" lon="1.97256">
        <ele>2240</ele>
        <time>2018-08-02T12:53:00Z</time>
      </trkpt>
      <trkpt lat="42.57416" lon="1.97259">
        <ele>2240</ele>
        <time>2018-08-02T12:53:03Z</time>
      </trkpt>
      <trkpt lat="42.57414" lon="1.97265">
        <ele>2241</ele>
        <time>2018-08-02T12:53:10Z</time>
      </trkpt>
      <trkpt lat="42.5741" lon="1.97265">
        <ele>2240</ele>
        <time>2018-08-02T12:53:13Z</time>
      </trkpt>
      <trkpt lat="42.57407" lon="1.97268">
        <ele>2239</ele>
        <time>2018-08-02T12:53:17Z</time>
      </trkpt>
      <trkpt lat="42.57406" lon="1.97272">
        <ele>2239</ele>
        <time>2018-08-02T12:53:20Z</time>
      </trkpt>
      <trkpt lat="42.57403" lon="1.97278">
        <ele>2237</ele>
        <time>2018-08-02T12:53:29Z</time>
      </trkpt>
      <trkpt lat="42.57397" lon="1.97286">
        <ele>2236</ele>
        <time>2018-08-02T12:53:35Z</time>
      </trkpt>
      <trkpt lat="42.57396" lon="1.97291">
        <ele>2236</ele>
        <time>2018-08-02T12:53:39Z</time>
      </trkpt>
      <trkpt lat="42.57389" lon="1.97309">
        <ele>2236</ele>
        <time>2018-08-02T12:53:52Z</time>
      </trkpt>
      <trkpt lat="42.57389" lon="1.97314">
        <ele>2238</ele>
        <time>2018-08-02T12:53:57Z</time>
      </trkpt>
      <trkpt lat="42.57386" lon="1.97324">
        <ele>2240</ele>
        <time>2018-08-02T12:54:05Z</time>
      </trkpt>
      <trkpt lat="42.57386" lon="1.97329">
        <ele>2241</ele>
        <time>2018-08-02T12:54:09Z</time>
      </trkpt>
      <trkpt lat="42.57384" lon="1.97335">
        <ele>2242</ele>
        <time>2018-08-02T12:54:12Z</time>
      </trkpt>
      <trkpt lat="42.57383" lon="1.97339">
        <ele>2243</ele>
        <time>2018-08-02T12:54:15Z</time>
      </trkpt>
      <trkpt lat="42.57386" lon="1.97348">
        <ele>2244</ele>
        <time>2018-08-02T12:54:22Z</time>
      </trkpt>
      <trkpt lat="42.57385" lon="1.97352">
        <ele>2243</ele>
        <time>2018-08-02T12:54:25Z</time>
      </trkpt>
      <trkpt lat="42.57384" lon="1.97357">
        <ele>2242</ele>
        <time>2018-08-02T12:54:30Z</time>
      </trkpt>
      <trkpt lat="42.57386" lon="1.97361">
        <ele>2242</ele>
        <time>2018-08-02T12:54:35Z</time>
      </trkpt>
      <trkpt lat="42.57386" lon="1.97365">
        <ele>2242</ele>
        <time>2018-08-02T12:54:37Z</time>
      </trkpt>
      <trkpt lat="42.57383" lon="1.97373">
        <ele>2242</ele>
        <time>2018-08-02T12:54:45Z</time>
      </trkpt>
      <trkpt lat="42.5738" lon="1.97377">
        <ele>2242</ele>
        <time>2018-08-02T12:54:49Z</time>
      </trkpt>
      <trkpt lat="42.57378" lon="1.97389">
        <ele>2241</ele>
        <time>2018-08-02T12:54:57Z</time>
      </trkpt>
      <trkpt lat="42.57375" lon="1.97392">
        <ele>2241</ele>
        <time>2018-08-02T12:54:59Z</time>
      </trkpt>
      <trkpt lat="42.57373" lon="1.97393">
        <ele>2241</ele>
        <time>2018-08-02T12:55:00Z</time>
      </trkpt>
      <trkpt lat="42.57373" lon="1.97397">
        <ele>2242</ele>
        <time>2018-08-02T12:55:03Z</time>
      </trkpt>
      <trkpt lat="42.57372" lon="1.97402">
        <ele>2241</ele>
        <time>2018-08-02T12:55:06Z</time>
      </trkpt>
      <trkpt lat="42.57372" lon="1.97406">
        <ele>2241</ele>
        <time>2018-08-02T12:55:08Z</time>
      </trkpt>
      <trkpt lat="42.5737" lon="1.97416">
        <ele>2240</ele>
        <time>2018-08-02T12:55:12Z</time>
      </trkpt>
      <trkpt lat="42.57369" lon="1.97421">
        <ele>2240</ele>
        <time>2018-08-02T12:55:16Z</time>
      </trkpt>
      <trkpt lat="42.57368" lon="1.97425">
        <ele>2241</ele>
        <time>2018-08-02T12:55:18Z</time>
      </trkpt>
      <trkpt lat="42.5736" lon="1.97434">
        <ele>2241</ele>
        <time>2018-08-02T12:55:27Z</time>
      </trkpt>
      <trkpt lat="42.57355" lon="1.97453">
        <ele>2244</ele>
        <time>2018-08-02T12:55:41Z</time>
      </trkpt>
      <trkpt lat="42.5735" lon="1.97455">
        <ele>2245</ele>
        <time>2018-08-02T12:55:43Z</time>
      </trkpt>
      <trkpt lat="42.57345" lon="1.97464">
        <ele>2243</ele>
        <time>2018-08-02T12:55:51Z</time>
      </trkpt>
      <trkpt lat="42.57342" lon="1.97468">
        <ele>2243</ele>
        <time>2018-08-02T12:55:55Z</time>
      </trkpt>
      <trkpt lat="42.5734" lon="1.97473">
        <ele>2242</ele>
        <time>2018-08-02T12:55:58Z</time>
      </trkpt>
      <trkpt lat="42.57336" lon="1.97474">
        <ele>2242</ele>
        <time>2018-08-02T12:56:00Z</time>
      </trkpt>
      <trkpt lat="42.57334" lon="1.97482">
        <ele>2243</ele>
        <time>2018-08-02T12:56:06Z</time>
      </trkpt>
      <trkpt lat="42.57327" lon="1.97496">
        <ele>2244</ele>
        <time>2018-08-02T12:56:17Z</time>
      </trkpt>
      <trkpt lat="42.57321" lon="1.975">
        <ele>2244</ele>
        <time>2018-08-02T12:56:20Z</time>
      </trkpt>
      <trkpt lat="42.5732" lon="1.97505">
        <ele>2244</ele>
        <time>2018-08-02T12:56:24Z</time>
      </trkpt>
      <trkpt lat="42.57316" lon="1.97512">
        <ele>2244</ele>
        <time>2018-08-02T12:56:30Z</time>
      </trkpt>
      <trkpt lat="42.57314" lon="1.97516">
        <ele>2243</ele>
        <time>2018-08-02T12:56:37Z</time>
      </trkpt>
      <trkpt lat="42.57314" lon="1.9752">
        <ele>2243</ele>
        <time>2018-08-02T12:56:40Z</time>
      </trkpt>
      <trkpt lat="42.57314" lon="1.97525">
        <ele>2241</ele>
        <time>2018-08-02T12:56:43Z</time>
      </trkpt>
      <trkpt lat="42.57307" lon="1.97537">
        <ele>2238</ele>
        <time>2018-08-02T12:56:52Z</time>
      </trkpt>
      <trkpt lat="42.57299" lon="1.97556">
        <ele>2234</ele>
        <time>2018-08-02T12:57:05Z</time>
      </trkpt>
      <trkpt lat="42.57297" lon="1.9756">
        <ele>2233</ele>
        <time>2018-08-02T12:57:08Z</time>
      </trkpt>
      <trkpt lat="42.57295" lon="1.97564">
        <ele>2232</ele>
        <time>2018-08-02T12:57:11Z</time>
      </trkpt>
      <trkpt lat="42.57275" lon="1.97592">
        <ele>2227</ele>
        <time>2018-08-02T12:57:39Z</time>
      </trkpt>
      <trkpt lat="42.57274" lon="1.97596">
        <ele>2228</ele>
        <time>2018-08-02T12:57:46Z</time>
      </trkpt>
      <trkpt lat="42.57265" lon="1.97619">
        <ele>2228</ele>
        <time>2018-08-02T12:58:03Z</time>
      </trkpt>
      <trkpt lat="42.57263" lon="1.97623">
        <ele>2229</ele>
        <time>2018-08-02T12:58:12Z</time>
      </trkpt>
      <trkpt lat="42.57259" lon="1.97628">
        <ele>2229</ele>
        <time>2018-08-02T12:58:19Z</time>
      </trkpt>
      <trkpt lat="42.57259" lon="1.97634">
        <ele>2229</ele>
        <time>2018-08-02T12:58:21Z</time>
      </trkpt>
      <trkpt lat="42.5726" lon="1.97638">
        <ele>2228</ele>
        <time>2018-08-02T12:58:26Z</time>
      </trkpt>
      <trkpt lat="42.57261" lon="1.97644">
        <ele>2228</ele>
        <time>2018-08-02T12:58:32Z</time>
      </trkpt>
      <trkpt lat="42.5726" lon="1.97648">
        <ele>2228</ele>
        <time>2018-08-02T12:58:35Z</time>
      </trkpt>
      <trkpt lat="42.57261" lon="1.97655">
        <ele>2226</ele>
        <time>2018-08-02T12:58:46Z</time>
      </trkpt>
      <trkpt lat="42.57262" lon="1.97658">
        <ele>2225</ele>
        <time>2018-08-02T12:58:49Z</time>
      </trkpt>
      <trkpt lat="42.57262" lon="1.97663">
        <ele>2223</ele>
        <time>2018-08-02T12:58:55Z</time>
      </trkpt>
      <trkpt lat="42.57258" lon="1.97663">
        <ele>2223</ele>
        <time>2018-08-02T12:58:58Z</time>
      </trkpt>
      <trkpt lat="42.57253" lon="1.97668">
        <ele>2222</ele>
        <time>2018-08-02T12:59:04Z</time>
      </trkpt>
      <trkpt lat="42.5725" lon="1.97668">
        <ele>2222</ele>
        <time>2018-08-02T12:59:08Z</time>
      </trkpt>
      <trkpt lat="42.57247" lon="1.97671">
        <ele>2220</ele>
        <time>2018-08-02T12:59:13Z</time>
      </trkpt>
      <trkpt lat="42.57238" lon="1.97694">
        <ele>2216</ele>
        <time>2018-08-02T12:59:35Z</time>
      </trkpt>
      <trkpt lat="42.57239" lon="1.97699">
        <ele>2216</ele>
        <time>2018-08-02T12:59:42Z</time>
      </trkpt>
      <trkpt lat="42.57236" lon="1.97703">
        <ele>2215</ele>
        <time>2018-08-02T12:59:45Z</time>
      </trkpt>
      <trkpt lat="42.57234" lon="1.97709">
        <ele>2214</ele>
        <time>2018-08-02T12:59:51Z</time>
      </trkpt>
      <trkpt lat="42.57232" lon="1.97712">
        <ele>2214</ele>
        <time>2018-08-02T12:59:54Z</time>
      </trkpt>
      <trkpt lat="42.5723" lon="1.97717">
        <ele>2214</ele>
        <time>2018-08-02T12:59:59Z</time>
      </trkpt>
      <trkpt lat="42.57226" lon="1.97724">
        <ele>2216</ele>
        <time>2018-08-02T13:00:05Z</time>
      </trkpt>
      <trkpt lat="42.57226" lon="1.97731">
        <ele>2214</ele>
        <time>2018-08-02T13:00:10Z</time>
      </trkpt>
      <trkpt lat="42.57222" lon="1.97738">
        <ele>2213</ele>
        <time>2018-08-02T13:00:16Z</time>
      </trkpt>
      <trkpt lat="42.57219" lon="1.97739">
        <ele>2213</ele>
        <time>2018-08-02T13:00:26Z</time>
      </trkpt>
      <trkpt lat="42.57218" lon="1.97744">
        <ele>2213</ele>
        <time>2018-08-02T13:00:28Z</time>
      </trkpt>
      <trkpt lat="42.57216" lon="1.97748">
        <ele>2212</ele>
        <time>2018-08-02T13:00:31Z</time>
      </trkpt>
      <trkpt lat="42.57213" lon="1.9775">
        <ele>2212</ele>
        <time>2018-08-02T13:00:33Z</time>
      </trkpt>
      <trkpt lat="42.57205" lon="1.97759">
        <ele>2209</ele>
        <time>2018-08-02T13:00:44Z</time>
      </trkpt>
      <trkpt lat="42.57201" lon="1.9776">
        <ele>2207</ele>
        <time>2018-08-02T13:00:50Z</time>
      </trkpt>
      <trkpt lat="42.57198" lon="1.97767">
        <ele>2208</ele>
        <time>2018-08-02T13:00:57Z</time>
      </trkpt>
      <trkpt lat="42.57176" lon="1.97787">
        <ele>2212</ele>
        <time>2018-08-02T13:01:23Z</time>
      </trkpt>
      <trkpt lat="42.57171" lon="1.97794">
        <ele>2212</ele>
        <time>2018-08-02T13:01:31Z</time>
      </trkpt>
      <trkpt lat="42.57165" lon="1.97797">
        <ele>2211</ele>
        <time>2018-08-02T13:01:38Z</time>
      </trkpt>
      <trkpt lat="42.57164" lon="1.97801">
        <ele>2210</ele>
        <time>2018-08-02T13:01:40Z</time>
      </trkpt>
      <trkpt lat="42.57161" lon="1.97809">
        <ele>2210</ele>
        <time>2018-08-02T13:01:46Z</time>
      </trkpt>
      <trkpt lat="42.57158" lon="1.97816">
        <ele>2208</ele>
        <time>2018-08-02T13:01:53Z</time>
      </trkpt>
      <trkpt lat="42.57155" lon="1.97819">
        <ele>2207</ele>
        <time>2018-08-02T13:01:59Z</time>
      </trkpt>
      <trkpt lat="42.57153" lon="1.97823">
        <ele>2205</ele>
        <time>2018-08-02T13:02:01Z</time>
      </trkpt>
      <trkpt lat="42.57151" lon="1.97827">
        <ele>2204</ele>
        <time>2018-08-02T13:02:04Z</time>
      </trkpt>
      <trkpt lat="42.57147" lon="1.97829">
        <ele>2204</ele>
        <time>2018-08-02T13:02:06Z</time>
      </trkpt>
      <trkpt lat="42.57144" lon="1.97831">
        <ele>2204</ele>
        <time>2018-08-02T13:02:10Z</time>
      </trkpt>
      <trkpt lat="42.57138" lon="1.97854">
        <ele>2200</ele>
        <time>2018-08-02T13:02:27Z</time>
      </trkpt>
      <trkpt lat="42.57139" lon="1.97858">
        <ele>2199</ele>
        <time>2018-08-02T13:02:31Z</time>
      </trkpt>
      <trkpt lat="42.57137" lon="1.97862">
        <ele>2198</ele>
        <time>2018-08-02T13:02:34Z</time>
      </trkpt>
      <trkpt lat="42.57135" lon="1.97865">
        <ele>2199</ele>
        <time>2018-08-02T13:02:38Z</time>
      </trkpt>
      <trkpt lat="42.57133" lon="1.97866">
        <ele>2198</ele>
        <time>2018-08-02T13:02:44Z</time>
      </trkpt>
      <trkpt lat="42.57132" lon="1.97871">
        <ele>2195</ele>
        <time>2018-08-02T13:02:49Z</time>
      </trkpt>
      <trkpt lat="42.57126" lon="1.97875">
        <ele>2194</ele>
        <time>2018-08-02T13:02:56Z</time>
      </trkpt>
      <trkpt lat="42.5712" lon="1.9788">
        <ele>2197</ele>
        <time>2018-08-02T13:03:03Z</time>
      </trkpt>
      <trkpt lat="42.57118" lon="1.97879">
        <ele>2197</ele>
        <time>2018-08-02T13:03:05Z</time>
      </trkpt>
      <trkpt lat="42.57114" lon="1.97881">
        <ele>2196</ele>
        <time>2018-08-02T13:03:09Z</time>
      </trkpt>
      <trkpt lat="42.57112" lon="1.97884">
        <ele>2196</ele>
        <time>2018-08-02T13:03:11Z</time>
      </trkpt>
      <trkpt lat="42.57109" lon="1.97884">
        <ele>2197</ele>
        <time>2018-08-02T13:03:15Z</time>
      </trkpt>
      <trkpt lat="42.57102" lon="1.97889">
        <ele>2194</ele>
        <time>2018-08-02T13:03:30Z</time>
      </trkpt>
      <trkpt lat="42.57098" lon="1.97889">
        <ele>2195</ele>
        <time>2018-08-02T13:03:33Z</time>
      </trkpt>
      <trkpt lat="42.57096" lon="1.97891">
        <ele>2195</ele>
        <time>2018-08-02T13:03:36Z</time>
      </trkpt>
      <trkpt lat="42.57093" lon="1.97893">
        <ele>2195</ele>
        <time>2018-08-02T13:03:39Z</time>
      </trkpt>
      <trkpt lat="42.57085" lon="1.97896">
        <ele>2191</ele>
        <time>2018-08-02T13:03:51Z</time>
      </trkpt>
      <trkpt lat="42.57083" lon="1.97899">
        <ele>2191</ele>
        <time>2018-08-02T13:03:55Z</time>
      </trkpt>
      <trkpt lat="42.5708" lon="1.97898">
        <ele>2192</ele>
        <time>2018-08-02T13:04:00Z</time>
      </trkpt>
      <trkpt lat="42.57078" lon="1.979">
        <ele>2191</ele>
        <time>2018-08-02T13:04:04Z</time>
      </trkpt>
      <trkpt lat="42.57075" lon="1.97902">
        <ele>2191</ele>
        <time>2018-08-02T13:04:09Z</time>
      </trkpt>
      <trkpt lat="42.57074" lon="1.97906">
        <ele>2192</ele>
        <time>2018-08-02T13:04:13Z</time>
      </trkpt>
      <trkpt lat="42.57065" lon="1.97915">
        <ele>2184</ele>
        <time>2018-08-02T13:04:30Z</time>
      </trkpt>
      <trkpt lat="42.57057" lon="1.97922">
        <ele>2185</ele>
        <time>2018-08-02T13:04:35Z</time>
      </trkpt>
      <trkpt lat="42.57054" lon="1.9792">
        <ele>2184</ele>
        <time>2018-08-02T13:04:39Z</time>
      </trkpt>
      <trkpt lat="42.5705" lon="1.97924">
        <ele>2184</ele>
        <time>2018-08-02T13:04:42Z</time>
      </trkpt>
      <trkpt lat="42.57038" lon="1.97925">
        <ele>2183</ele>
        <time>2018-08-02T13:04:52Z</time>
      </trkpt>
      <trkpt lat="42.57036" lon="1.97928">
        <ele>2184</ele>
        <time>2018-08-02T13:04:56Z</time>
      </trkpt>
      <trkpt lat="42.57033" lon="1.97932">
        <ele>2185</ele>
        <time>2018-08-02T13:04:59Z</time>
      </trkpt>
      <trkpt lat="42.57031" lon="1.97936">
        <ele>2185</ele>
        <time>2018-08-02T13:05:05Z</time>
      </trkpt>
      <trkpt lat="42.57025" lon="1.97943">
        <ele>2184</ele>
        <time>2018-08-02T13:05:10Z</time>
      </trkpt>
      <trkpt lat="42.57025" lon="1.97947">
        <ele>2184</ele>
        <time>2018-08-02T13:05:14Z</time>
      </trkpt>
      <trkpt lat="42.57017" lon="1.97957">
        <ele>2182</ele>
        <time>2018-08-02T13:05:24Z</time>
      </trkpt>
      <trkpt lat="42.57015" lon="1.9796">
        <ele>2183</ele>
        <time>2018-08-02T13:05:28Z</time>
      </trkpt>
      <trkpt lat="42.57011" lon="1.97961">
        <ele>2183</ele>
        <time>2018-08-02T13:05:34Z</time>
      </trkpt>
      <trkpt lat="42.57007" lon="1.9796">
        <ele>2183</ele>
        <time>2018-08-02T13:05:37Z</time>
      </trkpt>
      <trkpt lat="42.57003" lon="1.97958">
        <ele>2184</ele>
        <time>2018-08-02T13:05:39Z</time>
      </trkpt>
      <trkpt lat="42.57" lon="1.97958">
        <ele>2184</ele>
        <time>2018-08-02T13:05:42Z</time>
      </trkpt>
      <trkpt lat="42.56997" lon="1.97954">
        <ele>2186</ele>
        <time>2018-08-02T13:05:45Z</time>
      </trkpt>
      <trkpt lat="42.56996" lon="1.9795">
        <ele>2186</ele>
        <time>2018-08-02T13:05:47Z</time>
      </trkpt>
      <trkpt lat="42.56993" lon="1.9795">
        <ele>2186</ele>
        <time>2018-08-02T13:05:51Z</time>
      </trkpt>
      <trkpt lat="42.5699" lon="1.97948">
        <ele>2187</ele>
        <time>2018-08-02T13:05:54Z</time>
      </trkpt>
      <trkpt lat="42.56989" lon="1.97944">
        <ele>2185</ele>
        <time>2018-08-02T13:05:56Z</time>
      </trkpt>
      <trkpt lat="42.56987" lon="1.9794">
        <ele>2183</ele>
        <time>2018-08-02T13:06:00Z</time>
      </trkpt>
      <trkpt lat="42.56987" lon="1.97936">
        <ele>2182</ele>
        <time>2018-08-02T13:06:02Z</time>
      </trkpt>
      <trkpt lat="42.56984" lon="1.97934">
        <ele>2179</ele>
        <time>2018-08-02T13:06:06Z</time>
      </trkpt>
      <trkpt lat="42.56977" lon="1.97937">
        <ele>2179</ele>
        <time>2018-08-02T13:06:14Z</time>
      </trkpt>
      <trkpt lat="42.56975" lon="1.97941">
        <ele>2180</ele>
        <time>2018-08-02T13:06:17Z</time>
      </trkpt>
      <trkpt lat="42.56971" lon="1.9794">
        <ele>2180</ele>
        <time>2018-08-02T13:06:19Z</time>
      </trkpt>
      <trkpt lat="42.56969" lon="1.97943">
        <ele>2179</ele>
        <time>2018-08-02T13:06:24Z</time>
      </trkpt>
      <trkpt lat="42.56969" lon="1.97949">
        <ele>2178</ele>
        <time>2018-08-02T13:06:30Z</time>
      </trkpt>
      <trkpt lat="42.56965" lon="1.97951">
        <ele>2178</ele>
        <time>2018-08-02T13:06:33Z</time>
      </trkpt>
      <trkpt lat="42.56959" lon="1.97958">
        <ele>2179</ele>
        <time>2018-08-02T13:06:41Z</time>
      </trkpt>
      <trkpt lat="42.56956" lon="1.97962">
        <ele>2180</ele>
        <time>2018-08-02T13:06:44Z</time>
      </trkpt>
      <trkpt lat="42.56955" lon="1.97969">
        <ele>2182</ele>
        <time>2018-08-02T13:06:47Z</time>
      </trkpt>
      <trkpt lat="42.56954" lon="1.97977">
        <ele>2183</ele>
        <time>2018-08-02T13:06:53Z</time>
      </trkpt>
      <trkpt lat="42.56949" lon="1.97982">
        <ele>2184</ele>
        <time>2018-08-02T13:06:58Z</time>
      </trkpt>
      <trkpt lat="42.56945" lon="1.97983">
        <ele>2184</ele>
        <time>2018-08-02T13:07:02Z</time>
      </trkpt>
      <trkpt lat="42.56942" lon="1.97989">
        <ele>2182</ele>
        <time>2018-08-02T13:07:09Z</time>
      </trkpt>
      <trkpt lat="42.56943" lon="1.97994">
        <ele>2181</ele>
        <time>2018-08-02T13:07:14Z</time>
      </trkpt>
      <trkpt lat="42.56939" lon="1.97998">
        <ele>2183</ele>
        <time>2018-08-02T13:07:18Z</time>
      </trkpt>
      <trkpt lat="42.56938" lon="1.98004">
        <ele>2185</ele>
        <time>2018-08-02T13:07:24Z</time>
      </trkpt>
      <trkpt lat="42.56935" lon="1.98006">
        <ele>2183</ele>
        <time>2018-08-02T13:07:26Z</time>
      </trkpt>
      <trkpt lat="42.56927" lon="1.9802">
        <ele>2178</ele>
        <time>2018-08-02T13:07:39Z</time>
      </trkpt>
      <trkpt lat="42.56923" lon="1.98022">
        <ele>2178</ele>
        <time>2018-08-02T13:07:41Z</time>
      </trkpt>
      <trkpt lat="42.56921" lon="1.98027">
        <ele>2178</ele>
        <time>2018-08-02T13:07:43Z</time>
      </trkpt>
      <trkpt lat="42.56918" lon="1.98029">
        <ele>2178</ele>
        <time>2018-08-02T13:07:47Z</time>
      </trkpt>
      <trkpt lat="42.56916" lon="1.98033">
        <ele>2178</ele>
        <time>2018-08-02T13:07:49Z</time>
      </trkpt>
      <trkpt lat="42.56913" lon="1.98036">
        <ele>2177</ele>
        <time>2018-08-02T13:07:52Z</time>
      </trkpt>
      <trkpt lat="42.56911" lon="1.98042">
        <ele>2177</ele>
        <time>2018-08-02T13:07:54Z</time>
      </trkpt>
      <trkpt lat="42.56909" lon="1.98045">
        <ele>2177</ele>
        <time>2018-08-02T13:07:59Z</time>
      </trkpt>
      <trkpt lat="42.56906" lon="1.9805">
        <ele>2176</ele>
        <time>2018-08-02T13:08:02Z</time>
      </trkpt>
      <trkpt lat="42.56902" lon="1.98053">
        <ele>2176</ele>
        <time>2018-08-02T13:08:04Z</time>
      </trkpt>
      <trkpt lat="42.56899" lon="1.98053">
        <ele>2175</ele>
        <time>2018-08-02T13:08:05Z</time>
      </trkpt>
      <trkpt lat="42.56898" lon="1.98058">
        <ele>2176</ele>
        <time>2018-08-02T13:08:09Z</time>
      </trkpt>
      <trkpt lat="42.56896" lon="1.98062">
        <ele>2175</ele>
        <time>2018-08-02T13:08:11Z</time>
      </trkpt>
      <trkpt lat="42.56889" lon="1.98066">
        <ele>2176</ele>
        <time>2018-08-02T13:08:15Z</time>
      </trkpt>
      <trkpt lat="42.56885" lon="1.98066">
        <ele>2177</ele>
        <time>2018-08-02T13:08:18Z</time>
      </trkpt>
      <trkpt lat="42.56882" lon="1.98068">
        <ele>2178</ele>
        <time>2018-08-02T13:08:21Z</time>
      </trkpt>
      <trkpt lat="42.56876" lon="1.9807">
        <ele>2178</ele>
        <time>2018-08-02T13:08:25Z</time>
      </trkpt>
      <trkpt lat="42.56854" lon="1.9808">
        <ele>2183</ele>
        <time>2018-08-02T13:08:48Z</time>
      </trkpt>
      <trkpt lat="42.56841" lon="1.98085">
        <ele>2185</ele>
        <time>2018-08-02T13:08:55Z</time>
      </trkpt>
      <trkpt lat="42.56835" lon="1.98088">
        <ele>2184</ele>
        <time>2018-08-02T13:09:02Z</time>
      </trkpt>
      <trkpt lat="42.56833" lon="1.9809">
        <ele>2184</ele>
        <time>2018-08-02T13:09:05Z</time>
      </trkpt>
      <trkpt lat="42.56832" lon="1.98095">
        <ele>2187</ele>
        <time>2018-08-02T13:09:10Z</time>
      </trkpt>
      <trkpt lat="42.56828" lon="1.98096">
        <ele>2187</ele>
        <time>2018-08-02T13:09:14Z</time>
      </trkpt>
      <trkpt lat="42.56819" lon="1.98107">
        <ele>2182</ele>
        <time>2018-08-02T13:09:24Z</time>
      </trkpt>
      <trkpt lat="42.56818" lon="1.98111">
        <ele>2182</ele>
        <time>2018-08-02T13:09:27Z</time>
      </trkpt>
      <trkpt lat="42.56816" lon="1.98113">
        <ele>2182</ele>
        <time>2018-08-02T13:09:29Z</time>
      </trkpt>
      <trkpt lat="42.56815" lon="1.98117">
        <ele>2182</ele>
        <time>2018-08-02T13:09:32Z</time>
      </trkpt>
      <trkpt lat="42.56812" lon="1.98125">
        <ele>2182</ele>
        <time>2018-08-02T13:09:38Z</time>
      </trkpt>
      <trkpt lat="42.56806" lon="1.98131">
        <ele>2181</ele>
        <time>2018-08-02T13:09:45Z</time>
      </trkpt>
      <trkpt lat="42.56803" lon="1.98132">
        <ele>2180</ele>
        <time>2018-08-02T13:09:47Z</time>
      </trkpt>
      <trkpt lat="42.56794" lon="1.98137">
        <ele>2179</ele>
        <time>2018-08-02T13:09:54Z</time>
      </trkpt>
      <trkpt lat="42.56783" lon="1.98147">
        <ele>2179</ele>
        <time>2018-08-02T13:10:05Z</time>
      </trkpt>
      <trkpt lat="42.56781" lon="1.98149">
        <ele>2179</ele>
        <time>2018-08-02T13:10:07Z</time>
      </trkpt>
      <trkpt lat="42.56778" lon="1.98157">
        <ele>2180</ele>
        <time>2018-08-02T13:10:14Z</time>
      </trkpt>
      <trkpt lat="42.56773" lon="1.98159">
        <ele>2177</ele>
        <time>2018-08-02T13:10:18Z</time>
      </trkpt>
      <trkpt lat="42.56771" lon="1.98163">
        <ele>2176</ele>
        <time>2018-08-02T13:10:22Z</time>
      </trkpt>
      <trkpt lat="42.56763" lon="1.98175">
        <ele>2173</ele>
        <time>2018-08-02T13:10:36Z</time>
      </trkpt>
      <trkpt lat="42.5676" lon="1.9818">
        <ele>2174</ele>
        <time>2018-08-02T13:10:38Z</time>
      </trkpt>
      <trkpt lat="42.56754" lon="1.98179">
        <ele>2174</ele>
        <time>2018-08-02T13:10:40Z</time>
      </trkpt>
      <trkpt lat="42.56752" lon="1.98184">
        <ele>2178</ele>
        <time>2018-08-02T13:10:45Z</time>
      </trkpt>
      <trkpt lat="42.56753" lon="1.98188">
        <ele>2180</ele>
        <time>2018-08-02T13:10:49Z</time>
      </trkpt>
      <trkpt lat="42.56754" lon="1.98192">
        <ele>2179</ele>
        <time>2018-08-02T13:10:55Z</time>
      </trkpt>
      <trkpt lat="42.56751" lon="1.98197">
        <ele>2178</ele>
        <time>2018-08-02T13:10:58Z</time>
      </trkpt>
      <trkpt lat="42.56751" lon="1.98201">
        <ele>2176</ele>
        <time>2018-08-02T13:11:03Z</time>
      </trkpt>
      <trkpt lat="42.5675" lon="1.98206">
        <ele>2175</ele>
        <time>2018-08-02T13:11:05Z</time>
      </trkpt>
      <trkpt lat="42.5675" lon="1.9821">
        <ele>2174</ele>
        <time>2018-08-02T13:11:07Z</time>
      </trkpt>
      <trkpt lat="42.56745" lon="1.98219">
        <ele>2172</ele>
        <time>2018-08-02T13:11:15Z</time>
      </trkpt>
      <trkpt lat="42.56732" lon="1.98231">
        <ele>2172</ele>
        <time>2018-08-02T13:11:29Z</time>
      </trkpt>
      <trkpt lat="42.5673" lon="1.98234">
        <ele>2172</ele>
        <time>2018-08-02T13:11:31Z</time>
      </trkpt>
      <trkpt lat="42.56727" lon="1.98235">
        <ele>2171</ele>
        <time>2018-08-02T13:11:33Z</time>
      </trkpt>
      <trkpt lat="42.56724" lon="1.9824">
        <ele>2171</ele>
        <time>2018-08-02T13:11:36Z</time>
      </trkpt>
      <trkpt lat="42.56717" lon="1.98245">
        <ele>2172</ele>
        <time>2018-08-02T13:11:40Z</time>
      </trkpt>
      <trkpt lat="42.56716" lon="1.98241">
        <ele>2171</ele>
        <time>2018-08-02T13:11:45Z</time>
      </trkpt>
      <trkpt lat="42.56712" lon="1.98242">
        <ele>2169</ele>
        <time>2018-08-02T13:11:49Z</time>
      </trkpt>
      <trkpt lat="42.5671" lon="1.98244">
        <ele>2169</ele>
        <time>2018-08-02T13:11:52Z</time>
      </trkpt>
      <trkpt lat="42.56707" lon="1.98242">
        <ele>2168</ele>
        <time>2018-08-02T13:11:55Z</time>
      </trkpt>
      <trkpt lat="42.56706" lon="1.98247">
        <ele>2168</ele>
        <time>2018-08-02T13:11:58Z</time>
      </trkpt>
      <trkpt lat="42.567" lon="1.98248">
        <ele>2166</ele>
        <time>2018-08-02T13:12:06Z</time>
      </trkpt>
      <trkpt lat="42.56696" lon="1.98248">
        <ele>2166</ele>
        <time>2018-08-02T13:12:09Z</time>
      </trkpt>
      <trkpt lat="42.5669" lon="1.98249">
        <ele>2168</ele>
        <time>2018-08-02T13:12:14Z</time>
      </trkpt>
      <trkpt lat="42.5669" lon="1.98246">
        <ele>2168</ele>
        <time>2018-08-02T13:12:17Z</time>
      </trkpt>
      <trkpt lat="42.56687" lon="1.98248">
        <ele>2167</ele>
        <time>2018-08-02T13:12:22Z</time>
      </trkpt>
      <trkpt lat="42.56685" lon="1.98252">
        <ele>2167</ele>
        <time>2018-08-02T13:12:26Z</time>
      </trkpt>
      <trkpt lat="42.56681" lon="1.98254">
        <ele>2164</ele>
        <time>2018-08-02T13:12:33Z</time>
      </trkpt>
      <trkpt lat="42.56678" lon="1.98256">
        <ele>2161</ele>
        <time>2018-08-02T13:12:38Z</time>
      </trkpt>
      <trkpt lat="42.56672" lon="1.9826">
        <ele>2160</ele>
        <time>2018-08-02T13:12:46Z</time>
      </trkpt>
      <trkpt lat="42.56667" lon="1.98265">
        <ele>2160</ele>
        <time>2018-08-02T13:12:51Z</time>
      </trkpt>
      <trkpt lat="42.56664" lon="1.98265">
        <ele>2161</ele>
        <time>2018-08-02T13:12:55Z</time>
      </trkpt>
      <trkpt lat="42.56661" lon="1.98269">
        <ele>2163</ele>
        <time>2018-08-02T13:12:59Z</time>
      </trkpt>
      <trkpt lat="42.56659" lon="1.9827">
        <ele>2163</ele>
        <time>2018-08-02T13:13:03Z</time>
      </trkpt>
      <trkpt lat="42.56656" lon="1.98271">
        <ele>2163</ele>
        <time>2018-08-02T13:13:08Z</time>
      </trkpt>
      <trkpt lat="42.56656" lon="1.98267">
        <ele>2164</ele>
        <time>2018-08-02T13:13:24Z</time>
      </trkpt>
      <trkpt lat="42.56653" lon="1.98267">
        <ele>2164</ele>
        <time>2018-08-02T13:13:27Z</time>
      </trkpt>
      <trkpt lat="42.5665" lon="1.9827">
        <ele>2163</ele>
        <time>2018-08-02T13:13:36Z</time>
      </trkpt>
      <trkpt lat="42.56648" lon="1.98272">
        <ele>2163</ele>
        <time>2018-08-02T13:13:39Z</time>
      </trkpt>
      <trkpt lat="42.56642" lon="1.98271">
        <ele>2165</ele>
        <time>2018-08-02T13:13:46Z</time>
      </trkpt>
      <trkpt lat="42.5664" lon="1.98273">
        <ele>2164</ele>
        <time>2018-08-02T13:13:56Z</time>
      </trkpt>
      <trkpt lat="42.56637" lon="1.98276">
        <ele>2162</ele>
        <time>2018-08-02T13:14:00Z</time>
      </trkpt>
      <trkpt lat="42.56633" lon="1.98277">
        <ele>2161</ele>
        <time>2018-08-02T13:14:03Z</time>
      </trkpt>
      <trkpt lat="42.5663" lon="1.98277">
        <ele>2161</ele>
        <time>2018-08-02T13:14:06Z</time>
      </trkpt>
      <trkpt lat="42.56625" lon="1.98274">
        <ele>2159</ele>
        <time>2018-08-02T13:14:14Z</time>
      </trkpt>
      <trkpt lat="42.56622" lon="1.98275">
        <ele>2158</ele>
        <time>2018-08-02T13:14:17Z</time>
      </trkpt>
      <trkpt lat="42.56615" lon="1.98276">
        <ele>2158</ele>
        <time>2018-08-02T13:14:23Z</time>
      </trkpt>
      <trkpt lat="42.56613" lon="1.98272">
        <ele>2155</ele>
        <time>2018-08-02T13:14:26Z</time>
      </trkpt>
      <trkpt lat="42.56603" lon="1.98273">
        <ele>2151</ele>
        <time>2018-08-02T13:14:36Z</time>
      </trkpt>
      <trkpt lat="42.56596" lon="1.98273">
        <ele>2150</ele>
        <time>2018-08-02T13:14:44Z</time>
      </trkpt>
      <trkpt lat="42.56594" lon="1.98271">
        <ele>2150</ele>
        <time>2018-08-02T13:14:48Z</time>
      </trkpt>
      <trkpt lat="42.56583" lon="1.98273">
        <ele>2149</ele>
        <time>2018-08-02T13:14:59Z</time>
      </trkpt>
      <trkpt lat="42.56572" lon="1.98288">
        <ele>2149</ele>
        <time>2018-08-02T13:15:14Z</time>
      </trkpt>
      <trkpt lat="42.56571" lon="1.98293">
        <ele>2149</ele>
        <time>2018-08-02T13:15:16Z</time>
      </trkpt>
      <trkpt lat="42.56568" lon="1.98295">
        <ele>2150</ele>
        <time>2018-08-02T13:15:20Z</time>
      </trkpt>
      <trkpt lat="42.56558" lon="1.98301">
        <ele>2151</ele>
        <time>2018-08-02T13:15:27Z</time>
      </trkpt>
      <trkpt lat="42.56554" lon="1.98305">
        <ele>2151</ele>
        <time>2018-08-02T13:15:30Z</time>
      </trkpt>
      <trkpt lat="42.56553" lon="1.9831">
        <ele>2152</ele>
        <time>2018-08-02T13:15:34Z</time>
      </trkpt>
      <trkpt lat="42.5655" lon="1.98311">
        <ele>2152</ele>
        <time>2018-08-02T13:15:37Z</time>
      </trkpt>
      <trkpt lat="42.56547" lon="1.98316">
        <ele>2151</ele>
        <time>2018-08-02T13:15:40Z</time>
      </trkpt>
      <trkpt lat="42.56543" lon="1.98319">
        <ele>2151</ele>
        <time>2018-08-02T13:15:44Z</time>
      </trkpt>
      <trkpt lat="42.56543" lon="1.98326">
        <ele>2153</ele>
        <time>2018-08-02T13:15:52Z</time>
      </trkpt>
      <trkpt lat="42.5654" lon="1.98331">
        <ele>2151</ele>
        <time>2018-08-02T13:15:57Z</time>
      </trkpt>
      <trkpt lat="42.56536" lon="1.98334">
        <ele>2149</ele>
        <time>2018-08-02T13:16:00Z</time>
      </trkpt>
      <trkpt lat="42.56533" lon="1.98341">
        <ele>2148</ele>
        <time>2018-08-02T13:16:06Z</time>
      </trkpt>
      <trkpt lat="42.56529" lon="1.98345">
        <ele>2147</ele>
        <time>2018-08-02T13:16:10Z</time>
      </trkpt>
      <trkpt lat="42.56525" lon="1.98352">
        <ele>2147</ele>
        <time>2018-08-02T13:16:20Z</time>
      </trkpt>
      <trkpt lat="42.56524" lon="1.98356">
        <ele>2146</ele>
        <time>2018-08-02T13:16:25Z</time>
      </trkpt>
      <trkpt lat="42.56521" lon="1.98363">
        <ele>2143</ele>
        <time>2018-08-02T13:16:37Z</time>
      </trkpt>
      <trkpt lat="42.56516" lon="1.9837">
        <ele>2143</ele>
        <time>2018-08-02T13:16:44Z</time>
      </trkpt>
      <trkpt lat="42.56514" lon="1.98374">
        <ele>2143</ele>
        <time>2018-08-02T13:16:48Z</time>
      </trkpt>
      <trkpt lat="42.56511" lon="1.98376">
        <ele>2142</ele>
        <time>2018-08-02T13:16:50Z</time>
      </trkpt>
      <trkpt lat="42.5651" lon="1.98381">
        <ele>2142</ele>
        <time>2018-08-02T13:16:54Z</time>
      </trkpt>
      <trkpt lat="42.56497" lon="1.98397">
        <ele>2146</ele>
        <time>2018-08-02T13:17:07Z</time>
      </trkpt>
      <trkpt lat="42.56499" lon="1.984">
        <ele>2147</ele>
        <time>2018-08-02T13:17:11Z</time>
      </trkpt>
      <trkpt lat="42.565" lon="1.98404">
        <ele>2148</ele>
        <time>2018-08-02T13:17:14Z</time>
      </trkpt>
      <trkpt lat="42.56496" lon="1.98408">
        <ele>2150</ele>
        <time>2018-08-02T13:17:17Z</time>
      </trkpt>
      <trkpt lat="42.56493" lon="1.98413">
        <ele>2151</ele>
        <time>2018-08-02T13:17:20Z</time>
      </trkpt>
      <trkpt lat="42.56489" lon="1.98416">
        <ele>2150</ele>
        <time>2018-08-02T13:17:24Z</time>
      </trkpt>
      <trkpt lat="42.5648" lon="1.9843">
        <ele>2148</ele>
        <time>2018-08-02T13:17:35Z</time>
      </trkpt>
      <trkpt lat="42.5648" lon="1.98434">
        <ele>2148</ele>
        <time>2018-08-02T13:17:39Z</time>
      </trkpt>
      <trkpt lat="42.56483" lon="1.98443">
        <ele>2144</ele>
        <time>2018-08-02T13:17:47Z</time>
      </trkpt>
      <trkpt lat="42.56481" lon="1.98453">
        <ele>2143</ele>
        <time>2018-08-02T13:17:51Z</time>
      </trkpt>
      <trkpt lat="42.56483" lon="1.98457">
        <ele>2142</ele>
        <time>2018-08-02T13:17:56Z</time>
      </trkpt>
      <trkpt lat="42.56477" lon="1.98465">
        <ele>2142</ele>
        <time>2018-08-02T13:18:01Z</time>
      </trkpt>
      <trkpt lat="42.56477" lon="1.9847">
        <ele>2143</ele>
        <time>2018-08-02T13:18:04Z</time>
      </trkpt>
      <trkpt lat="42.56476" lon="1.98475">
        <ele>2143</ele>
        <time>2018-08-02T13:18:08Z</time>
      </trkpt>
      <trkpt lat="42.56473" lon="1.98487">
        <ele>2144</ele>
        <time>2018-08-02T13:18:17Z</time>
      </trkpt>
      <trkpt lat="42.56468" lon="1.98498">
        <ele>2143</ele>
        <time>2018-08-02T13:18:24Z</time>
      </trkpt>
      <trkpt lat="42.56464" lon="1.98499">
        <ele>2144</ele>
        <time>2018-08-02T13:18:28Z</time>
      </trkpt>
      <trkpt lat="42.56462" lon="1.98503">
        <ele>2146</ele>
        <time>2018-08-02T13:18:31Z</time>
      </trkpt>
      <trkpt lat="42.56459" lon="1.98505">
        <ele>2147</ele>
        <time>2018-08-02T13:18:36Z</time>
      </trkpt>
      <trkpt lat="42.56455" lon="1.98507">
        <ele>2147</ele>
        <time>2018-08-02T13:18:38Z</time>
      </trkpt>
      <trkpt lat="42.56439" lon="1.98526">
        <ele>2149</ele>
        <time>2018-08-02T13:18:58Z</time>
      </trkpt>
      <trkpt lat="42.56435" lon="1.98533">
        <ele>2147</ele>
        <time>2018-08-02T13:19:06Z</time>
      </trkpt>
      <trkpt lat="42.56434" lon="1.98537">
        <ele>2147</ele>
        <time>2018-08-02T13:19:10Z</time>
      </trkpt>
      <trkpt lat="42.56433" lon="1.98541">
        <ele>2146</ele>
        <time>2018-08-02T13:19:12Z</time>
      </trkpt>
      <trkpt lat="42.56434" lon="1.98546">
        <ele>2146</ele>
        <time>2018-08-02T13:19:16Z</time>
      </trkpt>
      <trkpt lat="42.56432" lon="1.98556">
        <ele>2145</ele>
        <time>2018-08-02T13:19:29Z</time>
      </trkpt>
      <trkpt lat="42.56425" lon="1.98565">
        <ele>2144</ele>
        <time>2018-08-02T13:19:35Z</time>
      </trkpt>
      <trkpt lat="42.56421" lon="1.98567">
        <ele>2145</ele>
        <time>2018-08-02T13:19:38Z</time>
      </trkpt>
      <trkpt lat="42.56418" lon="1.98571">
        <ele>2144</ele>
        <time>2018-08-02T13:19:41Z</time>
      </trkpt>
      <trkpt lat="42.56414" lon="1.98571">
        <ele>2143</ele>
        <time>2018-08-02T13:19:44Z</time>
      </trkpt>
      <trkpt lat="42.56412" lon="1.98576">
        <ele>2142</ele>
        <time>2018-08-02T13:19:47Z</time>
      </trkpt>
      <trkpt lat="42.56404" lon="1.98587">
        <ele>2144</ele>
        <time>2018-08-02T13:19:57Z</time>
      </trkpt>
      <trkpt lat="42.564" lon="1.98586">
        <ele>2144</ele>
        <time>2018-08-02T13:20:03Z</time>
      </trkpt>
      <trkpt lat="42.56396" lon="1.98589">
        <ele>2141</ele>
        <time>2018-08-02T13:20:07Z</time>
      </trkpt>
      <trkpt lat="42.56394" lon="1.9859">
        <ele>2141</ele>
        <time>2018-08-02T13:20:10Z</time>
      </trkpt>
      <trkpt lat="42.5639" lon="1.98593">
        <ele>2141</ele>
        <time>2018-08-02T13:20:13Z</time>
      </trkpt>
      <trkpt lat="42.56377" lon="1.98603">
        <ele>2140</ele>
        <time>2018-08-02T13:20:26Z</time>
      </trkpt>
      <trkpt lat="42.56375" lon="1.98608">
        <ele>2141</ele>
        <time>2018-08-02T13:20:30Z</time>
      </trkpt>
      <trkpt lat="42.56372" lon="1.98609">
        <ele>2141</ele>
        <time>2018-08-02T13:20:33Z</time>
      </trkpt>
      <trkpt lat="42.56373" lon="1.98614">
        <ele>2141</ele>
        <time>2018-08-02T13:20:37Z</time>
      </trkpt>
      <trkpt lat="42.56371" lon="1.98617">
        <ele>2142</ele>
        <time>2018-08-02T13:20:42Z</time>
      </trkpt>
      <trkpt lat="42.56369" lon="1.98618">
        <ele>2141</ele>
        <time>2018-08-02T13:20:49Z</time>
      </trkpt>
      <trkpt lat="42.56368" lon="1.98622">
        <ele>2140</ele>
        <time>2018-08-02T13:20:51Z</time>
      </trkpt>
      <trkpt lat="42.56361" lon="1.98621">
        <ele>2139</ele>
        <time>2018-08-02T13:20:58Z</time>
      </trkpt>
      <trkpt lat="42.56359" lon="1.98623">
        <ele>2138</ele>
        <time>2018-08-02T13:21:01Z</time>
      </trkpt>
      <trkpt lat="42.56354" lon="1.98626">
        <ele>2136</ele>
        <time>2018-08-02T13:21:07Z</time>
      </trkpt>
      <trkpt lat="42.56352" lon="1.98629">
        <ele>2135</ele>
        <time>2018-08-02T13:21:10Z</time>
      </trkpt>
      <trkpt lat="42.56349" lon="1.98631">
        <ele>2133</ele>
        <time>2018-08-02T13:21:16Z</time>
      </trkpt>
      <trkpt lat="42.56344" lon="1.98638">
        <ele>2129</ele>
        <time>2018-08-02T13:21:22Z</time>
      </trkpt>
      <trkpt lat="42.5634" lon="1.98639">
        <ele>2128</ele>
        <time>2018-08-02T13:21:25Z</time>
      </trkpt>
      <trkpt lat="42.56339" lon="1.98656">
        <ele>2130</ele>
        <time>2018-08-02T13:21:46Z</time>
      </trkpt>
      <trkpt lat="42.56338" lon="1.9866">
        <ele>2130</ele>
        <time>2018-08-02T13:21:50Z</time>
      </trkpt>
      <trkpt lat="42.56338" lon="1.98664">
        <ele>2129</ele>
        <time>2018-08-02T13:21:57Z</time>
      </trkpt>
      <trkpt lat="42.56335" lon="1.98666">
        <ele>2129</ele>
        <time>2018-08-02T13:22:01Z</time>
      </trkpt>
      <trkpt lat="42.56333" lon="1.98669">
        <ele>2128</ele>
        <time>2018-08-02T13:22:06Z</time>
      </trkpt>
      <trkpt lat="42.56332" lon="1.98673">
        <ele>2127</ele>
        <time>2018-08-02T13:22:10Z</time>
      </trkpt>
      <trkpt lat="42.56327" lon="1.98684">
        <ele>2126</ele>
        <time>2018-08-02T13:22:22Z</time>
      </trkpt>
      <trkpt lat="42.56325" lon="1.98687">
        <ele>2126</ele>
        <time>2018-08-02T13:22:26Z</time>
      </trkpt>
      <trkpt lat="42.56323" lon="1.98689">
        <ele>2124</ele>
        <time>2018-08-02T13:22:31Z</time>
      </trkpt>
      <trkpt lat="42.56323" lon="1.98693">
        <ele>2124</ele>
        <time>2018-08-02T13:22:38Z</time>
      </trkpt>
      <trkpt lat="42.56316" lon="1.98703">
        <ele>2124</ele>
        <time>2018-08-02T13:22:52Z</time>
      </trkpt>
      <trkpt lat="42.56315" lon="1.98707">
        <ele>2125</ele>
        <time>2018-08-02T13:22:58Z</time>
      </trkpt>
      <trkpt lat="42.56313" lon="1.98711">
        <ele>2127</ele>
        <time>2018-08-02T13:23:00Z</time>
      </trkpt>
      <trkpt lat="42.56309" lon="1.98712">
        <ele>2126</ele>
        <time>2018-08-02T13:23:05Z</time>
      </trkpt>
      <trkpt lat="42.56307" lon="1.98715">
        <ele>2126</ele>
        <time>2018-08-02T13:23:07Z</time>
      </trkpt>
      <trkpt lat="42.56304" lon="1.98717">
        <ele>2126</ele>
        <time>2018-08-02T13:23:10Z</time>
      </trkpt>
      <trkpt lat="42.56303" lon="1.9872">
        <ele>2126</ele>
        <time>2018-08-02T13:23:12Z</time>
      </trkpt>
      <trkpt lat="42.56301" lon="1.98723">
        <ele>2126</ele>
        <time>2018-08-02T13:23:14Z</time>
      </trkpt>
      <trkpt lat="42.56293" lon="1.98726">
        <ele>2127</ele>
        <time>2018-08-02T13:23:20Z</time>
      </trkpt>
      <trkpt lat="42.56286" lon="1.98724">
        <ele>2126</ele>
        <time>2018-08-02T13:23:27Z</time>
      </trkpt>
      <trkpt lat="42.56283" lon="1.98724">
        <ele>2126</ele>
        <time>2018-08-02T13:23:30Z</time>
      </trkpt>
      <trkpt lat="42.5627" lon="1.98744">
        <ele>2116</ele>
        <time>2018-08-02T13:23:59Z</time>
      </trkpt>
      <trkpt lat="42.56265" lon="1.98748">
        <ele>2115</ele>
        <time>2018-08-02T13:24:08Z</time>
      </trkpt>
      <trkpt lat="42.56264" lon="1.98752">
        <ele>2115</ele>
        <time>2018-08-02T13:24:13Z</time>
      </trkpt>
      <trkpt lat="42.56262" lon="1.98755">
        <ele>2115</ele>
        <time>2018-08-02T13:24:19Z</time>
      </trkpt>
      <trkpt lat="42.56259" lon="1.98763">
        <ele>2113</ele>
        <time>2018-08-02T13:24:29Z</time>
      </trkpt>
      <trkpt lat="42.56262" lon="1.98766">
        <ele>2112</ele>
        <time>2018-08-02T13:24:31Z</time>
      </trkpt>
      <trkpt lat="42.5626" lon="1.9877">
        <ele>2110</ele>
        <time>2018-08-02T13:24:36Z</time>
      </trkpt>
      <trkpt lat="42.5626" lon="1.98774">
        <ele>2107</ele>
        <time>2018-08-02T13:24:41Z</time>
      </trkpt>
      <trkpt lat="42.56256" lon="1.98781">
        <ele>2104</ele>
        <time>2018-08-02T13:24:50Z</time>
      </trkpt>
      <trkpt lat="42.56254" lon="1.98788">
        <ele>2103</ele>
        <time>2018-08-02T13:24:54Z</time>
      </trkpt>
      <trkpt lat="42.56253" lon="1.98792">
        <ele>2103</ele>
        <time>2018-08-02T13:24:56Z</time>
      </trkpt>
      <trkpt lat="42.56239" lon="1.98803">
        <ele>2104</ele>
        <time>2018-08-02T13:25:13Z</time>
      </trkpt>
      <trkpt lat="42.56232" lon="1.98804">
        <ele>2105</ele>
        <time>2018-08-02T13:25:18Z</time>
      </trkpt>
      <trkpt lat="42.56228" lon="1.98807">
        <ele>2107</ele>
        <time>2018-08-02T13:25:23Z</time>
      </trkpt>
      <trkpt lat="42.56227" lon="1.98811">
        <ele>2107</ele>
        <time>2018-08-02T13:25:27Z</time>
      </trkpt>
      <trkpt lat="42.56223" lon="1.98813">
        <ele>2106</ele>
        <time>2018-08-02T13:25:30Z</time>
      </trkpt>
      <trkpt lat="42.5622" lon="1.98815">
        <ele>2106</ele>
        <time>2018-08-02T13:25:32Z</time>
      </trkpt>
      <trkpt lat="42.56216" lon="1.98816">
        <ele>2108</ele>
        <time>2018-08-02T13:25:35Z</time>
      </trkpt>
      <trkpt lat="42.56209" lon="1.98822">
        <ele>2108</ele>
        <time>2018-08-02T13:25:47Z</time>
      </trkpt>
      <trkpt lat="42.56203" lon="1.98825">
        <ele>2108</ele>
        <time>2018-08-02T13:25:52Z</time>
      </trkpt>
      <trkpt lat="42.56201" lon="1.98828">
        <ele>2107</ele>
        <time>2018-08-02T13:25:56Z</time>
      </trkpt>
      <trkpt lat="42.562" lon="1.98833">
        <ele>2106</ele>
        <time>2018-08-02T13:25:59Z</time>
      </trkpt>
      <trkpt lat="42.56197" lon="1.9884">
        <ele>2103</ele>
        <time>2018-08-02T13:26:10Z</time>
      </trkpt>
      <trkpt lat="42.56196" lon="1.98844">
        <ele>2105</ele>
        <time>2018-08-02T13:26:14Z</time>
      </trkpt>
      <trkpt lat="42.56196" lon="1.98848">
        <ele>2105</ele>
        <time>2018-08-02T13:26:18Z</time>
      </trkpt>
      <trkpt lat="42.5619" lon="1.98852">
        <ele>2103</ele>
        <time>2018-08-02T13:26:22Z</time>
      </trkpt>
      <trkpt lat="42.56189" lon="1.98856">
        <ele>2100</ele>
        <time>2018-08-02T13:26:28Z</time>
      </trkpt>
      <trkpt lat="42.56186" lon="1.98855">
        <ele>2099</ele>
        <time>2018-08-02T13:26:32Z</time>
      </trkpt>
      <trkpt lat="42.56183" lon="1.98857">
        <ele>2099</ele>
        <time>2018-08-02T13:26:41Z</time>
      </trkpt>
      <trkpt lat="42.56184" lon="1.9886">
        <ele>2099</ele>
        <time>2018-08-02T13:26:47Z</time>
      </trkpt>
      <trkpt lat="42.56184" lon="1.98864">
        <ele>2098</ele>
        <time>2018-08-02T13:26:52Z</time>
      </trkpt>
      <trkpt lat="42.56174" lon="1.98873">
        <ele>2097</ele>
        <time>2018-08-02T13:27:01Z</time>
      </trkpt>
      <trkpt lat="42.56172" lon="1.98876">
        <ele>2096</ele>
        <time>2018-08-02T13:27:04Z</time>
      </trkpt>
      <trkpt lat="42.56173" lon="1.98883">
        <ele>2094</ele>
        <time>2018-08-02T13:27:06Z</time>
      </trkpt>
      <trkpt lat="42.5617" lon="1.98887">
        <ele>2093</ele>
        <time>2018-08-02T13:27:08Z</time>
      </trkpt>
      <trkpt lat="42.56166" lon="1.98888">
        <ele>2093</ele>
        <time>2018-08-02T13:27:10Z</time>
      </trkpt>
      <trkpt lat="42.56164" lon="1.98889">
        <ele>2093</ele>
        <time>2018-08-02T13:27:14Z</time>
      </trkpt>
      <trkpt lat="42.56162" lon="1.98893">
        <ele>2092</ele>
        <time>2018-08-02T13:27:17Z</time>
      </trkpt>
      <trkpt lat="42.5616" lon="1.98898">
        <ele>2092</ele>
        <time>2018-08-02T13:27:20Z</time>
      </trkpt>
      <trkpt lat="42.56156" lon="1.98903">
        <ele>2091</ele>
        <time>2018-08-02T13:27:25Z</time>
      </trkpt>
      <trkpt lat="42.56151" lon="1.98905">
        <ele>2090</ele>
        <time>2018-08-02T13:27:29Z</time>
      </trkpt>
      <trkpt lat="42.56147" lon="1.98913">
        <ele>2091</ele>
        <time>2018-08-02T13:27:35Z</time>
      </trkpt>
      <trkpt lat="42.56146" lon="1.98918">
        <ele>2093</ele>
        <time>2018-08-02T13:27:38Z</time>
      </trkpt>
      <trkpt lat="42.56143" lon="1.9892">
        <ele>2093</ele>
        <time>2018-08-02T13:27:40Z</time>
      </trkpt>
      <trkpt lat="42.56136" lon="1.98925">
        <ele>2092</ele>
        <time>2018-08-02T13:27:44Z</time>
      </trkpt>
      <trkpt lat="42.5613" lon="1.98935">
        <ele>2094</ele>
        <time>2018-08-02T13:27:52Z</time>
      </trkpt>
      <trkpt lat="42.56126" lon="1.98936">
        <ele>2092</ele>
        <time>2018-08-02T13:27:55Z</time>
      </trkpt>
      <trkpt lat="42.56124" lon="1.9894">
        <ele>2090</ele>
        <time>2018-08-02T13:27:58Z</time>
      </trkpt>
      <trkpt lat="42.56119" lon="1.98944">
        <ele>2090</ele>
        <time>2018-08-02T13:28:03Z</time>
      </trkpt>
      <trkpt lat="42.5612" lon="1.98948">
        <ele>2090</ele>
        <time>2018-08-02T13:28:06Z</time>
      </trkpt>
      <trkpt lat="42.56119" lon="1.98952">
        <ele>2090</ele>
        <time>2018-08-02T13:28:08Z</time>
      </trkpt>
      <trkpt lat="42.56121" lon="1.98955">
        <ele>2091</ele>
        <time>2018-08-02T13:28:10Z</time>
      </trkpt>
      <trkpt lat="42.56118" lon="1.9896">
        <ele>2091</ele>
        <time>2018-08-02T13:28:13Z</time>
      </trkpt>
      <trkpt lat="42.56117" lon="1.98964">
        <ele>2089</ele>
        <time>2018-08-02T13:28:17Z</time>
      </trkpt>
      <trkpt lat="42.56116" lon="1.98968">
        <ele>2088</ele>
        <time>2018-08-02T13:28:21Z</time>
      </trkpt>
      <trkpt lat="42.56116" lon="1.98973">
        <ele>2087</ele>
        <time>2018-08-02T13:28:24Z</time>
      </trkpt>
      <trkpt lat="42.56107" lon="1.9898">
        <ele>2087</ele>
        <time>2018-08-02T13:28:30Z</time>
      </trkpt>
      <trkpt lat="42.56103" lon="1.98989">
        <ele>2086</ele>
        <time>2018-08-02T13:28:39Z</time>
      </trkpt>
      <trkpt lat="42.56097" lon="1.98998">
        <ele>2087</ele>
        <time>2018-08-02T13:28:47Z</time>
      </trkpt>
      <trkpt lat="42.56094" lon="1.99006">
        <ele>2087</ele>
        <time>2018-08-02T13:28:50Z</time>
      </trkpt>
      <trkpt lat="42.56091" lon="1.99011">
        <ele>2086</ele>
        <time>2018-08-02T13:28:55Z</time>
      </trkpt>
      <trkpt lat="42.56085" lon="1.9902">
        <ele>2086</ele>
        <time>2018-08-02T13:29:02Z</time>
      </trkpt>
      <trkpt lat="42.56082" lon="1.99022">
        <ele>2087</ele>
        <time>2018-08-02T13:29:05Z</time>
      </trkpt>
      <trkpt lat="42.56077" lon="1.99026">
        <ele>2087</ele>
        <time>2018-08-02T13:29:08Z</time>
      </trkpt>
      <trkpt lat="42.56069" lon="1.99031">
        <ele>2087</ele>
        <time>2018-08-02T13:29:14Z</time>
      </trkpt>
      <trkpt lat="42.56067" lon="1.99035">
        <ele>2084</ele>
        <time>2018-08-02T13:29:18Z</time>
      </trkpt>
      <trkpt lat="42.56065" lon="1.9904">
        <ele>2082</ele>
        <time>2018-08-02T13:29:21Z</time>
      </trkpt>
      <trkpt lat="42.56063" lon="1.99041">
        <ele>2082</ele>
        <time>2018-08-02T13:29:22Z</time>
      </trkpt>
      <trkpt lat="42.56058" lon="1.99054">
        <ele>2083</ele>
        <time>2018-08-02T13:29:31Z</time>
      </trkpt>
      <trkpt lat="42.56054" lon="1.99055">
        <ele>2085</ele>
        <time>2018-08-02T13:29:33Z</time>
      </trkpt>
      <trkpt lat="42.56052" lon="1.99058">
        <ele>2086</ele>
        <time>2018-08-02T13:29:36Z</time>
      </trkpt>
      <trkpt lat="42.56044" lon="1.99064">
        <ele>2087</ele>
        <time>2018-08-02T13:29:43Z</time>
      </trkpt>
      <trkpt lat="42.56035" lon="1.99071">
        <ele>2085</ele>
        <time>2018-08-02T13:29:51Z</time>
      </trkpt>
      <trkpt lat="42.56032" lon="1.99078">
        <ele>2085</ele>
        <time>2018-08-02T13:29:56Z</time>
      </trkpt>
      <trkpt lat="42.56034" lon="1.99087">
        <ele>2080</ele>
        <time>2018-08-02T13:30:01Z</time>
      </trkpt>
      <trkpt lat="42.56032" lon="1.99093">
        <ele>2079</ele>
        <time>2018-08-02T13:30:05Z</time>
      </trkpt>
      <trkpt lat="42.56033" lon="1.99098">
        <ele>2078</ele>
        <time>2018-08-02T13:30:13Z</time>
      </trkpt>
      <trkpt lat="42.56031" lon="1.991">
        <ele>2078</ele>
        <time>2018-08-02T13:30:16Z</time>
      </trkpt>
      <trkpt lat="42.56025" lon="1.99105">
        <ele>2079</ele>
        <time>2018-08-02T13:30:26Z</time>
      </trkpt>
      <trkpt lat="42.56023" lon="1.9911">
        <ele>2079</ele>
        <time>2018-08-02T13:30:30Z</time>
      </trkpt>
      <trkpt lat="42.56025" lon="1.9912">
        <ele>2076</ele>
        <time>2018-08-02T13:30:36Z</time>
      </trkpt>
      <trkpt lat="42.56023" lon="1.99125">
        <ele>2075</ele>
        <time>2018-08-02T13:30:39Z</time>
      </trkpt>
      <trkpt lat="42.56022" lon="1.9913">
        <ele>2075</ele>
        <time>2018-08-02T13:30:43Z</time>
      </trkpt>
      <trkpt lat="42.5602" lon="1.99135">
        <ele>2073</ele>
        <time>2018-08-02T13:30:47Z</time>
      </trkpt>
      <trkpt lat="42.5602" lon="1.99139">
        <ele>2072</ele>
        <time>2018-08-02T13:30:50Z</time>
      </trkpt>
      <trkpt lat="42.5602" lon="1.99145">
        <ele>2072</ele>
        <time>2018-08-02T13:30:54Z</time>
      </trkpt>
      <trkpt lat="42.56017" lon="1.99149">
        <ele>2072</ele>
        <time>2018-08-02T13:30:56Z</time>
      </trkpt>
      <trkpt lat="42.56015" lon="1.99154">
        <ele>2069</ele>
        <time>2018-08-02T13:31:00Z</time>
      </trkpt>
      <trkpt lat="42.56011" lon="1.99167">
        <ele>2072</ele>
        <time>2018-08-02T13:31:07Z</time>
      </trkpt>
      <trkpt lat="42.56012" lon="1.99173">
        <ele>2076</ele>
        <time>2018-08-02T13:31:11Z</time>
      </trkpt>
      <trkpt lat="42.56015" lon="1.99185">
        <ele>2075</ele>
        <time>2018-08-02T13:31:17Z</time>
      </trkpt>
      <trkpt lat="42.56011" lon="1.99187">
        <ele>2074</ele>
        <time>2018-08-02T13:31:19Z</time>
      </trkpt>
      <trkpt lat="42.56008" lon="1.99191">
        <ele>2074</ele>
        <time>2018-08-02T13:31:21Z</time>
      </trkpt>
      <trkpt lat="42.56006" lon="1.99195">
        <ele>2074</ele>
        <time>2018-08-02T13:31:23Z</time>
      </trkpt>
      <trkpt lat="42.56006" lon="1.992">
        <ele>2072</ele>
        <time>2018-08-02T13:31:25Z</time>
      </trkpt>
      <trkpt lat="42.56007" lon="1.99207">
        <ele>2070</ele>
        <time>2018-08-02T13:31:28Z</time>
      </trkpt>
      <trkpt lat="42.56001" lon="1.99223">
        <ele>2065</ele>
        <time>2018-08-02T13:31:38Z</time>
      </trkpt>
      <trkpt lat="42.56" lon="1.99228">
        <ele>2064</ele>
        <time>2018-08-02T13:31:41Z</time>
      </trkpt>
      <trkpt lat="42.55999" lon="1.99233">
        <ele>2063</ele>
        <time>2018-08-02T13:31:46Z</time>
      </trkpt>
      <trkpt lat="42.56" lon="1.99238">
        <ele>2064</ele>
        <time>2018-08-02T13:31:49Z</time>
      </trkpt>
      <trkpt lat="42.55998" lon="1.99242">
        <ele>2064</ele>
        <time>2018-08-02T13:31:51Z</time>
      </trkpt>
      <trkpt lat="42.55997" lon="1.99246">
        <ele>2065</ele>
        <time>2018-08-02T13:31:53Z</time>
      </trkpt>
      <trkpt lat="42.55995" lon="1.99249">
        <ele>2066</ele>
        <time>2018-08-02T13:31:55Z</time>
      </trkpt>
      <trkpt lat="42.55995" lon="1.99254">
        <ele>2067</ele>
        <time>2018-08-02T13:31:58Z</time>
      </trkpt>
      <trkpt lat="42.55996" lon="1.99258">
        <ele>2067</ele>
        <time>2018-08-02T13:32:00Z</time>
      </trkpt>
      <trkpt lat="42.55998" lon="1.99261">
        <ele>2067</ele>
        <time>2018-08-02T13:32:05Z</time>
      </trkpt>
      <trkpt lat="42.55994" lon="1.99274">
        <ele>2067</ele>
        <time>2018-08-02T13:32:12Z</time>
      </trkpt>
      <trkpt lat="42.55996" lon="1.99278">
        <ele>2067</ele>
        <time>2018-08-02T13:32:15Z</time>
      </trkpt>
      <trkpt lat="42.56001" lon="1.9929">
        <ele>2069</ele>
        <time>2018-08-02T13:32:27Z</time>
      </trkpt>
      <trkpt lat="42.56001" lon="1.99295">
        <ele>2070</ele>
        <time>2018-08-02T13:32:30Z</time>
      </trkpt>
      <trkpt lat="42.56002" lon="1.99305">
        <ele>2071</ele>
        <time>2018-08-02T13:32:37Z</time>
      </trkpt>
      <trkpt lat="42.56004" lon="1.99308">
        <ele>2071</ele>
        <time>2018-08-02T13:32:39Z</time>
      </trkpt>
      <trkpt lat="42.56005" lon="1.99326">
        <ele>2072</ele>
        <time>2018-08-02T13:32:49Z</time>
      </trkpt>
      <trkpt lat="42.56009" lon="1.99333">
        <ele>2070</ele>
        <time>2018-08-02T13:32:53Z</time>
      </trkpt>
      <trkpt lat="42.56008" lon="1.99337">
        <ele>2070</ele>
        <time>2018-08-02T13:32:56Z</time>
      </trkpt>
      <trkpt lat="42.5601" lon="1.9934">
        <ele>2069</ele>
        <time>2018-08-02T13:32:59Z</time>
      </trkpt>
      <trkpt lat="42.56014" lon="1.99345">
        <ele>2069</ele>
        <time>2018-08-02T13:33:02Z</time>
      </trkpt>
      <trkpt lat="42.56007" lon="1.99362">
        <ele>2077</ele>
        <time>2018-08-02T13:33:14Z</time>
      </trkpt>
      <trkpt lat="42.56011" lon="1.99371">
        <ele>2077</ele>
        <time>2018-08-02T13:33:19Z</time>
      </trkpt>
      <trkpt lat="42.56012" lon="1.99375">
        <ele>2077</ele>
        <time>2018-08-02T13:33:21Z</time>
      </trkpt>
      <trkpt lat="42.56014" lon="1.99378">
        <ele>2077</ele>
        <time>2018-08-02T13:33:23Z</time>
      </trkpt>
      <trkpt lat="42.56014" lon="1.99382">
        <ele>2075</ele>
        <time>2018-08-02T13:33:26Z</time>
      </trkpt>
      <trkpt lat="42.56014" lon="1.99386">
        <ele>2073</ele>
        <time>2018-08-02T13:33:28Z</time>
      </trkpt>
      <trkpt lat="42.56013" lon="1.99391">
        <ele>2072</ele>
        <time>2018-08-02T13:33:31Z</time>
      </trkpt>
      <trkpt lat="42.56014" lon="1.99395">
        <ele>2069</ele>
        <time>2018-08-02T13:33:37Z</time>
      </trkpt>
      <trkpt lat="42.56014" lon="1.99399">
        <ele>2069</ele>
        <time>2018-08-02T13:33:41Z</time>
      </trkpt>
      <trkpt lat="42.56017" lon="1.994">
        <ele>2070</ele>
        <time>2018-08-02T13:33:50Z</time>
      </trkpt>
      <trkpt lat="42.56015" lon="1.99403">
        <ele>2070</ele>
        <time>2018-08-02T13:33:55Z</time>
      </trkpt>
      <trkpt lat="42.56018" lon="1.99407">
        <ele>2069</ele>
        <time>2018-08-02T13:34:19Z</time>
      </trkpt>
      <trkpt lat="42.56016" lon="1.9941">
        <ele>2069</ele>
        <time>2018-08-02T13:34:22Z</time>
      </trkpt>
      <trkpt lat="42.56019" lon="1.99412">
        <ele>2068</ele>
        <time>2018-08-02T13:34:26Z</time>
      </trkpt>
      <trkpt lat="42.56022" lon="1.99413">
        <ele>2065</ele>
        <time>2018-08-02T13:34:29Z</time>
      </trkpt>
      <trkpt lat="42.56025" lon="1.99416">
        <ele>2064</ele>
        <time>2018-08-02T13:34:31Z</time>
      </trkpt>
      <trkpt lat="42.56029" lon="1.99425">
        <ele>2063</ele>
        <time>2018-08-02T13:34:37Z</time>
      </trkpt>
      <trkpt lat="42.56034" lon="1.9944">
        <ele>2064</ele>
        <time>2018-08-02T13:34:50Z</time>
      </trkpt>
      <trkpt lat="42.56035" lon="1.99444">
        <ele>2062</ele>
        <time>2018-08-02T13:34:59Z</time>
      </trkpt>
      <trkpt lat="42.56032" lon="1.99455">
        <ele>2062</ele>
        <time>2018-08-02T13:35:21Z</time>
      </trkpt>
      <trkpt lat="42.56031" lon="1.99461">
        <ele>2058</ele>
        <time>2018-08-02T13:35:28Z</time>
      </trkpt>
      <trkpt lat="42.56029" lon="1.99464">
        <ele>2057</ele>
        <time>2018-08-02T13:35:30Z</time>
      </trkpt>
      <trkpt lat="42.56027" lon="1.99466">
        <ele>2056</ele>
        <time>2018-08-02T13:35:33Z</time>
      </trkpt>
      <trkpt lat="42.56023" lon="1.99466">
        <ele>2055</ele>
        <time>2018-08-02T13:35:36Z</time>
      </trkpt>
      <trkpt lat="42.56021" lon="1.99475">
        <ele>2053</ele>
        <time>2018-08-02T13:35:44Z</time>
      </trkpt>
      <trkpt lat="42.56021" lon="1.99479">
        <ele>2052</ele>
        <time>2018-08-02T13:35:50Z</time>
      </trkpt>
      <trkpt lat="42.56025" lon="1.99486">
        <ele>2048</ele>
        <time>2018-08-02T13:35:59Z</time>
      </trkpt>
      <trkpt lat="42.56028" lon="1.99494">
        <ele>2047</ele>
        <time>2018-08-02T13:36:09Z</time>
      </trkpt>
      <trkpt lat="42.56028" lon="1.99498">
        <ele>2045</ele>
        <time>2018-08-02T13:36:15Z</time>
      </trkpt>
      <trkpt lat="42.56029" lon="1.99502">
        <ele>2045</ele>
        <time>2018-08-02T13:36:21Z</time>
      </trkpt>
      <trkpt lat="42.56025" lon="1.99509">
        <ele>2046</ele>
        <time>2018-08-02T13:36:30Z</time>
      </trkpt>
      <trkpt lat="42.56022" lon="1.99516">
        <ele>2045</ele>
        <time>2018-08-02T13:36:36Z</time>
      </trkpt>
      <trkpt lat="42.56023" lon="1.99521">
        <ele>2041</ele>
        <time>2018-08-02T13:36:39Z</time>
      </trkpt>
      <trkpt lat="42.56021" lon="1.99524">
        <ele>2040</ele>
        <time>2018-08-02T13:36:42Z</time>
      </trkpt>
      <trkpt lat="42.56016" lon="1.99528">
        <ele>2039</ele>
        <time>2018-08-02T13:36:46Z</time>
      </trkpt>
      <trkpt lat="42.56016" lon="1.99532">
        <ele>2038</ele>
        <time>2018-08-02T13:36:49Z</time>
      </trkpt>
      <trkpt lat="42.56014" lon="1.99537">
        <ele>2036</ele>
        <time>2018-08-02T13:36:53Z</time>
      </trkpt>
      <trkpt lat="42.56014" lon="1.99542">
        <ele>2037</ele>
        <time>2018-08-02T13:36:56Z</time>
      </trkpt>
      <trkpt lat="42.56012" lon="1.99545">
        <ele>2038</ele>
        <time>2018-08-02T13:36:58Z</time>
      </trkpt>
      <trkpt lat="42.56011" lon="1.99548">
        <ele>2038</ele>
        <time>2018-08-02T13:37:00Z</time>
      </trkpt>
      <trkpt lat="42.56011" lon="1.99553">
        <ele>2038</ele>
        <time>2018-08-02T13:37:03Z</time>
      </trkpt>
      <trkpt lat="42.56011" lon="1.99557">
        <ele>2038</ele>
        <time>2018-08-02T13:37:06Z</time>
      </trkpt>
      <trkpt lat="42.56009" lon="1.99562">
        <ele>2038</ele>
        <time>2018-08-02T13:37:09Z</time>
      </trkpt>
      <trkpt lat="42.56009" lon="1.99567">
        <ele>2038</ele>
        <time>2018-08-02T13:37:12Z</time>
      </trkpt>
      <trkpt lat="42.56007" lon="1.99572">
        <ele>2040</ele>
        <time>2018-08-02T13:37:16Z</time>
      </trkpt>
      <trkpt lat="42.56005" lon="1.99576">
        <ele>2039</ele>
        <time>2018-08-02T13:37:19Z</time>
      </trkpt>
      <trkpt lat="42.56005" lon="1.9958">
        <ele>2039</ele>
        <time>2018-08-02T13:37:22Z</time>
      </trkpt>
      <trkpt lat="42.56007" lon="1.99583">
        <ele>2040</ele>
        <time>2018-08-02T13:37:26Z</time>
      </trkpt>
      <trkpt lat="42.56006" lon="1.99587">
        <ele>2040</ele>
        <time>2018-08-02T13:37:29Z</time>
      </trkpt>
      <trkpt lat="42.56005" lon="1.99596">
        <ele>2040</ele>
        <time>2018-08-02T13:37:34Z</time>
      </trkpt>
      <trkpt lat="42.56003" lon="1.99599">
        <ele>2039</ele>
        <time>2018-08-02T13:37:36Z</time>
      </trkpt>
      <trkpt lat="42.56004" lon="1.99603">
        <ele>2039</ele>
        <time>2018-08-02T13:37:40Z</time>
      </trkpt>
      <trkpt lat="42.56001" lon="1.99607">
        <ele>2038</ele>
        <time>2018-08-02T13:37:41Z</time>
      </trkpt>
      <trkpt lat="42.56" lon="1.9961">
        <ele>2037</ele>
        <time>2018-08-02T13:37:45Z</time>
      </trkpt>
      <trkpt lat="42.56" lon="1.99625">
        <ele>2035</ele>
        <time>2018-08-02T13:37:55Z</time>
      </trkpt>
      <trkpt lat="42.56006" lon="1.99631">
        <ele>2034</ele>
        <time>2018-08-02T13:38:04Z</time>
      </trkpt>
      <trkpt lat="42.5601" lon="1.99636">
        <ele>2035</ele>
        <time>2018-08-02T13:38:11Z</time>
      </trkpt>
      <trkpt lat="42.56014" lon="1.99644">
        <ele>2035</ele>
        <time>2018-08-02T13:38:18Z</time>
      </trkpt>
      <trkpt lat="42.56017" lon="1.99647">
        <ele>2036</ele>
        <time>2018-08-02T13:38:20Z</time>
      </trkpt>
      <trkpt lat="42.5602" lon="1.99648">
        <ele>2037</ele>
        <time>2018-08-02T13:38:22Z</time>
      </trkpt>
      <trkpt lat="42.5602" lon="1.99652">
        <ele>2037</ele>
        <time>2018-08-02T13:38:26Z</time>
      </trkpt>
      <trkpt lat="42.56019" lon="1.99655">
        <ele>2036</ele>
        <time>2018-08-02T13:40:46Z</time>
      </trkpt>
      <trkpt lat="42.56017" lon="1.99655">
        <ele>2038</ele>
        <time>2018-08-02T13:40:53Z</time>
      </trkpt>
      <trkpt lat="42.56014" lon="1.99657">
        <ele>2037</ele>
        <time>2018-08-02T13:41:01Z</time>
      </trkpt>
      <trkpt lat="42.56011" lon="1.99658">
        <ele>2039</ele>
        <time>2018-08-02T13:41:11Z</time>
      </trkpt>
      <trkpt lat="42.5601" lon="1.99661">
        <ele>2039</ele>
        <time>2018-08-02T13:42:08Z</time>
      </trkpt>
      <trkpt lat="42.56011" lon="1.99662">
        <ele>2037</ele>
        <time>2018-08-02T13:43:04Z</time>
      </trkpt>
      <trkpt lat="42.56012" lon="1.99657">
        <ele>2036</ele>
        <time>2018-08-02T13:43:23Z</time>
      </trkpt>
      <trkpt lat="42.56016" lon="1.99656">
        <ele>2033</ele>
        <time>2018-08-02T13:44:02Z</time>
      </trkpt>
      <trkpt lat="42.56019" lon="1.99658">
        <ele>2034</ele>
        <time>2018-08-02T13:44:05Z</time>
      </trkpt>
      <trkpt lat="42.56025" lon="1.99664">
        <ele>2034</ele>
        <time>2018-08-02T13:44:12Z</time>
      </trkpt>
      <trkpt lat="42.56029" lon="1.99668">
        <ele>2034</ele>
        <time>2018-08-02T13:44:15Z</time>
      </trkpt>
      <trkpt lat="42.56031" lon="1.99672">
        <ele>2034</ele>
        <time>2018-08-02T13:44:21Z</time>
      </trkpt>
      <trkpt lat="42.56039" lon="1.99688">
        <ele>2035</ele>
        <time>2018-08-02T13:44:35Z</time>
      </trkpt>
      <trkpt lat="42.56041" lon="1.99692">
        <ele>2036</ele>
        <time>2018-08-02T13:44:38Z</time>
      </trkpt>
      <trkpt lat="42.5604" lon="1.99696">
        <ele>2036</ele>
        <time>2018-08-02T13:46:00Z</time>
      </trkpt>
    </trkseg>
  </trk>
</gpx>